<?xml version="1.0" encoding="UTF-8" standalone="no" ?>
<gpx xmlns="http://www.topografix.com/GPX/1/1" xmlns:xsi="http://www.w3.org/2001/XMLSchema-instance" xsi:schemaLocation="http://www.topografix.com/GPX/1/1 http://www.topografix.com/GPX/1/1/gpx.xsd" version="1.1" creator="VisuGPX - https://www.visugpx.com">
  <metadata>
    <name>RoadTrip Moto Ecosse Juin 2021 - V3</name>
  </metadata>
  <trk>
    <name><![CDATA[WE 01 - Paris - Brügge]]></name>
    <extensions>
      <line xmlns="http://www.topografix.com/GPX/gpx_style/0/2">
        <color>FF00FF</color>
        <width>4</width>
      </line>
    </extensions>
    <trkseg>
      <trkpt lat="48.85889" lon="2.32003">
        <ele>43.44</ele>
        <time>2021-04-09T09:12:55Z</time>
      </trkpt>
      <trkpt lat="48.8572" lon="2.31877">
        <ele>46.87</ele>
        <time>2021-04-09T09:13:38Z</time>
      </trkpt>
      <trkpt lat="48.85741" lon="2.31811">
        <ele>48.39</ele>
        <time>2021-04-09T09:13:45Z</time>
      </trkpt>
      <trkpt lat="48.85756" lon="2.31752">
        <ele>45.39</ele>
        <time>2021-04-09T09:13:52Z</time>
      </trkpt>
      <trkpt lat="48.85778" lon="2.31656">
        <ele>41.01</ele>
        <time>2021-04-09T09:13:58Z</time>
      </trkpt>
      <trkpt lat="48.85796" lon="2.31537">
        <ele>40.67</ele>
        <time>2021-04-09T09:14:05Z</time>
      </trkpt>
      <trkpt lat="48.85794" lon="2.31515">
        <ele>39.34</ele>
        <time>2021-04-09T09:14:12Z</time>
      </trkpt>
      <trkpt lat="48.85804" lon="2.3147">
        <ele>38.95</ele>
        <time>2021-04-09T09:14:14Z</time>
      </trkpt>
      <trkpt lat="48.8581" lon="2.31456">
        <ele>39.73</ele>
        <time>2021-04-09T09:14:16Z</time>
      </trkpt>
      <trkpt lat="48.8582" lon="2.31445">
        <ele>40.47</ele>
        <time>2021-04-09T09:14:19Z</time>
      </trkpt>
      <trkpt lat="48.85834" lon="2.31464">
        <ele>40.26</ele>
        <time>2021-04-09T09:14:34Z</time>
      </trkpt>
      <trkpt lat="48.85837" lon="2.31465">
        <ele>39.95</ele>
        <time>2021-04-09T09:14:50Z</time>
      </trkpt>
      <trkpt lat="48.86097" lon="2.31497">
        <ele>39.19</ele>
        <time>2021-04-09T09:15:06Z</time>
      </trkpt>
      <trkpt lat="48.86289" lon="2.31517">
        <ele>34.6</ele>
        <time>2021-04-09T09:15:21Z</time>
      </trkpt>
      <trkpt lat="48.86291" lon="2.31764">
        <ele>49.38</ele>
        <time>2021-04-09T09:15:30Z</time>
      </trkpt>
      <trkpt lat="48.86289" lon="2.31795">
        <ele>39.22</ele>
        <time>2021-04-09T09:15:39Z</time>
      </trkpt>
      <trkpt lat="48.86275" lon="2.31827">
        <ele>27.53</ele>
        <time>2021-04-09T09:15:48Z</time>
      </trkpt>
      <trkpt lat="48.86253" lon="2.31899">
        <ele>33.71</ele>
        <time>2021-04-09T09:15:57Z</time>
      </trkpt>
      <trkpt lat="48.86407" lon="2.32012">
        <ele>30.08</ele>
        <time>2021-04-09T09:16:19Z</time>
      </trkpt>
      <trkpt lat="48.86415" lon="2.32034">
        <ele>31.25</ele>
        <time>2021-04-09T09:16:23Z</time>
      </trkpt>
      <trkpt lat="48.86447" lon="2.32055">
        <ele>34.09</ele>
        <time>2021-04-09T09:16:26Z</time>
      </trkpt>
      <trkpt lat="48.86466" lon="2.32075">
        <ele>34.78</ele>
        <time>2021-04-09T09:16:29Z</time>
      </trkpt>
      <trkpt lat="48.86467" lon="2.32087">
        <ele>34.95</ele>
        <time>2021-04-09T09:16:32Z</time>
      </trkpt>
      <trkpt lat="48.86472" lon="2.32102">
        <ele>35.64</ele>
        <time>2021-04-09T09:16:35Z</time>
      </trkpt>
      <trkpt lat="48.86482" lon="2.32116">
        <ele>35.77</ele>
        <time>2021-04-09T09:16:38Z</time>
      </trkpt>
      <trkpt lat="48.86508" lon="2.32138">
        <ele>36.01</ele>
        <time>2021-04-09T09:16:42Z</time>
      </trkpt>
      <trkpt lat="48.86561" lon="2.32176">
        <ele>34.33</ele>
        <time>2021-04-09T09:16:45Z</time>
      </trkpt>
      <trkpt lat="48.86597" lon="2.32196">
        <ele>36.44</ele>
        <time>2021-04-09T09:16:48Z</time>
      </trkpt>
      <trkpt lat="48.86604" lon="2.32197">
        <ele>37.24</ele>
        <time>2021-04-09T09:16:51Z</time>
      </trkpt>
      <trkpt lat="48.86662" lon="2.32197">
        <ele>42.58</ele>
        <time>2021-04-09T09:17:14Z</time>
      </trkpt>
      <trkpt lat="48.86926" lon="2.3239">
        <ele>44.67</ele>
        <time>2021-04-09T09:17:37Z</time>
      </trkpt>
      <trkpt lat="48.86921" lon="2.32408">
        <ele>43.85</ele>
        <time>2021-04-09T09:17:50Z</time>
      </trkpt>
      <trkpt lat="48.86925" lon="2.32438">
        <ele>41.45</ele>
        <time>2021-04-09T09:18:03Z</time>
      </trkpt>
      <trkpt lat="48.86951" lon="2.32579">
        <ele>44.37</ele>
        <time>2021-04-09T09:18:16Z</time>
      </trkpt>
      <trkpt lat="48.86957" lon="2.32587">
        <ele>45.19</ele>
        <time>2021-04-09T09:18:29Z</time>
      </trkpt>
      <trkpt lat="48.8701" lon="2.32905">
        <ele>49.69</ele>
        <time>2021-04-09T09:18:42Z</time>
      </trkpt>
      <trkpt lat="48.87069" lon="2.33255">
        <ele>47.9</ele>
        <time>2021-04-09T09:18:55Z</time>
      </trkpt>
      <trkpt lat="48.87116" lon="2.33234">
        <ele>50.02</ele>
        <time>2021-04-09T09:19:15Z</time>
      </trkpt>
      <trkpt lat="48.8728" lon="2.33307">
        <ele>44.77</ele>
        <time>2021-04-09T09:19:35Z</time>
      </trkpt>
      <trkpt lat="48.87295" lon="2.3333">
        <ele>43.12</ele>
        <time>2021-04-09T09:19:55Z</time>
      </trkpt>
      <trkpt lat="48.8731" lon="2.33344">
        <ele>42.37</ele>
        <time>2021-04-09T09:20:15Z</time>
      </trkpt>
      <trkpt lat="48.87315" lon="2.33353">
        <ele>42.71</ele>
        <time>2021-04-09T09:20:35Z</time>
      </trkpt>
      <trkpt lat="48.87362" lon="2.33532">
        <ele>50.22</ele>
        <time>2021-04-09T09:20:56Z</time>
      </trkpt>
      <trkpt lat="48.87418" lon="2.3375">
        <ele>43.06</ele>
        <time>2021-04-09T09:21:16Z</time>
      </trkpt>
      <trkpt lat="48.87583" lon="2.34368">
        <ele>46.72</ele>
        <time>2021-04-09T09:21:36Z</time>
      </trkpt>
      <trkpt lat="48.87603" lon="2.34452">
        <ele>47.08</ele>
        <time>2021-04-09T09:21:56Z</time>
      </trkpt>
      <trkpt lat="48.87778" lon="2.35126">
        <ele>53.5</ele>
        <time>2021-04-09T09:22:16Z</time>
      </trkpt>
      <trkpt lat="48.87849" lon="2.35393">
        <ele>60.12</ele>
        <time>2021-04-09T09:22:36Z</time>
      </trkpt>
      <trkpt lat="48.87853" lon="2.35404">
        <ele>60.42</ele>
        <time>2021-04-09T09:22:56Z</time>
      </trkpt>
      <trkpt lat="48.87931" lon="2.35708">
        <ele>62</ele>
        <time>2021-04-09T09:23:16Z</time>
      </trkpt>
      <trkpt lat="48.88008" lon="2.35992">
        <ele>49.46</ele>
        <time>2021-04-09T09:23:36Z</time>
      </trkpt>
      <trkpt lat="48.88073" lon="2.36242">
        <ele>61.91</ele>
        <time>2021-04-09T09:23:56Z</time>
      </trkpt>
      <trkpt lat="48.88094" lon="2.36324">
        <ele>60.17</ele>
        <time>2021-04-09T09:24:16Z</time>
      </trkpt>
      <trkpt lat="48.88161" lon="2.36579">
        <ele>57.5</ele>
        <time>2021-04-09T09:24:37Z</time>
      </trkpt>
      <trkpt lat="48.88253" lon="2.36693">
        <ele>56.94</ele>
        <time>2021-04-09T09:24:49Z</time>
      </trkpt>
      <trkpt lat="48.88385" lon="2.3686">
        <ele>58.74</ele>
        <time>2021-04-09T09:25:02Z</time>
      </trkpt>
      <trkpt lat="48.88403" lon="2.36884">
        <ele>56.14</ele>
        <time>2021-04-09T09:25:15Z</time>
      </trkpt>
      <trkpt lat="48.88438" lon="2.3692">
        <ele>55.31</ele>
        <time>2021-04-09T09:25:28Z</time>
      </trkpt>
      <trkpt lat="48.88464" lon="2.36954">
        <ele>55.56</ele>
        <time>2021-04-09T09:25:41Z</time>
      </trkpt>
      <trkpt lat="48.88826" lon="2.37397">
        <ele>56.93</ele>
        <time>2021-04-09T09:25:54Z</time>
      </trkpt>
      <trkpt lat="48.88984" lon="2.37596">
        <ele>55.22</ele>
        <time>2021-04-09T09:26:07Z</time>
      </trkpt>
      <trkpt lat="48.89113" lon="2.37756">
        <ele>53.79</ele>
        <time>2021-04-09T09:26:20Z</time>
      </trkpt>
      <trkpt lat="48.89231" lon="2.37912">
        <ele>53.95</ele>
        <time>2021-04-09T09:26:33Z</time>
      </trkpt>
      <trkpt lat="48.89432" lon="2.38171">
        <ele>52.69</ele>
        <time>2021-04-09T09:26:46Z</time>
      </trkpt>
      <trkpt lat="48.89437" lon="2.38181">
        <ele>53.15</ele>
        <time>2021-04-09T09:26:59Z</time>
      </trkpt>
      <trkpt lat="48.89468" lon="2.38222">
        <ele>54.17</ele>
        <time>2021-04-09T09:27:12Z</time>
      </trkpt>
      <trkpt lat="48.89474" lon="2.38227">
        <ele>54.07</ele>
        <time>2021-04-09T09:27:24Z</time>
      </trkpt>
      <trkpt lat="48.89514" lon="2.38274">
        <ele>52.55</ele>
        <time>2021-04-09T09:27:37Z</time>
      </trkpt>
      <trkpt lat="48.89582" lon="2.38359">
        <ele>49.12</ele>
        <time>2021-04-09T09:27:50Z</time>
      </trkpt>
      <trkpt lat="48.89604" lon="2.38401">
        <ele>49.32</ele>
        <time>2021-04-09T09:28:03Z</time>
      </trkpt>
      <trkpt lat="48.89615" lon="2.38417">
        <ele>51.3</ele>
        <time>2021-04-09T09:28:16Z</time>
      </trkpt>
      <trkpt lat="48.8977" lon="2.38581">
        <ele>49.9</ele>
        <time>2021-04-09T09:28:29Z</time>
      </trkpt>
      <trkpt lat="48.89802" lon="2.38611">
        <ele>47.15</ele>
        <time>2021-04-09T09:28:42Z</time>
      </trkpt>
      <trkpt lat="48.8985" lon="2.38658">
        <ele>47.27</ele>
        <time>2021-04-09T09:28:55Z</time>
      </trkpt>
      <trkpt lat="48.89958" lon="2.38771">
        <ele>44</ele>
        <time>2021-04-09T09:29:08Z</time>
      </trkpt>
      <trkpt lat="48.89999" lon="2.38818">
        <ele>44.45</ele>
        <time>2021-04-09T09:29:21Z</time>
      </trkpt>
      <trkpt lat="48.9001" lon="2.38826">
        <ele>44.57</ele>
        <time>2021-04-09T09:29:34Z</time>
      </trkpt>
      <trkpt lat="48.90033" lon="2.38838">
        <ele>44.35</ele>
        <time>2021-04-09T09:29:47Z</time>
      </trkpt>
      <trkpt lat="48.90044" lon="2.38845">
        <ele>45.19</ele>
        <time>2021-04-09T09:29:50Z</time>
      </trkpt>
      <trkpt lat="48.90053" lon="2.38847">
        <ele>45.79</ele>
        <time>2021-04-09T09:29:54Z</time>
      </trkpt>
      <trkpt lat="48.90112" lon="2.38937">
        <ele>50.15</ele>
        <time>2021-04-09T09:29:57Z</time>
      </trkpt>
      <trkpt lat="48.90121" lon="2.38947">
        <ele>48.92</ele>
        <time>2021-04-09T09:30:01Z</time>
      </trkpt>
      <trkpt lat="48.90158" lon="2.38989">
        <ele>46.72</ele>
        <time>2021-04-09T09:30:05Z</time>
      </trkpt>
      <trkpt lat="48.90211" lon="2.39039">
        <ele>46.58</ele>
        <time>2021-04-09T09:30:22Z</time>
      </trkpt>
      <trkpt lat="48.90492" lon="2.39346">
        <ele>45.28</ele>
        <time>2021-04-09T09:30:39Z</time>
      </trkpt>
      <trkpt lat="48.9051" lon="2.39369">
        <ele>45</ele>
        <time>2021-04-09T09:30:56Z</time>
      </trkpt>
      <trkpt lat="48.9053" lon="2.39392">
        <ele>45.1</ele>
        <time>2021-04-09T09:31:13Z</time>
      </trkpt>
      <trkpt lat="48.90533" lon="2.39398">
        <ele>45.31</ele>
        <time>2021-04-09T09:31:31Z</time>
      </trkpt>
      <trkpt lat="48.90604" lon="2.39479">
        <ele>45.26</ele>
        <time>2021-04-09T09:31:48Z</time>
      </trkpt>
      <trkpt lat="48.9064" lon="2.39514">
        <ele>46.58</ele>
        <time>2021-04-09T09:32:05Z</time>
      </trkpt>
      <trkpt lat="48.90655" lon="2.39522">
        <ele>47.22</ele>
        <time>2021-04-09T09:32:22Z</time>
      </trkpt>
      <trkpt lat="48.90668" lon="2.39536">
        <ele>47.97</ele>
        <time>2021-04-09T09:32:39Z</time>
      </trkpt>
      <trkpt lat="48.91353" lon="2.40279">
        <ele>46.23</ele>
        <time>2021-04-09T09:32:56Z</time>
      </trkpt>
      <trkpt lat="48.91381" lon="2.40318">
        <ele>42.81</ele>
        <time>2021-04-09T09:33:14Z</time>
      </trkpt>
      <trkpt lat="48.91449" lon="2.40394">
        <ele>39.97</ele>
        <time>2021-04-09T09:33:31Z</time>
      </trkpt>
      <trkpt lat="48.91655" lon="2.40616">
        <ele>40.34</ele>
        <time>2021-04-09T09:33:48Z</time>
      </trkpt>
      <trkpt lat="48.91808" lon="2.40777">
        <ele>41</ele>
        <time>2021-04-09T09:34:05Z</time>
      </trkpt>
      <trkpt lat="48.91882" lon="2.40858">
        <ele>40.75</ele>
        <time>2021-04-09T09:34:22Z</time>
      </trkpt>
      <trkpt lat="48.91904" lon="2.40879">
        <ele>40.9</ele>
        <time>2021-04-09T09:34:34Z</time>
      </trkpt>
      <trkpt lat="48.91995" lon="2.40974">
        <ele>40.77</ele>
        <time>2021-04-09T09:34:46Z</time>
      </trkpt>
      <trkpt lat="48.92187" lon="2.41186">
        <ele>41</ele>
        <time>2021-04-09T09:34:57Z</time>
      </trkpt>
      <trkpt lat="48.9224" lon="2.41242">
        <ele>42.89</ele>
        <time>2021-04-09T09:35:09Z</time>
      </trkpt>
      <trkpt lat="48.92325" lon="2.41337">
        <ele>41</ele>
        <time>2021-04-09T09:35:21Z</time>
      </trkpt>
      <trkpt lat="48.92418" lon="2.41435">
        <ele>41.06</ele>
        <time>2021-04-09T09:35:32Z</time>
      </trkpt>
      <trkpt lat="48.92481" lon="2.41507">
        <ele>43</ele>
        <time>2021-04-09T09:35:44Z</time>
      </trkpt>
      <trkpt lat="48.92575" lon="2.41607">
        <ele>44.14</ele>
        <time>2021-04-09T09:35:56Z</time>
      </trkpt>
      <trkpt lat="48.92647" lon="2.41689">
        <ele>41.14</ele>
        <time>2021-04-09T09:36:07Z</time>
      </trkpt>
      <trkpt lat="48.92748" lon="2.41799">
        <ele>42.76</ele>
        <time>2021-04-09T09:36:19Z</time>
      </trkpt>
      <trkpt lat="48.92755" lon="2.41814">
        <ele>43.41</ele>
        <time>2021-04-09T09:36:31Z</time>
      </trkpt>
      <trkpt lat="48.92775" lon="2.41834">
        <ele>44.01</ele>
        <time>2021-04-09T09:36:42Z</time>
      </trkpt>
      <trkpt lat="48.928" lon="2.41857">
        <ele>44.19</ele>
        <time>2021-04-09T09:36:52Z</time>
      </trkpt>
      <trkpt lat="48.92861" lon="2.41925">
        <ele>44.98</ele>
        <time>2021-04-09T09:37:01Z</time>
      </trkpt>
      <trkpt lat="48.92963" lon="2.42032">
        <ele>45.36</ele>
        <time>2021-04-09T09:37:11Z</time>
      </trkpt>
      <trkpt lat="48.93094" lon="2.42173">
        <ele>43.39</ele>
        <time>2021-04-09T09:37:21Z</time>
      </trkpt>
      <trkpt lat="48.93164" lon="2.42253">
        <ele>45.09</ele>
        <time>2021-04-09T09:37:30Z</time>
      </trkpt>
      <trkpt lat="48.93225" lon="2.42319">
        <ele>47</ele>
        <time>2021-04-09T09:37:40Z</time>
      </trkpt>
      <trkpt lat="48.93259" lon="2.42351">
        <ele>47.94</ele>
        <time>2021-04-09T09:37:50Z</time>
      </trkpt>
      <trkpt lat="48.9327" lon="2.42368">
        <ele>48.86</ele>
        <time>2021-04-09T09:37:59Z</time>
      </trkpt>
      <trkpt lat="48.93315" lon="2.42418">
        <ele>48.26</ele>
        <time>2021-04-09T09:38:09Z</time>
      </trkpt>
      <trkpt lat="48.93523" lon="2.42636">
        <ele>41.89</ele>
        <time>2021-04-09T09:38:18Z</time>
      </trkpt>
      <trkpt lat="48.93596" lon="2.42701">
        <ele>41.43</ele>
        <time>2021-04-09T09:38:28Z</time>
      </trkpt>
      <trkpt lat="48.93629" lon="2.42734">
        <ele>41.22</ele>
        <time>2021-04-09T09:38:38Z</time>
      </trkpt>
      <trkpt lat="48.9374" lon="2.42834">
        <ele>39.74</ele>
        <time>2021-04-09T09:38:47Z</time>
      </trkpt>
      <trkpt lat="48.93741" lon="2.42841">
        <ele>39.68</ele>
        <time>2021-04-09T09:38:55Z</time>
      </trkpt>
      <trkpt lat="48.93745" lon="2.42845">
        <ele>39.4</ele>
        <time>2021-04-09T09:39:03Z</time>
      </trkpt>
      <trkpt lat="48.93887" lon="2.42972">
        <ele>47.89</ele>
        <time>2021-04-09T09:39:11Z</time>
      </trkpt>
      <trkpt lat="48.94076" lon="2.43147">
        <ele>47.74</ele>
        <time>2021-04-09T09:39:19Z</time>
      </trkpt>
      <trkpt lat="48.94105" lon="2.4317">
        <ele>48</ele>
        <time>2021-04-09T09:39:27Z</time>
      </trkpt>
      <trkpt lat="48.94154" lon="2.43215">
        <ele>45.71</ele>
        <time>2021-04-09T09:39:35Z</time>
      </trkpt>
      <trkpt lat="48.9421" lon="2.43258">
        <ele>43.71</ele>
        <time>2021-04-09T09:39:43Z</time>
      </trkpt>
      <trkpt lat="48.94218" lon="2.43281">
        <ele>44.27</ele>
        <time>2021-04-09T09:39:55Z</time>
      </trkpt>
      <trkpt lat="48.94242" lon="2.43339">
        <ele>46.26</ele>
        <time>2021-04-09T09:40:07Z</time>
      </trkpt>
      <trkpt lat="48.94285" lon="2.43455">
        <ele>47.63</ele>
        <time>2021-04-09T09:40:19Z</time>
      </trkpt>
      <trkpt lat="48.94315" lon="2.43517">
        <ele>45.3</ele>
        <time>2021-04-09T09:40:31Z</time>
      </trkpt>
      <trkpt lat="48.94332" lon="2.43557">
        <ele>44.17</ele>
        <time>2021-04-09T09:40:43Z</time>
      </trkpt>
      <trkpt lat="48.94346" lon="2.4357">
        <ele>44.06</ele>
        <time>2021-04-09T09:40:55Z</time>
      </trkpt>
      <trkpt lat="48.94426" lon="2.43759">
        <ele>44.89</ele>
        <time>2021-04-09T09:41:06Z</time>
      </trkpt>
      <trkpt lat="48.94486" lon="2.43885">
        <ele>44.48</ele>
        <time>2021-04-09T09:41:18Z</time>
      </trkpt>
      <trkpt lat="48.94522" lon="2.43958">
        <ele>45.31</ele>
        <time>2021-04-09T09:41:30Z</time>
      </trkpt>
      <trkpt lat="48.94632" lon="2.44163">
        <ele>44.53</ele>
        <time>2021-04-09T09:41:42Z</time>
      </trkpt>
      <trkpt lat="48.95047" lon="2.44934">
        <ele>43.4</ele>
        <time>2021-04-09T09:41:54Z</time>
      </trkpt>
      <trkpt lat="48.95224" lon="2.45268">
        <ele>45.67</ele>
        <time>2021-04-09T09:42:06Z</time>
      </trkpt>
      <trkpt lat="48.95599" lon="2.45963">
        <ele>43</ele>
        <time>2021-04-09T09:42:17Z</time>
      </trkpt>
      <trkpt lat="48.95742" lon="2.46228">
        <ele>45.98</ele>
        <time>2021-04-09T09:42:29Z</time>
      </trkpt>
      <trkpt lat="48.95773" lon="2.46289">
        <ele>46.19</ele>
        <time>2021-04-09T09:42:41Z</time>
      </trkpt>
      <trkpt lat="48.95956" lon="2.46623">
        <ele>49.67</ele>
        <time>2021-04-09T09:42:53Z</time>
      </trkpt>
      <trkpt lat="48.96059" lon="2.46803">
        <ele>54.15</ele>
        <time>2021-04-09T09:43:05Z</time>
      </trkpt>
      <trkpt lat="48.96104" lon="2.46875">
        <ele>53.86</ele>
        <time>2021-04-09T09:43:17Z</time>
      </trkpt>
      <trkpt lat="48.96393" lon="2.47314">
        <ele>53.15</ele>
        <time>2021-04-09T09:43:29Z</time>
      </trkpt>
      <trkpt lat="48.96399" lon="2.4734">
        <ele>53.85</ele>
        <time>2021-04-09T09:43:36Z</time>
      </trkpt>
      <trkpt lat="48.96422" lon="2.47383">
        <ele>56.63</ele>
        <time>2021-04-09T09:43:44Z</time>
      </trkpt>
      <trkpt lat="48.96453" lon="2.47432">
        <ele>57</ele>
        <time>2021-04-09T09:43:51Z</time>
      </trkpt>
      <trkpt lat="48.96472" lon="2.47469">
        <ele>56.99</ele>
        <time>2021-04-09T09:43:59Z</time>
      </trkpt>
      <trkpt lat="48.96479" lon="2.47487">
        <ele>56.84</ele>
        <time>2021-04-09T09:44:07Z</time>
      </trkpt>
      <trkpt lat="48.9659" lon="2.47717">
        <ele>60.73</ele>
        <time>2021-04-09T09:44:14Z</time>
      </trkpt>
      <trkpt lat="48.96623" lon="2.4777">
        <ele>60.99</ele>
        <time>2021-04-09T09:44:22Z</time>
      </trkpt>
      <trkpt lat="48.96668" lon="2.47829">
        <ele>59.8</ele>
        <time>2021-04-09T09:44:30Z</time>
      </trkpt>
      <trkpt lat="48.96777" lon="2.47959">
        <ele>61.02</ele>
        <time>2021-04-09T09:44:37Z</time>
      </trkpt>
      <trkpt lat="48.96874" lon="2.48083">
        <ele>59.95</ele>
        <time>2021-04-09T09:44:45Z</time>
      </trkpt>
      <trkpt lat="48.96888" lon="2.48095">
        <ele>60.94</ele>
        <time>2021-04-09T09:44:53Z</time>
      </trkpt>
      <trkpt lat="48.97225" lon="2.48607">
        <ele>66.38</ele>
        <time>2021-04-09T09:45:00Z</time>
      </trkpt>
      <trkpt lat="48.97237" lon="2.48635">
        <ele>66.14</ele>
        <time>2021-04-09T09:45:09Z</time>
      </trkpt>
      <trkpt lat="48.97258" lon="2.4867">
        <ele>67</ele>
        <time>2021-04-09T09:45:18Z</time>
      </trkpt>
      <trkpt lat="48.97283" lon="2.48724">
        <ele>68.05</ele>
        <time>2021-04-09T09:45:27Z</time>
      </trkpt>
      <trkpt lat="48.97301" lon="2.48769">
        <ele>69.58</ele>
        <time>2021-04-09T09:45:35Z</time>
      </trkpt>
      <trkpt lat="48.97317" lon="2.4883">
        <ele>71.53</ele>
        <time>2021-04-09T09:45:44Z</time>
      </trkpt>
      <trkpt lat="48.97323" lon="2.4888">
        <ele>70.7</ele>
        <time>2021-04-09T09:45:53Z</time>
      </trkpt>
      <trkpt lat="48.97328" lon="2.48947">
        <ele>70.67</ele>
        <time>2021-04-09T09:46:02Z</time>
      </trkpt>
      <trkpt lat="48.97328" lon="2.48986">
        <ele>72.32</ele>
        <time>2021-04-09T09:46:11Z</time>
      </trkpt>
      <trkpt lat="48.97318" lon="2.49057">
        <ele>74.97</ele>
        <time>2021-04-09T09:46:19Z</time>
      </trkpt>
      <trkpt lat="48.97301" lon="2.49145">
        <ele>73.95</ele>
        <time>2021-04-09T09:46:28Z</time>
      </trkpt>
      <trkpt lat="48.97289" lon="2.4919">
        <ele>75.57</ele>
        <time>2021-04-09T09:46:37Z</time>
      </trkpt>
      <trkpt lat="48.97288" lon="2.49204">
        <ele>75.77</ele>
        <time>2021-04-09T09:46:46Z</time>
      </trkpt>
      <trkpt lat="48.97099" lon="2.49903">
        <ele>75.73</ele>
        <time>2021-04-09T09:46:55Z</time>
      </trkpt>
      <trkpt lat="48.96949" lon="2.50368">
        <ele>72.3</ele>
        <time>2021-04-09T09:47:03Z</time>
      </trkpt>
      <trkpt lat="48.96785" lon="2.50922">
        <ele>76.17</ele>
        <time>2021-04-09T09:47:12Z</time>
      </trkpt>
      <trkpt lat="48.96731" lon="2.51109">
        <ele>70.14</ele>
        <time>2021-04-09T09:47:21Z</time>
      </trkpt>
      <trkpt lat="48.96647" lon="2.51386">
        <ele>71.18</ele>
        <time>2021-04-09T09:47:30Z</time>
      </trkpt>
      <trkpt lat="48.96634" lon="2.51431">
        <ele>69.28</ele>
        <time>2021-04-09T09:47:39Z</time>
      </trkpt>
      <trkpt lat="48.96598" lon="2.51544">
        <ele>67.05</ele>
        <time>2021-04-09T09:47:47Z</time>
      </trkpt>
      <trkpt lat="48.96472" lon="2.51869">
        <ele>66.42</ele>
        <time>2021-04-09T09:47:56Z</time>
      </trkpt>
      <trkpt lat="48.9644" lon="2.51939">
        <ele>65.29</ele>
        <time>2021-04-09T09:48:05Z</time>
      </trkpt>
      <trkpt lat="48.96352" lon="2.52108">
        <ele>62.46</ele>
        <time>2021-04-09T09:48:14Z</time>
      </trkpt>
      <trkpt lat="48.96284" lon="2.52219">
        <ele>61.88</ele>
        <time>2021-04-09T09:48:23Z</time>
      </trkpt>
      <trkpt lat="48.96245" lon="2.52273">
        <ele>60.5</ele>
        <time>2021-04-09T09:48:32Z</time>
      </trkpt>
      <trkpt lat="48.962" lon="2.52324">
        <ele>57.42</ele>
        <time>2021-04-09T09:48:40Z</time>
      </trkpt>
      <trkpt lat="48.96137" lon="2.52385">
        <ele>55.99</ele>
        <time>2021-04-09T09:48:49Z</time>
      </trkpt>
      <trkpt lat="48.96017" lon="2.52474">
        <ele>52.1</ele>
        <time>2021-04-09T09:48:58Z</time>
      </trkpt>
      <trkpt lat="48.95972" lon="2.52513">
        <ele>55.46</ele>
        <time>2021-04-09T09:49:07Z</time>
      </trkpt>
      <trkpt lat="48.95948" lon="2.52537">
        <ele>55.06</ele>
        <time>2021-04-09T09:49:16Z</time>
      </trkpt>
      <trkpt lat="48.95924" lon="2.52567">
        <ele>52.93</ele>
        <time>2021-04-09T09:49:24Z</time>
      </trkpt>
      <trkpt lat="48.95888" lon="2.52616">
        <ele>55.39</ele>
        <time>2021-04-09T09:49:33Z</time>
      </trkpt>
      <trkpt lat="48.95865" lon="2.52661">
        <ele>56.89</ele>
        <time>2021-04-09T09:49:42Z</time>
      </trkpt>
      <trkpt lat="48.95835" lon="2.52733">
        <ele>57.39</ele>
        <time>2021-04-09T09:49:51Z</time>
      </trkpt>
      <trkpt lat="48.95809" lon="2.52825">
        <ele>61</ele>
        <time>2021-04-09T09:50:00Z</time>
      </trkpt>
      <trkpt lat="48.95799" lon="2.52887">
        <ele>62.24</ele>
        <time>2021-04-09T09:50:08Z</time>
      </trkpt>
      <trkpt lat="48.95791" lon="2.52973">
        <ele>60.41</ele>
        <time>2021-04-09T09:50:17Z</time>
      </trkpt>
      <trkpt lat="48.95793" lon="2.53066">
        <ele>59.44</ele>
        <time>2021-04-09T09:50:26Z</time>
      </trkpt>
      <trkpt lat="48.95799" lon="2.53124">
        <ele>59</ele>
        <time>2021-04-09T09:50:35Z</time>
      </trkpt>
      <trkpt lat="48.95814" lon="2.53206">
        <ele>61.41</ele>
        <time>2021-04-09T09:50:44Z</time>
      </trkpt>
      <trkpt lat="48.95841" lon="2.53341">
        <ele>61.79</ele>
        <time>2021-04-09T09:50:52Z</time>
      </trkpt>
      <trkpt lat="48.95889" lon="2.53562">
        <ele>59.76</ele>
        <time>2021-04-09T09:51:01Z</time>
      </trkpt>
      <trkpt lat="48.95966" lon="2.53867">
        <ele>58.24</ele>
        <time>2021-04-09T09:51:10Z</time>
      </trkpt>
      <trkpt lat="48.96075" lon="2.54236">
        <ele>63.86</ele>
        <time>2021-04-09T09:51:19Z</time>
      </trkpt>
      <trkpt lat="48.96165" lon="2.54515">
        <ele>64.41</ele>
        <time>2021-04-09T09:51:28Z</time>
      </trkpt>
      <trkpt lat="48.96342" lon="2.55042">
        <ele>66.16</ele>
        <time>2021-04-09T09:51:36Z</time>
      </trkpt>
      <trkpt lat="48.96512" lon="2.55561">
        <ele>67.54</ele>
        <time>2021-04-09T09:51:45Z</time>
      </trkpt>
      <trkpt lat="48.9653" lon="2.55623">
        <ele>67.45</ele>
        <time>2021-04-09T09:51:54Z</time>
      </trkpt>
      <trkpt lat="48.96807" lon="2.56468">
        <ele>74.03</ele>
        <time>2021-04-09T09:52:03Z</time>
      </trkpt>
      <trkpt lat="48.96881" lon="2.5668">
        <ele>72.64</ele>
        <time>2021-04-09T09:52:12Z</time>
      </trkpt>
      <trkpt lat="48.97025" lon="2.57058">
        <ele>70</ele>
        <time>2021-04-09T09:52:20Z</time>
      </trkpt>
      <trkpt lat="48.97166" lon="2.57397">
        <ele>67.42</ele>
        <time>2021-04-09T09:52:29Z</time>
      </trkpt>
      <trkpt lat="48.97369" lon="2.57863">
        <ele>71.64</ele>
        <time>2021-04-09T09:52:38Z</time>
      </trkpt>
      <trkpt lat="48.97382" lon="2.57884">
        <ele>72.69</ele>
        <time>2021-04-09T09:52:46Z</time>
      </trkpt>
      <trkpt lat="48.97529" lon="2.58213">
        <ele>75.35</ele>
        <time>2021-04-09T09:52:54Z</time>
      </trkpt>
      <trkpt lat="48.97771" lon="2.58773">
        <ele>74.71</ele>
        <time>2021-04-09T09:53:02Z</time>
      </trkpt>
      <trkpt lat="48.98162" lon="2.59666">
        <ele>79.84</ele>
        <time>2021-04-09T09:53:11Z</time>
      </trkpt>
      <trkpt lat="48.98374" lon="2.60154">
        <ele>80.93</ele>
        <time>2021-04-09T09:53:19Z</time>
      </trkpt>
      <trkpt lat="48.98612" lon="2.60693">
        <ele>83.1</ele>
        <time>2021-04-09T09:53:27Z</time>
      </trkpt>
      <trkpt lat="48.98869" lon="2.61285">
        <ele>76.81</ele>
        <time>2021-04-09T09:53:35Z</time>
      </trkpt>
      <trkpt lat="48.99448" lon="2.62604">
        <ele>88.34</ele>
        <time>2021-04-09T09:53:43Z</time>
      </trkpt>
      <trkpt lat="48.99605" lon="2.62927">
        <ele>89.08</ele>
        <time>2021-04-09T09:53:51Z</time>
      </trkpt>
      <trkpt lat="48.99909" lon="2.63501">
        <ele>91</ele>
        <time>2021-04-09T09:53:59Z</time>
      </trkpt>
      <trkpt lat="49.002" lon="2.63993">
        <ele>85.61</ele>
        <time>2021-04-09T09:54:07Z</time>
      </trkpt>
      <trkpt lat="49.0047" lon="2.64421">
        <ele>88.93</ele>
        <time>2021-04-09T09:54:16Z</time>
      </trkpt>
      <trkpt lat="49.0052" lon="2.64496">
        <ele>87</ele>
        <time>2021-04-09T09:54:24Z</time>
      </trkpt>
      <trkpt lat="49.00586" lon="2.64591">
        <ele>90.03</ele>
        <time>2021-04-09T09:54:32Z</time>
      </trkpt>
      <trkpt lat="49.00794" lon="2.64882">
        <ele>90</ele>
        <time>2021-04-09T09:54:40Z</time>
      </trkpt>
      <trkpt lat="49.00911" lon="2.65038">
        <ele>87.19</ele>
        <time>2021-04-09T09:54:48Z</time>
      </trkpt>
      <trkpt lat="49.01051" lon="2.65218">
        <ele>82.99</ele>
        <time>2021-04-09T09:54:56Z</time>
      </trkpt>
      <trkpt lat="49.01194" lon="2.65393">
        <ele>82</ele>
        <time>2021-04-09T09:55:04Z</time>
      </trkpt>
      <trkpt lat="49.01385" lon="2.6562">
        <ele>77</ele>
        <time>2021-04-09T09:55:13Z</time>
      </trkpt>
      <trkpt lat="49.01561" lon="2.65816">
        <ele>74.44</ele>
        <time>2021-04-09T09:55:21Z</time>
      </trkpt>
      <trkpt lat="49.01923" lon="2.66189">
        <ele>86.43</ele>
        <time>2021-04-09T09:55:29Z</time>
      </trkpt>
      <trkpt lat="49.02671" lon="2.6694">
        <ele>102.83</ele>
        <time>2021-04-09T09:55:37Z</time>
      </trkpt>
      <trkpt lat="49.02919" lon="2.67184">
        <ele>103.92</ele>
        <time>2021-04-09T09:55:45Z</time>
      </trkpt>
      <trkpt lat="49.03418" lon="2.67693">
        <ele>95</ele>
        <time>2021-04-09T09:55:53Z</time>
      </trkpt>
      <trkpt lat="49.03607" lon="2.67893">
        <ele>95.85</ele>
        <time>2021-04-09T09:56:01Z</time>
      </trkpt>
      <trkpt lat="49.03706" lon="2.68004">
        <ele>96.33</ele>
        <time>2021-04-09T09:56:09Z</time>
      </trkpt>
      <trkpt lat="49.03803" lon="2.6812">
        <ele>96.93</ele>
        <time>2021-04-09T09:56:18Z</time>
      </trkpt>
      <trkpt lat="49.03835" lon="2.68156">
        <ele>97</ele>
        <time>2021-04-09T09:56:26Z</time>
      </trkpt>
      <trkpt lat="49.03874" lon="2.68204">
        <ele>98.46</ele>
        <time>2021-04-09T09:56:34Z</time>
      </trkpt>
      <trkpt lat="49.03944" lon="2.68291">
        <ele>102.43</ele>
        <time>2021-04-09T09:56:42Z</time>
      </trkpt>
      <trkpt lat="49.04123" lon="2.68524">
        <ele>108.3</ele>
        <time>2021-04-09T09:56:50Z</time>
      </trkpt>
      <trkpt lat="49.0462" lon="2.69209">
        <ele>145.8</ele>
        <time>2021-04-09T09:56:58Z</time>
      </trkpt>
      <trkpt lat="49.04695" lon="2.69304">
        <ele>149.2</ele>
        <time>2021-04-09T09:57:06Z</time>
      </trkpt>
      <trkpt lat="49.04797" lon="2.69419">
        <ele>152.59</ele>
        <time>2021-04-09T09:57:14Z</time>
      </trkpt>
      <trkpt lat="49.04916" lon="2.69547">
        <ele>153.3</ele>
        <time>2021-04-09T09:57:23Z</time>
      </trkpt>
      <trkpt lat="49.05074" lon="2.69689">
        <ele>146.16</ele>
        <time>2021-04-09T09:57:31Z</time>
      </trkpt>
      <trkpt lat="49.05141" lon="2.69744">
        <ele>138.3</ele>
        <time>2021-04-09T09:57:39Z</time>
      </trkpt>
      <trkpt lat="49.05221" lon="2.69806">
        <ele>133.98</ele>
        <time>2021-04-09T09:57:47Z</time>
      </trkpt>
      <trkpt lat="49.05358" lon="2.69899">
        <ele>121</ele>
        <time>2021-04-09T09:57:55Z</time>
      </trkpt>
      <trkpt lat="49.0544" lon="2.69948">
        <ele>118.75</ele>
        <time>2021-04-09T09:58:03Z</time>
      </trkpt>
      <trkpt lat="49.05594" lon="2.70044">
        <ele>114.99</ele>
        <time>2021-04-09T09:58:11Z</time>
      </trkpt>
      <trkpt lat="49.0578" lon="2.70154">
        <ele>115.57</ele>
        <time>2021-04-09T09:58:20Z</time>
      </trkpt>
      <trkpt lat="49.05935" lon="2.70252">
        <ele>114.56</ele>
        <time>2021-04-09T09:58:28Z</time>
      </trkpt>
      <trkpt lat="49.06013" lon="2.70308">
        <ele>114.91</ele>
        <time>2021-04-09T09:58:36Z</time>
      </trkpt>
      <trkpt lat="49.06109" lon="2.70387">
        <ele>114.99</ele>
        <time>2021-04-09T09:58:44Z</time>
      </trkpt>
      <trkpt lat="49.06178" lon="2.70452">
        <ele>112.83</ele>
        <time>2021-04-09T09:58:52Z</time>
      </trkpt>
      <trkpt lat="49.0622" lon="2.70494">
        <ele>112.22</ele>
        <time>2021-04-09T09:59:00Z</time>
      </trkpt>
      <trkpt lat="49.06293" lon="2.70575">
        <ele>111.86</ele>
        <time>2021-04-09T09:59:08Z</time>
      </trkpt>
      <trkpt lat="49.06347" lon="2.70637">
        <ele>109</ele>
        <time>2021-04-09T09:59:16Z</time>
      </trkpt>
      <trkpt lat="49.06632" lon="2.71002">
        <ele>104.2</ele>
        <time>2021-04-09T09:59:25Z</time>
      </trkpt>
      <trkpt lat="49.06891" lon="2.71345">
        <ele>101.57</ele>
        <time>2021-04-09T09:59:33Z</time>
      </trkpt>
      <trkpt lat="49.07416" lon="2.72035">
        <ele>95.74</ele>
        <time>2021-04-09T09:59:41Z</time>
      </trkpt>
      <trkpt lat="49.07662" lon="2.72355">
        <ele>98.62</ele>
        <time>2021-04-09T09:59:49Z</time>
      </trkpt>
      <trkpt lat="49.07865" lon="2.72623">
        <ele>101.68</ele>
        <time>2021-04-09T09:59:57Z</time>
      </trkpt>
      <trkpt lat="49.08002" lon="2.72782">
        <ele>105</ele>
        <time>2021-04-09T10:00:05Z</time>
      </trkpt>
      <trkpt lat="49.08108" lon="2.7289">
        <ele>104.87</ele>
        <time>2021-04-09T10:00:13Z</time>
      </trkpt>
      <trkpt lat="49.08179" lon="2.72951">
        <ele>104.42</ele>
        <time>2021-04-09T10:00:22Z</time>
      </trkpt>
      <trkpt lat="49.08282" lon="2.73024">
        <ele>103.86</ele>
        <time>2021-04-09T10:00:30Z</time>
      </trkpt>
      <trkpt lat="49.08391" lon="2.73089">
        <ele>102.78</ele>
        <time>2021-04-09T10:00:38Z</time>
      </trkpt>
      <trkpt lat="49.08541" lon="2.73161">
        <ele>98.39</ele>
        <time>2021-04-09T10:00:46Z</time>
      </trkpt>
      <trkpt lat="49.09383" lon="2.73548">
        <ele>102.3</ele>
        <time>2021-04-09T10:00:54Z</time>
      </trkpt>
      <trkpt lat="49.09505" lon="2.73615">
        <ele>107</ele>
        <time>2021-04-09T10:01:02Z</time>
      </trkpt>
      <trkpt lat="49.09615" lon="2.73692">
        <ele>108.06</ele>
        <time>2021-04-09T10:01:10Z</time>
      </trkpt>
      <trkpt lat="49.0968" lon="2.73742">
        <ele>110.56</ele>
        <time>2021-04-09T10:01:18Z</time>
      </trkpt>
      <trkpt lat="49.09733" lon="2.73787">
        <ele>108.36</ele>
        <time>2021-04-09T10:01:27Z</time>
      </trkpt>
      <trkpt lat="49.09784" lon="2.73833">
        <ele>107.79</ele>
        <time>2021-04-09T10:01:35Z</time>
      </trkpt>
      <trkpt lat="49.09846" lon="2.73895">
        <ele>109.91</ele>
        <time>2021-04-09T10:01:43Z</time>
      </trkpt>
      <trkpt lat="49.09885" lon="2.73936">
        <ele>112.19</ele>
        <time>2021-04-09T10:01:51Z</time>
      </trkpt>
      <trkpt lat="49.09924" lon="2.7398">
        <ele>109.46</ele>
        <time>2021-04-09T10:01:59Z</time>
      </trkpt>
      <trkpt lat="49.10012" lon="2.74091">
        <ele>109.29</ele>
        <time>2021-04-09T10:02:07Z</time>
      </trkpt>
      <trkpt lat="49.10079" lon="2.74186">
        <ele>111.12</ele>
        <time>2021-04-09T10:02:15Z</time>
      </trkpt>
      <trkpt lat="49.10142" lon="2.74283">
        <ele>110.79</ele>
        <time>2021-04-09T10:02:24Z</time>
      </trkpt>
      <trkpt lat="49.10191" lon="2.74368">
        <ele>110</ele>
        <time>2021-04-09T10:02:32Z</time>
      </trkpt>
      <trkpt lat="49.10252" lon="2.7448">
        <ele>111.32</ele>
        <time>2021-04-09T10:02:40Z</time>
      </trkpt>
      <trkpt lat="49.10295" lon="2.7457">
        <ele>112.18</ele>
        <time>2021-04-09T10:02:48Z</time>
      </trkpt>
      <trkpt lat="49.10348" lon="2.74691">
        <ele>110.67</ele>
        <time>2021-04-09T10:02:56Z</time>
      </trkpt>
      <trkpt lat="49.10383" lon="2.7478">
        <ele>113.6</ele>
        <time>2021-04-09T10:03:04Z</time>
      </trkpt>
      <trkpt lat="49.10434" lon="2.74935">
        <ele>113.25</ele>
        <time>2021-04-09T10:03:12Z</time>
      </trkpt>
      <trkpt lat="49.10472" lon="2.75067">
        <ele>114.01</ele>
        <time>2021-04-09T10:03:20Z</time>
      </trkpt>
      <trkpt lat="49.10515" lon="2.75229">
        <ele>118.58</ele>
        <time>2021-04-09T10:03:29Z</time>
      </trkpt>
      <trkpt lat="49.1057" lon="2.75463">
        <ele>118</ele>
        <time>2021-04-09T10:03:37Z</time>
      </trkpt>
      <trkpt lat="49.10588" lon="2.75568">
        <ele>114.62</ele>
        <time>2021-04-09T10:03:45Z</time>
      </trkpt>
      <trkpt lat="49.10631" lon="2.75774">
        <ele>111.82</ele>
        <time>2021-04-09T10:03:53Z</time>
      </trkpt>
      <trkpt lat="49.10684" lon="2.7601">
        <ele>112.34</ele>
        <time>2021-04-09T10:04:01Z</time>
      </trkpt>
      <trkpt lat="49.10779" lon="2.76311">
        <ele>112.99</ele>
        <time>2021-04-09T10:04:09Z</time>
      </trkpt>
      <trkpt lat="49.10879" lon="2.76539">
        <ele>114.83</ele>
        <time>2021-04-09T10:04:17Z</time>
      </trkpt>
      <trkpt lat="49.11013" lon="2.76767">
        <ele>116.67</ele>
        <time>2021-04-09T10:04:26Z</time>
      </trkpt>
      <trkpt lat="49.11085" lon="2.76872">
        <ele>114.07</ele>
        <time>2021-04-09T10:04:34Z</time>
      </trkpt>
      <trkpt lat="49.11242" lon="2.77086">
        <ele>118.81</ele>
        <time>2021-04-09T10:04:42Z</time>
      </trkpt>
      <trkpt lat="49.11377" lon="2.77262">
        <ele>120.75</ele>
        <time>2021-04-09T10:04:50Z</time>
      </trkpt>
      <trkpt lat="49.13108" lon="2.79561">
        <ele>110.1</ele>
        <time>2021-04-09T10:04:58Z</time>
      </trkpt>
      <trkpt lat="49.13157" lon="2.79618">
        <ele>107.61</ele>
        <time>2021-04-09T10:05:06Z</time>
      </trkpt>
      <trkpt lat="49.13205" lon="2.79666">
        <ele>107</ele>
        <time>2021-04-09T10:05:14Z</time>
      </trkpt>
      <trkpt lat="49.13257" lon="2.79711">
        <ele>105.75</ele>
        <time>2021-04-09T10:05:22Z</time>
      </trkpt>
      <trkpt lat="49.13305" lon="2.79747">
        <ele>105</ele>
        <time>2021-04-09T10:05:31Z</time>
      </trkpt>
      <trkpt lat="49.13382" lon="2.79795">
        <ele>103.26</ele>
        <time>2021-04-09T10:05:39Z</time>
      </trkpt>
      <trkpt lat="49.13427" lon="2.79817">
        <ele>102.78</ele>
        <time>2021-04-09T10:05:47Z</time>
      </trkpt>
      <trkpt lat="49.13487" lon="2.79839">
        <ele>104</ele>
        <time>2021-04-09T10:05:55Z</time>
      </trkpt>
      <trkpt lat="49.13552" lon="2.79856">
        <ele>101.99</ele>
        <time>2021-04-09T10:06:03Z</time>
      </trkpt>
      <trkpt lat="49.1362" lon="2.79866">
        <ele>101.11</ele>
        <time>2021-04-09T10:06:11Z</time>
      </trkpt>
      <trkpt lat="49.13911" lon="2.79897">
        <ele>103</ele>
        <time>2021-04-09T10:06:19Z</time>
      </trkpt>
      <trkpt lat="49.13987" lon="2.79914">
        <ele>103.96</ele>
        <time>2021-04-09T10:06:28Z</time>
      </trkpt>
      <trkpt lat="49.14055" lon="2.79935">
        <ele>105.68</ele>
        <time>2021-04-09T10:06:36Z</time>
      </trkpt>
      <trkpt lat="49.14136" lon="2.79974">
        <ele>104.07</ele>
        <time>2021-04-09T10:06:44Z</time>
      </trkpt>
      <trkpt lat="49.14179" lon="2.80001">
        <ele>104.03</ele>
        <time>2021-04-09T10:06:52Z</time>
      </trkpt>
      <trkpt lat="49.14237" lon="2.80045">
        <ele>105.21</ele>
        <time>2021-04-09T10:07:00Z</time>
      </trkpt>
      <trkpt lat="49.14299" lon="2.80102">
        <ele>104.67</ele>
        <time>2021-04-09T10:07:08Z</time>
      </trkpt>
      <trkpt lat="49.14359" lon="2.80172">
        <ele>97.42</ele>
        <time>2021-04-09T10:07:16Z</time>
      </trkpt>
      <trkpt lat="49.14422" lon="2.8026">
        <ele>95.43</ele>
        <time>2021-04-09T10:07:24Z</time>
      </trkpt>
      <trkpt lat="49.14456" lon="2.80315">
        <ele>92.94</ele>
        <time>2021-04-09T10:07:33Z</time>
      </trkpt>
      <trkpt lat="49.14508" lon="2.80418">
        <ele>92.31</ele>
        <time>2021-04-09T10:07:41Z</time>
      </trkpt>
      <trkpt lat="49.14565" lon="2.80547">
        <ele>93.64</ele>
        <time>2021-04-09T10:07:49Z</time>
      </trkpt>
      <trkpt lat="49.14643" lon="2.80744">
        <ele>96.03</ele>
        <time>2021-04-09T10:07:57Z</time>
      </trkpt>
      <trkpt lat="49.1469" lon="2.80868">
        <ele>104.33</ele>
        <time>2021-04-09T10:08:05Z</time>
      </trkpt>
      <trkpt lat="49.14722" lon="2.80965">
        <ele>107.75</ele>
        <time>2021-04-09T10:08:13Z</time>
      </trkpt>
      <trkpt lat="49.14752" lon="2.81075">
        <ele>113.43</ele>
        <time>2021-04-09T10:08:21Z</time>
      </trkpt>
      <trkpt lat="49.14774" lon="2.81182">
        <ele>113.4</ele>
        <time>2021-04-09T10:08:30Z</time>
      </trkpt>
      <trkpt lat="49.14792" lon="2.81307">
        <ele>115.98</ele>
        <time>2021-04-09T10:08:38Z</time>
      </trkpt>
      <trkpt lat="49.14797" lon="2.81371">
        <ele>115.56</ele>
        <time>2021-04-09T10:08:46Z</time>
      </trkpt>
      <trkpt lat="49.148" lon="2.81435">
        <ele>116.54</ele>
        <time>2021-04-09T10:08:54Z</time>
      </trkpt>
      <trkpt lat="49.14803" lon="2.81535">
        <ele>117.93</ele>
        <time>2021-04-09T10:09:02Z</time>
      </trkpt>
      <trkpt lat="49.14803" lon="2.81585">
        <ele>117.85</ele>
        <time>2021-04-09T10:09:10Z</time>
      </trkpt>
      <trkpt lat="49.148" lon="2.81647">
        <ele>116.57</ele>
        <time>2021-04-09T10:09:18Z</time>
      </trkpt>
      <trkpt lat="49.14794" lon="2.81717">
        <ele>115.83</ele>
        <time>2021-04-09T10:09:26Z</time>
      </trkpt>
      <trkpt lat="49.14788" lon="2.8184">
        <ele>115.59</ele>
        <time>2021-04-09T10:09:35Z</time>
      </trkpt>
      <trkpt lat="49.14781" lon="2.82046">
        <ele>119.04</ele>
        <time>2021-04-09T10:09:43Z</time>
      </trkpt>
      <trkpt lat="49.14785" lon="2.82161">
        <ele>118.27</ele>
        <time>2021-04-09T10:09:51Z</time>
      </trkpt>
      <trkpt lat="49.14796" lon="2.82289">
        <ele>116.92</ele>
        <time>2021-04-09T10:09:59Z</time>
      </trkpt>
      <trkpt lat="49.14817" lon="2.82425">
        <ele>118</ele>
        <time>2021-04-09T10:10:07Z</time>
      </trkpt>
      <trkpt lat="49.14842" lon="2.82537">
        <ele>118.68</ele>
        <time>2021-04-09T10:10:15Z</time>
      </trkpt>
      <trkpt lat="49.1487" lon="2.8263">
        <ele>117.2</ele>
        <time>2021-04-09T10:10:23Z</time>
      </trkpt>
      <trkpt lat="49.14941" lon="2.82805">
        <ele>118.84</ele>
        <time>2021-04-09T10:10:32Z</time>
      </trkpt>
      <trkpt lat="49.15072" lon="2.831">
        <ele>123.84</ele>
        <time>2021-04-09T10:10:40Z</time>
      </trkpt>
      <trkpt lat="49.15191" lon="2.83358">
        <ele>122.89</ele>
        <time>2021-04-09T10:10:48Z</time>
      </trkpt>
      <trkpt lat="49.15855" lon="2.84848">
        <ele>125</ele>
        <time>2021-04-09T10:10:56Z</time>
      </trkpt>
      <trkpt lat="49.15915" lon="2.84982">
        <ele>125</ele>
        <time>2021-04-09T10:11:04Z</time>
      </trkpt>
      <trkpt lat="49.15979" lon="2.85119">
        <ele>126.25</ele>
        <time>2021-04-09T10:11:12Z</time>
      </trkpt>
      <trkpt lat="49.16" lon="2.8515">
        <ele>127.42</ele>
        <time>2021-04-09T10:11:20Z</time>
      </trkpt>
      <trkpt lat="49.16052" lon="2.852">
        <ele>129.34</ele>
        <time>2021-04-09T10:11:28Z</time>
      </trkpt>
      <trkpt lat="49.16069" lon="2.8522">
        <ele>129.43</ele>
        <time>2021-04-09T10:11:37Z</time>
      </trkpt>
      <trkpt lat="49.16086" lon="2.85243">
        <ele>129.58</ele>
        <time>2021-04-09T10:11:45Z</time>
      </trkpt>
      <trkpt lat="49.16252" lon="2.85542">
        <ele>130.52</ele>
        <time>2021-04-09T10:11:53Z</time>
      </trkpt>
      <trkpt lat="49.16328" lon="2.85676">
        <ele>131.45</ele>
        <time>2021-04-09T10:12:01Z</time>
      </trkpt>
      <trkpt lat="49.16495" lon="2.85976">
        <ele>132.86</ele>
        <time>2021-04-09T10:12:09Z</time>
      </trkpt>
      <trkpt lat="49.16541" lon="2.86076">
        <ele>132.35</ele>
        <time>2021-04-09T10:12:17Z</time>
      </trkpt>
      <trkpt lat="49.16613" lon="2.86218">
        <ele>133.35</ele>
        <time>2021-04-09T10:12:25Z</time>
      </trkpt>
      <trkpt lat="49.16734" lon="2.86436">
        <ele>132.41</ele>
        <time>2021-04-09T10:12:34Z</time>
      </trkpt>
      <trkpt lat="49.16853" lon="2.86658">
        <ele>132.94</ele>
        <time>2021-04-09T10:12:42Z</time>
      </trkpt>
      <trkpt lat="49.16934" lon="2.8683">
        <ele>132.07</ele>
        <time>2021-04-09T10:12:50Z</time>
      </trkpt>
      <trkpt lat="49.17002" lon="2.86965">
        <ele>133</ele>
        <time>2021-04-09T10:12:58Z</time>
      </trkpt>
      <trkpt lat="49.17564" lon="2.87991">
        <ele>130.62</ele>
        <time>2021-04-09T10:13:06Z</time>
      </trkpt>
      <trkpt lat="49.17635" lon="2.88107">
        <ele>129.87</ele>
        <time>2021-04-09T10:13:14Z</time>
      </trkpt>
      <trkpt lat="49.177" lon="2.88206">
        <ele>127.59</ele>
        <time>2021-04-09T10:13:22Z</time>
      </trkpt>
      <trkpt lat="49.17751" lon="2.88292">
        <ele>126</ele>
        <time>2021-04-09T10:13:30Z</time>
      </trkpt>
      <trkpt lat="49.17938" lon="2.8863">
        <ele>124.72</ele>
        <time>2021-04-09T10:13:39Z</time>
      </trkpt>
      <trkpt lat="49.17983" lon="2.88712">
        <ele>122.26</ele>
        <time>2021-04-09T10:13:47Z</time>
      </trkpt>
      <trkpt lat="49.18093" lon="2.88891">
        <ele>120.87</ele>
        <time>2021-04-09T10:13:55Z</time>
      </trkpt>
      <trkpt lat="49.18144" lon="2.8897">
        <ele>120</ele>
        <time>2021-04-09T10:14:03Z</time>
      </trkpt>
      <trkpt lat="49.18297" lon="2.89246">
        <ele>119.16</ele>
        <time>2021-04-09T10:14:11Z</time>
      </trkpt>
      <trkpt lat="49.18695" lon="2.89969">
        <ele>123.67</ele>
        <time>2021-04-09T10:14:19Z</time>
      </trkpt>
      <trkpt lat="49.18881" lon="2.90303">
        <ele>121.26</ele>
        <time>2021-04-09T10:14:27Z</time>
      </trkpt>
      <trkpt lat="49.19013" lon="2.90547">
        <ele>120.48</ele>
        <time>2021-04-09T10:14:36Z</time>
      </trkpt>
      <trkpt lat="49.19075" lon="2.90672">
        <ele>119.94</ele>
        <time>2021-04-09T10:14:44Z</time>
      </trkpt>
      <trkpt lat="49.19179" lon="2.90865">
        <ele>119.37</ele>
        <time>2021-04-09T10:14:52Z</time>
      </trkpt>
      <trkpt lat="49.19213" lon="2.90939">
        <ele>120.19</ele>
        <time>2021-04-09T10:15:00Z</time>
      </trkpt>
      <trkpt lat="49.19248" lon="2.91025">
        <ele>120.09</ele>
        <time>2021-04-09T10:15:08Z</time>
      </trkpt>
      <trkpt lat="49.19278" lon="2.91126">
        <ele>119.99</ele>
        <time>2021-04-09T10:15:16Z</time>
      </trkpt>
      <trkpt lat="49.19303" lon="2.91238">
        <ele>119.27</ele>
        <time>2021-04-09T10:15:24Z</time>
      </trkpt>
      <trkpt lat="49.19371" lon="2.91576">
        <ele>120.79</ele>
        <time>2021-04-09T10:15:32Z</time>
      </trkpt>
      <trkpt lat="49.19399" lon="2.91693">
        <ele>123.39</ele>
        <time>2021-04-09T10:15:41Z</time>
      </trkpt>
      <trkpt lat="49.19429" lon="2.9179">
        <ele>122.36</ele>
        <time>2021-04-09T10:15:49Z</time>
      </trkpt>
      <trkpt lat="49.19468" lon="2.91892">
        <ele>124.92</ele>
        <time>2021-04-09T10:15:57Z</time>
      </trkpt>
      <trkpt lat="49.19515" lon="2.91998">
        <ele>124.96</ele>
        <time>2021-04-09T10:16:05Z</time>
      </trkpt>
      <trkpt lat="49.19562" lon="2.92082">
        <ele>127.01</ele>
        <time>2021-04-09T10:16:13Z</time>
      </trkpt>
      <trkpt lat="49.19598" lon="2.9214">
        <ele>127.54</ele>
        <time>2021-04-09T10:16:21Z</time>
      </trkpt>
      <trkpt lat="49.1962" lon="2.92171">
        <ele>127.9</ele>
        <time>2021-04-09T10:16:29Z</time>
      </trkpt>
      <trkpt lat="49.19938" lon="2.92589">
        <ele>132</ele>
        <time>2021-04-09T10:16:38Z</time>
      </trkpt>
      <trkpt lat="49.20464" lon="2.93274">
        <ele>136.62</ele>
        <time>2021-04-09T10:16:46Z</time>
      </trkpt>
      <trkpt lat="49.20532" lon="2.93362">
        <ele>137.16</ele>
        <time>2021-04-09T10:16:54Z</time>
      </trkpt>
      <trkpt lat="49.20588" lon="2.9344">
        <ele>138.3</ele>
        <time>2021-04-09T10:17:02Z</time>
      </trkpt>
      <trkpt lat="49.20634" lon="2.93514">
        <ele>141.11</ele>
        <time>2021-04-09T10:17:10Z</time>
      </trkpt>
      <trkpt lat="49.20664" lon="2.9357">
        <ele>141.89</ele>
        <time>2021-04-09T10:17:18Z</time>
      </trkpt>
      <trkpt lat="49.20705" lon="2.93664">
        <ele>139.05</ele>
        <time>2021-04-09T10:17:26Z</time>
      </trkpt>
      <trkpt lat="49.20811" lon="2.93945">
        <ele>140.2</ele>
        <time>2021-04-09T10:17:34Z</time>
      </trkpt>
      <trkpt lat="49.20872" lon="2.94114">
        <ele>141.93</ele>
        <time>2021-04-09T10:17:43Z</time>
      </trkpt>
      <trkpt lat="49.20906" lon="2.9422">
        <ele>143.55</ele>
        <time>2021-04-09T10:17:51Z</time>
      </trkpt>
      <trkpt lat="49.20932" lon="2.94316">
        <ele>143</ele>
        <time>2021-04-09T10:17:59Z</time>
      </trkpt>
      <trkpt lat="49.2095" lon="2.94395">
        <ele>142.95</ele>
        <time>2021-04-09T10:18:07Z</time>
      </trkpt>
      <trkpt lat="49.20971" lon="2.94509">
        <ele>142.3</ele>
        <time>2021-04-09T10:18:15Z</time>
      </trkpt>
      <trkpt lat="49.2099" lon="2.94622">
        <ele>143.39</ele>
        <time>2021-04-09T10:18:23Z</time>
      </trkpt>
      <trkpt lat="49.2104" lon="2.94985">
        <ele>143.44</ele>
        <time>2021-04-09T10:18:31Z</time>
      </trkpt>
      <trkpt lat="49.21055" lon="2.95078">
        <ele>143.21</ele>
        <time>2021-04-09T10:18:40Z</time>
      </trkpt>
      <trkpt lat="49.21076" lon="2.95172">
        <ele>142</ele>
        <time>2021-04-09T10:18:48Z</time>
      </trkpt>
      <trkpt lat="49.21105" lon="2.9529">
        <ele>142</ele>
        <time>2021-04-09T10:18:56Z</time>
      </trkpt>
      <trkpt lat="49.21129" lon="2.95374">
        <ele>142</ele>
        <time>2021-04-09T10:19:04Z</time>
      </trkpt>
      <trkpt lat="49.21189" lon="2.95554">
        <ele>141</ele>
        <time>2021-04-09T10:19:12Z</time>
      </trkpt>
      <trkpt lat="49.21259" lon="2.95747">
        <ele>137.12</ele>
        <time>2021-04-09T10:19:20Z</time>
      </trkpt>
      <trkpt lat="49.21289" lon="2.95818">
        <ele>137</ele>
        <time>2021-04-09T10:19:28Z</time>
      </trkpt>
      <trkpt lat="49.21329" lon="2.95905">
        <ele>136</ele>
        <time>2021-04-09T10:19:36Z</time>
      </trkpt>
      <trkpt lat="49.21359" lon="2.95964">
        <ele>135.94</ele>
        <time>2021-04-09T10:19:45Z</time>
      </trkpt>
      <trkpt lat="49.21389" lon="2.96019">
        <ele>134.99</ele>
        <time>2021-04-09T10:19:53Z</time>
      </trkpt>
      <trkpt lat="49.21471" lon="2.96151">
        <ele>132</ele>
        <time>2021-04-09T10:20:01Z</time>
      </trkpt>
      <trkpt lat="49.21565" lon="2.96274">
        <ele>134.05</ele>
        <time>2021-04-09T10:20:09Z</time>
      </trkpt>
      <trkpt lat="49.21634" lon="2.96349">
        <ele>136.66</ele>
        <time>2021-04-09T10:20:17Z</time>
      </trkpt>
      <trkpt lat="49.21709" lon="2.9642">
        <ele>136.59</ele>
        <time>2021-04-09T10:20:25Z</time>
      </trkpt>
      <trkpt lat="49.21922" lon="2.96592">
        <ele>136.06</ele>
        <time>2021-04-09T10:20:33Z</time>
      </trkpt>
      <trkpt lat="49.22054" lon="2.96696">
        <ele>130.05</ele>
        <time>2021-04-09T10:20:42Z</time>
      </trkpt>
      <trkpt lat="49.22114" lon="2.96745">
        <ele>126.74</ele>
        <time>2021-04-09T10:20:50Z</time>
      </trkpt>
      <trkpt lat="49.22174" lon="2.96806">
        <ele>124.54</ele>
        <time>2021-04-09T10:20:58Z</time>
      </trkpt>
      <trkpt lat="49.22298" lon="2.9694">
        <ele>128.84</ele>
        <time>2021-04-09T10:21:06Z</time>
      </trkpt>
      <trkpt lat="49.22374" lon="2.97049">
        <ele>130.3</ele>
        <time>2021-04-09T10:21:14Z</time>
      </trkpt>
      <trkpt lat="49.2264" lon="2.97457">
        <ele>135.86</ele>
        <time>2021-04-09T10:21:22Z</time>
      </trkpt>
      <trkpt lat="49.22751" lon="2.97642">
        <ele>139.77</ele>
        <time>2021-04-09T10:21:30Z</time>
      </trkpt>
      <trkpt lat="49.22785" lon="2.97711">
        <ele>133.76</ele>
        <time>2021-04-09T10:21:38Z</time>
      </trkpt>
      <trkpt lat="49.22854" lon="2.9787">
        <ele>132.25</ele>
        <time>2021-04-09T10:21:47Z</time>
      </trkpt>
      <trkpt lat="49.23016" lon="2.98227">
        <ele>129.51</ele>
        <time>2021-04-09T10:21:55Z</time>
      </trkpt>
      <trkpt lat="49.23053" lon="2.98318">
        <ele>126.54</ele>
        <time>2021-04-09T10:22:03Z</time>
      </trkpt>
      <trkpt lat="49.23089" lon="2.98421">
        <ele>122.72</ele>
        <time>2021-04-09T10:22:11Z</time>
      </trkpt>
      <trkpt lat="49.23132" lon="2.98556">
        <ele>120.25</ele>
        <time>2021-04-09T10:22:19Z</time>
      </trkpt>
      <trkpt lat="49.23161" lon="2.98683">
        <ele>118</ele>
        <time>2021-04-09T10:22:27Z</time>
      </trkpt>
      <trkpt lat="49.23191" lon="2.98822">
        <ele>122</ele>
        <time>2021-04-09T10:22:35Z</time>
      </trkpt>
      <trkpt lat="49.23212" lon="2.98957">
        <ele>119.25</ele>
        <time>2021-04-09T10:22:44Z</time>
      </trkpt>
      <trkpt lat="49.2327" lon="2.9934">
        <ele>116.79</ele>
        <time>2021-04-09T10:22:52Z</time>
      </trkpt>
      <trkpt lat="49.23293" lon="2.99452">
        <ele>112.38</ele>
        <time>2021-04-09T10:23:00Z</time>
      </trkpt>
      <trkpt lat="49.23338" lon="2.99621">
        <ele>116.01</ele>
        <time>2021-04-09T10:23:08Z</time>
      </trkpt>
      <trkpt lat="49.23374" lon="2.99734">
        <ele>117.71</ele>
        <time>2021-04-09T10:23:16Z</time>
      </trkpt>
      <trkpt lat="49.23417" lon="2.99852">
        <ele>115.64</ele>
        <time>2021-04-09T10:23:24Z</time>
      </trkpt>
      <trkpt lat="49.23463" lon="2.99961">
        <ele>105.11</ele>
        <time>2021-04-09T10:23:32Z</time>
      </trkpt>
      <trkpt lat="49.23553" lon="3.0014">
        <ele>101.85</ele>
        <time>2021-04-09T10:23:40Z</time>
      </trkpt>
      <trkpt lat="49.23705" lon="3.00427">
        <ele>99.99</ele>
        <time>2021-04-09T10:23:49Z</time>
      </trkpt>
      <trkpt lat="49.23732" lon="3.00482">
        <ele>100.32</ele>
        <time>2021-04-09T10:23:57Z</time>
      </trkpt>
      <trkpt lat="49.23775" lon="3.0058">
        <ele>100.9</ele>
        <time>2021-04-09T10:24:05Z</time>
      </trkpt>
      <trkpt lat="49.23902" lon="3.00917">
        <ele>110</ele>
        <time>2021-04-09T10:24:13Z</time>
      </trkpt>
      <trkpt lat="49.23954" lon="3.01073">
        <ele>111.14</ele>
        <time>2021-04-09T10:24:21Z</time>
      </trkpt>
      <trkpt lat="49.23967" lon="3.01119">
        <ele>112.5</ele>
        <time>2021-04-09T10:24:29Z</time>
      </trkpt>
      <trkpt lat="49.23988" lon="3.01205">
        <ele>114.76</ele>
        <time>2021-04-09T10:24:37Z</time>
      </trkpt>
      <trkpt lat="49.24025" lon="3.01425">
        <ele>117.18</ele>
        <time>2021-04-09T10:24:45Z</time>
      </trkpt>
      <trkpt lat="49.2403" lon="3.01463">
        <ele>117.93</ele>
        <time>2021-04-09T10:24:54Z</time>
      </trkpt>
      <trkpt lat="49.24035" lon="3.01534">
        <ele>117</ele>
        <time>2021-04-09T10:25:02Z</time>
      </trkpt>
      <trkpt lat="49.24039" lon="3.01746">
        <ele>116.39</ele>
        <time>2021-04-09T10:25:10Z</time>
      </trkpt>
      <trkpt lat="49.24035" lon="3.01868">
        <ele>118.36</ele>
        <time>2021-04-09T10:25:18Z</time>
      </trkpt>
      <trkpt lat="49.24024" lon="3.02041">
        <ele>119.34</ele>
        <time>2021-04-09T10:25:26Z</time>
      </trkpt>
      <trkpt lat="49.24013" lon="3.02181">
        <ele>116.52</ele>
        <time>2021-04-09T10:25:34Z</time>
      </trkpt>
      <trkpt lat="49.24004" lon="3.02283">
        <ele>115.86</ele>
        <time>2021-04-09T10:25:42Z</time>
      </trkpt>
      <trkpt lat="49.24003" lon="3.02377">
        <ele>114.24</ele>
        <time>2021-04-09T10:25:51Z</time>
      </trkpt>
      <trkpt lat="49.24004" lon="3.02457">
        <ele>113.07</ele>
        <time>2021-04-09T10:25:59Z</time>
      </trkpt>
      <trkpt lat="49.24007" lon="3.02537">
        <ele>111.18</ele>
        <time>2021-04-09T10:26:07Z</time>
      </trkpt>
      <trkpt lat="49.24015" lon="3.02621">
        <ele>110</ele>
        <time>2021-04-09T10:26:15Z</time>
      </trkpt>
      <trkpt lat="49.24053" lon="3.02807">
        <ele>100.4</ele>
        <time>2021-04-09T10:26:23Z</time>
      </trkpt>
      <trkpt lat="49.24151" lon="3.03278">
        <ele>76</ele>
        <time>2021-04-09T10:26:31Z</time>
      </trkpt>
      <trkpt lat="49.24167" lon="3.03327">
        <ele>77.8</ele>
        <time>2021-04-09T10:26:39Z</time>
      </trkpt>
      <trkpt lat="49.24176" lon="3.0335">
        <ele>78.33</ele>
        <time>2021-04-09T10:26:47Z</time>
      </trkpt>
      <trkpt lat="49.24203" lon="3.03402">
        <ele>80.28</ele>
        <time>2021-04-09T10:26:56Z</time>
      </trkpt>
      <trkpt lat="49.24227" lon="3.03439">
        <ele>85.04</ele>
        <time>2021-04-09T10:27:04Z</time>
      </trkpt>
      <trkpt lat="49.24258" lon="3.03472">
        <ele>90.42</ele>
        <time>2021-04-09T10:27:12Z</time>
      </trkpt>
      <trkpt lat="49.2429" lon="3.035">
        <ele>91.3</ele>
        <time>2021-04-09T10:27:20Z</time>
      </trkpt>
      <trkpt lat="49.24453" lon="3.03577">
        <ele>104.79</ele>
        <time>2021-04-09T10:27:28Z</time>
      </trkpt>
      <trkpt lat="49.24539" lon="3.03616">
        <ele>109.55</ele>
        <time>2021-04-09T10:27:36Z</time>
      </trkpt>
      <trkpt lat="49.24565" lon="3.03636">
        <ele>110.45</ele>
        <time>2021-04-09T10:27:44Z</time>
      </trkpt>
      <trkpt lat="49.24609" lon="3.03682">
        <ele>114.67</ele>
        <time>2021-04-09T10:27:53Z</time>
      </trkpt>
      <trkpt lat="49.24632" lon="3.03717">
        <ele>116.99</ele>
        <time>2021-04-09T10:28:01Z</time>
      </trkpt>
      <trkpt lat="49.24654" lon="3.03758">
        <ele>118.45</ele>
        <time>2021-04-09T10:28:09Z</time>
      </trkpt>
      <trkpt lat="49.24681" lon="3.03829">
        <ele>119</ele>
        <time>2021-04-09T10:28:17Z</time>
      </trkpt>
      <trkpt lat="49.24692" lon="3.03875">
        <ele>119.95</ele>
        <time>2021-04-09T10:28:25Z</time>
      </trkpt>
      <trkpt lat="49.24698" lon="3.03914">
        <ele>120.13</ele>
        <time>2021-04-09T10:28:33Z</time>
      </trkpt>
      <trkpt lat="49.24702" lon="3.03956">
        <ele>120.58</ele>
        <time>2021-04-09T10:28:41Z</time>
      </trkpt>
      <trkpt lat="49.24714" lon="3.04125">
        <ele>124.48</ele>
        <time>2021-04-09T10:28:49Z</time>
      </trkpt>
      <trkpt lat="49.24722" lon="3.04194">
        <ele>125</ele>
        <time>2021-04-09T10:28:58Z</time>
      </trkpt>
      <trkpt lat="49.24737" lon="3.04288">
        <ele>126</ele>
        <time>2021-04-09T10:29:06Z</time>
      </trkpt>
      <trkpt lat="49.24749" lon="3.04344">
        <ele>127.38</ele>
        <time>2021-04-09T10:29:14Z</time>
      </trkpt>
      <trkpt lat="49.24772" lon="3.04432">
        <ele>129</ele>
        <time>2021-04-09T10:29:22Z</time>
      </trkpt>
      <trkpt lat="49.25055" lon="3.05382">
        <ele>122.25</ele>
        <time>2021-04-09T10:29:30Z</time>
      </trkpt>
      <trkpt lat="49.25113" lon="3.05587">
        <ele>122</ele>
        <time>2021-04-09T10:29:38Z</time>
      </trkpt>
      <trkpt lat="49.25138" lon="3.057">
        <ele>121.99</ele>
        <time>2021-04-09T10:29:46Z</time>
      </trkpt>
      <trkpt lat="49.25216" lon="3.06185">
        <ele>124</ele>
        <time>2021-04-09T10:29:55Z</time>
      </trkpt>
      <trkpt lat="49.2524" lon="3.06328">
        <ele>124.29</ele>
        <time>2021-04-09T10:30:03Z</time>
      </trkpt>
      <trkpt lat="49.25268" lon="3.06462">
        <ele>126.17</ele>
        <time>2021-04-09T10:30:11Z</time>
      </trkpt>
      <trkpt lat="49.25293" lon="3.06543">
        <ele>123.54</ele>
        <time>2021-04-09T10:30:19Z</time>
      </trkpt>
      <trkpt lat="49.25319" lon="3.06611">
        <ele>125.49</ele>
        <time>2021-04-09T10:30:27Z</time>
      </trkpt>
      <trkpt lat="49.25347" lon="3.06671">
        <ele>125</ele>
        <time>2021-04-09T10:30:35Z</time>
      </trkpt>
      <trkpt lat="49.25363" lon="3.06701">
        <ele>124.96</ele>
        <time>2021-04-09T10:30:43Z</time>
      </trkpt>
      <trkpt lat="49.25385" lon="3.06739">
        <ele>125</ele>
        <time>2021-04-09T10:30:51Z</time>
      </trkpt>
      <trkpt lat="49.2544" lon="3.06823">
        <ele>126.83</ele>
        <time>2021-04-09T10:31:00Z</time>
      </trkpt>
      <trkpt lat="49.25662" lon="3.07123">
        <ele>127</ele>
        <time>2021-04-09T10:31:08Z</time>
      </trkpt>
      <trkpt lat="49.26119" lon="3.07735">
        <ele>131</ele>
        <time>2021-04-09T10:31:16Z</time>
      </trkpt>
      <trkpt lat="49.26194" lon="3.07846">
        <ele>132.47</ele>
        <time>2021-04-09T10:31:24Z</time>
      </trkpt>
      <trkpt lat="49.26247" lon="3.07914">
        <ele>134.91</ele>
        <time>2021-04-09T10:31:32Z</time>
      </trkpt>
      <trkpt lat="49.26306" lon="3.08009">
        <ele>138.15</ele>
        <time>2021-04-09T10:31:40Z</time>
      </trkpt>
      <trkpt lat="49.26384" lon="3.08165">
        <ele>134.95</ele>
        <time>2021-04-09T10:31:48Z</time>
      </trkpt>
      <trkpt lat="49.26427" lon="3.08266">
        <ele>135.42</ele>
        <time>2021-04-09T10:31:57Z</time>
      </trkpt>
      <trkpt lat="49.26454" lon="3.08335">
        <ele>133.68</ele>
        <time>2021-04-09T10:32:05Z</time>
      </trkpt>
      <trkpt lat="49.26485" lon="3.08427">
        <ele>135.93</ele>
        <time>2021-04-09T10:32:13Z</time>
      </trkpt>
      <trkpt lat="49.26546" lon="3.08658">
        <ele>140.1</ele>
        <time>2021-04-09T10:32:21Z</time>
      </trkpt>
      <trkpt lat="49.26572" lon="3.08787">
        <ele>139.73</ele>
        <time>2021-04-09T10:32:29Z</time>
      </trkpt>
      <trkpt lat="49.26592" lon="3.08923">
        <ele>141.55</ele>
        <time>2021-04-09T10:32:37Z</time>
      </trkpt>
      <trkpt lat="49.26603" lon="3.09037">
        <ele>140.62</ele>
        <time>2021-04-09T10:32:45Z</time>
      </trkpt>
      <trkpt lat="49.26608" lon="3.09113">
        <ele>140.15</ele>
        <time>2021-04-09T10:32:53Z</time>
      </trkpt>
      <trkpt lat="49.26611" lon="3.09197">
        <ele>139.08</ele>
        <time>2021-04-09T10:33:02Z</time>
      </trkpt>
      <trkpt lat="49.26613" lon="3.09319">
        <ele>140.05</ele>
        <time>2021-04-09T10:33:10Z</time>
      </trkpt>
      <trkpt lat="49.26611" lon="3.09609">
        <ele>142.06</ele>
        <time>2021-04-09T10:33:18Z</time>
      </trkpt>
      <trkpt lat="49.26602" lon="3.09721">
        <ele>138.02</ele>
        <time>2021-04-09T10:33:23Z</time>
      </trkpt>
      <trkpt lat="49.26591" lon="3.09799">
        <ele>137.78</ele>
        <time>2021-04-09T10:33:27Z</time>
      </trkpt>
      <trkpt lat="49.26553" lon="3.09999">
        <ele>138.85</ele>
        <time>2021-04-09T10:33:32Z</time>
      </trkpt>
      <trkpt lat="49.26553" lon="3.10008">
        <ele>138.89</ele>
        <time>2021-04-09T10:33:37Z</time>
      </trkpt>
      <trkpt lat="49.26709" lon="3.10007">
        <ele>142.75</ele>
        <time>2021-04-09T10:33:44Z</time>
      </trkpt>
      <trkpt lat="49.26879" lon="3.10012">
        <ele>147.83</ele>
        <time>2021-04-09T10:33:51Z</time>
      </trkpt>
      <trkpt lat="49.26938" lon="3.10017">
        <ele>155.94</ele>
        <time>2021-04-09T10:33:58Z</time>
      </trkpt>
      <trkpt lat="49.26971" lon="3.10042">
        <ele>156.89</ele>
        <time>2021-04-09T10:34:05Z</time>
      </trkpt>
      <trkpt lat="49.27214" lon="3.10183">
        <ele>162.64</ele>
        <time>2021-04-09T10:34:12Z</time>
      </trkpt>
      <trkpt lat="49.27707" lon="3.10492">
        <ele>177.64</ele>
        <time>2021-04-09T10:34:19Z</time>
      </trkpt>
      <trkpt lat="49.27793" lon="3.10544">
        <ele>182.22</ele>
        <time>2021-04-09T10:34:26Z</time>
      </trkpt>
      <trkpt lat="49.2789" lon="3.10607">
        <ele>189.21</ele>
        <time>2021-04-09T10:34:33Z</time>
      </trkpt>
      <trkpt lat="49.28159" lon="3.10874">
        <ele>178.58</ele>
        <time>2021-04-09T10:34:40Z</time>
      </trkpt>
      <trkpt lat="49.28176" lon="3.10895">
        <ele>181.16</ele>
        <time>2021-04-09T10:34:47Z</time>
      </trkpt>
      <trkpt lat="49.28193" lon="3.10919">
        <ele>183.9</ele>
        <time>2021-04-09T10:34:54Z</time>
      </trkpt>
      <trkpt lat="49.28204" lon="3.10948">
        <ele>184.66</ele>
        <time>2021-04-09T10:35:01Z</time>
      </trkpt>
      <trkpt lat="49.28209" lon="3.10972">
        <ele>184.47</ele>
        <time>2021-04-09T10:35:08Z</time>
      </trkpt>
      <trkpt lat="49.28212" lon="3.1099">
        <ele>183.89</ele>
        <time>2021-04-09T10:35:15Z</time>
      </trkpt>
      <trkpt lat="49.28213" lon="3.1101">
        <ele>183.66</ele>
        <time>2021-04-09T10:35:22Z</time>
      </trkpt>
      <trkpt lat="49.28208" lon="3.1137">
        <ele>190.68</ele>
        <time>2021-04-09T10:35:29Z</time>
      </trkpt>
      <trkpt lat="49.28221" lon="3.1143">
        <ele>191.08</ele>
        <time>2021-04-09T10:35:36Z</time>
      </trkpt>
      <trkpt lat="49.28228" lon="3.11442">
        <ele>191.44</ele>
        <time>2021-04-09T10:35:42Z</time>
      </trkpt>
      <trkpt lat="49.28238" lon="3.11452">
        <ele>191.16</ele>
        <time>2021-04-09T10:35:49Z</time>
      </trkpt>
      <trkpt lat="49.28254" lon="3.11457">
        <ele>190.47</ele>
        <time>2021-04-09T10:35:56Z</time>
      </trkpt>
      <trkpt lat="49.28266" lon="3.11453">
        <ele>190.32</ele>
        <time>2021-04-09T10:36:03Z</time>
      </trkpt>
      <trkpt lat="49.28274" lon="3.11447">
        <ele>190.09</ele>
        <time>2021-04-09T10:36:10Z</time>
      </trkpt>
      <trkpt lat="49.28297" lon="3.11404">
        <ele>192.25</ele>
        <time>2021-04-09T10:36:17Z</time>
      </trkpt>
      <trkpt lat="49.28376" lon="3.11224">
        <ele>188.87</ele>
        <time>2021-04-09T10:36:24Z</time>
      </trkpt>
      <trkpt lat="49.28422" lon="3.11149">
        <ele>186.31</ele>
        <time>2021-04-09T10:36:31Z</time>
      </trkpt>
      <trkpt lat="49.28531" lon="3.11052">
        <ele>174.01</ele>
        <time>2021-04-09T10:36:38Z</time>
      </trkpt>
      <trkpt lat="49.28657" lon="3.10837">
        <ele>168.51</ele>
        <time>2021-04-09T10:36:45Z</time>
      </trkpt>
      <trkpt lat="49.287" lon="3.10788">
        <ele>166.87</ele>
        <time>2021-04-09T10:36:52Z</time>
      </trkpt>
      <trkpt lat="49.28755" lon="3.10743">
        <ele>164.65</ele>
        <time>2021-04-09T10:36:59Z</time>
      </trkpt>
      <trkpt lat="49.28981" lon="3.1063">
        <ele>165.53</ele>
        <time>2021-04-09T10:37:06Z</time>
      </trkpt>
      <trkpt lat="49.29204" lon="3.10591">
        <ele>166.36</ele>
        <time>2021-04-09T10:37:13Z</time>
      </trkpt>
      <trkpt lat="49.29418" lon="3.10573">
        <ele>149.58</ele>
        <time>2021-04-09T10:37:20Z</time>
      </trkpt>
      <trkpt lat="49.29479" lon="3.10573">
        <ele>143.74</ele>
        <time>2021-04-09T10:37:27Z</time>
      </trkpt>
      <trkpt lat="49.29533" lon="3.10582">
        <ele>142.79</ele>
        <time>2021-04-09T10:37:34Z</time>
      </trkpt>
      <trkpt lat="49.29611" lon="3.10625">
        <ele>141.51</ele>
        <time>2021-04-09T10:37:41Z</time>
      </trkpt>
      <trkpt lat="49.29668" lon="3.1067">
        <ele>140.13</ele>
        <time>2021-04-09T10:37:48Z</time>
      </trkpt>
      <trkpt lat="49.29755" lon="3.10764">
        <ele>138.83</ele>
        <time>2021-04-09T10:37:55Z</time>
      </trkpt>
      <trkpt lat="49.29845" lon="3.10854">
        <ele>136.86</ele>
        <time>2021-04-09T10:38:02Z</time>
      </trkpt>
      <trkpt lat="49.29914" lon="3.10907">
        <ele>135.65</ele>
        <time>2021-04-09T10:38:09Z</time>
      </trkpt>
      <trkpt lat="49.29966" lon="3.10936">
        <ele>135.15</ele>
        <time>2021-04-09T10:38:16Z</time>
      </trkpt>
      <trkpt lat="49.30013" lon="3.10954">
        <ele>135</ele>
        <time>2021-04-09T10:38:23Z</time>
      </trkpt>
      <trkpt lat="49.30062" lon="3.10965">
        <ele>134.77</ele>
        <time>2021-04-09T10:38:30Z</time>
      </trkpt>
      <trkpt lat="49.30114" lon="3.10969">
        <ele>133.08</ele>
        <time>2021-04-09T10:38:37Z</time>
      </trkpt>
      <trkpt lat="49.30153" lon="3.10965">
        <ele>134.64</ele>
        <time>2021-04-09T10:38:44Z</time>
      </trkpt>
      <trkpt lat="49.30194" lon="3.10958">
        <ele>136.45</ele>
        <time>2021-04-09T10:38:51Z</time>
      </trkpt>
      <trkpt lat="49.30229" lon="3.10947">
        <ele>137.1</ele>
        <time>2021-04-09T10:38:58Z</time>
      </trkpt>
      <trkpt lat="49.30267" lon="3.1093">
        <ele>137</ele>
        <time>2021-04-09T10:39:05Z</time>
      </trkpt>
      <trkpt lat="49.30318" lon="3.109">
        <ele>137.61</ele>
        <time>2021-04-09T10:39:12Z</time>
      </trkpt>
      <trkpt lat="49.30354" lon="3.1087">
        <ele>138.24</ele>
        <time>2021-04-09T10:39:19Z</time>
      </trkpt>
      <trkpt lat="49.3039" lon="3.10835">
        <ele>139.97</ele>
        <time>2021-04-09T10:39:26Z</time>
      </trkpt>
      <trkpt lat="49.30417" lon="3.10805">
        <ele>141.02</ele>
        <time>2021-04-09T10:39:33Z</time>
      </trkpt>
      <trkpt lat="49.30461" lon="3.10744">
        <ele>141.69</ele>
        <time>2021-04-09T10:39:40Z</time>
      </trkpt>
      <trkpt lat="49.30492" lon="3.10693">
        <ele>142.69</ele>
        <time>2021-04-09T10:39:47Z</time>
      </trkpt>
      <trkpt lat="49.30607" lon="3.10477">
        <ele>143.74</ele>
        <time>2021-04-09T10:39:54Z</time>
      </trkpt>
      <trkpt lat="49.30651" lon="3.10418">
        <ele>143</ele>
        <time>2021-04-09T10:40:01Z</time>
      </trkpt>
      <trkpt lat="49.30699" lon="3.1037">
        <ele>141.84</ele>
        <time>2021-04-09T10:40:08Z</time>
      </trkpt>
      <trkpt lat="49.30743" lon="3.10338">
        <ele>140.26</ele>
        <time>2021-04-09T10:40:15Z</time>
      </trkpt>
      <trkpt lat="49.30785" lon="3.10316">
        <ele>138.73</ele>
        <time>2021-04-09T10:40:22Z</time>
      </trkpt>
      <trkpt lat="49.30838" lon="3.10299">
        <ele>136.96</ele>
        <time>2021-04-09T10:40:29Z</time>
      </trkpt>
      <trkpt lat="49.30889" lon="3.10293">
        <ele>136.54</ele>
        <time>2021-04-09T10:40:36Z</time>
      </trkpt>
      <trkpt lat="49.3092" lon="3.10294">
        <ele>136.81</ele>
        <time>2021-04-09T10:40:43Z</time>
      </trkpt>
      <trkpt lat="49.31098" lon="3.1032">
        <ele>138</ele>
        <time>2021-04-09T10:40:50Z</time>
      </trkpt>
      <trkpt lat="49.31138" lon="3.10323">
        <ele>138</ele>
        <time>2021-04-09T10:40:57Z</time>
      </trkpt>
      <trkpt lat="49.31194" lon="3.10322">
        <ele>139.58</ele>
        <time>2021-04-09T10:41:04Z</time>
      </trkpt>
      <trkpt lat="49.31279" lon="3.10314">
        <ele>139.32</ele>
        <time>2021-04-09T10:41:11Z</time>
      </trkpt>
      <trkpt lat="49.31339" lon="3.10314">
        <ele>140.32</ele>
        <time>2021-04-09T10:41:17Z</time>
      </trkpt>
      <trkpt lat="49.31819" lon="3.1033">
        <ele>142.58</ele>
        <time>2021-04-09T10:41:24Z</time>
      </trkpt>
      <trkpt lat="49.3187" lon="3.10326">
        <ele>142.68</ele>
        <time>2021-04-09T10:41:31Z</time>
      </trkpt>
      <trkpt lat="49.32824" lon="3.1015">
        <ele>144.66</ele>
        <time>2021-04-09T10:41:38Z</time>
      </trkpt>
      <trkpt lat="49.32877" lon="3.10133">
        <ele>145</ele>
        <time>2021-04-09T10:41:45Z</time>
      </trkpt>
      <trkpt lat="49.33387" lon="3.09943">
        <ele>146.94</ele>
        <time>2021-04-09T10:41:52Z</time>
      </trkpt>
      <trkpt lat="49.33411" lon="3.09936">
        <ele>147.8</ele>
        <time>2021-04-09T10:41:59Z</time>
      </trkpt>
      <trkpt lat="49.33435" lon="3.09933">
        <ele>148</ele>
        <time>2021-04-09T10:42:06Z</time>
      </trkpt>
      <trkpt lat="49.33507" lon="3.09937">
        <ele>149</ele>
        <time>2021-04-09T10:42:13Z</time>
      </trkpt>
      <trkpt lat="49.33596" lon="3.09946">
        <ele>148.58</ele>
        <time>2021-04-09T10:42:20Z</time>
      </trkpt>
      <trkpt lat="49.33836" lon="3.09987">
        <ele>147</ele>
        <time>2021-04-09T10:42:27Z</time>
      </trkpt>
      <trkpt lat="49.33913" lon="3.0999">
        <ele>148.58</ele>
        <time>2021-04-09T10:42:34Z</time>
      </trkpt>
      <trkpt lat="49.34023" lon="3.09975">
        <ele>148.09</ele>
        <time>2021-04-09T10:42:41Z</time>
      </trkpt>
      <trkpt lat="49.34256" lon="3.09936">
        <ele>149.52</ele>
        <time>2021-04-09T10:42:48Z</time>
      </trkpt>
      <trkpt lat="49.34538" lon="3.09857">
        <ele>151.37</ele>
        <time>2021-04-09T10:42:55Z</time>
      </trkpt>
      <trkpt lat="49.34562" lon="3.09856">
        <ele>152.5</ele>
        <time>2021-04-09T10:43:02Z</time>
      </trkpt>
      <trkpt lat="49.34581" lon="3.09857">
        <ele>153.94</ele>
        <time>2021-04-09T10:43:09Z</time>
      </trkpt>
      <trkpt lat="49.3462" lon="3.09866">
        <ele>157.42</ele>
        <time>2021-04-09T10:43:16Z</time>
      </trkpt>
      <trkpt lat="49.34739" lon="3.09919">
        <ele>160.91</ele>
        <time>2021-04-09T10:43:23Z</time>
      </trkpt>
      <trkpt lat="49.3476" lon="3.09931">
        <ele>160.49</ele>
        <time>2021-04-09T10:43:30Z</time>
      </trkpt>
      <trkpt lat="49.3481" lon="3.09975">
        <ele>159.82</ele>
        <time>2021-04-09T10:43:37Z</time>
      </trkpt>
      <trkpt lat="49.35268" lon="3.10479">
        <ele>147.24</ele>
        <time>2021-04-09T10:43:44Z</time>
      </trkpt>
      <trkpt lat="49.35485" lon="3.10587">
        <ele>147.07</ele>
        <time>2021-04-09T10:43:51Z</time>
      </trkpt>
      <trkpt lat="49.36333" lon="3.1111">
        <ele>147.98</ele>
        <time>2021-04-09T10:43:58Z</time>
      </trkpt>
      <trkpt lat="49.36522" lon="3.11191">
        <ele>149.32</ele>
        <time>2021-04-09T10:44:05Z</time>
      </trkpt>
      <trkpt lat="49.36756" lon="3.11283">
        <ele>143.04</ele>
        <time>2021-04-09T10:44:12Z</time>
      </trkpt>
      <trkpt lat="49.36793" lon="3.11309">
        <ele>144</ele>
        <time>2021-04-09T10:44:19Z</time>
      </trkpt>
      <trkpt lat="49.37529" lon="3.12307">
        <ele>144.97</ele>
        <time>2021-04-09T10:44:26Z</time>
      </trkpt>
      <trkpt lat="49.37941" lon="3.13084">
        <ele>147.87</ele>
        <time>2021-04-09T10:44:33Z</time>
      </trkpt>
      <trkpt lat="49.3816" lon="3.13031">
        <ele>146.97</ele>
        <time>2021-04-09T10:44:37Z</time>
      </trkpt>
      <trkpt lat="49.38217" lon="3.13015">
        <ele>148</ele>
        <time>2021-04-09T10:44:41Z</time>
      </trkpt>
      <trkpt lat="49.38247" lon="3.13004">
        <ele>148</ele>
        <time>2021-04-09T10:44:45Z</time>
      </trkpt>
      <trkpt lat="49.38274" lon="3.1299">
        <ele>147.7</ele>
        <time>2021-04-09T10:44:49Z</time>
      </trkpt>
      <trkpt lat="49.38304" lon="3.12971">
        <ele>146.04</ele>
        <time>2021-04-09T10:44:52Z</time>
      </trkpt>
      <trkpt lat="49.38339" lon="3.12942">
        <ele>144.98</ele>
        <time>2021-04-09T10:44:56Z</time>
      </trkpt>
      <trkpt lat="49.38398" lon="3.12881">
        <ele>142.67</ele>
        <time>2021-04-09T10:45:00Z</time>
      </trkpt>
      <trkpt lat="49.38457" lon="3.12817">
        <ele>139.56</ele>
        <time>2021-04-09T10:45:04Z</time>
      </trkpt>
      <trkpt lat="49.38505" lon="3.12758">
        <ele>138.05</ele>
        <time>2021-04-09T10:45:08Z</time>
      </trkpt>
      <trkpt lat="49.38587" lon="3.12643">
        <ele>135.14</ele>
        <time>2021-04-09T10:45:12Z</time>
      </trkpt>
      <trkpt lat="49.38611" lon="3.12599">
        <ele>136</ele>
        <time>2021-04-09T10:45:16Z</time>
      </trkpt>
      <trkpt lat="49.38671" lon="3.12435">
        <ele>131.38</ele>
        <time>2021-04-09T10:45:20Z</time>
      </trkpt>
      <trkpt lat="49.38688" lon="3.1237">
        <ele>129.45</ele>
        <time>2021-04-09T10:45:24Z</time>
      </trkpt>
      <trkpt lat="49.38695" lon="3.12235">
        <ele>129.36</ele>
        <time>2021-04-09T10:45:28Z</time>
      </trkpt>
      <trkpt lat="49.38719" lon="3.12119">
        <ele>119.68</ele>
        <time>2021-04-09T10:45:31Z</time>
      </trkpt>
      <trkpt lat="49.38724" lon="3.12005">
        <ele>109.81</ele>
        <time>2021-04-09T10:45:35Z</time>
      </trkpt>
      <trkpt lat="49.38718" lon="3.11953">
        <ele>110.68</ele>
        <time>2021-04-09T10:45:39Z</time>
      </trkpt>
      <trkpt lat="49.38721" lon="3.11903">
        <ele>109.83</ele>
        <time>2021-04-09T10:45:43Z</time>
      </trkpt>
      <trkpt lat="49.38736" lon="3.11862">
        <ele>107.99</ele>
        <time>2021-04-09T10:45:47Z</time>
      </trkpt>
      <trkpt lat="49.38776" lon="3.11775">
        <ele>104.74</ele>
        <time>2021-04-09T10:45:51Z</time>
      </trkpt>
      <trkpt lat="49.38799" lon="3.11714">
        <ele>99.86</ele>
        <time>2021-04-09T10:45:55Z</time>
      </trkpt>
      <trkpt lat="49.38824" lon="3.11665">
        <ele>97.38</ele>
        <time>2021-04-09T10:45:59Z</time>
      </trkpt>
      <trkpt lat="49.38871" lon="3.11601">
        <ele>94.11</ele>
        <time>2021-04-09T10:46:03Z</time>
      </trkpt>
      <trkpt lat="49.38903" lon="3.11543">
        <ele>92.4</ele>
        <time>2021-04-09T10:46:06Z</time>
      </trkpt>
      <trkpt lat="49.38933" lon="3.11514">
        <ele>86.56</ele>
        <time>2021-04-09T10:46:10Z</time>
      </trkpt>
      <trkpt lat="49.38955" lon="3.11512">
        <ele>82.42</ele>
        <time>2021-04-09T10:46:14Z</time>
      </trkpt>
      <trkpt lat="49.3904" lon="3.11546">
        <ele>74.04</ele>
        <time>2021-04-09T10:46:18Z</time>
      </trkpt>
      <trkpt lat="49.3906" lon="3.11545">
        <ele>73.57</ele>
        <time>2021-04-09T10:46:22Z</time>
      </trkpt>
      <trkpt lat="49.39083" lon="3.11535">
        <ele>72.51</ele>
        <time>2021-04-09T10:46:26Z</time>
      </trkpt>
      <trkpt lat="49.39103" lon="3.11521">
        <ele>70.95</ele>
        <time>2021-04-09T10:46:30Z</time>
      </trkpt>
      <trkpt lat="49.3912" lon="3.11494">
        <ele>70.38</ele>
        <time>2021-04-09T10:46:34Z</time>
      </trkpt>
      <trkpt lat="49.39132" lon="3.1146">
        <ele>69.84</ele>
        <time>2021-04-09T10:46:38Z</time>
      </trkpt>
      <trkpt lat="49.39149" lon="3.11381">
        <ele>58.84</ele>
        <time>2021-04-09T10:46:42Z</time>
      </trkpt>
      <trkpt lat="49.39169" lon="3.11344">
        <ele>54.01</ele>
        <time>2021-04-09T10:46:45Z</time>
      </trkpt>
      <trkpt lat="49.39194" lon="3.11318">
        <ele>48.97</ele>
        <time>2021-04-09T10:46:49Z</time>
      </trkpt>
      <trkpt lat="49.39206" lon="3.11312">
        <ele>48.35</ele>
        <time>2021-04-09T10:46:53Z</time>
      </trkpt>
      <trkpt lat="49.39219" lon="3.11309">
        <ele>48.12</ele>
        <time>2021-04-09T10:46:57Z</time>
      </trkpt>
      <trkpt lat="49.3924" lon="3.11311">
        <ele>47.69</ele>
        <time>2021-04-09T10:47:01Z</time>
      </trkpt>
      <trkpt lat="49.39266" lon="3.11326">
        <ele>47.49</ele>
        <time>2021-04-09T10:47:05Z</time>
      </trkpt>
      <trkpt lat="49.39276" lon="3.11336">
        <ele>47.52</ele>
        <time>2021-04-09T10:47:09Z</time>
      </trkpt>
      <trkpt lat="49.39308" lon="3.11384">
        <ele>46.32</ele>
        <time>2021-04-09T10:47:13Z</time>
      </trkpt>
      <trkpt lat="49.39319" lon="3.11397">
        <ele>44.47</ele>
        <time>2021-04-09T10:47:17Z</time>
      </trkpt>
      <trkpt lat="49.39339" lon="3.11412">
        <ele>42.28</ele>
        <time>2021-04-09T10:47:20Z</time>
      </trkpt>
      <trkpt lat="49.39361" lon="3.1142">
        <ele>41.15</ele>
        <time>2021-04-09T10:47:24Z</time>
      </trkpt>
      <trkpt lat="49.39378" lon="3.11424">
        <ele>41.27</ele>
        <time>2021-04-09T10:47:28Z</time>
      </trkpt>
      <trkpt lat="49.39426" lon="3.11428">
        <ele>41</ele>
        <time>2021-04-09T10:47:32Z</time>
      </trkpt>
      <trkpt lat="49.39604" lon="3.11419">
        <ele>38</ele>
        <time>2021-04-09T10:47:36Z</time>
      </trkpt>
      <trkpt lat="49.4006" lon="3.11393">
        <ele>39.14</ele>
        <time>2021-04-09T10:47:40Z</time>
      </trkpt>
      <trkpt lat="49.40145" lon="3.11386">
        <ele>37.09</ele>
        <time>2021-04-09T10:47:44Z</time>
      </trkpt>
      <trkpt lat="49.40242" lon="3.11382">
        <ele>36.99</ele>
        <time>2021-04-09T10:47:48Z</time>
      </trkpt>
      <trkpt lat="49.4025" lon="3.11383">
        <ele>37.57</ele>
        <time>2021-04-09T10:47:52Z</time>
      </trkpt>
      <trkpt lat="49.40258" lon="3.11388">
        <ele>38.99</ele>
        <time>2021-04-09T10:47:56Z</time>
      </trkpt>
      <trkpt lat="49.40273" lon="3.11392">
        <ele>41.68</ele>
        <time>2021-04-09T10:47:59Z</time>
      </trkpt>
      <trkpt lat="49.40275" lon="3.11397">
        <ele>42.61</ele>
        <time>2021-04-09T10:48:05Z</time>
      </trkpt>
      <trkpt lat="49.40281" lon="3.11402">
        <ele>43.6</ele>
        <time>2021-04-09T10:48:11Z</time>
      </trkpt>
      <trkpt lat="49.40288" lon="3.11401">
        <ele>42.76</ele>
        <time>2021-04-09T10:48:17Z</time>
      </trkpt>
      <trkpt lat="49.40293" lon="3.11395">
        <ele>41.51</ele>
        <time>2021-04-09T10:48:23Z</time>
      </trkpt>
      <trkpt lat="49.40294" lon="3.1139">
        <ele>40.89</ele>
        <time>2021-04-09T10:48:29Z</time>
      </trkpt>
      <trkpt lat="49.403" lon="3.11382">
        <ele>40.04</ele>
        <time>2021-04-09T10:48:35Z</time>
      </trkpt>
      <trkpt lat="49.40311" lon="3.11375">
        <ele>39.21</ele>
        <time>2021-04-09T10:48:41Z</time>
      </trkpt>
      <trkpt lat="49.40328" lon="3.11371">
        <ele>38.25</ele>
        <time>2021-04-09T10:48:47Z</time>
      </trkpt>
      <trkpt lat="49.4034" lon="3.11374">
        <ele>38.13</ele>
        <time>2021-04-09T10:48:53Z</time>
      </trkpt>
      <trkpt lat="49.40352" lon="3.11379">
        <ele>38.24</ele>
        <time>2021-04-09T10:48:59Z</time>
      </trkpt>
      <trkpt lat="49.40365" lon="3.11392">
        <ele>38.31</ele>
        <time>2021-04-09T10:49:05Z</time>
      </trkpt>
      <trkpt lat="49.40431" lon="3.11507">
        <ele>45.49</ele>
        <time>2021-04-09T10:49:10Z</time>
      </trkpt>
      <trkpt lat="49.4045" lon="3.11528">
        <ele>46.41</ele>
        <time>2021-04-09T10:49:16Z</time>
      </trkpt>
      <trkpt lat="49.40465" lon="3.11536">
        <ele>47.56</ele>
        <time>2021-04-09T10:49:22Z</time>
      </trkpt>
      <trkpt lat="49.405" lon="3.11539">
        <ele>49</ele>
        <time>2021-04-09T10:49:28Z</time>
      </trkpt>
      <trkpt lat="49.40533" lon="3.11538">
        <ele>50.19</ele>
        <time>2021-04-09T10:49:34Z</time>
      </trkpt>
      <trkpt lat="49.40596" lon="3.11495">
        <ele>51.92</ele>
        <time>2021-04-09T10:49:40Z</time>
      </trkpt>
      <trkpt lat="49.40601" lon="3.1149">
        <ele>51.76</ele>
        <time>2021-04-09T10:49:46Z</time>
      </trkpt>
      <trkpt lat="49.40605" lon="3.11477">
        <ele>51.34</ele>
        <time>2021-04-09T10:49:52Z</time>
      </trkpt>
      <trkpt lat="49.40606" lon="3.11373">
        <ele>48.51</ele>
        <time>2021-04-09T10:49:58Z</time>
      </trkpt>
      <trkpt lat="49.40613" lon="3.11356">
        <ele>47.69</ele>
        <time>2021-04-09T10:50:04Z</time>
      </trkpt>
      <trkpt lat="49.40624" lon="3.11348">
        <ele>46.39</ele>
        <time>2021-04-09T10:50:10Z</time>
      </trkpt>
      <trkpt lat="49.40671" lon="3.11333">
        <ele>42.97</ele>
        <time>2021-04-09T10:50:15Z</time>
      </trkpt>
      <trkpt lat="49.40678" lon="3.11328">
        <ele>42.8</ele>
        <time>2021-04-09T10:50:21Z</time>
      </trkpt>
      <trkpt lat="49.40696" lon="3.11312">
        <ele>42.15</ele>
        <time>2021-04-09T10:50:27Z</time>
      </trkpt>
      <trkpt lat="49.40703" lon="3.11301">
        <ele>41.58</ele>
        <time>2021-04-09T10:50:33Z</time>
      </trkpt>
      <trkpt lat="49.40744" lon="3.1121">
        <ele>41.22</ele>
        <time>2021-04-09T10:50:39Z</time>
      </trkpt>
      <trkpt lat="49.40747" lon="3.11184">
        <ele>41.14</ele>
        <time>2021-04-09T10:50:45Z</time>
      </trkpt>
      <trkpt lat="49.40746" lon="3.11149">
        <ele>41.3</ele>
        <time>2021-04-09T10:50:51Z</time>
      </trkpt>
      <trkpt lat="49.40747" lon="3.11132">
        <ele>41.23</ele>
        <time>2021-04-09T10:50:57Z</time>
      </trkpt>
      <trkpt lat="49.40752" lon="3.11105">
        <ele>41.17</ele>
        <time>2021-04-09T10:51:03Z</time>
      </trkpt>
      <trkpt lat="49.40759" lon="3.1108">
        <ele>41.44</ele>
        <time>2021-04-09T10:51:09Z</time>
      </trkpt>
      <trkpt lat="49.4077" lon="3.11051">
        <ele>42.29</ele>
        <time>2021-04-09T10:51:15Z</time>
      </trkpt>
      <trkpt lat="49.40787" lon="3.11019">
        <ele>44.31</ele>
        <time>2021-04-09T10:51:20Z</time>
      </trkpt>
      <trkpt lat="49.40944" lon="3.10779">
        <ele>49</ele>
        <time>2021-04-09T10:51:26Z</time>
      </trkpt>
      <trkpt lat="49.40961" lon="3.10762">
        <ele>49.57</ele>
        <time>2021-04-09T10:51:32Z</time>
      </trkpt>
      <trkpt lat="49.40976" lon="3.10754">
        <ele>49.73</ele>
        <time>2021-04-09T10:51:38Z</time>
      </trkpt>
      <trkpt lat="49.40986" lon="3.10752">
        <ele>49.46</ele>
        <time>2021-04-09T10:51:44Z</time>
      </trkpt>
      <trkpt lat="49.4152" lon="3.10689">
        <ele>56.15</ele>
        <time>2021-04-09T10:51:50Z</time>
      </trkpt>
      <trkpt lat="49.41939" lon="3.10635">
        <ele>74.04</ele>
        <time>2021-04-09T10:51:56Z</time>
      </trkpt>
      <trkpt lat="49.41963" lon="3.10634">
        <ele>76.35</ele>
        <time>2021-04-09T10:52:02Z</time>
      </trkpt>
      <trkpt lat="49.41983" lon="3.10642">
        <ele>78.91</ele>
        <time>2021-04-09T10:52:08Z</time>
      </trkpt>
      <trkpt lat="49.42" lon="3.10656">
        <ele>80.43</ele>
        <time>2021-04-09T10:52:14Z</time>
      </trkpt>
      <trkpt lat="49.4201" lon="3.10668">
        <ele>80.54</ele>
        <time>2021-04-09T10:52:20Z</time>
      </trkpt>
      <trkpt lat="49.42027" lon="3.10695">
        <ele>79.78</ele>
        <time>2021-04-09T10:52:25Z</time>
      </trkpt>
      <trkpt lat="49.42064" lon="3.10767">
        <ele>82.72</ele>
        <time>2021-04-09T10:52:31Z</time>
      </trkpt>
      <trkpt lat="49.42075" lon="3.10784">
        <ele>83.5</ele>
        <time>2021-04-09T10:52:37Z</time>
      </trkpt>
      <trkpt lat="49.42092" lon="3.10802">
        <ele>84.04</ele>
        <time>2021-04-09T10:52:43Z</time>
      </trkpt>
      <trkpt lat="49.421" lon="3.10806">
        <ele>84.2</ele>
        <time>2021-04-09T10:52:49Z</time>
      </trkpt>
      <trkpt lat="49.42109" lon="3.10806">
        <ele>84.74</ele>
        <time>2021-04-09T10:52:55Z</time>
      </trkpt>
      <trkpt lat="49.42118" lon="3.10804">
        <ele>85.05</ele>
        <time>2021-04-09T10:53:01Z</time>
      </trkpt>
      <trkpt lat="49.42156" lon="3.10782">
        <ele>89.33</ele>
        <time>2021-04-09T10:53:07Z</time>
      </trkpt>
      <trkpt lat="49.42176" lon="3.10777">
        <ele>92.47</ele>
        <time>2021-04-09T10:53:13Z</time>
      </trkpt>
      <trkpt lat="49.42198" lon="3.10779">
        <ele>95.39</ele>
        <time>2021-04-09T10:53:19Z</time>
      </trkpt>
      <trkpt lat="49.4222" lon="3.10789">
        <ele>96.49</ele>
        <time>2021-04-09T10:53:25Z</time>
      </trkpt>
      <trkpt lat="49.42242" lon="3.10811">
        <ele>96.66</ele>
        <time>2021-04-09T10:53:31Z</time>
      </trkpt>
      <trkpt lat="49.42263" lon="3.10837">
        <ele>97.61</ele>
        <time>2021-04-09T10:53:36Z</time>
      </trkpt>
      <trkpt lat="49.42274" lon="3.10847">
        <ele>98.14</ele>
        <time>2021-04-09T10:53:42Z</time>
      </trkpt>
      <trkpt lat="49.42295" lon="3.10856">
        <ele>101.61</ele>
        <time>2021-04-09T10:53:48Z</time>
      </trkpt>
      <trkpt lat="49.42326" lon="3.10864">
        <ele>106.68</ele>
        <time>2021-04-09T10:53:54Z</time>
      </trkpt>
      <trkpt lat="49.42349" lon="3.10877">
        <ele>107.28</ele>
        <time>2021-04-09T10:54:00Z</time>
      </trkpt>
      <trkpt lat="49.4236" lon="3.10887">
        <ele>107.11</ele>
        <time>2021-04-09T10:54:06Z</time>
      </trkpt>
      <trkpt lat="49.4238" lon="3.10917">
        <ele>104.84</ele>
        <time>2021-04-09T10:54:12Z</time>
      </trkpt>
      <trkpt lat="49.4239" lon="3.10941">
        <ele>103.71</ele>
        <time>2021-04-09T10:54:18Z</time>
      </trkpt>
      <trkpt lat="49.42395" lon="3.10952">
        <ele>103.56</ele>
        <time>2021-04-09T10:54:24Z</time>
      </trkpt>
      <trkpt lat="49.42403" lon="3.10961">
        <ele>103.89</ele>
        <time>2021-04-09T10:54:30Z</time>
      </trkpt>
      <trkpt lat="49.42411" lon="3.10967">
        <ele>104.55</ele>
        <time>2021-04-09T10:54:36Z</time>
      </trkpt>
      <trkpt lat="49.42444" lon="3.10982">
        <ele>109.91</ele>
        <time>2021-04-09T10:54:41Z</time>
      </trkpt>
      <trkpt lat="49.42459" lon="3.10992">
        <ele>111.14</ele>
        <time>2021-04-09T10:54:47Z</time>
      </trkpt>
      <trkpt lat="49.42465" lon="3.11">
        <ele>111.67</ele>
        <time>2021-04-09T10:54:53Z</time>
      </trkpt>
      <trkpt lat="49.42491" lon="3.11051">
        <ele>109.82</ele>
        <time>2021-04-09T10:54:59Z</time>
      </trkpt>
      <trkpt lat="49.42505" lon="3.11065">
        <ele>108.74</ele>
        <time>2021-04-09T10:55:05Z</time>
      </trkpt>
      <trkpt lat="49.42512" lon="3.11068">
        <ele>108.08</ele>
        <time>2021-04-09T10:55:11Z</time>
      </trkpt>
      <trkpt lat="49.42519" lon="3.11067">
        <ele>107.83</ele>
        <time>2021-04-09T10:55:17Z</time>
      </trkpt>
      <trkpt lat="49.42525" lon="3.11064">
        <ele>107.96</ele>
        <time>2021-04-09T10:55:23Z</time>
      </trkpt>
      <trkpt lat="49.42532" lon="3.11056">
        <ele>108.71</ele>
        <time>2021-04-09T10:55:29Z</time>
      </trkpt>
      <trkpt lat="49.42552" lon="3.11015">
        <ele>113.1</ele>
        <time>2021-04-09T10:55:35Z</time>
      </trkpt>
      <trkpt lat="49.42924" lon="3.10171">
        <ele>144</ele>
        <time>2021-04-09T10:55:41Z</time>
      </trkpt>
      <trkpt lat="49.42935" lon="3.10149">
        <ele>144.44</ele>
        <time>2021-04-09T10:55:46Z</time>
      </trkpt>
      <trkpt lat="49.42958" lon="3.10116">
        <ele>144.58</ele>
        <time>2021-04-09T10:55:52Z</time>
      </trkpt>
      <trkpt lat="49.42982" lon="3.10096">
        <ele>144.81</ele>
        <time>2021-04-09T10:55:58Z</time>
      </trkpt>
      <trkpt lat="49.43007" lon="3.10086">
        <ele>145.32</ele>
        <time>2021-04-09T10:56:04Z</time>
      </trkpt>
      <trkpt lat="49.43147" lon="3.1007">
        <ele>146.14</ele>
        <time>2021-04-09T10:56:10Z</time>
      </trkpt>
      <trkpt lat="49.44159" lon="3.10048">
        <ele>146.29</ele>
        <time>2021-04-09T10:56:16Z</time>
      </trkpt>
      <trkpt lat="49.44192" lon="3.10048">
        <ele>146.29</ele>
        <time>2021-04-09T10:56:22Z</time>
      </trkpt>
      <trkpt lat="49.44356" lon="3.10062">
        <ele>145</ele>
        <time>2021-04-09T10:56:28Z</time>
      </trkpt>
      <trkpt lat="49.44853" lon="3.10072">
        <ele>144.3</ele>
        <time>2021-04-09T10:56:34Z</time>
      </trkpt>
      <trkpt lat="49.45528" lon="3.10046">
        <ele>147</ele>
        <time>2021-04-09T10:56:40Z</time>
      </trkpt>
      <trkpt lat="49.45656" lon="3.10045">
        <ele>147.37</ele>
        <time>2021-04-09T10:56:46Z</time>
      </trkpt>
      <trkpt lat="49.45736" lon="3.10051">
        <ele>147.08</ele>
        <time>2021-04-09T10:56:51Z</time>
      </trkpt>
      <trkpt lat="49.46016" lon="3.10083">
        <ele>146.01</ele>
        <time>2021-04-09T10:56:57Z</time>
      </trkpt>
      <trkpt lat="49.46036" lon="3.10083">
        <ele>146</ele>
        <time>2021-04-09T10:57:03Z</time>
      </trkpt>
      <trkpt lat="49.46069" lon="3.10077">
        <ele>145.89</ele>
        <time>2021-04-09T10:57:09Z</time>
      </trkpt>
      <trkpt lat="49.46223" lon="3.10029">
        <ele>143.05</ele>
        <time>2021-04-09T10:57:15Z</time>
      </trkpt>
      <trkpt lat="49.46312" lon="3.09995">
        <ele>142.62</ele>
        <time>2021-04-09T10:57:21Z</time>
      </trkpt>
      <trkpt lat="49.46425" lon="3.09947">
        <ele>139.81</ele>
        <time>2021-04-09T10:57:27Z</time>
      </trkpt>
      <trkpt lat="49.46442" lon="3.09939">
        <ele>138.88</ele>
        <time>2021-04-09T10:57:33Z</time>
      </trkpt>
      <trkpt lat="49.46455" lon="3.09929">
        <ele>138.43</ele>
        <time>2021-04-09T10:57:39Z</time>
      </trkpt>
      <trkpt lat="49.46477" lon="3.09906">
        <ele>137.48</ele>
        <time>2021-04-09T10:57:45Z</time>
      </trkpt>
      <trkpt lat="49.46509" lon="3.09861">
        <ele>137.33</ele>
        <time>2021-04-09T10:57:51Z</time>
      </trkpt>
      <trkpt lat="49.46913" lon="3.09261">
        <ele>145.86</ele>
        <time>2021-04-09T10:57:56Z</time>
      </trkpt>
      <trkpt lat="49.47031" lon="3.09099">
        <ele>149.12</ele>
        <time>2021-04-09T10:58:02Z</time>
      </trkpt>
      <trkpt lat="49.47176" lon="3.08894">
        <ele>151.13</ele>
        <time>2021-04-09T10:58:08Z</time>
      </trkpt>
      <trkpt lat="49.47195" lon="3.08872">
        <ele>151</ele>
        <time>2021-04-09T10:58:14Z</time>
      </trkpt>
      <trkpt lat="49.47213" lon="3.08854">
        <ele>151.18</ele>
        <time>2021-04-09T10:58:20Z</time>
      </trkpt>
      <trkpt lat="49.47566" lon="3.08532">
        <ele>155.37</ele>
        <time>2021-04-09T10:58:26Z</time>
      </trkpt>
      <trkpt lat="49.47584" lon="3.08518">
        <ele>156</ele>
        <time>2021-04-09T10:58:32Z</time>
      </trkpt>
      <trkpt lat="49.47861" lon="3.08353">
        <ele>152.28</ele>
        <time>2021-04-09T10:58:38Z</time>
      </trkpt>
      <trkpt lat="49.47949" lon="3.08297">
        <ele>150.18</ele>
        <time>2021-04-09T10:58:44Z</time>
      </trkpt>
      <trkpt lat="49.48" lon="3.08272">
        <ele>151</ele>
        <time>2021-04-09T10:58:50Z</time>
      </trkpt>
      <trkpt lat="49.48012" lon="3.08348">
        <ele>145.97</ele>
        <time>2021-04-09T10:58:55Z</time>
      </trkpt>
      <trkpt lat="49.48019" lon="3.0843">
        <ele>146.03</ele>
        <time>2021-04-09T10:58:59Z</time>
      </trkpt>
      <trkpt lat="49.48022" lon="3.08528">
        <ele>141.14</ele>
        <time>2021-04-09T10:59:04Z</time>
      </trkpt>
      <trkpt lat="49.4802" lon="3.08583">
        <ele>138.88</ele>
        <time>2021-04-09T10:59:09Z</time>
      </trkpt>
      <trkpt lat="49.48002" lon="3.08671">
        <ele>135.28</ele>
        <time>2021-04-09T10:59:14Z</time>
      </trkpt>
      <trkpt lat="49.47998" lon="3.08708">
        <ele>134.31</ele>
        <time>2021-04-09T10:59:19Z</time>
      </trkpt>
      <trkpt lat="49.47998" lon="3.08747">
        <ele>133.75</ele>
        <time>2021-04-09T10:59:23Z</time>
      </trkpt>
      <trkpt lat="49.4801" lon="3.08865">
        <ele>130.04</ele>
        <time>2021-04-09T10:59:28Z</time>
      </trkpt>
      <trkpt lat="49.4802" lon="3.08985">
        <ele>125.89</ele>
        <time>2021-04-09T10:59:33Z</time>
      </trkpt>
      <trkpt lat="49.48031" lon="3.09032">
        <ele>121.25</ele>
        <time>2021-04-09T10:59:38Z</time>
      </trkpt>
      <trkpt lat="49.48064" lon="3.09084">
        <ele>123.46</ele>
        <time>2021-04-09T10:59:43Z</time>
      </trkpt>
      <trkpt lat="49.48166" lon="3.09216">
        <ele>117.49</ele>
        <time>2021-04-09T10:59:47Z</time>
      </trkpt>
      <trkpt lat="49.48214" lon="3.09292">
        <ele>110.02</ele>
        <time>2021-04-09T10:59:52Z</time>
      </trkpt>
      <trkpt lat="49.4827" lon="3.09414">
        <ele>103.71</ele>
        <time>2021-04-09T10:59:57Z</time>
      </trkpt>
      <trkpt lat="49.48284" lon="3.09437">
        <ele>101.76</ele>
        <time>2021-04-09T11:00:02Z</time>
      </trkpt>
      <trkpt lat="49.48352" lon="3.09549">
        <ele>101.19</ele>
        <time>2021-04-09T11:00:07Z</time>
      </trkpt>
      <trkpt lat="49.48468" lon="3.09681">
        <ele>104.89</ele>
        <time>2021-04-09T11:00:11Z</time>
      </trkpt>
      <trkpt lat="49.4849" lon="3.09733">
        <ele>103.09</ele>
        <time>2021-04-09T11:00:16Z</time>
      </trkpt>
      <trkpt lat="49.48499" lon="3.0975">
        <ele>101.93</ele>
        <time>2021-04-09T11:00:21Z</time>
      </trkpt>
      <trkpt lat="49.4857" lon="3.09812">
        <ele>97.88</ele>
        <time>2021-04-09T11:00:26Z</time>
      </trkpt>
      <trkpt lat="49.4863" lon="3.09838">
        <ele>98.17</ele>
        <time>2021-04-09T11:00:31Z</time>
      </trkpt>
      <trkpt lat="49.48638" lon="3.09846">
        <ele>98.44</ele>
        <time>2021-04-09T11:00:35Z</time>
      </trkpt>
      <trkpt lat="49.48664" lon="3.09879">
        <ele>101.76</ele>
        <time>2021-04-09T11:00:40Z</time>
      </trkpt>
      <trkpt lat="49.48679" lon="3.09886">
        <ele>104.68</ele>
        <time>2021-04-09T11:00:45Z</time>
      </trkpt>
      <trkpt lat="49.48697" lon="3.09887">
        <ele>108.01</ele>
        <time>2021-04-09T11:00:50Z</time>
      </trkpt>
      <trkpt lat="49.48714" lon="3.09879">
        <ele>109.61</ele>
        <time>2021-04-09T11:00:55Z</time>
      </trkpt>
      <trkpt lat="49.48729" lon="3.09868">
        <ele>110.54</ele>
        <time>2021-04-09T11:01:00Z</time>
      </trkpt>
      <trkpt lat="49.48817" lon="3.09757">
        <ele>110.28</ele>
        <time>2021-04-09T11:01:04Z</time>
      </trkpt>
      <trkpt lat="49.48895" lon="3.09615">
        <ele>115.67</ele>
        <time>2021-04-09T11:01:09Z</time>
      </trkpt>
      <trkpt lat="49.48964" lon="3.09545">
        <ele>123.84</ele>
        <time>2021-04-09T11:01:14Z</time>
      </trkpt>
      <trkpt lat="49.49015" lon="3.09485">
        <ele>122.89</ele>
        <time>2021-04-09T11:01:19Z</time>
      </trkpt>
      <trkpt lat="49.49028" lon="3.09489">
        <ele>123.86</ele>
        <time>2021-04-09T11:01:24Z</time>
      </trkpt>
      <trkpt lat="49.49033" lon="3.0951">
        <ele>126.31</ele>
        <time>2021-04-09T11:01:28Z</time>
      </trkpt>
      <trkpt lat="49.49029" lon="3.09525">
        <ele>127.76</ele>
        <time>2021-04-09T11:01:33Z</time>
      </trkpt>
      <trkpt lat="49.4901" lon="3.09544">
        <ele>129.16</ele>
        <time>2021-04-09T11:01:38Z</time>
      </trkpt>
      <trkpt lat="49.48995" lon="3.09575">
        <ele>129.93</ele>
        <time>2021-04-09T11:01:43Z</time>
      </trkpt>
      <trkpt lat="49.48992" lon="3.0962">
        <ele>130.71</ele>
        <time>2021-04-09T11:01:48Z</time>
      </trkpt>
      <trkpt lat="49.48996" lon="3.09665">
        <ele>131.86</ele>
        <time>2021-04-09T11:01:52Z</time>
      </trkpt>
      <trkpt lat="49.49004" lon="3.09692">
        <ele>132.14</ele>
        <time>2021-04-09T11:01:57Z</time>
      </trkpt>
      <trkpt lat="49.49028" lon="3.09718">
        <ele>133.01</ele>
        <time>2021-04-09T11:02:02Z</time>
      </trkpt>
      <trkpt lat="49.49063" lon="3.09735">
        <ele>134.6</ele>
        <time>2021-04-09T11:02:07Z</time>
      </trkpt>
      <trkpt lat="49.49131" lon="3.09795">
        <ele>138.48</ele>
        <time>2021-04-09T11:02:12Z</time>
      </trkpt>
      <trkpt lat="49.49208" lon="3.09879">
        <ele>139.51</ele>
        <time>2021-04-09T11:02:16Z</time>
      </trkpt>
      <trkpt lat="49.49236" lon="3.09925">
        <ele>136.44</ele>
        <time>2021-04-09T11:02:21Z</time>
      </trkpt>
      <trkpt lat="49.49251" lon="3.09974">
        <ele>132.87</ele>
        <time>2021-04-09T11:02:26Z</time>
      </trkpt>
      <trkpt lat="49.49268" lon="3.10177">
        <ele>128.66</ele>
        <time>2021-04-09T11:02:31Z</time>
      </trkpt>
      <trkpt lat="49.49269" lon="3.10238">
        <ele>128.69</ele>
        <time>2021-04-09T11:02:36Z</time>
      </trkpt>
      <trkpt lat="49.49252" lon="3.10364">
        <ele>132.07</ele>
        <time>2021-04-09T11:02:40Z</time>
      </trkpt>
      <trkpt lat="49.49246" lon="3.10459">
        <ele>133.63</ele>
        <time>2021-04-09T11:02:45Z</time>
      </trkpt>
      <trkpt lat="49.49251" lon="3.10661">
        <ele>136.85</ele>
        <time>2021-04-09T11:02:50Z</time>
      </trkpt>
      <trkpt lat="49.49238" lon="3.10726">
        <ele>137.11</ele>
        <time>2021-04-09T11:02:55Z</time>
      </trkpt>
      <trkpt lat="49.49239" lon="3.10789">
        <ele>136.8</ele>
        <time>2021-04-09T11:03:00Z</time>
      </trkpt>
      <trkpt lat="49.49251" lon="3.10849">
        <ele>138.02</ele>
        <time>2021-04-09T11:03:04Z</time>
      </trkpt>
      <trkpt lat="49.49333" lon="3.11152">
        <ele>137</ele>
        <time>2021-04-09T11:03:09Z</time>
      </trkpt>
      <trkpt lat="49.49341" lon="3.11224">
        <ele>136.15</ele>
        <time>2021-04-09T11:03:14Z</time>
      </trkpt>
      <trkpt lat="49.49349" lon="3.11737">
        <ele>139</ele>
        <time>2021-04-09T11:03:19Z</time>
      </trkpt>
      <trkpt lat="49.49381" lon="3.12189">
        <ele>143.28</ele>
        <time>2021-04-09T11:03:24Z</time>
      </trkpt>
      <trkpt lat="49.49379" lon="3.12264">
        <ele>141.68</ele>
        <time>2021-04-09T11:03:28Z</time>
      </trkpt>
      <trkpt lat="49.49327" lon="3.12485">
        <ele>134.99</ele>
        <time>2021-04-09T11:03:33Z</time>
      </trkpt>
      <trkpt lat="49.49322" lon="3.12519">
        <ele>134.8</ele>
        <time>2021-04-09T11:03:38Z</time>
      </trkpt>
      <trkpt lat="49.49323" lon="3.12557">
        <ele>134.14</ele>
        <time>2021-04-09T11:03:43Z</time>
      </trkpt>
      <trkpt lat="49.49334" lon="3.12606">
        <ele>132.92</ele>
        <time>2021-04-09T11:03:48Z</time>
      </trkpt>
      <trkpt lat="49.49347" lon="3.12629">
        <ele>132.96</ele>
        <time>2021-04-09T11:03:53Z</time>
      </trkpt>
      <trkpt lat="49.49361" lon="3.12644">
        <ele>132.37</ele>
        <time>2021-04-09T11:03:57Z</time>
      </trkpt>
      <trkpt lat="49.49396" lon="3.12664">
        <ele>132.31</ele>
        <time>2021-04-09T11:04:02Z</time>
      </trkpt>
      <trkpt lat="49.49478" lon="3.12699">
        <ele>128.9</ele>
        <time>2021-04-09T11:04:07Z</time>
      </trkpt>
      <trkpt lat="49.49493" lon="3.12709">
        <ele>128.36</ele>
        <time>2021-04-09T11:04:12Z</time>
      </trkpt>
      <trkpt lat="49.49513" lon="3.12731">
        <ele>128.45</ele>
        <time>2021-04-09T11:04:17Z</time>
      </trkpt>
      <trkpt lat="49.49536" lon="3.12764">
        <ele>129.75</ele>
        <time>2021-04-09T11:04:21Z</time>
      </trkpt>
      <trkpt lat="49.49854" lon="3.13398">
        <ele>130.95</ele>
        <time>2021-04-09T11:04:26Z</time>
      </trkpt>
      <trkpt lat="49.50009" lon="3.13703">
        <ele>132.62</ele>
        <time>2021-04-09T11:04:31Z</time>
      </trkpt>
      <trkpt lat="49.50404" lon="3.14372">
        <ele>128.75</ele>
        <time>2021-04-09T11:04:36Z</time>
      </trkpt>
      <trkpt lat="49.50427" lon="3.14396">
        <ele>127.85</ele>
        <time>2021-04-09T11:04:41Z</time>
      </trkpt>
      <trkpt lat="49.50775" lon="3.14683">
        <ele>124.49</ele>
        <time>2021-04-09T11:04:45Z</time>
      </trkpt>
      <trkpt lat="49.51209" lon="3.14883">
        <ele>85.07</ele>
        <time>2021-04-09T11:04:50Z</time>
      </trkpt>
      <trkpt lat="49.51443" lon="3.15068">
        <ele>75.08</ele>
        <time>2021-04-09T11:04:55Z</time>
      </trkpt>
      <trkpt lat="49.51451" lon="3.15064">
        <ele>74.58</ele>
        <time>2021-04-09T11:05:00Z</time>
      </trkpt>
      <trkpt lat="49.51478" lon="3.15016">
        <ele>72.97</ele>
        <time>2021-04-09T11:05:05Z</time>
      </trkpt>
      <trkpt lat="49.51489" lon="3.15004">
        <ele>72.63</ele>
        <time>2021-04-09T11:05:09Z</time>
      </trkpt>
      <trkpt lat="49.51496" lon="3.14997">
        <ele>72.25</ele>
        <time>2021-04-09T11:05:14Z</time>
      </trkpt>
      <trkpt lat="49.51511" lon="3.14996">
        <ele>71.21</ele>
        <time>2021-04-09T11:05:19Z</time>
      </trkpt>
      <trkpt lat="49.51605" lon="3.15122">
        <ele>70.24</ele>
        <time>2021-04-09T11:05:24Z</time>
      </trkpt>
      <trkpt lat="49.51619" lon="3.15147">
        <ele>69.49</ele>
        <time>2021-04-09T11:05:29Z</time>
      </trkpt>
      <trkpt lat="49.51637" lon="3.1512">
        <ele>68.15</ele>
        <time>2021-04-09T11:05:31Z</time>
      </trkpt>
      <trkpt lat="49.5166" lon="3.15063">
        <ele>68</ele>
        <time>2021-04-09T11:05:34Z</time>
      </trkpt>
      <trkpt lat="49.5168" lon="3.15033">
        <ele>68.81</ele>
        <time>2021-04-09T11:05:36Z</time>
      </trkpt>
      <trkpt lat="49.51692" lon="3.15025">
        <ele>69</ele>
        <time>2021-04-09T11:05:39Z</time>
      </trkpt>
      <trkpt lat="49.51737" lon="3.15009">
        <ele>68</ele>
        <time>2021-04-09T11:05:42Z</time>
      </trkpt>
      <trkpt lat="49.51745" lon="3.15009">
        <ele>68</ele>
        <time>2021-04-09T11:05:44Z</time>
      </trkpt>
      <trkpt lat="49.5177" lon="3.15021">
        <ele>67.29</ele>
        <time>2021-04-09T11:05:47Z</time>
      </trkpt>
      <trkpt lat="49.51785" lon="3.15026">
        <ele>67</ele>
        <time>2021-04-09T11:05:50Z</time>
      </trkpt>
      <trkpt lat="49.51791" lon="3.15037">
        <ele>67</ele>
        <time>2021-04-09T11:05:56Z</time>
      </trkpt>
      <trkpt lat="49.51952" lon="3.15223">
        <ele>65</ele>
        <time>2021-04-09T11:06:02Z</time>
      </trkpt>
      <trkpt lat="49.51973" lon="3.15241">
        <ele>65.02</ele>
        <time>2021-04-09T11:06:08Z</time>
      </trkpt>
      <trkpt lat="49.51983" lon="3.15246">
        <ele>65.32</ele>
        <time>2021-04-09T11:06:15Z</time>
      </trkpt>
      <trkpt lat="49.52025" lon="3.15263">
        <ele>65.06</ele>
        <time>2021-04-09T11:06:21Z</time>
      </trkpt>
      <trkpt lat="49.52093" lon="3.15277">
        <ele>62.99</ele>
        <time>2021-04-09T11:06:27Z</time>
      </trkpt>
      <trkpt lat="49.52324" lon="3.15315">
        <ele>57</ele>
        <time>2021-04-09T11:06:33Z</time>
      </trkpt>
      <trkpt lat="49.52456" lon="3.15318">
        <ele>56.46</ele>
        <time>2021-04-09T11:06:40Z</time>
      </trkpt>
      <trkpt lat="49.52574" lon="3.15316">
        <ele>58.04</ele>
        <time>2021-04-09T11:06:46Z</time>
      </trkpt>
      <trkpt lat="49.52876" lon="3.15316">
        <ele>55.83</ele>
        <time>2021-04-09T11:06:52Z</time>
      </trkpt>
      <trkpt lat="49.53001" lon="3.15322">
        <ele>54.98</ele>
        <time>2021-04-09T11:06:59Z</time>
      </trkpt>
      <trkpt lat="49.53151" lon="3.15405">
        <ele>55.19</ele>
        <time>2021-04-09T11:07:05Z</time>
      </trkpt>
      <trkpt lat="49.53189" lon="3.15428">
        <ele>55.8</ele>
        <time>2021-04-09T11:07:11Z</time>
      </trkpt>
      <trkpt lat="49.53262" lon="3.15507">
        <ele>55.66</ele>
        <time>2021-04-09T11:07:17Z</time>
      </trkpt>
      <trkpt lat="49.53567" lon="3.15955">
        <ele>58</ele>
        <time>2021-04-09T11:07:24Z</time>
      </trkpt>
      <trkpt lat="49.53588" lon="3.15981">
        <ele>57.83</ele>
        <time>2021-04-09T11:07:30Z</time>
      </trkpt>
      <trkpt lat="49.5362" lon="3.16006">
        <ele>57.07</ele>
        <time>2021-04-09T11:07:36Z</time>
      </trkpt>
      <trkpt lat="49.53647" lon="3.1602">
        <ele>57.79</ele>
        <time>2021-04-09T11:07:42Z</time>
      </trkpt>
      <trkpt lat="49.5367" lon="3.16043">
        <ele>58.59</ele>
        <time>2021-04-09T11:07:49Z</time>
      </trkpt>
      <trkpt lat="49.53755" lon="3.16147">
        <ele>61.4</ele>
        <time>2021-04-09T11:07:55Z</time>
      </trkpt>
      <trkpt lat="49.53808" lon="3.16193">
        <ele>63.08</ele>
        <time>2021-04-09T11:08:01Z</time>
      </trkpt>
      <trkpt lat="49.53926" lon="3.16318">
        <ele>67.34</ele>
        <time>2021-04-09T11:08:08Z</time>
      </trkpt>
      <trkpt lat="49.53942" lon="3.16332">
        <ele>67.9</ele>
        <time>2021-04-09T11:08:14Z</time>
      </trkpt>
      <trkpt lat="49.53957" lon="3.16339">
        <ele>68</ele>
        <time>2021-04-09T11:08:20Z</time>
      </trkpt>
      <trkpt lat="49.54023" lon="3.16352">
        <ele>68.73</ele>
        <time>2021-04-09T11:08:26Z</time>
      </trkpt>
      <trkpt lat="49.54097" lon="3.16362">
        <ele>68.98</ele>
        <time>2021-04-09T11:08:33Z</time>
      </trkpt>
      <trkpt lat="49.54331" lon="3.16478">
        <ele>65.92</ele>
        <time>2021-04-09T11:08:39Z</time>
      </trkpt>
      <trkpt lat="49.54414" lon="3.16512">
        <ele>66</ele>
        <time>2021-04-09T11:08:45Z</time>
      </trkpt>
      <trkpt lat="49.54768" lon="3.16685">
        <ele>63.03</ele>
        <time>2021-04-09T11:08:51Z</time>
      </trkpt>
      <trkpt lat="49.54959" lon="3.16748">
        <ele>58.92</ele>
        <time>2021-04-09T11:08:58Z</time>
      </trkpt>
      <trkpt lat="49.55888" lon="3.1705">
        <ele>50.23</ele>
        <time>2021-04-09T11:09:04Z</time>
      </trkpt>
      <trkpt lat="49.55912" lon="3.17051">
        <ele>50.15</ele>
        <time>2021-04-09T11:09:10Z</time>
      </trkpt>
      <trkpt lat="49.56073" lon="3.17009">
        <ele>53.26</ele>
        <time>2021-04-09T11:09:17Z</time>
      </trkpt>
      <trkpt lat="49.56084" lon="3.17004">
        <ele>52.26</ele>
        <time>2021-04-09T11:09:23Z</time>
      </trkpt>
      <trkpt lat="49.56107" lon="3.1698">
        <ele>50.31</ele>
        <time>2021-04-09T11:09:29Z</time>
      </trkpt>
      <trkpt lat="49.5612" lon="3.16954">
        <ele>48.93</ele>
        <time>2021-04-09T11:09:35Z</time>
      </trkpt>
      <trkpt lat="49.56199" lon="3.16725">
        <ele>42</ele>
        <time>2021-04-09T11:09:42Z</time>
      </trkpt>
      <trkpt lat="49.5622" lon="3.16678">
        <ele>43.04</ele>
        <time>2021-04-09T11:09:48Z</time>
      </trkpt>
      <trkpt lat="49.56236" lon="3.1666">
        <ele>42.49</ele>
        <time>2021-04-09T11:09:54Z</time>
      </trkpt>
      <trkpt lat="49.56249" lon="3.16652">
        <ele>42.04</ele>
        <time>2021-04-09T11:10:00Z</time>
      </trkpt>
      <trkpt lat="49.5627" lon="3.16652">
        <ele>42.73</ele>
        <time>2021-04-09T11:10:07Z</time>
      </trkpt>
      <trkpt lat="49.56303" lon="3.16657">
        <ele>44.24</ele>
        <time>2021-04-09T11:10:13Z</time>
      </trkpt>
      <trkpt lat="49.56553" lon="3.16756">
        <ele>46.68</ele>
        <time>2021-04-09T11:10:19Z</time>
      </trkpt>
      <trkpt lat="49.56888" lon="3.16883">
        <ele>46</ele>
        <time>2021-04-09T11:10:26Z</time>
      </trkpt>
      <trkpt lat="49.5692" lon="3.16909">
        <ele>44.18</ele>
        <time>2021-04-09T11:10:32Z</time>
      </trkpt>
      <trkpt lat="49.56956" lon="3.1692">
        <ele>43</ele>
        <time>2021-04-09T11:10:38Z</time>
      </trkpt>
      <trkpt lat="49.57" lon="3.16922">
        <ele>43</ele>
        <time>2021-04-09T11:10:44Z</time>
      </trkpt>
      <trkpt lat="49.57076" lon="3.16918">
        <ele>42.18</ele>
        <time>2021-04-09T11:10:51Z</time>
      </trkpt>
      <trkpt lat="49.57186" lon="3.16885">
        <ele>41.29</ele>
        <time>2021-04-09T11:10:57Z</time>
      </trkpt>
      <trkpt lat="49.57311" lon="3.1686">
        <ele>41.96</ele>
        <time>2021-04-09T11:11:03Z</time>
      </trkpt>
      <trkpt lat="49.574" lon="3.16869">
        <ele>41</ele>
        <time>2021-04-09T11:11:09Z</time>
      </trkpt>
      <trkpt lat="49.57415" lon="3.16872">
        <ele>41</ele>
        <time>2021-04-09T11:11:16Z</time>
      </trkpt>
      <trkpt lat="49.57422" lon="3.1688">
        <ele>41</ele>
        <time>2021-04-09T11:11:22Z</time>
      </trkpt>
      <trkpt lat="49.57428" lon="3.16874">
        <ele>41</ele>
        <time>2021-04-09T11:11:28Z</time>
      </trkpt>
      <trkpt lat="49.57437" lon="3.16872">
        <ele>41</ele>
        <time>2021-04-09T11:11:34Z</time>
      </trkpt>
      <trkpt lat="49.57519" lon="3.16876">
        <ele>41.17</ele>
        <time>2021-04-09T11:11:40Z</time>
      </trkpt>
      <trkpt lat="49.57772" lon="3.1694">
        <ele>39.88</ele>
        <time>2021-04-09T11:11:46Z</time>
      </trkpt>
      <trkpt lat="49.57816" lon="3.16945">
        <ele>39</ele>
        <time>2021-04-09T11:11:52Z</time>
      </trkpt>
      <trkpt lat="49.5783" lon="3.1695">
        <ele>39</ele>
        <time>2021-04-09T11:11:58Z</time>
      </trkpt>
      <trkpt lat="49.57856" lon="3.16937">
        <ele>39.81</ele>
        <time>2021-04-09T11:12:04Z</time>
      </trkpt>
      <trkpt lat="49.5801" lon="3.16785">
        <ele>39</ele>
        <time>2021-04-09T11:12:10Z</time>
      </trkpt>
      <trkpt lat="49.58096" lon="3.16665">
        <ele>39.44</ele>
        <time>2021-04-09T11:12:16Z</time>
      </trkpt>
      <trkpt lat="49.58204" lon="3.16562">
        <ele>40.07</ele>
        <time>2021-04-09T11:12:22Z</time>
      </trkpt>
      <trkpt lat="49.58243" lon="3.16519">
        <ele>40</ele>
        <time>2021-04-09T11:12:27Z</time>
      </trkpt>
      <trkpt lat="49.58261" lon="3.16509">
        <ele>40</ele>
        <time>2021-04-09T11:12:33Z</time>
      </trkpt>
      <trkpt lat="49.58279" lon="3.16509">
        <ele>39.97</ele>
        <time>2021-04-09T11:12:39Z</time>
      </trkpt>
      <trkpt lat="49.5831" lon="3.16525">
        <ele>39.91</ele>
        <time>2021-04-09T11:12:45Z</time>
      </trkpt>
      <trkpt lat="49.58425" lon="3.16597">
        <ele>41.03</ele>
        <time>2021-04-09T11:12:51Z</time>
      </trkpt>
      <trkpt lat="49.58565" lon="3.16666">
        <ele>40.35</ele>
        <time>2021-04-09T11:12:57Z</time>
      </trkpt>
      <trkpt lat="49.58691" lon="3.16618">
        <ele>41.91</ele>
        <time>2021-04-09T11:13:03Z</time>
      </trkpt>
      <trkpt lat="49.58704" lon="3.16618">
        <ele>41.4</ele>
        <time>2021-04-09T11:13:09Z</time>
      </trkpt>
      <trkpt lat="49.5871" lon="3.16633">
        <ele>40.67</ele>
        <time>2021-04-09T11:13:14Z</time>
      </trkpt>
      <trkpt lat="49.58739" lon="3.16805">
        <ele>40.98</ele>
        <time>2021-04-09T11:13:19Z</time>
      </trkpt>
      <trkpt lat="49.58754" lon="3.16855">
        <ele>40.19</ele>
        <time>2021-04-09T11:13:23Z</time>
      </trkpt>
      <trkpt lat="49.58974" lon="3.17245">
        <ele>41.06</ele>
        <time>2021-04-09T11:13:28Z</time>
      </trkpt>
      <trkpt lat="49.59181" lon="3.17586">
        <ele>38.42</ele>
        <time>2021-04-09T11:13:33Z</time>
      </trkpt>
      <trkpt lat="49.59209" lon="3.176">
        <ele>37.78</ele>
        <time>2021-04-09T11:13:37Z</time>
      </trkpt>
      <trkpt lat="49.59221" lon="3.17602">
        <ele>37.68</ele>
        <time>2021-04-09T11:13:42Z</time>
      </trkpt>
      <trkpt lat="49.59276" lon="3.17593">
        <ele>38.93</ele>
        <time>2021-04-09T11:13:47Z</time>
      </trkpt>
      <trkpt lat="49.59329" lon="3.17579">
        <ele>39</ele>
        <time>2021-04-09T11:13:52Z</time>
      </trkpt>
      <trkpt lat="49.5934" lon="3.17583">
        <ele>39.49</ele>
        <time>2021-04-09T11:13:56Z</time>
      </trkpt>
      <trkpt lat="49.59349" lon="3.17591">
        <ele>40</ele>
        <time>2021-04-09T11:14:01Z</time>
      </trkpt>
      <trkpt lat="49.59361" lon="3.17627">
        <ele>39.42</ele>
        <time>2021-04-09T11:14:06Z</time>
      </trkpt>
      <trkpt lat="49.59375" lon="3.17701">
        <ele>39.63</ele>
        <time>2021-04-09T11:14:10Z</time>
      </trkpt>
      <trkpt lat="49.59375" lon="3.17813">
        <ele>41</ele>
        <time>2021-04-09T11:14:15Z</time>
      </trkpt>
      <trkpt lat="49.59378" lon="3.17873">
        <ele>40.34</ele>
        <time>2021-04-09T11:14:20Z</time>
      </trkpt>
      <trkpt lat="49.59389" lon="3.17932">
        <ele>40</ele>
        <time>2021-04-09T11:14:24Z</time>
      </trkpt>
      <trkpt lat="49.59413" lon="3.18031">
        <ele>40.01</ele>
        <time>2021-04-09T11:14:29Z</time>
      </trkpt>
      <trkpt lat="49.59423" lon="3.18041">
        <ele>40.21</ele>
        <time>2021-04-09T11:14:34Z</time>
      </trkpt>
      <trkpt lat="49.59459" lon="3.18063">
        <ele>40.48</ele>
        <time>2021-04-09T11:14:39Z</time>
      </trkpt>
      <trkpt lat="49.59492" lon="3.18075">
        <ele>40</ele>
        <time>2021-04-09T11:14:43Z</time>
      </trkpt>
      <trkpt lat="49.59524" lon="3.18072">
        <ele>41.21</ele>
        <time>2021-04-09T11:14:48Z</time>
      </trkpt>
      <trkpt lat="49.59563" lon="3.18066">
        <ele>42.72</ele>
        <time>2021-04-09T11:14:53Z</time>
      </trkpt>
      <trkpt lat="49.59576" lon="3.18057">
        <ele>42.99</ele>
        <time>2021-04-09T11:14:57Z</time>
      </trkpt>
      <trkpt lat="49.59595" lon="3.18017">
        <ele>44.39</ele>
        <time>2021-04-09T11:15:02Z</time>
      </trkpt>
      <trkpt lat="49.5963" lon="3.18015">
        <ele>43.8</ele>
        <time>2021-04-09T11:15:07Z</time>
      </trkpt>
      <trkpt lat="49.59651" lon="3.18016">
        <ele>42.8</ele>
        <time>2021-04-09T11:15:11Z</time>
      </trkpt>
      <trkpt lat="49.59667" lon="3.18013">
        <ele>41.99</ele>
        <time>2021-04-09T11:15:16Z</time>
      </trkpt>
      <trkpt lat="49.59678" lon="3.17995">
        <ele>41.58</ele>
        <time>2021-04-09T11:15:20Z</time>
      </trkpt>
      <trkpt lat="49.59718" lon="3.17902">
        <ele>42</ele>
        <time>2021-04-09T11:15:25Z</time>
      </trkpt>
      <trkpt lat="49.59882" lon="3.17627">
        <ele>42.89</ele>
        <time>2021-04-09T11:15:30Z</time>
      </trkpt>
      <trkpt lat="49.59896" lon="3.17615">
        <ele>43</ele>
        <time>2021-04-09T11:15:34Z</time>
      </trkpt>
      <trkpt lat="49.59903" lon="3.17622">
        <ele>43</ele>
        <time>2021-04-09T11:15:39Z</time>
      </trkpt>
      <trkpt lat="49.59906" lon="3.17622">
        <ele>43</ele>
        <time>2021-04-09T11:15:43Z</time>
      </trkpt>
      <trkpt lat="49.59913" lon="3.17615">
        <ele>43</ele>
        <time>2021-04-09T11:15:47Z</time>
      </trkpt>
      <trkpt lat="49.59914" lon="3.17604">
        <ele>43</ele>
        <time>2021-04-09T11:15:52Z</time>
      </trkpt>
      <trkpt lat="49.5995" lon="3.17594">
        <ele>42.72</ele>
        <time>2021-04-09T11:15:56Z</time>
      </trkpt>
      <trkpt lat="49.59966" lon="3.17586">
        <ele>42.15</ele>
        <time>2021-04-09T11:16:01Z</time>
      </trkpt>
      <trkpt lat="49.60027" lon="3.17537">
        <ele>41.02</ele>
        <time>2021-04-09T11:16:05Z</time>
      </trkpt>
      <trkpt lat="49.60119" lon="3.17456">
        <ele>43.6</ele>
        <time>2021-04-09T11:16:09Z</time>
      </trkpt>
      <trkpt lat="49.6018" lon="3.17375">
        <ele>44.74</ele>
        <time>2021-04-09T11:16:14Z</time>
      </trkpt>
      <trkpt lat="49.60241" lon="3.17305">
        <ele>46.67</ele>
        <time>2021-04-09T11:16:18Z</time>
      </trkpt>
      <trkpt lat="49.60272" lon="3.17285">
        <ele>46.85</ele>
        <time>2021-04-09T11:16:23Z</time>
      </trkpt>
      <trkpt lat="49.60308" lon="3.17272">
        <ele>47.29</ele>
        <time>2021-04-09T11:16:27Z</time>
      </trkpt>
      <trkpt lat="49.60364" lon="3.17243">
        <ele>49</ele>
        <time>2021-04-09T11:16:31Z</time>
      </trkpt>
      <trkpt lat="49.60515" lon="3.17151">
        <ele>53</ele>
        <time>2021-04-09T11:16:36Z</time>
      </trkpt>
      <trkpt lat="49.6064" lon="3.17078">
        <ele>54.87</ele>
        <time>2021-04-09T11:16:40Z</time>
      </trkpt>
      <trkpt lat="49.60669" lon="3.17069">
        <ele>56.09</ele>
        <time>2021-04-09T11:16:45Z</time>
      </trkpt>
      <trkpt lat="49.6069" lon="3.17066">
        <ele>56.84</ele>
        <time>2021-04-09T11:16:49Z</time>
      </trkpt>
      <trkpt lat="49.60698" lon="3.17075">
        <ele>57</ele>
        <time>2021-04-09T11:16:53Z</time>
      </trkpt>
      <trkpt lat="49.60703" lon="3.17076">
        <ele>57</ele>
        <time>2021-04-09T11:16:58Z</time>
      </trkpt>
      <trkpt lat="49.6071" lon="3.1709">
        <ele>57</ele>
        <time>2021-04-09T11:17:03Z</time>
      </trkpt>
      <trkpt lat="49.60844" lon="3.17563">
        <ele>55.74</ele>
        <time>2021-04-09T11:17:07Z</time>
      </trkpt>
      <trkpt lat="49.60904" lon="3.17748">
        <ele>55.53</ele>
        <time>2021-04-09T11:17:12Z</time>
      </trkpt>
      <trkpt lat="49.6093" lon="3.17822">
        <ele>56.2</ele>
        <time>2021-04-09T11:17:16Z</time>
      </trkpt>
      <trkpt lat="49.60975" lon="3.17933">
        <ele>55.3</ele>
        <time>2021-04-09T11:17:21Z</time>
      </trkpt>
      <trkpt lat="49.61039" lon="3.18079">
        <ele>51.85</ele>
        <time>2021-04-09T11:17:25Z</time>
      </trkpt>
      <trkpt lat="49.61077" lon="3.18156">
        <ele>51.21</ele>
        <time>2021-04-09T11:17:30Z</time>
      </trkpt>
      <trkpt lat="49.61123" lon="3.18239">
        <ele>54.44</ele>
        <time>2021-04-09T11:17:34Z</time>
      </trkpt>
      <trkpt lat="49.61185" lon="3.18346">
        <ele>58</ele>
        <time>2021-04-09T11:17:39Z</time>
      </trkpt>
      <trkpt lat="49.61252" lon="3.18446">
        <ele>58.05</ele>
        <time>2021-04-09T11:17:44Z</time>
      </trkpt>
      <trkpt lat="49.61299" lon="3.18512">
        <ele>56.67</ele>
        <time>2021-04-09T11:17:48Z</time>
      </trkpt>
      <trkpt lat="49.61369" lon="3.18602">
        <ele>57.65</ele>
        <time>2021-04-09T11:17:53Z</time>
      </trkpt>
      <trkpt lat="49.61384" lon="3.18624">
        <ele>58.37</ele>
        <time>2021-04-09T11:17:57Z</time>
      </trkpt>
      <trkpt lat="49.61397" lon="3.18652">
        <ele>59</ele>
        <time>2021-04-09T11:18:02Z</time>
      </trkpt>
      <trkpt lat="49.61398" lon="3.18667">
        <ele>59</ele>
        <time>2021-04-09T11:18:08Z</time>
      </trkpt>
      <trkpt lat="49.61402" lon="3.18677">
        <ele>59</ele>
        <time>2021-04-09T11:18:13Z</time>
      </trkpt>
      <trkpt lat="49.61411" lon="3.18685">
        <ele>59</ele>
        <time>2021-04-09T11:18:19Z</time>
      </trkpt>
      <trkpt lat="49.61418" lon="3.18686">
        <ele>58.97</ele>
        <time>2021-04-09T11:18:25Z</time>
      </trkpt>
      <trkpt lat="49.61424" lon="3.18683">
        <ele>58.84</ele>
        <time>2021-04-09T11:18:31Z</time>
      </trkpt>
      <trkpt lat="49.6144" lon="3.18691">
        <ele>58.26</ele>
        <time>2021-04-09T11:18:37Z</time>
      </trkpt>
      <trkpt lat="49.61466" lon="3.18713">
        <ele>58</ele>
        <time>2021-04-09T11:18:42Z</time>
      </trkpt>
      <trkpt lat="49.62285" lon="3.19583">
        <ele>62.25</ele>
        <time>2021-04-09T11:18:48Z</time>
      </trkpt>
      <trkpt lat="49.62381" lon="3.19688">
        <ele>62.94</ele>
        <time>2021-04-09T11:18:54Z</time>
      </trkpt>
      <trkpt lat="49.62462" lon="3.19786">
        <ele>63.83</ele>
        <time>2021-04-09T11:19:00Z</time>
      </trkpt>
      <trkpt lat="49.62489" lon="3.19822">
        <ele>65.96</ele>
        <time>2021-04-09T11:19:06Z</time>
      </trkpt>
      <trkpt lat="49.6251" lon="3.19855">
        <ele>67</ele>
        <time>2021-04-09T11:19:11Z</time>
      </trkpt>
      <trkpt lat="49.62519" lon="3.19882">
        <ele>67</ele>
        <time>2021-04-09T11:19:17Z</time>
      </trkpt>
      <trkpt lat="49.62519" lon="3.19893">
        <ele>66.96</ele>
        <time>2021-04-09T11:19:20Z</time>
      </trkpt>
      <trkpt lat="49.62521" lon="3.199">
        <ele>66.9</ele>
        <time>2021-04-09T11:19:23Z</time>
      </trkpt>
      <trkpt lat="49.6253" lon="3.19913">
        <ele>67</ele>
        <time>2021-04-09T11:19:25Z</time>
      </trkpt>
      <trkpt lat="49.62536" lon="3.19915">
        <ele>67</ele>
        <time>2021-04-09T11:19:28Z</time>
      </trkpt>
      <trkpt lat="49.62544" lon="3.19913">
        <ele>67</ele>
        <time>2021-04-09T11:19:31Z</time>
      </trkpt>
      <trkpt lat="49.6256" lon="3.19928">
        <ele>67.17</ele>
        <time>2021-04-09T11:19:33Z</time>
      </trkpt>
      <trkpt lat="49.62587" lon="3.19961">
        <ele>68.14</ele>
        <time>2021-04-09T11:19:36Z</time>
      </trkpt>
      <trkpt lat="49.62635" lon="3.20037">
        <ele>68.13</ele>
        <time>2021-04-09T11:19:39Z</time>
      </trkpt>
      <trkpt lat="49.62701" lon="3.20153">
        <ele>65.71</ele>
        <time>2021-04-09T11:19:41Z</time>
      </trkpt>
      <trkpt lat="49.62738" lon="3.20225">
        <ele>64.94</ele>
        <time>2021-04-09T11:19:44Z</time>
      </trkpt>
      <trkpt lat="49.62796" lon="3.20348">
        <ele>63.32</ele>
        <time>2021-04-09T11:19:47Z</time>
      </trkpt>
      <trkpt lat="49.62833" lon="3.20435">
        <ele>65</ele>
        <time>2021-04-09T11:19:49Z</time>
      </trkpt>
      <trkpt lat="49.62885" lon="3.20567">
        <ele>66.25</ele>
        <time>2021-04-09T11:19:52Z</time>
      </trkpt>
      <trkpt lat="49.62917" lon="3.20664">
        <ele>67.97</ele>
        <time>2021-04-09T11:19:55Z</time>
      </trkpt>
      <trkpt lat="49.62994" lon="3.20965">
        <ele>74.59</ele>
        <time>2021-04-09T11:19:57Z</time>
      </trkpt>
      <trkpt lat="49.62996" lon="3.20988">
        <ele>74.26</ele>
        <time>2021-04-09T11:20:00Z</time>
      </trkpt>
      <trkpt lat="49.62995" lon="3.21001">
        <ele>73.81</ele>
        <time>2021-04-09T11:20:03Z</time>
      </trkpt>
      <trkpt lat="49.62991" lon="3.21013">
        <ele>73.36</ele>
        <time>2021-04-09T11:20:07Z</time>
      </trkpt>
      <trkpt lat="49.6299" lon="3.21022">
        <ele>73.13</ele>
        <time>2021-04-09T11:20:11Z</time>
      </trkpt>
      <trkpt lat="49.62992" lon="3.21036">
        <ele>73</ele>
        <time>2021-04-09T11:20:15Z</time>
      </trkpt>
      <trkpt lat="49.62996" lon="3.21047">
        <ele>73</ele>
        <time>2021-04-09T11:20:19Z</time>
      </trkpt>
      <trkpt lat="49.63" lon="3.21053">
        <ele>73.01</ele>
        <time>2021-04-09T11:20:23Z</time>
      </trkpt>
      <trkpt lat="49.63008" lon="3.21058">
        <ele>73.5</ele>
        <time>2021-04-09T11:20:28Z</time>
      </trkpt>
      <trkpt lat="49.63013" lon="3.21059">
        <ele>73.8</ele>
        <time>2021-04-09T11:20:32Z</time>
      </trkpt>
      <trkpt lat="49.63024" lon="3.21054">
        <ele>74.71</ele>
        <time>2021-04-09T11:20:36Z</time>
      </trkpt>
      <trkpt lat="49.63032" lon="3.21041">
        <ele>75.26</ele>
        <time>2021-04-09T11:20:40Z</time>
      </trkpt>
      <trkpt lat="49.63035" lon="3.21026">
        <ele>75.52</ele>
        <time>2021-04-09T11:20:44Z</time>
      </trkpt>
      <trkpt lat="49.63049" lon="3.2101">
        <ele>76.51</ele>
        <time>2021-04-09T11:20:48Z</time>
      </trkpt>
      <trkpt lat="49.6309" lon="3.20982">
        <ele>76.59</ele>
        <time>2021-04-09T11:20:52Z</time>
      </trkpt>
      <trkpt lat="49.63676" lon="3.20649">
        <ele>86.98</ele>
        <time>2021-04-09T11:20:56Z</time>
      </trkpt>
      <trkpt lat="49.63727" lon="3.20637">
        <ele>88.23</ele>
        <time>2021-04-09T11:21:01Z</time>
      </trkpt>
      <trkpt lat="49.63977" lon="3.20658">
        <ele>83.78</ele>
        <time>2021-04-09T11:21:05Z</time>
      </trkpt>
      <trkpt lat="49.6401" lon="3.20663">
        <ele>82.88</ele>
        <time>2021-04-09T11:21:09Z</time>
      </trkpt>
      <trkpt lat="49.64206" lon="3.20724">
        <ele>83.67</ele>
        <time>2021-04-09T11:21:13Z</time>
      </trkpt>
      <trkpt lat="49.64349" lon="3.20806">
        <ele>87.01</ele>
        <time>2021-04-09T11:21:17Z</time>
      </trkpt>
      <trkpt lat="49.64406" lon="3.20828">
        <ele>87.8</ele>
        <time>2021-04-09T11:21:21Z</time>
      </trkpt>
      <trkpt lat="49.64456" lon="3.20839">
        <ele>88.42</ele>
        <time>2021-04-09T11:21:25Z</time>
      </trkpt>
      <trkpt lat="49.64493" lon="3.2084">
        <ele>88.86</ele>
        <time>2021-04-09T11:21:30Z</time>
      </trkpt>
      <trkpt lat="49.64536" lon="3.20832">
        <ele>89</ele>
        <time>2021-04-09T11:21:34Z</time>
      </trkpt>
      <trkpt lat="49.64555" lon="3.20825">
        <ele>89</ele>
        <time>2021-04-09T11:21:38Z</time>
      </trkpt>
      <trkpt lat="49.64665" lon="3.20766">
        <ele>88.56</ele>
        <time>2021-04-09T11:21:42Z</time>
      </trkpt>
      <trkpt lat="49.64769" lon="3.20705">
        <ele>86</ele>
        <time>2021-04-09T11:21:46Z</time>
      </trkpt>
      <trkpt lat="49.64805" lon="3.20694">
        <ele>85.02</ele>
        <time>2021-04-09T11:21:50Z</time>
      </trkpt>
      <trkpt lat="49.64901" lon="3.20677">
        <ele>83.9</ele>
        <time>2021-04-09T11:21:54Z</time>
      </trkpt>
      <trkpt lat="49.64948" lon="3.2066">
        <ele>85.39</ele>
        <time>2021-04-09T11:21:58Z</time>
      </trkpt>
      <trkpt lat="49.64997" lon="3.20636">
        <ele>87</ele>
        <time>2021-04-09T11:22:03Z</time>
      </trkpt>
      <trkpt lat="49.65057" lon="3.20597">
        <ele>85.94</ele>
        <time>2021-04-09T11:22:07Z</time>
      </trkpt>
      <trkpt lat="49.65146" lon="3.20521">
        <ele>82.25</ele>
        <time>2021-04-09T11:22:11Z</time>
      </trkpt>
      <trkpt lat="49.65164" lon="3.20509">
        <ele>82.68</ele>
        <time>2021-04-09T11:22:15Z</time>
      </trkpt>
      <trkpt lat="49.65176" lon="3.20507">
        <ele>82.42</ele>
        <time>2021-04-09T11:22:19Z</time>
      </trkpt>
      <trkpt lat="49.65188" lon="3.20509">
        <ele>81.92</ele>
        <time>2021-04-09T11:22:23Z</time>
      </trkpt>
      <trkpt lat="49.65201" lon="3.20519">
        <ele>81.62</ele>
        <time>2021-04-09T11:22:27Z</time>
      </trkpt>
      <trkpt lat="49.65211" lon="3.20532">
        <ele>81.4</ele>
        <time>2021-04-09T11:22:32Z</time>
      </trkpt>
      <trkpt lat="49.65225" lon="3.20564">
        <ele>80.69</ele>
        <time>2021-04-09T11:22:36Z</time>
      </trkpt>
      <trkpt lat="49.65252" lon="3.20611">
        <ele>80.16</ele>
        <time>2021-04-09T11:22:40Z</time>
      </trkpt>
      <trkpt lat="49.65485" lon="3.21093">
        <ele>78.81</ele>
        <time>2021-04-09T11:22:44Z</time>
      </trkpt>
      <trkpt lat="49.65509" lon="3.21118">
        <ele>78.5</ele>
        <time>2021-04-09T11:22:48Z</time>
      </trkpt>
      <trkpt lat="49.65545" lon="3.21142">
        <ele>75.58</ele>
        <time>2021-04-09T11:22:52Z</time>
      </trkpt>
      <trkpt lat="49.65573" lon="3.21143">
        <ele>74.04</ele>
        <time>2021-04-09T11:22:56Z</time>
      </trkpt>
      <trkpt lat="49.65601" lon="3.21136">
        <ele>72.26</ele>
        <time>2021-04-09T11:23:00Z</time>
      </trkpt>
      <trkpt lat="49.65632" lon="3.21109">
        <ele>71.61</ele>
        <time>2021-04-09T11:23:05Z</time>
      </trkpt>
      <trkpt lat="49.65648" lon="3.21091">
        <ele>70.81</ele>
        <time>2021-04-09T11:23:09Z</time>
      </trkpt>
      <trkpt lat="49.65664" lon="3.21064">
        <ele>69.42</ele>
        <time>2021-04-09T11:23:13Z</time>
      </trkpt>
      <trkpt lat="49.65677" lon="3.21018">
        <ele>69.27</ele>
        <time>2021-04-09T11:23:17Z</time>
      </trkpt>
      <trkpt lat="49.65703" lon="3.20828">
        <ele>69.53</ele>
        <time>2021-04-09T11:23:21Z</time>
      </trkpt>
      <trkpt lat="49.6571" lon="3.20813">
        <ele>69.64</ele>
        <time>2021-04-09T11:23:25Z</time>
      </trkpt>
      <trkpt lat="49.65723" lon="3.20791">
        <ele>70.06</ele>
        <time>2021-04-09T11:23:29Z</time>
      </trkpt>
      <trkpt lat="49.65739" lon="3.20775">
        <ele>70.45</ele>
        <time>2021-04-09T11:23:33Z</time>
      </trkpt>
      <trkpt lat="49.65758" lon="3.20764">
        <ele>69.3</ele>
        <time>2021-04-09T11:23:38Z</time>
      </trkpt>
      <trkpt lat="49.6578" lon="3.20763">
        <ele>67.25</ele>
        <time>2021-04-09T11:23:42Z</time>
      </trkpt>
      <trkpt lat="49.65834" lon="3.20774">
        <ele>61.17</ele>
        <time>2021-04-09T11:23:46Z</time>
      </trkpt>
      <trkpt lat="49.65856" lon="3.20765">
        <ele>61.53</ele>
        <time>2021-04-09T11:23:50Z</time>
      </trkpt>
      <trkpt lat="49.65869" lon="3.20752">
        <ele>61.36</ele>
        <time>2021-04-09T11:23:54Z</time>
      </trkpt>
      <trkpt lat="49.65881" lon="3.20737">
        <ele>61.84</ele>
        <time>2021-04-09T11:23:58Z</time>
      </trkpt>
      <trkpt lat="49.65939" lon="3.20644">
        <ele>60.41</ele>
        <time>2021-04-09T11:24:02Z</time>
      </trkpt>
      <trkpt lat="49.65956" lon="3.20637">
        <ele>59.57</ele>
        <time>2021-04-09T11:24:07Z</time>
      </trkpt>
      <trkpt lat="49.65973" lon="3.20637">
        <ele>58.96</ele>
        <time>2021-04-09T11:24:11Z</time>
      </trkpt>
      <trkpt lat="49.66225" lon="3.20725">
        <ele>60.2</ele>
        <time>2021-04-09T11:24:15Z</time>
      </trkpt>
      <trkpt lat="49.66325" lon="3.20763">
        <ele>65.68</ele>
        <time>2021-04-09T11:24:19Z</time>
      </trkpt>
      <trkpt lat="49.66376" lon="3.2078">
        <ele>68.01</ele>
        <time>2021-04-09T11:24:23Z</time>
      </trkpt>
      <trkpt lat="49.66537" lon="3.20839">
        <ele>74.14</ele>
        <time>2021-04-09T11:24:27Z</time>
      </trkpt>
      <trkpt lat="49.66715" lon="3.20888">
        <ele>80.58</ele>
        <time>2021-04-09T11:24:31Z</time>
      </trkpt>
      <trkpt lat="49.66966" lon="3.20903">
        <ele>86.88</ele>
        <time>2021-04-09T11:24:35Z</time>
      </trkpt>
      <trkpt lat="49.67068" lon="3.20922">
        <ele>89.67</ele>
        <time>2021-04-09T11:24:40Z</time>
      </trkpt>
      <trkpt lat="49.67479" lon="3.21153">
        <ele>93.71</ele>
        <time>2021-04-09T11:24:44Z</time>
      </trkpt>
      <trkpt lat="49.67566" lon="3.21212">
        <ele>96.25</ele>
        <time>2021-04-09T11:24:48Z</time>
      </trkpt>
      <trkpt lat="49.6769" lon="3.21291">
        <ele>98.62</ele>
        <time>2021-04-09T11:24:52Z</time>
      </trkpt>
      <trkpt lat="49.67849" lon="3.21403">
        <ele>95.92</ele>
        <time>2021-04-09T11:24:56Z</time>
      </trkpt>
      <trkpt lat="49.67892" lon="3.21459">
        <ele>93.89</ele>
        <time>2021-04-09T11:25:00Z</time>
      </trkpt>
      <trkpt lat="49.68054" lon="3.21745">
        <ele>85.18</ele>
        <time>2021-04-09T11:25:04Z</time>
      </trkpt>
      <trkpt lat="49.68119" lon="3.21802">
        <ele>81.53</ele>
        <time>2021-04-09T11:25:08Z</time>
      </trkpt>
      <trkpt lat="49.68195" lon="3.21841">
        <ele>78.99</ele>
        <time>2021-04-09T11:25:13Z</time>
      </trkpt>
      <trkpt lat="49.68349" lon="3.21894">
        <ele>76.08</ele>
        <time>2021-04-09T11:25:17Z</time>
      </trkpt>
      <trkpt lat="49.68778" lon="3.22026">
        <ele>83</ele>
        <time>2021-04-09T11:25:21Z</time>
      </trkpt>
      <trkpt lat="49.68825" lon="3.22043">
        <ele>82.45</ele>
        <time>2021-04-09T11:25:25Z</time>
      </trkpt>
      <trkpt lat="49.6886" lon="3.22092">
        <ele>83.31</ele>
        <time>2021-04-09T11:25:29Z</time>
      </trkpt>
      <trkpt lat="49.68851" lon="3.22128">
        <ele>80.62</ele>
        <time>2021-04-09T11:25:33Z</time>
      </trkpt>
      <trkpt lat="49.68839" lon="3.2227">
        <ele>81.36</ele>
        <time>2021-04-09T11:25:37Z</time>
      </trkpt>
      <trkpt lat="49.68812" lon="3.22554">
        <ele>81.06</ele>
        <time>2021-04-09T11:25:41Z</time>
      </trkpt>
      <trkpt lat="49.688" lon="3.22598">
        <ele>81.39</ele>
        <time>2021-04-09T11:25:45Z</time>
      </trkpt>
      <trkpt lat="49.68776" lon="3.2267">
        <ele>81.66</ele>
        <time>2021-04-09T11:25:49Z</time>
      </trkpt>
      <trkpt lat="49.68763" lon="3.22739">
        <ele>75.64</ele>
        <time>2021-04-09T11:25:53Z</time>
      </trkpt>
      <trkpt lat="49.68755" lon="3.22847">
        <ele>75.58</ele>
        <time>2021-04-09T11:25:57Z</time>
      </trkpt>
      <trkpt lat="49.68745" lon="3.23">
        <ele>71.18</ele>
        <time>2021-04-09T11:26:01Z</time>
      </trkpt>
      <trkpt lat="49.68733" lon="3.23116">
        <ele>70</ele>
        <time>2021-04-09T11:26:05Z</time>
      </trkpt>
      <trkpt lat="49.68718" lon="3.23203">
        <ele>71.85</ele>
        <time>2021-04-09T11:26:09Z</time>
      </trkpt>
      <trkpt lat="49.68698" lon="3.23251">
        <ele>70.97</ele>
        <time>2021-04-09T11:26:14Z</time>
      </trkpt>
      <trkpt lat="49.68642" lon="3.23402">
        <ele>71.57</ele>
        <time>2021-04-09T11:26:18Z</time>
      </trkpt>
      <trkpt lat="49.68632" lon="3.23466">
        <ele>71.94</ele>
        <time>2021-04-09T11:26:22Z</time>
      </trkpt>
      <trkpt lat="49.68635" lon="3.23693">
        <ele>74.95</ele>
        <time>2021-04-09T11:26:26Z</time>
      </trkpt>
      <trkpt lat="49.68642" lon="3.23752">
        <ele>75.93</ele>
        <time>2021-04-09T11:26:30Z</time>
      </trkpt>
      <trkpt lat="49.68676" lon="3.23831">
        <ele>75.37</ele>
        <time>2021-04-09T11:26:34Z</time>
      </trkpt>
      <trkpt lat="49.68705" lon="3.23923">
        <ele>78.09</ele>
        <time>2021-04-09T11:26:38Z</time>
      </trkpt>
      <trkpt lat="49.68715" lon="3.23947">
        <ele>78.74</ele>
        <time>2021-04-09T11:26:42Z</time>
      </trkpt>
      <trkpt lat="49.6874" lon="3.23983">
        <ele>78.6</ele>
        <time>2021-04-09T11:26:46Z</time>
      </trkpt>
      <trkpt lat="49.68748" lon="3.23999">
        <ele>78.02</ele>
        <time>2021-04-09T11:26:50Z</time>
      </trkpt>
      <trkpt lat="49.68774" lon="3.24176">
        <ele>75.54</ele>
        <time>2021-04-09T11:26:54Z</time>
      </trkpt>
      <trkpt lat="49.68791" lon="3.24255">
        <ele>72.74</ele>
        <time>2021-04-09T11:26:58Z</time>
      </trkpt>
      <trkpt lat="49.68793" lon="3.24285">
        <ele>72.07</ele>
        <time>2021-04-09T11:27:02Z</time>
      </trkpt>
      <trkpt lat="49.6879" lon="3.24317">
        <ele>71.94</ele>
        <time>2021-04-09T11:27:06Z</time>
      </trkpt>
      <trkpt lat="49.6878" lon="3.24353">
        <ele>72.69</ele>
        <time>2021-04-09T11:27:10Z</time>
      </trkpt>
      <trkpt lat="49.68834" lon="3.24384">
        <ele>73.01</ele>
        <time>2021-04-09T11:27:13Z</time>
      </trkpt>
      <trkpt lat="49.68863" lon="3.24404">
        <ele>74.65</ele>
        <time>2021-04-09T11:27:17Z</time>
      </trkpt>
      <trkpt lat="49.68873" lon="3.24415">
        <ele>75.79</ele>
        <time>2021-04-09T11:27:20Z</time>
      </trkpt>
      <trkpt lat="49.68879" lon="3.24435">
        <ele>76.3</ele>
        <time>2021-04-09T11:27:24Z</time>
      </trkpt>
      <trkpt lat="49.689" lon="3.24539">
        <ele>75.21</ele>
        <time>2021-04-09T11:27:27Z</time>
      </trkpt>
      <trkpt lat="49.68917" lon="3.24699">
        <ele>71</ele>
        <time>2021-04-09T11:27:31Z</time>
      </trkpt>
      <trkpt lat="49.68932" lon="3.24824">
        <ele>69.64</ele>
        <time>2021-04-09T11:27:34Z</time>
      </trkpt>
      <trkpt lat="49.6893" lon="3.24907">
        <ele>67.69</ele>
        <time>2021-04-09T11:27:38Z</time>
      </trkpt>
      <trkpt lat="49.68924" lon="3.25014">
        <ele>68</ele>
        <time>2021-04-09T11:27:41Z</time>
      </trkpt>
      <trkpt lat="49.68916" lon="3.25078">
        <ele>67.97</ele>
        <time>2021-04-09T11:27:45Z</time>
      </trkpt>
      <trkpt lat="49.68898" lon="3.25135">
        <ele>66.44</ele>
        <time>2021-04-09T11:27:48Z</time>
      </trkpt>
      <trkpt lat="49.68855" lon="3.25258">
        <ele>65.37</ele>
        <time>2021-04-09T11:27:52Z</time>
      </trkpt>
      <trkpt lat="49.68844" lon="3.25312">
        <ele>65.37</ele>
        <time>2021-04-09T11:27:55Z</time>
      </trkpt>
      <trkpt lat="49.68841" lon="3.25352">
        <ele>65.09</ele>
        <time>2021-04-09T11:27:58Z</time>
      </trkpt>
      <trkpt lat="49.68847" lon="3.25544">
        <ele>62.89</ele>
        <time>2021-04-09T11:28:02Z</time>
      </trkpt>
      <trkpt lat="49.68851" lon="3.25575">
        <ele>62.2</ele>
        <time>2021-04-09T11:28:05Z</time>
      </trkpt>
      <trkpt lat="49.68861" lon="3.25606">
        <ele>62.14</ele>
        <time>2021-04-09T11:28:09Z</time>
      </trkpt>
      <trkpt lat="49.68872" lon="3.25625">
        <ele>62.96</ele>
        <time>2021-04-09T11:28:12Z</time>
      </trkpt>
      <trkpt lat="49.68926" lon="3.25667">
        <ele>67.01</ele>
        <time>2021-04-09T11:28:16Z</time>
      </trkpt>
      <trkpt lat="49.68935" lon="3.25686">
        <ele>68.01</ele>
        <time>2021-04-09T11:28:19Z</time>
      </trkpt>
      <trkpt lat="49.68947" lon="3.25787">
        <ele>67.8</ele>
        <time>2021-04-09T11:28:23Z</time>
      </trkpt>
      <trkpt lat="49.68951" lon="3.25799">
        <ele>67.53</ele>
        <time>2021-04-09T11:28:26Z</time>
      </trkpt>
      <trkpt lat="49.68968" lon="3.25821">
        <ele>67.78</ele>
        <time>2021-04-09T11:28:30Z</time>
      </trkpt>
      <trkpt lat="49.68983" lon="3.25832">
        <ele>68.39</ele>
        <time>2021-04-09T11:28:33Z</time>
      </trkpt>
      <trkpt lat="49.68998" lon="3.25849">
        <ele>68.36</ele>
        <time>2021-04-09T11:28:37Z</time>
      </trkpt>
      <trkpt lat="49.69019" lon="3.2588">
        <ele>68.93</ele>
        <time>2021-04-09T11:28:40Z</time>
      </trkpt>
      <trkpt lat="49.69045" lon="3.25871">
        <ele>70.5</ele>
        <time>2021-04-09T11:28:45Z</time>
      </trkpt>
      <trkpt lat="49.69063" lon="3.25867">
        <ele>71.06</ele>
        <time>2021-04-09T11:28:49Z</time>
      </trkpt>
      <trkpt lat="49.69081" lon="3.25866">
        <ele>71.15</ele>
        <time>2021-04-09T11:28:54Z</time>
      </trkpt>
      <trkpt lat="49.69111" lon="3.2587">
        <ele>70.35</ele>
        <time>2021-04-09T11:28:59Z</time>
      </trkpt>
      <trkpt lat="49.69143" lon="3.25885">
        <ele>69.7</ele>
        <time>2021-04-09T11:29:04Z</time>
      </trkpt>
      <trkpt lat="49.69211" lon="3.25935">
        <ele>72.14</ele>
        <time>2021-04-09T11:29:08Z</time>
      </trkpt>
      <trkpt lat="49.69272" lon="3.25998">
        <ele>75.79</ele>
        <time>2021-04-09T11:29:13Z</time>
      </trkpt>
      <trkpt lat="49.69308" lon="3.2604">
        <ele>75.49</ele>
        <time>2021-04-09T11:29:18Z</time>
      </trkpt>
      <trkpt lat="49.69369" lon="3.26119">
        <ele>73.2</ele>
        <time>2021-04-09T11:29:22Z</time>
      </trkpt>
      <trkpt lat="49.69432" lon="3.26212">
        <ele>77.19</ele>
        <time>2021-04-09T11:29:27Z</time>
      </trkpt>
      <trkpt lat="49.69498" lon="3.26326">
        <ele>76.17</ele>
        <time>2021-04-09T11:29:32Z</time>
      </trkpt>
      <trkpt lat="49.69574" lon="3.2649">
        <ele>71.24</ele>
        <time>2021-04-09T11:29:37Z</time>
      </trkpt>
      <trkpt lat="49.69871" lon="3.27182">
        <ele>66.16</ele>
        <time>2021-04-09T11:29:41Z</time>
      </trkpt>
      <trkpt lat="49.69901" lon="3.27247">
        <ele>64.11</ele>
        <time>2021-04-09T11:29:46Z</time>
      </trkpt>
      <trkpt lat="49.69923" lon="3.27299">
        <ele>63.21</ele>
        <time>2021-04-09T11:29:51Z</time>
      </trkpt>
      <trkpt lat="49.69951" lon="3.27356">
        <ele>62.39</ele>
        <time>2021-04-09T11:29:55Z</time>
      </trkpt>
      <trkpt lat="49.69978" lon="3.27402">
        <ele>61.73</ele>
        <time>2021-04-09T11:30:00Z</time>
      </trkpt>
      <trkpt lat="49.70002" lon="3.27438">
        <ele>62</ele>
        <time>2021-04-09T11:30:05Z</time>
      </trkpt>
      <trkpt lat="49.70052" lon="3.27499">
        <ele>60.01</ele>
        <time>2021-04-09T11:30:10Z</time>
      </trkpt>
      <trkpt lat="49.70085" lon="3.27534">
        <ele>60.05</ele>
        <time>2021-04-09T11:30:14Z</time>
      </trkpt>
      <trkpt lat="49.70107" lon="3.27554">
        <ele>60.05</ele>
        <time>2021-04-09T11:30:19Z</time>
      </trkpt>
      <trkpt lat="49.70159" lon="3.27593">
        <ele>61.46</ele>
        <time>2021-04-09T11:30:24Z</time>
      </trkpt>
      <trkpt lat="49.70201" lon="3.27619">
        <ele>65.01</ele>
        <time>2021-04-09T11:30:28Z</time>
      </trkpt>
      <trkpt lat="49.70269" lon="3.2765">
        <ele>63.23</ele>
        <time>2021-04-09T11:30:33Z</time>
      </trkpt>
      <trkpt lat="49.70301" lon="3.27662">
        <ele>61.31</ele>
        <time>2021-04-09T11:30:38Z</time>
      </trkpt>
      <trkpt lat="49.70354" lon="3.27674">
        <ele>62.73</ele>
        <time>2021-04-09T11:30:43Z</time>
      </trkpt>
      <trkpt lat="49.70391" lon="3.27678">
        <ele>64.09</ele>
        <time>2021-04-09T11:30:47Z</time>
      </trkpt>
      <trkpt lat="49.70456" lon="3.27681">
        <ele>67.57</ele>
        <time>2021-04-09T11:30:52Z</time>
      </trkpt>
      <trkpt lat="49.7072" lon="3.27664">
        <ele>74.47</ele>
        <time>2021-04-09T11:30:57Z</time>
      </trkpt>
      <trkpt lat="49.70979" lon="3.27653">
        <ele>75.89</ele>
        <time>2021-04-09T11:31:01Z</time>
      </trkpt>
      <trkpt lat="49.71237" lon="3.27636">
        <ele>66.85</ele>
        <time>2021-04-09T11:31:06Z</time>
      </trkpt>
      <trkpt lat="49.71562" lon="3.27619">
        <ele>70</ele>
        <time>2021-04-09T11:31:11Z</time>
      </trkpt>
      <trkpt lat="49.71646" lon="3.27612">
        <ele>72.98</ele>
        <time>2021-04-09T11:31:16Z</time>
      </trkpt>
      <trkpt lat="49.7173" lon="3.27609">
        <ele>74.32</ele>
        <time>2021-04-09T11:31:20Z</time>
      </trkpt>
      <trkpt lat="49.71816" lon="3.27602">
        <ele>74.32</ele>
        <time>2021-04-09T11:31:25Z</time>
      </trkpt>
      <trkpt lat="49.71829" lon="3.27603">
        <ele>74.3</ele>
        <time>2021-04-09T11:31:30Z</time>
      </trkpt>
      <trkpt lat="49.7184" lon="3.27608">
        <ele>74.12</ele>
        <time>2021-04-09T11:31:34Z</time>
      </trkpt>
      <trkpt lat="49.71847" lon="3.27617">
        <ele>73.81</ele>
        <time>2021-04-09T11:31:44Z</time>
      </trkpt>
      <trkpt lat="49.71855" lon="3.2762">
        <ele>73.7</ele>
        <time>2021-04-09T11:31:53Z</time>
      </trkpt>
      <trkpt lat="49.71863" lon="3.27617">
        <ele>73.86</ele>
        <time>2021-04-09T11:32:02Z</time>
      </trkpt>
      <trkpt lat="49.71869" lon="3.27609">
        <ele>74.46</ele>
        <time>2021-04-09T11:32:11Z</time>
      </trkpt>
      <trkpt lat="49.71884" lon="3.27595">
        <ele>75.93</ele>
        <time>2021-04-09T11:32:20Z</time>
      </trkpt>
      <trkpt lat="49.71892" lon="3.27594">
        <ele>76.24</ele>
        <time>2021-04-09T11:32:29Z</time>
      </trkpt>
      <trkpt lat="49.72148" lon="3.27584">
        <ele>79</ele>
        <time>2021-04-09T11:32:38Z</time>
      </trkpt>
      <trkpt lat="49.72828" lon="3.27547">
        <ele>99.87</ele>
        <time>2021-04-09T11:32:47Z</time>
      </trkpt>
      <trkpt lat="49.73072" lon="3.27531">
        <ele>95.4</ele>
        <time>2021-04-09T11:32:56Z</time>
      </trkpt>
      <trkpt lat="49.7333" lon="3.27519">
        <ele>88.11</ele>
        <time>2021-04-09T11:33:05Z</time>
      </trkpt>
      <trkpt lat="49.73458" lon="3.27509">
        <ele>84</ele>
        <time>2021-04-09T11:33:14Z</time>
      </trkpt>
      <trkpt lat="49.7458" lon="3.27449">
        <ele>81.59</ele>
        <time>2021-04-09T11:33:23Z</time>
      </trkpt>
      <trkpt lat="49.75492" lon="3.27397">
        <ele>82.92</ele>
        <time>2021-04-09T11:33:32Z</time>
      </trkpt>
      <trkpt lat="49.7565" lon="3.27392">
        <ele>80.94</ele>
        <time>2021-04-09T11:33:41Z</time>
      </trkpt>
      <trkpt lat="49.75746" lon="3.27393">
        <ele>83.81</ele>
        <time>2021-04-09T11:33:50Z</time>
      </trkpt>
      <trkpt lat="49.7584" lon="3.27402">
        <ele>88.25</ele>
        <time>2021-04-09T11:33:59Z</time>
      </trkpt>
      <trkpt lat="49.75886" lon="3.27409">
        <ele>91.67</ele>
        <time>2021-04-09T11:34:08Z</time>
      </trkpt>
      <trkpt lat="49.75956" lon="3.27423">
        <ele>93.4</ele>
        <time>2021-04-09T11:34:17Z</time>
      </trkpt>
      <trkpt lat="49.76079" lon="3.27459">
        <ele>99.28</ele>
        <time>2021-04-09T11:34:26Z</time>
      </trkpt>
      <trkpt lat="49.76165" lon="3.27492">
        <ele>99.78</ele>
        <time>2021-04-09T11:34:35Z</time>
      </trkpt>
      <trkpt lat="49.76273" lon="3.27544">
        <ele>96.52</ele>
        <time>2021-04-09T11:34:44Z</time>
      </trkpt>
      <trkpt lat="49.76343" lon="3.27585">
        <ele>98.46</ele>
        <time>2021-04-09T11:34:53Z</time>
      </trkpt>
      <trkpt lat="49.76421" lon="3.27635">
        <ele>100</ele>
        <time>2021-04-09T11:35:02Z</time>
      </trkpt>
      <trkpt lat="49.76635" lon="3.27785">
        <ele>102</ele>
        <time>2021-04-09T11:35:11Z</time>
      </trkpt>
      <trkpt lat="49.77205" lon="3.28189">
        <ele>102.76</ele>
        <time>2021-04-09T11:35:21Z</time>
      </trkpt>
      <trkpt lat="49.77279" lon="3.2824">
        <ele>104.04</ele>
        <time>2021-04-09T11:35:30Z</time>
      </trkpt>
      <trkpt lat="49.77331" lon="3.28272">
        <ele>105</ele>
        <time>2021-04-09T11:35:39Z</time>
      </trkpt>
      <trkpt lat="49.7738" lon="3.28298">
        <ele>106.67</ele>
        <time>2021-04-09T11:35:48Z</time>
      </trkpt>
      <trkpt lat="49.77431" lon="3.28324">
        <ele>108</ele>
        <time>2021-04-09T11:35:57Z</time>
      </trkpt>
      <trkpt lat="49.77472" lon="3.28342">
        <ele>108.31</ele>
        <time>2021-04-09T11:36:06Z</time>
      </trkpt>
      <trkpt lat="49.7752" lon="3.28366">
        <ele>110.83</ele>
        <time>2021-04-09T11:36:09Z</time>
      </trkpt>
      <trkpt lat="49.77593" lon="3.28388">
        <ele>114.64</ele>
        <time>2021-04-09T11:36:11Z</time>
      </trkpt>
      <trkpt lat="49.77608" lon="3.28396">
        <ele>114.09</ele>
        <time>2021-04-09T11:36:14Z</time>
      </trkpt>
      <trkpt lat="49.77633" lon="3.28415">
        <ele>113.21</ele>
        <time>2021-04-09T11:36:17Z</time>
      </trkpt>
      <trkpt lat="49.77795" lon="3.28554">
        <ele>113.07</ele>
        <time>2021-04-09T11:36:19Z</time>
      </trkpt>
      <trkpt lat="49.77805" lon="3.28559">
        <ele>112.86</ele>
        <time>2021-04-09T11:36:22Z</time>
      </trkpt>
      <trkpt lat="49.77816" lon="3.28556">
        <ele>112.96</ele>
        <time>2021-04-09T11:36:25Z</time>
      </trkpt>
      <trkpt lat="49.77833" lon="3.28545">
        <ele>113.37</ele>
        <time>2021-04-09T11:36:27Z</time>
      </trkpt>
      <trkpt lat="49.7786" lon="3.28667">
        <ele>110</ele>
        <time>2021-04-09T11:36:31Z</time>
      </trkpt>
      <trkpt lat="49.77867" lon="3.2869">
        <ele>111.09</ele>
        <time>2021-04-09T11:36:36Z</time>
      </trkpt>
      <trkpt lat="49.77878" lon="3.28713">
        <ele>112.27</ele>
        <time>2021-04-09T11:36:40Z</time>
      </trkpt>
      <trkpt lat="49.77893" lon="3.28732">
        <ele>113</ele>
        <time>2021-04-09T11:36:44Z</time>
      </trkpt>
      <trkpt lat="49.77937" lon="3.28779">
        <ele>112.96</ele>
        <time>2021-04-09T11:36:48Z</time>
      </trkpt>
      <trkpt lat="49.77969" lon="3.28817">
        <ele>112.47</ele>
        <time>2021-04-09T11:36:52Z</time>
      </trkpt>
      <trkpt lat="49.78041" lon="3.28919">
        <ele>113.51</ele>
        <time>2021-04-09T11:36:57Z</time>
      </trkpt>
      <trkpt lat="49.78075" lon="3.28973">
        <ele>112.31</ele>
        <time>2021-04-09T11:37:01Z</time>
      </trkpt>
      <trkpt lat="49.78284" lon="3.29348">
        <ele>110.42</ele>
        <time>2021-04-09T11:37:05Z</time>
      </trkpt>
      <trkpt lat="49.78349" lon="3.29487">
        <ele>107.24</ele>
        <time>2021-04-09T11:37:09Z</time>
      </trkpt>
      <trkpt lat="49.78718" lon="3.30258">
        <ele>114</ele>
        <time>2021-04-09T11:37:13Z</time>
      </trkpt>
      <trkpt lat="49.7875" lon="3.30333">
        <ele>114</ele>
        <time>2021-04-09T11:37:18Z</time>
      </trkpt>
      <trkpt lat="49.78814" lon="3.30458">
        <ele>108.21</ele>
        <time>2021-04-09T11:37:22Z</time>
      </trkpt>
      <trkpt lat="49.78848" lon="3.30535">
        <ele>105.74</ele>
        <time>2021-04-09T11:37:26Z</time>
      </trkpt>
      <trkpt lat="49.78874" lon="3.30576">
        <ele>106.73</ele>
        <time>2021-04-09T11:37:30Z</time>
      </trkpt>
      <trkpt lat="49.78898" lon="3.30602">
        <ele>107.99</ele>
        <time>2021-04-09T11:37:34Z</time>
      </trkpt>
      <trkpt lat="49.78935" lon="3.30659">
        <ele>110.24</ele>
        <time>2021-04-09T11:37:39Z</time>
      </trkpt>
      <trkpt lat="49.78956" lon="3.3071">
        <ele>111.42</ele>
        <time>2021-04-09T11:37:43Z</time>
      </trkpt>
      <trkpt lat="49.7898" lon="3.30799">
        <ele>114.04</ele>
        <time>2021-04-09T11:37:47Z</time>
      </trkpt>
      <trkpt lat="49.78993" lon="3.30879">
        <ele>116</ele>
        <time>2021-04-09T11:37:51Z</time>
      </trkpt>
      <trkpt lat="49.78997" lon="3.30895">
        <ele>116</ele>
        <time>2021-04-09T11:37:55Z</time>
      </trkpt>
      <trkpt lat="49.79002" lon="3.30908">
        <ele>116.03</ele>
        <time>2021-04-09T11:38:00Z</time>
      </trkpt>
      <trkpt lat="49.79014" lon="3.30924">
        <ele>115.87</ele>
        <time>2021-04-09T11:38:04Z</time>
      </trkpt>
      <trkpt lat="49.79033" lon="3.30944">
        <ele>116.18</ele>
        <time>2021-04-09T11:38:08Z</time>
      </trkpt>
      <trkpt lat="49.79072" lon="3.30976">
        <ele>116.35</ele>
        <time>2021-04-09T11:38:12Z</time>
      </trkpt>
      <trkpt lat="49.7911" lon="3.31002">
        <ele>114.99</ele>
        <time>2021-04-09T11:38:16Z</time>
      </trkpt>
      <trkpt lat="49.7914" lon="3.31028">
        <ele>113.01</ele>
        <time>2021-04-09T11:38:21Z</time>
      </trkpt>
      <trkpt lat="49.79235" lon="3.31154">
        <ele>113.53</ele>
        <time>2021-04-09T11:38:25Z</time>
      </trkpt>
      <trkpt lat="49.7925" lon="3.31182">
        <ele>112.98</ele>
        <time>2021-04-09T11:38:29Z</time>
      </trkpt>
      <trkpt lat="49.79306" lon="3.31331">
        <ele>109.97</ele>
        <time>2021-04-09T11:38:33Z</time>
      </trkpt>
      <trkpt lat="49.79333" lon="3.31391">
        <ele>108</ele>
        <time>2021-04-09T11:38:37Z</time>
      </trkpt>
      <trkpt lat="49.79387" lon="3.31488">
        <ele>105.07</ele>
        <time>2021-04-09T11:38:42Z</time>
      </trkpt>
      <trkpt lat="49.7941" lon="3.31524">
        <ele>105.1</ele>
        <time>2021-04-09T11:38:46Z</time>
      </trkpt>
      <trkpt lat="49.79442" lon="3.31569">
        <ele>105</ele>
        <time>2021-04-09T11:38:50Z</time>
      </trkpt>
      <trkpt lat="49.79464" lon="3.31591">
        <ele>105</ele>
        <time>2021-04-09T11:38:54Z</time>
      </trkpt>
      <trkpt lat="49.79656" lon="3.3176">
        <ele>100.75</ele>
        <time>2021-04-09T11:38:58Z</time>
      </trkpt>
      <trkpt lat="49.79718" lon="3.3181">
        <ele>100.13</ele>
        <time>2021-04-09T11:39:03Z</time>
      </trkpt>
      <trkpt lat="49.79779" lon="3.31862">
        <ele>100.03</ele>
        <time>2021-04-09T11:39:07Z</time>
      </trkpt>
      <trkpt lat="49.79802" lon="3.31888">
        <ele>101.09</ele>
        <time>2021-04-09T11:39:11Z</time>
      </trkpt>
      <trkpt lat="49.79824" lon="3.31918">
        <ele>101.38</ele>
        <time>2021-04-09T11:39:15Z</time>
      </trkpt>
      <trkpt lat="49.79842" lon="3.31957">
        <ele>102.44</ele>
        <time>2021-04-09T11:39:19Z</time>
      </trkpt>
      <trkpt lat="49.79865" lon="3.32023">
        <ele>104.72</ele>
        <time>2021-04-09T11:39:24Z</time>
      </trkpt>
      <trkpt lat="49.79896" lon="3.32098">
        <ele>105</ele>
        <time>2021-04-09T11:39:28Z</time>
      </trkpt>
      <trkpt lat="49.79902" lon="3.32108">
        <ele>105</ele>
        <time>2021-04-09T11:39:32Z</time>
      </trkpt>
      <trkpt lat="49.80063" lon="3.32032">
        <ele>103.59</ele>
        <time>2021-04-09T11:39:52Z</time>
      </trkpt>
      <trkpt lat="49.80086" lon="3.32021">
        <ele>101.82</ele>
        <time>2021-04-09T11:40:11Z</time>
      </trkpt>
      <trkpt lat="49.80193" lon="3.31973">
        <ele>97</ele>
        <time>2021-04-09T11:40:31Z</time>
      </trkpt>
      <trkpt lat="49.80453" lon="3.31855">
        <ele>85.13</ele>
        <time>2021-04-09T11:40:50Z</time>
      </trkpt>
      <trkpt lat="49.80481" lon="3.31839">
        <ele>86.59</ele>
        <time>2021-04-09T11:41:10Z</time>
      </trkpt>
      <trkpt lat="49.81806" lon="3.3124">
        <ele>114.39</ele>
        <time>2021-04-09T11:41:30Z</time>
      </trkpt>
      <trkpt lat="49.81878" lon="3.31207">
        <ele>113.64</ele>
        <time>2021-04-09T11:41:49Z</time>
      </trkpt>
      <trkpt lat="49.81907" lon="3.31357">
        <ele>113.55</ele>
        <time>2021-04-09T11:41:55Z</time>
      </trkpt>
      <trkpt lat="49.81916" lon="3.31399">
        <ele>112.99</ele>
        <time>2021-04-09T11:42:00Z</time>
      </trkpt>
      <trkpt lat="49.81927" lon="3.31435">
        <ele>112.58</ele>
        <time>2021-04-09T11:42:05Z</time>
      </trkpt>
      <trkpt lat="49.81993" lon="3.31611">
        <ele>115.74</ele>
        <time>2021-04-09T11:42:11Z</time>
      </trkpt>
      <trkpt lat="49.82014" lon="3.31671">
        <ele>115</ele>
        <time>2021-04-09T11:42:16Z</time>
      </trkpt>
      <trkpt lat="49.82082" lon="3.31933">
        <ele>114.03</ele>
        <time>2021-04-09T11:42:22Z</time>
      </trkpt>
      <trkpt lat="49.82095" lon="3.31979">
        <ele>114.7</ele>
        <time>2021-04-09T11:42:27Z</time>
      </trkpt>
      <trkpt lat="49.82107" lon="3.32008">
        <ele>114.54</ele>
        <time>2021-04-09T11:42:32Z</time>
      </trkpt>
      <trkpt lat="49.82123" lon="3.32039">
        <ele>113.92</ele>
        <time>2021-04-09T11:42:38Z</time>
      </trkpt>
      <trkpt lat="49.82186" lon="3.32138">
        <ele>111.29</ele>
        <time>2021-04-09T11:42:43Z</time>
      </trkpt>
      <trkpt lat="49.82196" lon="3.32158">
        <ele>111.64</ele>
        <time>2021-04-09T11:42:48Z</time>
      </trkpt>
      <trkpt lat="49.82222" lon="3.3222">
        <ele>113</ele>
        <time>2021-04-09T11:42:54Z</time>
      </trkpt>
      <trkpt lat="49.8225" lon="3.32302">
        <ele>111.13</ele>
        <time>2021-04-09T11:42:59Z</time>
      </trkpt>
      <trkpt lat="49.82269" lon="3.32344">
        <ele>111</ele>
        <time>2021-04-09T11:43:05Z</time>
      </trkpt>
      <trkpt lat="49.82467" lon="3.32751">
        <ele>113.37</ele>
        <time>2021-04-09T11:43:10Z</time>
      </trkpt>
      <trkpt lat="49.82478" lon="3.32772">
        <ele>113.77</ele>
        <time>2021-04-09T11:43:15Z</time>
      </trkpt>
      <trkpt lat="49.82482" lon="3.32775">
        <ele>114.12</ele>
        <time>2021-04-09T11:43:21Z</time>
      </trkpt>
      <trkpt lat="49.82583" lon="3.32556">
        <ele>115</ele>
        <time>2021-04-09T11:43:23Z</time>
      </trkpt>
      <trkpt lat="49.82606" lon="3.32511">
        <ele>114.5</ele>
        <time>2021-04-09T11:43:25Z</time>
      </trkpt>
      <trkpt lat="49.8262" lon="3.32489">
        <ele>114.18</ele>
        <time>2021-04-09T11:43:27Z</time>
      </trkpt>
      <trkpt lat="49.82639" lon="3.32467">
        <ele>113.8</ele>
        <time>2021-04-09T11:43:30Z</time>
      </trkpt>
      <trkpt lat="49.82655" lon="3.32451">
        <ele>113.83</ele>
        <time>2021-04-09T11:43:32Z</time>
      </trkpt>
      <trkpt lat="49.8271" lon="3.32407">
        <ele>111.81</ele>
        <time>2021-04-09T11:43:34Z</time>
      </trkpt>
      <trkpt lat="49.82741" lon="3.32378">
        <ele>111.69</ele>
        <time>2021-04-09T11:43:36Z</time>
      </trkpt>
      <trkpt lat="49.82761" lon="3.32357">
        <ele>111.46</ele>
        <time>2021-04-09T11:43:39Z</time>
      </trkpt>
      <trkpt lat="49.82788" lon="3.32322">
        <ele>109.63</ele>
        <time>2021-04-09T11:43:41Z</time>
      </trkpt>
      <trkpt lat="49.82824" lon="3.32266">
        <ele>109.52</ele>
        <time>2021-04-09T11:43:43Z</time>
      </trkpt>
      <trkpt lat="49.82844" lon="3.32239">
        <ele>106.87</ele>
        <time>2021-04-09T11:43:45Z</time>
      </trkpt>
      <trkpt lat="49.82875" lon="3.32213">
        <ele>102.16</ele>
        <time>2021-04-09T11:43:48Z</time>
      </trkpt>
      <trkpt lat="49.82881" lon="3.32216">
        <ele>102.06</ele>
        <time>2021-04-09T11:43:51Z</time>
      </trkpt>
      <trkpt lat="49.82888" lon="3.32216">
        <ele>101.83</ele>
        <time>2021-04-09T11:43:55Z</time>
      </trkpt>
      <trkpt lat="49.82898" lon="3.32228">
        <ele>102.04</ele>
        <time>2021-04-09T11:43:58Z</time>
      </trkpt>
      <trkpt lat="49.82932" lon="3.32283">
        <ele>104.6</ele>
        <time>2021-04-09T11:44:02Z</time>
      </trkpt>
      <trkpt lat="49.83169" lon="3.3277">
        <ele>107.91</ele>
        <time>2021-04-09T11:44:05Z</time>
      </trkpt>
      <trkpt lat="49.83197" lon="3.32815">
        <ele>107.92</ele>
        <time>2021-04-09T11:44:09Z</time>
      </trkpt>
      <trkpt lat="49.83211" lon="3.32835">
        <ele>107.39</ele>
        <time>2021-04-09T11:44:13Z</time>
      </trkpt>
      <trkpt lat="49.83248" lon="3.32873">
        <ele>106.07</ele>
        <time>2021-04-09T11:44:16Z</time>
      </trkpt>
      <trkpt lat="49.83267" lon="3.32887">
        <ele>105.41</ele>
        <time>2021-04-09T11:44:20Z</time>
      </trkpt>
      <trkpt lat="49.83302" lon="3.32909">
        <ele>104.74</ele>
        <time>2021-04-09T11:44:23Z</time>
      </trkpt>
      <trkpt lat="49.83344" lon="3.32922">
        <ele>103.62</ele>
        <time>2021-04-09T11:44:27Z</time>
      </trkpt>
      <trkpt lat="49.83383" lon="3.32925">
        <ele>101.41</ele>
        <time>2021-04-09T11:44:30Z</time>
      </trkpt>
      <trkpt lat="49.83406" lon="3.32922">
        <ele>99.15</ele>
        <time>2021-04-09T11:44:34Z</time>
      </trkpt>
      <trkpt lat="49.83441" lon="3.32913">
        <ele>96.37</ele>
        <time>2021-04-09T11:44:37Z</time>
      </trkpt>
      <trkpt lat="49.83717" lon="3.32785">
        <ele>92.33</ele>
        <time>2021-04-09T11:44:41Z</time>
      </trkpt>
      <trkpt lat="49.83751" lon="3.32781">
        <ele>93.93</ele>
        <time>2021-04-09T11:44:44Z</time>
      </trkpt>
      <trkpt lat="49.83755" lon="3.32787">
        <ele>93.85</ele>
        <time>2021-04-09T11:44:46Z</time>
      </trkpt>
      <trkpt lat="49.83761" lon="3.32792">
        <ele>93.88</ele>
        <time>2021-04-09T11:44:48Z</time>
      </trkpt>
      <trkpt lat="49.83767" lon="3.32793">
        <ele>94.04</ele>
        <time>2021-04-09T11:44:50Z</time>
      </trkpt>
      <trkpt lat="49.83773" lon="3.32792">
        <ele>94.3</ele>
        <time>2021-04-09T11:44:51Z</time>
      </trkpt>
      <trkpt lat="49.83778" lon="3.32788">
        <ele>94.64</ele>
        <time>2021-04-09T11:44:53Z</time>
      </trkpt>
      <trkpt lat="49.83788" lon="3.3279">
        <ele>94.71</ele>
        <time>2021-04-09T11:44:55Z</time>
      </trkpt>
      <trkpt lat="49.83811" lon="3.32802">
        <ele>94.37</ele>
        <time>2021-04-09T11:44:57Z</time>
      </trkpt>
      <trkpt lat="49.84011" lon="3.32976">
        <ele>93.26</ele>
        <time>2021-04-09T11:44:58Z</time>
      </trkpt>
      <trkpt lat="49.84043" lon="3.32997">
        <ele>92.57</ele>
        <time>2021-04-09T11:45:00Z</time>
      </trkpt>
      <trkpt lat="49.84105" lon="3.33024">
        <ele>90.23</ele>
        <time>2021-04-09T11:45:02Z</time>
      </trkpt>
      <trkpt lat="49.84136" lon="3.33034">
        <ele>90.24</ele>
        <time>2021-04-09T11:45:04Z</time>
      </trkpt>
      <trkpt lat="49.84144" lon="3.33039">
        <ele>89.9</ele>
        <time>2021-04-09T11:45:05Z</time>
      </trkpt>
      <trkpt lat="49.84154" lon="3.3305">
        <ele>88.88</ele>
        <time>2021-04-09T11:45:07Z</time>
      </trkpt>
      <trkpt lat="49.84156" lon="3.33062">
        <ele>88.56</ele>
        <time>2021-04-09T11:45:10Z</time>
      </trkpt>
      <trkpt lat="49.8416" lon="3.33073">
        <ele>88</ele>
        <time>2021-04-09T11:45:12Z</time>
      </trkpt>
      <trkpt lat="49.84165" lon="3.33082">
        <ele>87.21</ele>
        <time>2021-04-09T11:45:14Z</time>
      </trkpt>
      <trkpt lat="49.84172" lon="3.33089">
        <ele>86.39</ele>
        <time>2021-04-09T11:45:17Z</time>
      </trkpt>
      <trkpt lat="49.8418" lon="3.33093">
        <ele>85.44</ele>
        <time>2021-04-09T11:45:19Z</time>
      </trkpt>
      <trkpt lat="49.84188" lon="3.33095">
        <ele>84.42</ele>
        <time>2021-04-09T11:45:21Z</time>
      </trkpt>
      <trkpt lat="49.84196" lon="3.33093">
        <ele>83.6</ele>
        <time>2021-04-09T11:45:24Z</time>
      </trkpt>
      <trkpt lat="49.84203" lon="3.33089">
        <ele>83.49</ele>
        <time>2021-04-09T11:45:26Z</time>
      </trkpt>
      <trkpt lat="49.8421" lon="3.33082">
        <ele>83.42</ele>
        <time>2021-04-09T11:45:28Z</time>
      </trkpt>
      <trkpt lat="49.84218" lon="3.33067">
        <ele>82.67</ele>
        <time>2021-04-09T11:45:31Z</time>
      </trkpt>
      <trkpt lat="49.84221" lon="3.33048">
        <ele>81.81</ele>
        <time>2021-04-09T11:45:33Z</time>
      </trkpt>
      <trkpt lat="49.84234" lon="3.33034">
        <ele>81.57</ele>
        <time>2021-04-09T11:45:35Z</time>
      </trkpt>
      <trkpt lat="49.84249" lon="3.33028">
        <ele>81.95</ele>
        <time>2021-04-09T11:45:38Z</time>
      </trkpt>
      <trkpt lat="49.84276" lon="3.33023">
        <ele>83.28</ele>
        <time>2021-04-09T11:45:40Z</time>
      </trkpt>
      <trkpt lat="49.8433" lon="3.33025">
        <ele>85.21</ele>
        <time>2021-04-09T11:45:43Z</time>
      </trkpt>
      <trkpt lat="49.84351" lon="3.33021">
        <ele>83.5</ele>
        <time>2021-04-09T11:45:45Z</time>
      </trkpt>
      <trkpt lat="49.84405" lon="3.33">
        <ele>78.83</ele>
        <time>2021-04-09T11:45:47Z</time>
      </trkpt>
      <trkpt lat="49.84572" lon="3.32919">
        <ele>75.09</ele>
        <time>2021-04-09T11:45:50Z</time>
      </trkpt>
      <trkpt lat="49.84591" lon="3.32913">
        <ele>75.24</ele>
        <time>2021-04-09T11:45:52Z</time>
      </trkpt>
      <trkpt lat="49.84619" lon="3.32913">
        <ele>75.94</ele>
        <time>2021-04-09T11:45:54Z</time>
      </trkpt>
      <trkpt lat="49.84648" lon="3.32921">
        <ele>76</ele>
        <time>2021-04-09T11:45:57Z</time>
      </trkpt>
      <trkpt lat="49.84669" lon="3.32934">
        <ele>76.03</ele>
        <time>2021-04-09T11:45:59Z</time>
      </trkpt>
      <trkpt lat="49.84727" lon="3.3299">
        <ele>76.19</ele>
        <time>2021-04-09T11:46:01Z</time>
      </trkpt>
      <trkpt lat="49.84749" lon="3.33004">
        <ele>75.03</ele>
        <time>2021-04-09T11:46:04Z</time>
      </trkpt>
      <trkpt lat="49.84763" lon="3.33008">
        <ele>74.54</ele>
        <time>2021-04-09T11:46:06Z</time>
      </trkpt>
      <trkpt lat="49.84786" lon="3.33009">
        <ele>74.1</ele>
        <time>2021-04-09T11:46:08Z</time>
      </trkpt>
      <trkpt lat="49.84806" lon="3.33005">
        <ele>74.19</ele>
        <time>2021-04-09T11:46:11Z</time>
      </trkpt>
      <trkpt lat="49.84826" lon="3.32997">
        <ele>74</ele>
        <time>2021-04-09T11:46:13Z</time>
      </trkpt>
      <trkpt lat="49.84936" lon="3.32899">
        <ele>76.9</ele>
        <time>2021-04-09T11:46:16Z</time>
      </trkpt>
      <trkpt lat="49.84986" lon="3.32861">
        <ele>80</ele>
        <time>2021-04-09T11:46:18Z</time>
      </trkpt>
      <trkpt lat="49.85027" lon="3.32842">
        <ele>80</ele>
        <time>2021-04-09T11:46:20Z</time>
      </trkpt>
      <trkpt lat="49.85061" lon="3.32829">
        <ele>80</ele>
        <time>2021-04-09T11:46:23Z</time>
      </trkpt>
      <trkpt lat="49.85106" lon="3.3282">
        <ele>80.4</ele>
        <time>2021-04-09T11:46:25Z</time>
      </trkpt>
      <trkpt lat="49.85132" lon="3.32823">
        <ele>79.91</ele>
        <time>2021-04-09T11:46:27Z</time>
      </trkpt>
      <trkpt lat="49.85154" lon="3.32828">
        <ele>79.95</ele>
        <time>2021-04-09T11:46:30Z</time>
      </trkpt>
      <trkpt lat="49.85224" lon="3.3286">
        <ele>76.83</ele>
        <time>2021-04-09T11:46:32Z</time>
      </trkpt>
      <trkpt lat="49.85248" lon="3.32872">
        <ele>75.17</ele>
        <time>2021-04-09T11:46:34Z</time>
      </trkpt>
      <trkpt lat="49.85278" lon="3.32881">
        <ele>74</ele>
        <time>2021-04-09T11:46:37Z</time>
      </trkpt>
      <trkpt lat="49.85314" lon="3.32886">
        <ele>72.92</ele>
        <time>2021-04-09T11:46:39Z</time>
      </trkpt>
      <trkpt lat="49.85364" lon="3.32887">
        <ele>74.2</ele>
        <time>2021-04-09T11:46:41Z</time>
      </trkpt>
      <trkpt lat="49.85407" lon="3.32874">
        <ele>76.99</ele>
        <time>2021-04-09T11:46:44Z</time>
      </trkpt>
      <trkpt lat="49.85455" lon="3.3285">
        <ele>80.72</ele>
        <time>2021-04-09T11:46:46Z</time>
      </trkpt>
      <trkpt lat="49.85507" lon="3.3281">
        <ele>83.61</ele>
        <time>2021-04-09T11:46:49Z</time>
      </trkpt>
      <trkpt lat="49.85547" lon="3.32769">
        <ele>86.92</ele>
        <time>2021-04-09T11:46:51Z</time>
      </trkpt>
      <trkpt lat="49.85594" lon="3.32704">
        <ele>93.29</ele>
        <time>2021-04-09T11:46:53Z</time>
      </trkpt>
      <trkpt lat="49.85643" lon="3.32645">
        <ele>98.82</ele>
        <time>2021-04-09T11:46:56Z</time>
      </trkpt>
      <trkpt lat="49.85681" lon="3.32592">
        <ele>99.35</ele>
        <time>2021-04-09T11:46:58Z</time>
      </trkpt>
      <trkpt lat="49.85705" lon="3.32568">
        <ele>99.55</ele>
        <time>2021-04-09T11:47:00Z</time>
      </trkpt>
      <trkpt lat="49.85731" lon="3.32555">
        <ele>99.68</ele>
        <time>2021-04-09T11:47:03Z</time>
      </trkpt>
      <trkpt lat="49.85738" lon="3.32557">
        <ele>99.42</ele>
        <time>2021-04-09T11:47:07Z</time>
      </trkpt>
      <trkpt lat="49.85746" lon="3.32554">
        <ele>99.2</ele>
        <time>2021-04-09T11:47:11Z</time>
      </trkpt>
      <trkpt lat="49.85752" lon="3.32549">
        <ele>99.24</ele>
        <time>2021-04-09T11:47:15Z</time>
      </trkpt>
      <trkpt lat="49.85757" lon="3.3254">
        <ele>99.42</ele>
        <time>2021-04-09T11:47:20Z</time>
      </trkpt>
      <trkpt lat="49.8576" lon="3.3253">
        <ele>99.6</ele>
        <time>2021-04-09T11:47:24Z</time>
      </trkpt>
      <trkpt lat="49.85767" lon="3.32518">
        <ele>99.24</ele>
        <time>2021-04-09T11:47:28Z</time>
      </trkpt>
      <trkpt lat="49.85785" lon="3.32499">
        <ele>98.96</ele>
        <time>2021-04-09T11:47:32Z</time>
      </trkpt>
      <trkpt lat="49.85807" lon="3.32485">
        <ele>98.46</ele>
        <time>2021-04-09T11:47:36Z</time>
      </trkpt>
      <trkpt lat="49.85838" lon="3.32476">
        <ele>98.1</ele>
        <time>2021-04-09T11:47:41Z</time>
      </trkpt>
      <trkpt lat="49.85886" lon="3.32474">
        <ele>98</ele>
        <time>2021-04-09T11:47:45Z</time>
      </trkpt>
      <trkpt lat="49.85912" lon="3.32478">
        <ele>97.17</ele>
        <time>2021-04-09T11:47:49Z</time>
      </trkpt>
      <trkpt lat="49.85967" lon="3.32497">
        <ele>96.07</ele>
        <time>2021-04-09T11:47:53Z</time>
      </trkpt>
      <trkpt lat="49.86004" lon="3.32523">
        <ele>95.11</ele>
        <time>2021-04-09T11:47:57Z</time>
      </trkpt>
      <trkpt lat="49.86026" lon="3.32542">
        <ele>95.21</ele>
        <time>2021-04-09T11:48:02Z</time>
      </trkpt>
      <trkpt lat="49.86113" lon="3.32658">
        <ele>95.55</ele>
        <time>2021-04-09T11:48:06Z</time>
      </trkpt>
      <trkpt lat="49.86132" lon="3.32682">
        <ele>95</ele>
        <time>2021-04-09T11:48:10Z</time>
      </trkpt>
      <trkpt lat="49.86159" lon="3.32709">
        <ele>94.44</ele>
        <time>2021-04-09T11:48:14Z</time>
      </trkpt>
      <trkpt lat="49.86198" lon="3.32737">
        <ele>92.31</ele>
        <time>2021-04-09T11:48:18Z</time>
      </trkpt>
      <trkpt lat="49.86232" lon="3.32755">
        <ele>91.07</ele>
        <time>2021-04-09T11:48:23Z</time>
      </trkpt>
      <trkpt lat="49.86255" lon="3.32765">
        <ele>90.34</ele>
        <time>2021-04-09T11:48:27Z</time>
      </trkpt>
      <trkpt lat="49.86306" lon="3.32771">
        <ele>89.76</ele>
        <time>2021-04-09T11:48:31Z</time>
      </trkpt>
      <trkpt lat="49.86413" lon="3.32767">
        <ele>90</ele>
        <time>2021-04-09T11:48:35Z</time>
      </trkpt>
      <trkpt lat="49.86531" lon="3.32766">
        <ele>89.13</ele>
        <time>2021-04-09T11:48:39Z</time>
      </trkpt>
      <trkpt lat="49.86591" lon="3.32767">
        <ele>90.08</ele>
        <time>2021-04-09T11:48:44Z</time>
      </trkpt>
      <trkpt lat="49.86631" lon="3.32778">
        <ele>92</ele>
        <time>2021-04-09T11:48:48Z</time>
      </trkpt>
      <trkpt lat="49.86684" lon="3.3281">
        <ele>95.3</ele>
        <time>2021-04-09T11:48:52Z</time>
      </trkpt>
      <trkpt lat="49.86738" lon="3.3285">
        <ele>98.57</ele>
        <time>2021-04-09T11:48:56Z</time>
      </trkpt>
      <trkpt lat="49.86786" lon="3.32878">
        <ele>101.4</ele>
        <time>2021-04-09T11:49:00Z</time>
      </trkpt>
      <trkpt lat="49.86811" lon="3.32898">
        <ele>104.06</ele>
        <time>2021-04-09T11:49:05Z</time>
      </trkpt>
      <trkpt lat="49.86873" lon="3.3293">
        <ele>105</ele>
        <time>2021-04-09T11:49:09Z</time>
      </trkpt>
      <trkpt lat="49.86924" lon="3.32941">
        <ele>105.69</ele>
        <time>2021-04-09T11:49:13Z</time>
      </trkpt>
      <trkpt lat="49.87017" lon="3.32936">
        <ele>102.66</ele>
        <time>2021-04-09T11:49:17Z</time>
      </trkpt>
      <trkpt lat="49.87034" lon="3.32938">
        <ele>101.5</ele>
        <time>2021-04-09T11:49:22Z</time>
      </trkpt>
      <trkpt lat="49.87039" lon="3.32943">
        <ele>101.14</ele>
        <time>2021-04-09T11:49:25Z</time>
      </trkpt>
      <trkpt lat="49.87043" lon="3.32943">
        <ele>100.91</ele>
        <time>2021-04-09T11:49:28Z</time>
      </trkpt>
      <trkpt lat="49.87048" lon="3.3294">
        <ele>100.39</ele>
        <time>2021-04-09T11:49:31Z</time>
      </trkpt>
      <trkpt lat="49.8705" lon="3.32936">
        <ele>100.13</ele>
        <time>2021-04-09T11:49:35Z</time>
      </trkpt>
      <trkpt lat="49.87061" lon="3.32951">
        <ele>100.42</ele>
        <time>2021-04-09T11:49:38Z</time>
      </trkpt>
      <trkpt lat="49.87134" lon="3.33103">
        <ele>102.63</ele>
        <time>2021-04-09T11:49:41Z</time>
      </trkpt>
      <trkpt lat="49.8715" lon="3.3313">
        <ele>103.55</ele>
        <time>2021-04-09T11:49:44Z</time>
      </trkpt>
      <trkpt lat="49.87161" lon="3.33136">
        <ele>103.82</ele>
        <time>2021-04-09T11:49:48Z</time>
      </trkpt>
      <trkpt lat="49.87173" lon="3.33138">
        <ele>103.72</ele>
        <time>2021-04-09T11:49:51Z</time>
      </trkpt>
      <trkpt lat="49.8723" lon="3.33121">
        <ele>98.46</ele>
        <time>2021-04-09T11:49:54Z</time>
      </trkpt>
      <trkpt lat="49.8728" lon="3.33093">
        <ele>96.65</ele>
        <time>2021-04-09T11:49:57Z</time>
      </trkpt>
      <trkpt lat="49.87324" lon="3.33058">
        <ele>93.37</ele>
        <time>2021-04-09T11:50:01Z</time>
      </trkpt>
      <trkpt lat="49.87375" lon="3.33004">
        <ele>90.56</ele>
        <time>2021-04-09T11:50:04Z</time>
      </trkpt>
      <trkpt lat="49.87415" lon="3.32946">
        <ele>90.05</ele>
        <time>2021-04-09T11:50:07Z</time>
      </trkpt>
      <trkpt lat="49.87441" lon="3.32901">
        <ele>87.37</ele>
        <time>2021-04-09T11:50:11Z</time>
      </trkpt>
      <trkpt lat="49.87466" lon="3.32848">
        <ele>85.79</ele>
        <time>2021-04-09T11:50:14Z</time>
      </trkpt>
      <trkpt lat="49.87491" lon="3.32772">
        <ele>84.81</ele>
        <time>2021-04-09T11:50:17Z</time>
      </trkpt>
      <trkpt lat="49.8751" lon="3.32685">
        <ele>84.79</ele>
        <time>2021-04-09T11:50:20Z</time>
      </trkpt>
      <trkpt lat="49.87517" lon="3.32649">
        <ele>83.99</ele>
        <time>2021-04-09T11:50:24Z</time>
      </trkpt>
      <trkpt lat="49.87517" lon="3.32636">
        <ele>83.43</ele>
        <time>2021-04-09T11:50:27Z</time>
      </trkpt>
      <trkpt lat="49.87482" lon="3.32492">
        <ele>82.35</ele>
        <time>2021-04-09T11:50:30Z</time>
      </trkpt>
      <trkpt lat="49.87485" lon="3.32467">
        <ele>82.47</ele>
        <time>2021-04-09T11:50:33Z</time>
      </trkpt>
      <trkpt lat="49.87499" lon="3.32439">
        <ele>83.14</ele>
        <time>2021-04-09T11:50:37Z</time>
      </trkpt>
      <trkpt lat="49.87521" lon="3.3241">
        <ele>83.94</ele>
        <time>2021-04-09T11:50:40Z</time>
      </trkpt>
      <trkpt lat="49.87563" lon="3.32378">
        <ele>83.62</ele>
        <time>2021-04-09T11:50:43Z</time>
      </trkpt>
      <trkpt lat="49.87572" lon="3.3239">
        <ele>84</ele>
        <time>2021-04-09T11:50:52Z</time>
      </trkpt>
      <trkpt lat="49.87582" lon="3.32409">
        <ele>84</ele>
        <time>2021-04-09T11:51:00Z</time>
      </trkpt>
      <trkpt lat="49.87805" lon="3.32737">
        <ele>92.98</ele>
        <time>2021-04-09T11:51:09Z</time>
      </trkpt>
      <trkpt lat="49.8803" lon="3.33081">
        <ele>104.88</ele>
        <time>2021-04-09T11:51:18Z</time>
      </trkpt>
      <trkpt lat="49.88227" lon="3.33393">
        <ele>98.51</ele>
        <time>2021-04-09T11:51:26Z</time>
      </trkpt>
      <trkpt lat="49.88303" lon="3.33479">
        <ele>96.31</ele>
        <time>2021-04-09T11:51:35Z</time>
      </trkpt>
      <trkpt lat="49.88387" lon="3.33568">
        <ele>97.12</ele>
        <time>2021-04-09T11:51:43Z</time>
      </trkpt>
      <trkpt lat="49.88466" lon="3.33647">
        <ele>98.07</ele>
        <time>2021-04-09T11:51:52Z</time>
      </trkpt>
      <trkpt lat="49.88635" lon="3.33769">
        <ele>98.69</ele>
        <time>2021-04-09T11:52:01Z</time>
      </trkpt>
      <trkpt lat="49.88678" lon="3.33809">
        <ele>99.48</ele>
        <time>2021-04-09T11:52:09Z</time>
      </trkpt>
      <trkpt lat="49.88708" lon="3.33841">
        <ele>99.65</ele>
        <time>2021-04-09T11:52:18Z</time>
      </trkpt>
      <trkpt lat="49.88964" lon="3.34136">
        <ele>96.46</ele>
        <time>2021-04-09T11:52:26Z</time>
      </trkpt>
      <trkpt lat="49.88983" lon="3.34162">
        <ele>95.55</ele>
        <time>2021-04-09T11:52:35Z</time>
      </trkpt>
      <trkpt lat="49.88992" lon="3.34178">
        <ele>95.42</ele>
        <time>2021-04-09T11:52:44Z</time>
      </trkpt>
      <trkpt lat="49.89071" lon="3.3434">
        <ele>95.05</ele>
        <time>2021-04-09T11:52:52Z</time>
      </trkpt>
      <trkpt lat="49.8909" lon="3.34362">
        <ele>94.61</ele>
        <time>2021-04-09T11:53:01Z</time>
      </trkpt>
      <trkpt lat="49.89112" lon="3.34376">
        <ele>93.52</ele>
        <time>2021-04-09T11:53:09Z</time>
      </trkpt>
      <trkpt lat="49.89168" lon="3.34399">
        <ele>94.26</ele>
        <time>2021-04-09T11:53:18Z</time>
      </trkpt>
      <trkpt lat="49.8922" lon="3.34418">
        <ele>88.19</ele>
        <time>2021-04-09T11:53:27Z</time>
      </trkpt>
      <trkpt lat="49.89296" lon="3.34369">
        <ele>85.06</ele>
        <time>2021-04-09T11:53:31Z</time>
      </trkpt>
      <trkpt lat="49.89403" lon="3.34289">
        <ele>85.18</ele>
        <time>2021-04-09T11:53:35Z</time>
      </trkpt>
      <trkpt lat="49.89426" lon="3.34268">
        <ele>85.68</ele>
        <time>2021-04-09T11:53:40Z</time>
      </trkpt>
      <trkpt lat="49.89462" lon="3.34227">
        <ele>87.62</ele>
        <time>2021-04-09T11:53:44Z</time>
      </trkpt>
      <trkpt lat="49.89483" lon="3.34199">
        <ele>88.06</ele>
        <time>2021-04-09T11:53:49Z</time>
      </trkpt>
      <trkpt lat="49.89569" lon="3.34127">
        <ele>83.98</ele>
        <time>2021-04-09T11:53:53Z</time>
      </trkpt>
      <trkpt lat="49.89572" lon="3.34114">
        <ele>84.13</ele>
        <time>2021-04-09T11:53:58Z</time>
      </trkpt>
      <trkpt lat="49.89573" lon="3.34102">
        <ele>84.48</ele>
        <time>2021-04-09T11:54:02Z</time>
      </trkpt>
      <trkpt lat="49.89571" lon="3.3409">
        <ele>85.06</ele>
        <time>2021-04-09T11:54:07Z</time>
      </trkpt>
      <trkpt lat="49.8955" lon="3.3398">
        <ele>88.19</ele>
        <time>2021-04-09T11:54:11Z</time>
      </trkpt>
      <trkpt lat="49.89546" lon="3.33937">
        <ele>87.42</ele>
        <time>2021-04-09T11:54:16Z</time>
      </trkpt>
      <trkpt lat="49.89546" lon="3.33912">
        <ele>86.5</ele>
        <time>2021-04-09T11:54:20Z</time>
      </trkpt>
      <trkpt lat="49.8955" lon="3.33897">
        <ele>85.68</ele>
        <time>2021-04-09T11:54:25Z</time>
      </trkpt>
      <trkpt lat="49.89558" lon="3.33882">
        <ele>85.42</ele>
        <time>2021-04-09T11:54:29Z</time>
      </trkpt>
      <trkpt lat="49.89568" lon="3.3387">
        <ele>86.57</ele>
        <time>2021-04-09T11:54:34Z</time>
      </trkpt>
      <trkpt lat="49.89603" lon="3.3385">
        <ele>88.72</ele>
        <time>2021-04-09T11:54:38Z</time>
      </trkpt>
      <trkpt lat="49.89649" lon="3.33844">
        <ele>90.35</ele>
        <time>2021-04-09T11:54:43Z</time>
      </trkpt>
      <trkpt lat="49.89701" lon="3.33847">
        <ele>93.45</ele>
        <time>2021-04-09T11:54:47Z</time>
      </trkpt>
      <trkpt lat="49.89708" lon="3.33843">
        <ele>93.99</ele>
        <time>2021-04-09T11:54:52Z</time>
      </trkpt>
      <trkpt lat="49.89719" lon="3.33881">
        <ele>94.78</ele>
        <time>2021-04-09T11:54:59Z</time>
      </trkpt>
      <trkpt lat="49.89721" lon="3.33893">
        <ele>94.77</ele>
        <time>2021-04-09T11:55:06Z</time>
      </trkpt>
      <trkpt lat="49.89728" lon="3.33893">
        <ele>94.87</ele>
        <time>2021-04-09T11:55:13Z</time>
      </trkpt>
      <trkpt lat="49.89739" lon="3.33899">
        <ele>94.85</ele>
        <time>2021-04-09T11:55:20Z</time>
      </trkpt>
      <trkpt lat="49.89753" lon="3.33899">
        <ele>95.03</ele>
        <time>2021-04-09T11:55:27Z</time>
      </trkpt>
      <trkpt lat="49.89766" lon="3.33894">
        <ele>95.11</ele>
        <time>2021-04-09T11:55:34Z</time>
      </trkpt>
      <trkpt lat="49.89869" lon="3.33843">
        <ele>97.01</ele>
        <time>2021-04-09T11:55:40Z</time>
      </trkpt>
      <trkpt lat="49.89996" lon="3.33815">
        <ele>96.2</ele>
        <time>2021-04-09T11:55:47Z</time>
      </trkpt>
      <trkpt lat="49.90056" lon="3.33823">
        <ele>96.2</ele>
        <time>2021-04-09T11:55:54Z</time>
      </trkpt>
      <trkpt lat="49.90133" lon="3.33853">
        <ele>95.86</ele>
        <time>2021-04-09T11:56:01Z</time>
      </trkpt>
      <trkpt lat="49.90355" lon="3.34019">
        <ele>101.67</ele>
        <time>2021-04-09T11:56:08Z</time>
      </trkpt>
      <trkpt lat="49.9078" lon="3.3432">
        <ele>123</ele>
        <time>2021-04-09T11:56:15Z</time>
      </trkpt>
      <trkpt lat="49.90847" lon="3.34362">
        <ele>124.04</ele>
        <time>2021-04-09T11:56:22Z</time>
      </trkpt>
      <trkpt lat="49.90968" lon="3.3439">
        <ele>120.32</ele>
        <time>2021-04-09T11:56:29Z</time>
      </trkpt>
      <trkpt lat="49.9101" lon="3.34369">
        <ele>117.63</ele>
        <time>2021-04-09T11:56:36Z</time>
      </trkpt>
      <trkpt lat="49.91037" lon="3.34341">
        <ele>116.23</ele>
        <time>2021-04-09T11:56:43Z</time>
      </trkpt>
      <trkpt lat="49.91226" lon="3.34559">
        <ele>116.14</ele>
        <time>2021-04-09T11:56:50Z</time>
      </trkpt>
      <trkpt lat="49.91281" lon="3.34627">
        <ele>119.19</ele>
        <time>2021-04-09T11:56:56Z</time>
      </trkpt>
      <trkpt lat="49.91617" lon="3.35085">
        <ele>134.65</ele>
        <time>2021-04-09T11:57:03Z</time>
      </trkpt>
      <trkpt lat="49.91738" lon="3.35277">
        <ele>135.71</ele>
        <time>2021-04-09T11:57:10Z</time>
      </trkpt>
      <trkpt lat="49.91776" lon="3.35385">
        <ele>134.77</ele>
        <time>2021-04-09T11:57:16Z</time>
      </trkpt>
      <trkpt lat="49.91941" lon="3.36001">
        <ele>129.68</ele>
        <time>2021-04-09T11:57:23Z</time>
      </trkpt>
      <trkpt lat="49.91963" lon="3.36063">
        <ele>133.44</ele>
        <time>2021-04-09T11:57:30Z</time>
      </trkpt>
      <trkpt lat="49.91997" lon="3.36122">
        <ele>133.54</ele>
        <time>2021-04-09T11:57:36Z</time>
      </trkpt>
      <trkpt lat="49.92024" lon="3.36163">
        <ele>133</ele>
        <time>2021-04-09T11:57:43Z</time>
      </trkpt>
      <trkpt lat="49.92133" lon="3.36308">
        <ele>121.91</ele>
        <time>2021-04-09T11:57:49Z</time>
      </trkpt>
      <trkpt lat="49.92232" lon="3.36432">
        <ele>116.52</ele>
        <time>2021-04-09T11:57:56Z</time>
      </trkpt>
      <trkpt lat="49.92323" lon="3.36488">
        <ele>116.66</ele>
        <time>2021-04-09T11:58:03Z</time>
      </trkpt>
      <trkpt lat="49.92338" lon="3.365">
        <ele>116.83</ele>
        <time>2021-04-09T11:58:09Z</time>
      </trkpt>
      <trkpt lat="49.92369" lon="3.36532">
        <ele>116.86</ele>
        <time>2021-04-09T11:58:16Z</time>
      </trkpt>
      <trkpt lat="49.92402" lon="3.36579">
        <ele>117.83</ele>
        <time>2021-04-09T11:58:22Z</time>
      </trkpt>
      <trkpt lat="49.92447" lon="3.36655">
        <ele>116.46</ele>
        <time>2021-04-09T11:58:29Z</time>
      </trkpt>
      <trkpt lat="49.92685" lon="3.37028">
        <ele>115</ele>
        <time>2021-04-09T11:58:36Z</time>
      </trkpt>
      <trkpt lat="49.92695" lon="3.36984">
        <ele>113.43</ele>
        <time>2021-04-09T11:58:38Z</time>
      </trkpt>
      <trkpt lat="49.92705" lon="3.36961">
        <ele>112.8</ele>
        <time>2021-04-09T11:58:39Z</time>
      </trkpt>
      <trkpt lat="49.92712" lon="3.36954">
        <ele>112.56</ele>
        <time>2021-04-09T11:58:41Z</time>
      </trkpt>
      <trkpt lat="49.92792" lon="3.36896">
        <ele>113</ele>
        <time>2021-04-09T11:58:43Z</time>
      </trkpt>
      <trkpt lat="49.92805" lon="3.36883">
        <ele>112.79</ele>
        <time>2021-04-09T11:58:45Z</time>
      </trkpt>
      <trkpt lat="49.92813" lon="3.36872">
        <ele>112.56</ele>
        <time>2021-04-09T11:58:47Z</time>
      </trkpt>
      <trkpt lat="49.92832" lon="3.3689">
        <ele>113</ele>
        <time>2021-04-09T11:58:55Z</time>
      </trkpt>
      <trkpt lat="49.92844" lon="3.36891">
        <ele>113.38</ele>
        <time>2021-04-09T11:59:03Z</time>
      </trkpt>
      <trkpt lat="49.92856" lon="3.36876">
        <ele>114.2</ele>
        <time>2021-04-09T11:59:11Z</time>
      </trkpt>
      <trkpt lat="49.9287" lon="3.36843">
        <ele>116.26</ele>
        <time>2021-04-09T11:59:19Z</time>
      </trkpt>
      <trkpt lat="49.92908" lon="3.36808">
        <ele>118.69</ele>
        <time>2021-04-09T11:59:26Z</time>
      </trkpt>
      <trkpt lat="49.93001" lon="3.36689">
        <ele>122.77</ele>
        <time>2021-04-09T11:59:34Z</time>
      </trkpt>
      <trkpt lat="49.93132" lon="3.36519">
        <ele>118.65</ele>
        <time>2021-04-09T11:59:42Z</time>
      </trkpt>
      <trkpt lat="49.93178" lon="3.36446">
        <ele>116.63</ele>
        <time>2021-04-09T11:59:50Z</time>
      </trkpt>
      <trkpt lat="49.93208" lon="3.36419">
        <ele>115.57</ele>
        <time>2021-04-09T11:59:58Z</time>
      </trkpt>
      <trkpt lat="49.93232" lon="3.36405">
        <ele>114.41</ele>
        <time>2021-04-09T12:00:06Z</time>
      </trkpt>
      <trkpt lat="49.93337" lon="3.36366">
        <ele>109.18</ele>
        <time>2021-04-09T12:00:14Z</time>
      </trkpt>
      <trkpt lat="49.9357" lon="3.36289">
        <ele>107.12</ele>
        <time>2021-04-09T12:00:22Z</time>
      </trkpt>
      <trkpt lat="49.93616" lon="3.36279">
        <ele>109.43</ele>
        <time>2021-04-09T12:00:30Z</time>
      </trkpt>
      <trkpt lat="49.93658" lon="3.3628">
        <ele>112.55</ele>
        <time>2021-04-09T12:00:38Z</time>
      </trkpt>
      <trkpt lat="49.93764" lon="3.36298">
        <ele>119.24</ele>
        <time>2021-04-09T12:00:46Z</time>
      </trkpt>
      <trkpt lat="49.93809" lon="3.36303">
        <ele>120.14</ele>
        <time>2021-04-09T12:00:54Z</time>
      </trkpt>
      <trkpt lat="49.93841" lon="3.36301">
        <ele>122.16</ele>
        <time>2021-04-09T12:01:02Z</time>
      </trkpt>
      <trkpt lat="49.93879" lon="3.36291">
        <ele>123.96</ele>
        <time>2021-04-09T12:01:09Z</time>
      </trkpt>
      <trkpt lat="49.94027" lon="3.36233">
        <ele>128.76</ele>
        <time>2021-04-09T12:01:17Z</time>
      </trkpt>
      <trkpt lat="49.94137" lon="3.36202">
        <ele>126.86</ele>
        <time>2021-04-09T12:01:25Z</time>
      </trkpt>
      <trkpt lat="49.94234" lon="3.36179">
        <ele>128.17</ele>
        <time>2021-04-09T12:01:33Z</time>
      </trkpt>
      <trkpt lat="49.94305" lon="3.36166">
        <ele>127.95</ele>
        <time>2021-04-09T12:01:41Z</time>
      </trkpt>
      <trkpt lat="49.94422" lon="3.36134">
        <ele>131.01</ele>
        <time>2021-04-09T12:01:49Z</time>
      </trkpt>
      <trkpt lat="49.94467" lon="3.36105">
        <ele>132.22</ele>
        <time>2021-04-09T12:01:57Z</time>
      </trkpt>
      <trkpt lat="49.9456" lon="3.36017">
        <ele>137.73</ele>
        <time>2021-04-09T12:02:05Z</time>
      </trkpt>
      <trkpt lat="49.94604" lon="3.3598">
        <ele>140.54</ele>
        <time>2021-04-09T12:02:13Z</time>
      </trkpt>
      <trkpt lat="49.94647" lon="3.35949">
        <ele>140.29</ele>
        <time>2021-04-09T12:02:21Z</time>
      </trkpt>
      <trkpt lat="49.94704" lon="3.35922">
        <ele>138.31</ele>
        <time>2021-04-09T12:02:29Z</time>
      </trkpt>
      <trkpt lat="49.94792" lon="3.35887">
        <ele>138.03</ele>
        <time>2021-04-09T12:02:37Z</time>
      </trkpt>
      <trkpt lat="49.94831" lon="3.35847">
        <ele>139.44</ele>
        <time>2021-04-09T12:02:45Z</time>
      </trkpt>
      <trkpt lat="49.94896" lon="3.35787">
        <ele>136.32</ele>
        <time>2021-04-09T12:02:53Z</time>
      </trkpt>
      <trkpt lat="49.94928" lon="3.35766">
        <ele>135.41</ele>
        <time>2021-04-09T12:03:00Z</time>
      </trkpt>
      <trkpt lat="49.94968" lon="3.35753">
        <ele>134.12</ele>
        <time>2021-04-09T12:03:08Z</time>
      </trkpt>
      <trkpt lat="49.95168" lon="3.3573">
        <ele>133.31</ele>
        <time>2021-04-09T12:03:16Z</time>
      </trkpt>
      <trkpt lat="49.95361" lon="3.35698">
        <ele>137.08</ele>
        <time>2021-04-09T12:03:24Z</time>
      </trkpt>
      <trkpt lat="49.9542" lon="3.35669">
        <ele>133.41</ele>
        <time>2021-04-09T12:03:32Z</time>
      </trkpt>
      <trkpt lat="49.95498" lon="3.35618">
        <ele>134.86</ele>
        <time>2021-04-09T12:03:40Z</time>
      </trkpt>
      <trkpt lat="49.95553" lon="3.3558">
        <ele>135.79</ele>
        <time>2021-04-09T12:03:48Z</time>
      </trkpt>
      <trkpt lat="49.95614" lon="3.35547">
        <ele>135.96</ele>
        <time>2021-04-09T12:03:56Z</time>
      </trkpt>
      <trkpt lat="49.95674" lon="3.35546">
        <ele>136</ele>
        <time>2021-04-09T12:04:04Z</time>
      </trkpt>
      <trkpt lat="49.95953" lon="3.3557">
        <ele>138.8</ele>
        <time>2021-04-09T12:04:12Z</time>
      </trkpt>
      <trkpt lat="49.96002" lon="3.35569">
        <ele>139.41</ele>
        <time>2021-04-09T12:04:20Z</time>
      </trkpt>
      <trkpt lat="49.96214" lon="3.35517">
        <ele>134.93</ele>
        <time>2021-04-09T12:04:28Z</time>
      </trkpt>
      <trkpt lat="49.96392" lon="3.35478">
        <ele>131.2</ele>
        <time>2021-04-09T12:04:36Z</time>
      </trkpt>
      <trkpt lat="49.96446" lon="3.35484">
        <ele>130.33</ele>
        <time>2021-04-09T12:04:43Z</time>
      </trkpt>
      <trkpt lat="49.96472" lon="3.35483">
        <ele>128.39</ele>
        <time>2021-04-09T12:04:51Z</time>
      </trkpt>
      <trkpt lat="49.96531" lon="3.35441">
        <ele>130</ele>
        <time>2021-04-09T12:04:59Z</time>
      </trkpt>
      <trkpt lat="49.96572" lon="3.35408">
        <ele>131.31</ele>
        <time>2021-04-09T12:05:07Z</time>
      </trkpt>
      <trkpt lat="49.96603" lon="3.35367">
        <ele>132.93</ele>
        <time>2021-04-09T12:05:15Z</time>
      </trkpt>
      <trkpt lat="49.96649" lon="3.35293">
        <ele>136.66</ele>
        <time>2021-04-09T12:05:23Z</time>
      </trkpt>
      <trkpt lat="49.96685" lon="3.35242">
        <ele>139.4</ele>
        <time>2021-04-09T12:05:31Z</time>
      </trkpt>
      <trkpt lat="49.96707" lon="3.3522">
        <ele>140.44</ele>
        <time>2021-04-09T12:05:39Z</time>
      </trkpt>
      <trkpt lat="49.96741" lon="3.35196">
        <ele>141</ele>
        <time>2021-04-09T12:05:47Z</time>
      </trkpt>
      <trkpt lat="49.96766" lon="3.35185">
        <ele>141.19</ele>
        <time>2021-04-09T12:05:55Z</time>
      </trkpt>
      <trkpt lat="49.96787" lon="3.35183">
        <ele>141.96</ele>
        <time>2021-04-09T12:06:03Z</time>
      </trkpt>
      <trkpt lat="49.9681" lon="3.35193">
        <ele>142.84</ele>
        <time>2021-04-09T12:06:11Z</time>
      </trkpt>
      <trkpt lat="49.96836" lon="3.35214">
        <ele>141.78</ele>
        <time>2021-04-09T12:06:19Z</time>
      </trkpt>
      <trkpt lat="49.9687" lon="3.35249">
        <ele>139.67</ele>
        <time>2021-04-09T12:06:26Z</time>
      </trkpt>
      <trkpt lat="49.96927" lon="3.3533">
        <ele>136.73</ele>
        <time>2021-04-09T12:06:34Z</time>
      </trkpt>
      <trkpt lat="49.96968" lon="3.35385">
        <ele>137.85</ele>
        <time>2021-04-09T12:06:42Z</time>
      </trkpt>
      <trkpt lat="49.97044" lon="3.35448">
        <ele>138.72</ele>
        <time>2021-04-09T12:06:50Z</time>
      </trkpt>
      <trkpt lat="49.9715" lon="3.35487">
        <ele>143.41</ele>
        <time>2021-04-09T12:06:58Z</time>
      </trkpt>
      <trkpt lat="49.97173" lon="3.35492">
        <ele>143.83</ele>
        <time>2021-04-09T12:07:06Z</time>
      </trkpt>
      <trkpt lat="49.97294" lon="3.35487">
        <ele>139.2</ele>
        <time>2021-04-09T12:07:14Z</time>
      </trkpt>
      <trkpt lat="49.97474" lon="3.35519">
        <ele>133.94</ele>
        <time>2021-04-09T12:07:22Z</time>
      </trkpt>
      <trkpt lat="49.97535" lon="3.3552">
        <ele>132.78</ele>
        <time>2021-04-09T12:07:30Z</time>
      </trkpt>
      <trkpt lat="49.9757" lon="3.35514">
        <ele>133.27</ele>
        <time>2021-04-09T12:07:38Z</time>
      </trkpt>
      <trkpt lat="49.97625" lon="3.35499">
        <ele>134.98</ele>
        <time>2021-04-09T12:07:46Z</time>
      </trkpt>
      <trkpt lat="49.97651" lon="3.35495">
        <ele>134.42</ele>
        <time>2021-04-09T12:07:54Z</time>
      </trkpt>
      <trkpt lat="49.97717" lon="3.35492">
        <ele>131.71</ele>
        <time>2021-04-09T12:08:02Z</time>
      </trkpt>
      <trkpt lat="49.97772" lon="3.35492">
        <ele>131.14</ele>
        <time>2021-04-09T12:08:09Z</time>
      </trkpt>
      <trkpt lat="49.97902" lon="3.35525">
        <ele>129</ele>
        <time>2021-04-09T12:08:17Z</time>
      </trkpt>
      <trkpt lat="49.97933" lon="3.35529">
        <ele>129.01</ele>
        <time>2021-04-09T12:08:25Z</time>
      </trkpt>
      <trkpt lat="49.98016" lon="3.35525">
        <ele>128.42</ele>
        <time>2021-04-09T12:08:33Z</time>
      </trkpt>
      <trkpt lat="49.98048" lon="3.35515">
        <ele>128.33</ele>
        <time>2021-04-09T12:08:41Z</time>
      </trkpt>
      <trkpt lat="49.98086" lon="3.35491">
        <ele>129.23</ele>
        <time>2021-04-09T12:08:49Z</time>
      </trkpt>
      <trkpt lat="49.98129" lon="3.35451">
        <ele>128.37</ele>
        <time>2021-04-09T12:08:57Z</time>
      </trkpt>
      <trkpt lat="49.98221" lon="3.35371">
        <ele>127.64</ele>
        <time>2021-04-09T12:09:05Z</time>
      </trkpt>
      <trkpt lat="49.98257" lon="3.35348">
        <ele>128.35</ele>
        <time>2021-04-09T12:09:13Z</time>
      </trkpt>
      <trkpt lat="49.9843" lon="3.35275">
        <ele>125.25</ele>
        <time>2021-04-09T12:09:21Z</time>
      </trkpt>
      <trkpt lat="49.9862" lon="3.35199">
        <ele>125.76</ele>
        <time>2021-04-09T12:09:29Z</time>
      </trkpt>
      <trkpt lat="49.98719" lon="3.35173">
        <ele>125.87</ele>
        <time>2021-04-09T12:09:37Z</time>
      </trkpt>
      <trkpt lat="49.98814" lon="3.35167">
        <ele>125.68</ele>
        <time>2021-04-09T12:09:45Z</time>
      </trkpt>
      <trkpt lat="49.99411" lon="3.35252">
        <ele>133.78</ele>
        <time>2021-04-09T12:09:52Z</time>
      </trkpt>
      <trkpt lat="50.00408" lon="3.35435">
        <ele>120.95</ele>
        <time>2021-04-09T12:10:00Z</time>
      </trkpt>
      <trkpt lat="50.00851" lon="3.36057">
        <ele>124.29</ele>
        <time>2021-04-09T12:10:16Z</time>
      </trkpt>
      <trkpt lat="50.01703" lon="3.37267">
        <ele>125.15</ele>
        <time>2021-04-09T12:10:32Z</time>
      </trkpt>
      <trkpt lat="50.0175" lon="3.37325">
        <ele>121</ele>
        <time>2021-04-09T12:10:48Z</time>
      </trkpt>
      <trkpt lat="50.01816" lon="3.37413">
        <ele>123.39</ele>
        <time>2021-04-09T12:11:03Z</time>
      </trkpt>
      <trkpt lat="50.01988" lon="3.37651">
        <ele>129.84</ele>
        <time>2021-04-09T12:11:19Z</time>
      </trkpt>
      <trkpt lat="50.02156" lon="3.3789">
        <ele>138.58</ele>
        <time>2021-04-09T12:11:35Z</time>
      </trkpt>
      <trkpt lat="50.02177" lon="3.37932">
        <ele>137.26</ele>
        <time>2021-04-09T12:11:50Z</time>
      </trkpt>
      <trkpt lat="50.02175" lon="3.37946">
        <ele>136.6</ele>
        <time>2021-04-09T12:12:01Z</time>
      </trkpt>
      <trkpt lat="50.02178" lon="3.3796">
        <ele>135.73</ele>
        <time>2021-04-09T12:12:12Z</time>
      </trkpt>
      <trkpt lat="50.02181" lon="3.37967">
        <ele>135.26</ele>
        <time>2021-04-09T12:12:23Z</time>
      </trkpt>
      <trkpt lat="50.02188" lon="3.37973">
        <ele>134.93</ele>
        <time>2021-04-09T12:12:34Z</time>
      </trkpt>
      <trkpt lat="50.02199" lon="3.37974">
        <ele>135.39</ele>
        <time>2021-04-09T12:12:45Z</time>
      </trkpt>
      <trkpt lat="50.02203" lon="3.37972">
        <ele>135.88</ele>
        <time>2021-04-09T12:12:55Z</time>
      </trkpt>
      <trkpt lat="50.02231" lon="3.37998">
        <ele>138.4</ele>
        <time>2021-04-09T12:13:06Z</time>
      </trkpt>
      <trkpt lat="50.02562" lon="3.38459">
        <ele>136.21</ele>
        <time>2021-04-09T12:13:17Z</time>
      </trkpt>
      <trkpt lat="50.02908" lon="3.38935">
        <ele>129.24</ele>
        <time>2021-04-09T12:13:28Z</time>
      </trkpt>
      <trkpt lat="50.02937" lon="3.38978">
        <ele>129.68</ele>
        <time>2021-04-09T12:13:39Z</time>
      </trkpt>
      <trkpt lat="50.03108" lon="3.39264">
        <ele>135.22</ele>
        <time>2021-04-09T12:13:50Z</time>
      </trkpt>
      <trkpt lat="50.03419" lon="3.39794">
        <ele>144.09</ele>
        <time>2021-04-09T12:14:00Z</time>
      </trkpt>
      <trkpt lat="50.03498" lon="3.39933">
        <ele>141.8</ele>
        <time>2021-04-09T12:14:11Z</time>
      </trkpt>
      <trkpt lat="50.03727" lon="3.4031">
        <ele>134.3</ele>
        <time>2021-04-09T12:14:22Z</time>
      </trkpt>
      <trkpt lat="50.03949" lon="3.40687">
        <ele>133.17</ele>
        <time>2021-04-09T12:14:33Z</time>
      </trkpt>
      <trkpt lat="50.0412" lon="3.40979">
        <ele>137.17</ele>
        <time>2021-04-09T12:14:44Z</time>
      </trkpt>
      <trkpt lat="50.04372" lon="3.41419">
        <ele>127.45</ele>
        <time>2021-04-09T12:14:55Z</time>
      </trkpt>
      <trkpt lat="50.0438" lon="3.41437">
        <ele>127.91</ele>
        <time>2021-04-09T12:15:05Z</time>
      </trkpt>
      <trkpt lat="50.04586" lon="3.41796">
        <ele>141.18</ele>
        <time>2021-04-09T12:15:16Z</time>
      </trkpt>
      <trkpt lat="50.05114" lon="3.42697">
        <ele>147.07</ele>
        <time>2021-04-09T12:15:27Z</time>
      </trkpt>
      <trkpt lat="50.05168" lon="3.42784">
        <ele>144</ele>
        <time>2021-04-09T12:15:38Z</time>
      </trkpt>
      <trkpt lat="50.05572" lon="3.43475">
        <ele>145.48</ele>
        <time>2021-04-09T12:15:49Z</time>
      </trkpt>
      <trkpt lat="50.05897" lon="3.44026">
        <ele>141</ele>
        <time>2021-04-09T12:16:00Z</time>
      </trkpt>
      <trkpt lat="50.06067" lon="3.44309">
        <ele>138.57</ele>
        <time>2021-04-09T12:16:10Z</time>
      </trkpt>
      <trkpt lat="50.06083" lon="3.44341">
        <ele>140.73</ele>
        <time>2021-04-09T12:16:21Z</time>
      </trkpt>
      <trkpt lat="50.06081" lon="3.44357">
        <ele>140.07</ele>
        <time>2021-04-09T12:16:32Z</time>
      </trkpt>
      <trkpt lat="50.06083" lon="3.44365">
        <ele>139.85</ele>
        <time>2021-04-09T12:16:42Z</time>
      </trkpt>
      <trkpt lat="50.06086" lon="3.44371">
        <ele>140.03</ele>
        <time>2021-04-09T12:16:53Z</time>
      </trkpt>
      <trkpt lat="50.06091" lon="3.44376">
        <ele>140.51</ele>
        <time>2021-04-09T12:17:03Z</time>
      </trkpt>
      <trkpt lat="50.06096" lon="3.44377">
        <ele>141.19</ele>
        <time>2021-04-09T12:17:14Z</time>
      </trkpt>
      <trkpt lat="50.06101" lon="3.44376">
        <ele>141.98</ele>
        <time>2021-04-09T12:17:24Z</time>
      </trkpt>
      <trkpt lat="50.06117" lon="3.44402">
        <ele>143.55</ele>
        <time>2021-04-09T12:17:35Z</time>
      </trkpt>
      <trkpt lat="50.06399" lon="3.44885">
        <ele>150.83</ele>
        <time>2021-04-09T12:17:45Z</time>
      </trkpt>
      <trkpt lat="50.06883" lon="3.4569">
        <ele>141</ele>
        <time>2021-04-09T12:17:56Z</time>
      </trkpt>
      <trkpt lat="50.07241" lon="3.46296">
        <ele>133.32</ele>
        <time>2021-04-09T12:18:06Z</time>
      </trkpt>
      <trkpt lat="50.07256" lon="3.46316">
        <ele>132.28</ele>
        <time>2021-04-09T12:18:17Z</time>
      </trkpt>
      <trkpt lat="50.07344" lon="3.46377">
        <ele>128.26</ele>
        <time>2021-04-09T12:18:27Z</time>
      </trkpt>
      <trkpt lat="50.07364" lon="3.46398">
        <ele>127.11</ele>
        <time>2021-04-09T12:18:38Z</time>
      </trkpt>
      <trkpt lat="50.07381" lon="3.46422">
        <ele>127.7</ele>
        <time>2021-04-09T12:18:48Z</time>
      </trkpt>
      <trkpt lat="50.07415" lon="3.46492">
        <ele>128.71</ele>
        <time>2021-04-09T12:18:59Z</time>
      </trkpt>
      <trkpt lat="50.07495" lon="3.46673">
        <ele>129.83</ele>
        <time>2021-04-09T12:19:09Z</time>
      </trkpt>
      <trkpt lat="50.07543" lon="3.46761">
        <ele>130.36</ele>
        <time>2021-04-09T12:19:20Z</time>
      </trkpt>
      <trkpt lat="50.07604" lon="3.46905">
        <ele>130.74</ele>
        <time>2021-04-09T12:19:31Z</time>
      </trkpt>
      <trkpt lat="50.07629" lon="3.46955">
        <ele>130.41</ele>
        <time>2021-04-09T12:19:41Z</time>
      </trkpt>
      <trkpt lat="50.07899" lon="3.47407">
        <ele>127.08</ele>
        <time>2021-04-09T12:19:52Z</time>
      </trkpt>
      <trkpt lat="50.08233" lon="3.47974">
        <ele>135</ele>
        <time>2021-04-09T12:20:02Z</time>
      </trkpt>
      <trkpt lat="50.08294" lon="3.48062">
        <ele>136</ele>
        <time>2021-04-09T12:20:13Z</time>
      </trkpt>
      <trkpt lat="50.08518" lon="3.4845">
        <ele>144</ele>
        <time>2021-04-09T12:20:23Z</time>
      </trkpt>
      <trkpt lat="50.08736" lon="3.48803">
        <ele>135.48</ele>
        <time>2021-04-09T12:20:34Z</time>
      </trkpt>
      <trkpt lat="50.08976" lon="3.49212">
        <ele>140.42</ele>
        <time>2021-04-09T12:20:44Z</time>
      </trkpt>
      <trkpt lat="50.09135" lon="3.49473">
        <ele>138.86</ele>
        <time>2021-04-09T12:20:55Z</time>
      </trkpt>
      <trkpt lat="50.0952" lon="3.5013">
        <ele>135.76</ele>
        <time>2021-04-09T12:21:05Z</time>
      </trkpt>
      <trkpt lat="50.09718" lon="3.50458">
        <ele>136.72</ele>
        <time>2021-04-09T12:21:16Z</time>
      </trkpt>
      <trkpt lat="50.10344" lon="3.51521">
        <ele>128.39</ele>
        <time>2021-04-09T12:21:26Z</time>
      </trkpt>
      <trkpt lat="50.10616" lon="3.5197">
        <ele>129.83</ele>
        <time>2021-04-09T12:21:37Z</time>
      </trkpt>
      <trkpt lat="50.10764" lon="3.52224">
        <ele>121.51</ele>
        <time>2021-04-09T12:21:47Z</time>
      </trkpt>
      <trkpt lat="50.10767" lon="3.52236">
        <ele>121.61</ele>
        <time>2021-04-09T12:21:58Z</time>
      </trkpt>
      <trkpt lat="50.10779" lon="3.52271">
        <ele>122.04</ele>
        <time>2021-04-09T12:22:08Z</time>
      </trkpt>
      <trkpt lat="50.10778" lon="3.52282">
        <ele>122</ele>
        <time>2021-04-09T12:22:12Z</time>
      </trkpt>
      <trkpt lat="50.10779" lon="3.52292">
        <ele>122.04</ele>
        <time>2021-04-09T12:22:15Z</time>
      </trkpt>
      <trkpt lat="50.10782" lon="3.52301">
        <ele>122.14</ele>
        <time>2021-04-09T12:22:18Z</time>
      </trkpt>
      <trkpt lat="50.10787" lon="3.52309">
        <ele>122.31</ele>
        <time>2021-04-09T12:22:22Z</time>
      </trkpt>
      <trkpt lat="50.10793" lon="3.52313">
        <ele>122.56</ele>
        <time>2021-04-09T12:22:25Z</time>
      </trkpt>
      <trkpt lat="50.10804" lon="3.52313">
        <ele>122.93</ele>
        <time>2021-04-09T12:22:29Z</time>
      </trkpt>
      <trkpt lat="50.10814" lon="3.52322">
        <ele>122.6</ele>
        <time>2021-04-09T12:22:32Z</time>
      </trkpt>
      <trkpt lat="50.10838" lon="3.52362">
        <ele>122.74</ele>
        <time>2021-04-09T12:22:35Z</time>
      </trkpt>
      <trkpt lat="50.1096" lon="3.52545">
        <ele>125.07</ele>
        <time>2021-04-09T12:22:39Z</time>
      </trkpt>
      <trkpt lat="50.1103" lon="3.52661">
        <ele>130.55</ele>
        <time>2021-04-09T12:22:42Z</time>
      </trkpt>
      <trkpt lat="50.11118" lon="3.52821">
        <ele>131.14</ele>
        <time>2021-04-09T12:22:45Z</time>
      </trkpt>
      <trkpt lat="50.11362" lon="3.53227">
        <ele>123</ele>
        <time>2021-04-09T12:22:49Z</time>
      </trkpt>
      <trkpt lat="50.11432" lon="3.53354">
        <ele>118.86</ele>
        <time>2021-04-09T12:22:52Z</time>
      </trkpt>
      <trkpt lat="50.11442" lon="3.53373">
        <ele>118.2</ele>
        <time>2021-04-09T12:22:56Z</time>
      </trkpt>
      <trkpt lat="50.11448" lon="3.53393">
        <ele>117.86</ele>
        <time>2021-04-09T12:22:59Z</time>
      </trkpt>
      <trkpt lat="50.11447" lon="3.53409">
        <ele>118.53</ele>
        <time>2021-04-09T12:23:08Z</time>
      </trkpt>
      <trkpt lat="50.11453" lon="3.53424">
        <ele>118.72</ele>
        <time>2021-04-09T12:23:18Z</time>
      </trkpt>
      <trkpt lat="50.1146" lon="3.53429">
        <ele>118.54</ele>
        <time>2021-04-09T12:23:27Z</time>
      </trkpt>
      <trkpt lat="50.11468" lon="3.53427">
        <ele>118.02</ele>
        <time>2021-04-09T12:23:36Z</time>
      </trkpt>
      <trkpt lat="50.11474" lon="3.53429">
        <ele>117.72</ele>
        <time>2021-04-09T12:23:45Z</time>
      </trkpt>
      <trkpt lat="50.11484" lon="3.53437">
        <ele>117.57</ele>
        <time>2021-04-09T12:23:55Z</time>
      </trkpt>
      <trkpt lat="50.115" lon="3.53453">
        <ele>117.32</ele>
        <time>2021-04-09T12:24:04Z</time>
      </trkpt>
      <trkpt lat="50.11566" lon="3.53542">
        <ele>114.25</ele>
        <time>2021-04-09T12:24:13Z</time>
      </trkpt>
      <trkpt lat="50.11597" lon="3.53592">
        <ele>112.88</ele>
        <time>2021-04-09T12:24:22Z</time>
      </trkpt>
      <trkpt lat="50.11632" lon="3.53668">
        <ele>108.47</ele>
        <time>2021-04-09T12:24:32Z</time>
      </trkpt>
      <trkpt lat="50.11656" lon="3.53723">
        <ele>107.98</ele>
        <time>2021-04-09T12:24:41Z</time>
      </trkpt>
      <trkpt lat="50.11683" lon="3.53764">
        <ele>104.27</ele>
        <time>2021-04-09T12:24:50Z</time>
      </trkpt>
      <trkpt lat="50.11766" lon="3.53867">
        <ele>95.61</ele>
        <time>2021-04-09T12:25:00Z</time>
      </trkpt>
      <trkpt lat="50.11876" lon="3.53991">
        <ele>86.81</ele>
        <time>2021-04-09T12:25:09Z</time>
      </trkpt>
      <trkpt lat="50.11908" lon="3.5404">
        <ele>85.75</ele>
        <time>2021-04-09T12:25:18Z</time>
      </trkpt>
      <trkpt lat="50.11972" lon="3.5416">
        <ele>83.01</ele>
        <time>2021-04-09T12:25:27Z</time>
      </trkpt>
      <trkpt lat="50.11986" lon="3.54184">
        <ele>83</ele>
        <time>2021-04-09T12:25:37Z</time>
      </trkpt>
      <trkpt lat="50.11998" lon="3.54198">
        <ele>83.12</ele>
        <time>2021-04-09T12:25:46Z</time>
      </trkpt>
      <trkpt lat="50.12018" lon="3.54215">
        <ele>83.91</ele>
        <time>2021-04-09T12:25:55Z</time>
      </trkpt>
      <trkpt lat="50.12061" lon="3.54236">
        <ele>84.28</ele>
        <time>2021-04-09T12:26:04Z</time>
      </trkpt>
      <trkpt lat="50.12085" lon="3.54237">
        <ele>85.65</ele>
        <time>2021-04-09T12:26:14Z</time>
      </trkpt>
      <trkpt lat="50.12092" lon="3.54241">
        <ele>86.32</ele>
        <time>2021-04-09T12:26:23Z</time>
      </trkpt>
      <trkpt lat="50.12104" lon="3.54253">
        <ele>87.61</ele>
        <time>2021-04-09T12:26:32Z</time>
      </trkpt>
      <trkpt lat="50.12148" lon="3.54367">
        <ele>96.96</ele>
        <time>2021-04-09T12:26:42Z</time>
      </trkpt>
      <trkpt lat="50.12164" lon="3.54399">
        <ele>99.25</ele>
        <time>2021-04-09T12:26:51Z</time>
      </trkpt>
      <trkpt lat="50.123" lon="3.54609">
        <ele>112.62</ele>
        <time>2021-04-09T12:27:00Z</time>
      </trkpt>
      <trkpt lat="50.13447" lon="3.56236">
        <ele>139.39</ele>
        <time>2021-04-09T12:27:09Z</time>
      </trkpt>
      <trkpt lat="50.1346" lon="3.5626">
        <ele>139.8</ele>
        <time>2021-04-09T12:27:19Z</time>
      </trkpt>
      <trkpt lat="50.13475" lon="3.56281">
        <ele>140.12</ele>
        <time>2021-04-09T12:27:28Z</time>
      </trkpt>
      <trkpt lat="50.13486" lon="3.56291">
        <ele>140.47</ele>
        <time>2021-04-09T12:27:37Z</time>
      </trkpt>
      <trkpt lat="50.13653" lon="3.56525">
        <ele>139.51</ele>
        <time>2021-04-09T12:27:46Z</time>
      </trkpt>
      <trkpt lat="50.13828" lon="3.56777">
        <ele>135.82</ele>
        <time>2021-04-09T12:27:56Z</time>
      </trkpt>
      <trkpt lat="50.13941" lon="3.56935">
        <ele>139.23</ele>
        <time>2021-04-09T12:28:05Z</time>
      </trkpt>
      <trkpt lat="50.14076" lon="3.57131">
        <ele>144</ele>
        <time>2021-04-09T12:28:14Z</time>
      </trkpt>
      <trkpt lat="50.14271" lon="3.57405">
        <ele>140.75</ele>
        <time>2021-04-09T12:28:24Z</time>
      </trkpt>
      <trkpt lat="50.14327" lon="3.57482">
        <ele>140.58</ele>
        <time>2021-04-09T12:28:33Z</time>
      </trkpt>
      <trkpt lat="50.14595" lon="3.57863">
        <ele>136.19</ele>
        <time>2021-04-09T12:28:42Z</time>
      </trkpt>
      <trkpt lat="50.14667" lon="3.57953">
        <ele>135</ele>
        <time>2021-04-09T12:28:51Z</time>
      </trkpt>
      <trkpt lat="50.14997" lon="3.58409">
        <ele>142.12</ele>
        <time>2021-04-09T12:29:01Z</time>
      </trkpt>
      <trkpt lat="50.15103" lon="3.58566">
        <ele>142.28</ele>
        <time>2021-04-09T12:29:10Z</time>
      </trkpt>
      <trkpt lat="50.15218" lon="3.58729">
        <ele>139</ele>
        <time>2021-04-09T12:29:19Z</time>
      </trkpt>
      <trkpt lat="50.15344" lon="3.58901">
        <ele>139</ele>
        <time>2021-04-09T12:29:28Z</time>
      </trkpt>
      <trkpt lat="50.1542" lon="3.59013">
        <ele>139.87</ele>
        <time>2021-04-09T12:29:38Z</time>
      </trkpt>
      <trkpt lat="50.15473" lon="3.59076">
        <ele>138.99</ele>
        <time>2021-04-09T12:29:47Z</time>
      </trkpt>
      <trkpt lat="50.15521" lon="3.59141">
        <ele>135.16</ele>
        <time>2021-04-09T12:29:56Z</time>
      </trkpt>
      <trkpt lat="50.15893" lon="3.59648">
        <ele>140.19</ele>
        <time>2021-04-09T12:30:06Z</time>
      </trkpt>
      <trkpt lat="50.16052" lon="3.59861">
        <ele>136.14</ele>
        <time>2021-04-09T12:30:15Z</time>
      </trkpt>
      <trkpt lat="50.16119" lon="3.59947">
        <ele>132.73</ele>
        <time>2021-04-09T12:30:24Z</time>
      </trkpt>
      <trkpt lat="50.16862" lon="3.61">
        <ele>140.03</ele>
        <time>2021-04-09T12:30:33Z</time>
      </trkpt>
      <trkpt lat="50.17274" lon="3.61569">
        <ele>144.07</ele>
        <time>2021-04-09T12:30:43Z</time>
      </trkpt>
      <trkpt lat="50.17803" lon="3.62318">
        <ele>134.57</ele>
        <time>2021-04-09T12:30:52Z</time>
      </trkpt>
      <trkpt lat="50.18282" lon="3.62991">
        <ele>145.66</ele>
        <time>2021-04-09T12:31:01Z</time>
      </trkpt>
      <trkpt lat="50.1846" lon="3.63248">
        <ele>144.55</ele>
        <time>2021-04-09T12:31:10Z</time>
      </trkpt>
      <trkpt lat="50.18749" lon="3.63648">
        <ele>140.36</ele>
        <time>2021-04-09T12:31:20Z</time>
      </trkpt>
      <trkpt lat="50.1889" lon="3.63851">
        <ele>138.29</ele>
        <time>2021-04-09T12:31:29Z</time>
      </trkpt>
      <trkpt lat="50.18894" lon="3.63863">
        <ele>137.73</ele>
        <time>2021-04-09T12:31:38Z</time>
      </trkpt>
      <trkpt lat="50.18895" lon="3.63873">
        <ele>137.36</ele>
        <time>2021-04-09T12:31:48Z</time>
      </trkpt>
      <trkpt lat="50.18892" lon="3.63886">
        <ele>136.99</ele>
        <time>2021-04-09T12:32:03Z</time>
      </trkpt>
      <trkpt lat="50.18895" lon="3.63895">
        <ele>136.79</ele>
        <time>2021-04-09T12:32:19Z</time>
      </trkpt>
      <trkpt lat="50.18899" lon="3.63899">
        <ele>136.65</ele>
        <time>2021-04-09T12:32:35Z</time>
      </trkpt>
      <trkpt lat="50.18903" lon="3.63901">
        <ele>136.49</ele>
        <time>2021-04-09T12:32:51Z</time>
      </trkpt>
      <trkpt lat="50.18909" lon="3.63899">
        <ele>136.29</ele>
        <time>2021-04-09T12:33:06Z</time>
      </trkpt>
      <trkpt lat="50.18911" lon="3.63895">
        <ele>136.19</ele>
        <time>2021-04-09T12:33:22Z</time>
      </trkpt>
      <trkpt lat="50.1892" lon="3.63896">
        <ele>135.88</ele>
        <time>2021-04-09T12:33:38Z</time>
      </trkpt>
      <trkpt lat="50.18953" lon="3.63887">
        <ele>134.75</ele>
        <time>2021-04-09T12:33:54Z</time>
      </trkpt>
      <trkpt lat="50.22689" lon="3.64278">
        <ele>130</ele>
        <time>2021-04-09T12:34:09Z</time>
      </trkpt>
      <trkpt lat="50.22945" lon="3.64307">
        <ele>134.07</ele>
        <time>2021-04-09T12:34:25Z</time>
      </trkpt>
      <trkpt lat="50.23162" lon="3.64328">
        <ele>134.16</ele>
        <time>2021-04-09T12:34:41Z</time>
      </trkpt>
      <trkpt lat="50.23189" lon="3.64335">
        <ele>133.26</ele>
        <time>2021-04-09T12:34:57Z</time>
      </trkpt>
      <trkpt lat="50.23216" lon="3.64336">
        <ele>133.02</ele>
        <time>2021-04-09T12:35:13Z</time>
      </trkpt>
      <trkpt lat="50.2324" lon="3.64331">
        <ele>132.29</ele>
        <time>2021-04-09T12:35:28Z</time>
      </trkpt>
      <trkpt lat="50.23277" lon="3.64317">
        <ele>131.39</ele>
        <time>2021-04-09T12:35:44Z</time>
      </trkpt>
      <trkpt lat="50.23304" lon="3.64309">
        <ele>130.18</ele>
        <time>2021-04-09T12:36:00Z</time>
      </trkpt>
      <trkpt lat="50.2331" lon="3.64314">
        <ele>130.29</ele>
        <time>2021-04-09T12:36:02Z</time>
      </trkpt>
      <trkpt lat="50.23322" lon="3.64315">
        <ele>130.35</ele>
        <time>2021-04-09T12:36:03Z</time>
      </trkpt>
      <trkpt lat="50.23329" lon="3.64312">
        <ele>130.25</ele>
        <time>2021-04-09T12:36:05Z</time>
      </trkpt>
      <trkpt lat="50.23337" lon="3.64303">
        <ele>130</ele>
        <time>2021-04-09T12:36:07Z</time>
      </trkpt>
      <trkpt lat="50.23342" lon="3.64293">
        <ele>130</ele>
        <time>2021-04-09T12:36:08Z</time>
      </trkpt>
      <trkpt lat="50.23344" lon="3.64266">
        <ele>129.57</ele>
        <time>2021-04-09T12:36:10Z</time>
      </trkpt>
      <trkpt lat="50.23348" lon="3.64248">
        <ele>129</ele>
        <time>2021-04-09T12:36:12Z</time>
      </trkpt>
      <trkpt lat="50.23372" lon="3.64199">
        <ele>128.17</ele>
        <time>2021-04-09T12:36:13Z</time>
      </trkpt>
      <trkpt lat="50.23405" lon="3.64112">
        <ele>127.01</ele>
        <time>2021-04-09T12:36:15Z</time>
      </trkpt>
      <trkpt lat="50.23419" lon="3.64065">
        <ele>125.32</ele>
        <time>2021-04-09T12:36:17Z</time>
      </trkpt>
      <trkpt lat="50.23431" lon="3.64013">
        <ele>125</ele>
        <time>2021-04-09T12:36:18Z</time>
      </trkpt>
      <trkpt lat="50.2346" lon="3.63853">
        <ele>124.56</ele>
        <time>2021-04-09T12:36:20Z</time>
      </trkpt>
      <trkpt lat="50.23474" lon="3.63799">
        <ele>124</ele>
        <time>2021-04-09T12:36:22Z</time>
      </trkpt>
      <trkpt lat="50.23488" lon="3.63751">
        <ele>123.05</ele>
        <time>2021-04-09T12:36:23Z</time>
      </trkpt>
      <trkpt lat="50.23513" lon="3.63686">
        <ele>122.53</ele>
        <time>2021-04-09T12:36:25Z</time>
      </trkpt>
      <trkpt lat="50.23598" lon="3.6351">
        <ele>121.52</ele>
        <time>2021-04-09T12:36:27Z</time>
      </trkpt>
      <trkpt lat="50.2362" lon="3.63471">
        <ele>121.68</ele>
        <time>2021-04-09T12:36:28Z</time>
      </trkpt>
      <trkpt lat="50.23633" lon="3.63454">
        <ele>121.23</ele>
        <time>2021-04-09T12:36:30Z</time>
      </trkpt>
      <trkpt lat="50.23653" lon="3.63433">
        <ele>121.3</ele>
        <time>2021-04-09T12:36:32Z</time>
      </trkpt>
      <trkpt lat="50.2367" lon="3.63426">
        <ele>121.56</ele>
        <time>2021-04-09T12:36:34Z</time>
      </trkpt>
      <trkpt lat="50.2368" lon="3.63426">
        <ele>122.12</ele>
        <time>2021-04-09T12:36:35Z</time>
      </trkpt>
      <trkpt lat="50.2369" lon="3.63429">
        <ele>122.73</ele>
        <time>2021-04-09T12:36:37Z</time>
      </trkpt>
      <trkpt lat="50.237" lon="3.63439">
        <ele>123</ele>
        <time>2021-04-09T12:36:39Z</time>
      </trkpt>
      <trkpt lat="50.23711" lon="3.63443">
        <ele>123</ele>
        <time>2021-04-09T12:36:41Z</time>
      </trkpt>
      <trkpt lat="50.23723" lon="3.63438">
        <ele>122.99</ele>
        <time>2021-04-09T12:36:43Z</time>
      </trkpt>
      <trkpt lat="50.23733" lon="3.63429">
        <ele>122.83</ele>
        <time>2021-04-09T12:36:45Z</time>
      </trkpt>
      <trkpt lat="50.23739" lon="3.63412">
        <ele>123</ele>
        <time>2021-04-09T12:36:47Z</time>
      </trkpt>
      <trkpt lat="50.23742" lon="3.63395">
        <ele>123</ele>
        <time>2021-04-09T12:36:49Z</time>
      </trkpt>
      <trkpt lat="50.23745" lon="3.63385">
        <ele>122.85</ele>
        <time>2021-04-09T12:36:51Z</time>
      </trkpt>
      <trkpt lat="50.2375" lon="3.63377">
        <ele>122.58</ele>
        <time>2021-04-09T12:36:53Z</time>
      </trkpt>
      <trkpt lat="50.23773" lon="3.63357">
        <ele>121.97</ele>
        <time>2021-04-09T12:36:54Z</time>
      </trkpt>
      <trkpt lat="50.2385" lon="3.63307">
        <ele>123.05</ele>
        <time>2021-04-09T12:36:56Z</time>
      </trkpt>
      <trkpt lat="50.23878" lon="3.63285">
        <ele>122.87</ele>
        <time>2021-04-09T12:36:58Z</time>
      </trkpt>
      <trkpt lat="50.23941" lon="3.63227">
        <ele>123.77</ele>
        <time>2021-04-09T12:37:00Z</time>
      </trkpt>
      <trkpt lat="50.23985" lon="3.63178">
        <ele>125.63</ele>
        <time>2021-04-09T12:37:02Z</time>
      </trkpt>
      <trkpt lat="50.24024" lon="3.6312">
        <ele>124.32</ele>
        <time>2021-04-09T12:37:04Z</time>
      </trkpt>
      <trkpt lat="50.24047" lon="3.63082">
        <ele>124.69</ele>
        <time>2021-04-09T12:37:06Z</time>
      </trkpt>
      <trkpt lat="50.24185" lon="3.62819">
        <ele>124.31</ele>
        <time>2021-04-09T12:37:08Z</time>
      </trkpt>
      <trkpt lat="50.24204" lon="3.62785">
        <ele>124.36</ele>
        <time>2021-04-09T12:37:10Z</time>
      </trkpt>
      <trkpt lat="50.2423" lon="3.62745">
        <ele>125.71</ele>
        <time>2021-04-09T12:37:12Z</time>
      </trkpt>
      <trkpt lat="50.24257" lon="3.6271">
        <ele>125</ele>
        <time>2021-04-09T12:37:14Z</time>
      </trkpt>
      <trkpt lat="50.24304" lon="3.62654">
        <ele>125</ele>
        <time>2021-04-09T12:37:16Z</time>
      </trkpt>
      <trkpt lat="50.2434" lon="3.62619">
        <ele>124.93</ele>
        <time>2021-04-09T12:37:18Z</time>
      </trkpt>
      <trkpt lat="50.24373" lon="3.62592">
        <ele>125.28</ele>
        <time>2021-04-09T12:37:20Z</time>
      </trkpt>
      <trkpt lat="50.24406" lon="3.62568">
        <ele>125.83</ele>
        <time>2021-04-09T12:37:22Z</time>
      </trkpt>
      <trkpt lat="50.2446" lon="3.62537">
        <ele>126.09</ele>
        <time>2021-04-09T12:37:24Z</time>
      </trkpt>
      <trkpt lat="50.24509" lon="3.62516">
        <ele>124.37</ele>
        <time>2021-04-09T12:37:26Z</time>
      </trkpt>
      <trkpt lat="50.24546" lon="3.62506">
        <ele>122.22</ele>
        <time>2021-04-09T12:37:28Z</time>
      </trkpt>
      <trkpt lat="50.24594" lon="3.62498">
        <ele>118.29</ele>
        <time>2021-04-09T12:37:30Z</time>
      </trkpt>
      <trkpt lat="50.2466" lon="3.62496">
        <ele>116.14</ele>
        <time>2021-04-09T12:37:31Z</time>
      </trkpt>
      <trkpt lat="50.24697" lon="3.625">
        <ele>116</ele>
        <time>2021-04-09T12:37:33Z</time>
      </trkpt>
      <trkpt lat="50.24753" lon="3.62511">
        <ele>116.11</ele>
        <time>2021-04-09T12:37:35Z</time>
      </trkpt>
      <trkpt lat="50.24786" lon="3.6252">
        <ele>117.29</ele>
        <time>2021-04-09T12:37:37Z</time>
      </trkpt>
      <trkpt lat="50.24821" lon="3.62532">
        <ele>118.62</ele>
        <time>2021-04-09T12:37:39Z</time>
      </trkpt>
      <trkpt lat="50.24857" lon="3.62548">
        <ele>119</ele>
        <time>2021-04-09T12:37:41Z</time>
      </trkpt>
      <trkpt lat="50.2489" lon="3.62567">
        <ele>119</ele>
        <time>2021-04-09T12:37:43Z</time>
      </trkpt>
      <trkpt lat="50.24925" lon="3.62581">
        <ele>119</ele>
        <time>2021-04-09T12:37:45Z</time>
      </trkpt>
      <trkpt lat="50.24936" lon="3.62582">
        <ele>119</ele>
        <time>2021-04-09T12:37:47Z</time>
      </trkpt>
      <trkpt lat="50.24948" lon="3.62577">
        <ele>119</ele>
        <time>2021-04-09T12:37:49Z</time>
      </trkpt>
      <trkpt lat="50.24967" lon="3.62566">
        <ele>119</ele>
        <time>2021-04-09T12:37:51Z</time>
      </trkpt>
      <trkpt lat="50.24974" lon="3.62563">
        <ele>119</ele>
        <time>2021-04-09T12:37:53Z</time>
      </trkpt>
      <trkpt lat="50.2498" lon="3.62565">
        <ele>119</ele>
        <time>2021-04-09T12:37:55Z</time>
      </trkpt>
      <trkpt lat="50.24985" lon="3.62569">
        <ele>119</ele>
        <time>2021-04-09T12:37:57Z</time>
      </trkpt>
      <trkpt lat="50.24994" lon="3.62573">
        <ele>119</ele>
        <time>2021-04-09T12:37:58Z</time>
      </trkpt>
      <trkpt lat="50.25003" lon="3.62573">
        <ele>119.07</ele>
        <time>2021-04-09T12:38:00Z</time>
      </trkpt>
      <trkpt lat="50.25011" lon="3.62569">
        <ele>119.19</ele>
        <time>2021-04-09T12:38:02Z</time>
      </trkpt>
      <trkpt lat="50.25019" lon="3.6256">
        <ele>119.1</ele>
        <time>2021-04-09T12:38:04Z</time>
      </trkpt>
      <trkpt lat="50.25033" lon="3.62557">
        <ele>119.04</ele>
        <time>2021-04-09T12:38:06Z</time>
      </trkpt>
      <trkpt lat="50.25057" lon="3.6256">
        <ele>119.18</ele>
        <time>2021-04-09T12:38:07Z</time>
      </trkpt>
      <trkpt lat="50.25076" lon="3.62572">
        <ele>119.9</ele>
        <time>2021-04-09T12:38:09Z</time>
      </trkpt>
      <trkpt lat="50.25147" lon="3.62611">
        <ele>120</ele>
        <time>2021-04-09T12:38:11Z</time>
      </trkpt>
      <trkpt lat="50.25185" lon="3.62638">
        <ele>119.35</ele>
        <time>2021-04-09T12:38:13Z</time>
      </trkpt>
      <trkpt lat="50.25232" lon="3.6268">
        <ele>119.29</ele>
        <time>2021-04-09T12:38:15Z</time>
      </trkpt>
      <trkpt lat="50.25249" lon="3.627">
        <ele>118.09</ele>
        <time>2021-04-09T12:38:16Z</time>
      </trkpt>
      <trkpt lat="50.25281" lon="3.6274">
        <ele>117.11</ele>
        <time>2021-04-09T12:38:18Z</time>
      </trkpt>
      <trkpt lat="50.2532" lon="3.62798">
        <ele>115.79</ele>
        <time>2021-04-09T12:38:20Z</time>
      </trkpt>
      <trkpt lat="50.25341" lon="3.62834">
        <ele>114.25</ele>
        <time>2021-04-09T12:38:22Z</time>
      </trkpt>
      <trkpt lat="50.25407" lon="3.62977">
        <ele>112.34</ele>
        <time>2021-04-09T12:38:24Z</time>
      </trkpt>
      <trkpt lat="50.25443" lon="3.63035">
        <ele>110.82</ele>
        <time>2021-04-09T12:38:25Z</time>
      </trkpt>
      <trkpt lat="50.25483" lon="3.63087">
        <ele>110.62</ele>
        <time>2021-04-09T12:38:27Z</time>
      </trkpt>
      <trkpt lat="50.25524" lon="3.63124">
        <ele>111</ele>
        <time>2021-04-09T12:38:29Z</time>
      </trkpt>
      <trkpt lat="50.25565" lon="3.63154">
        <ele>109.3</ele>
        <time>2021-04-09T12:38:31Z</time>
      </trkpt>
      <trkpt lat="50.25612" lon="3.63175">
        <ele>106.98</ele>
        <time>2021-04-09T12:38:33Z</time>
      </trkpt>
      <trkpt lat="50.2565" lon="3.63185">
        <ele>105.87</ele>
        <time>2021-04-09T12:38:34Z</time>
      </trkpt>
      <trkpt lat="50.25665" lon="3.63187">
        <ele>105.74</ele>
        <time>2021-04-09T12:38:36Z</time>
      </trkpt>
      <trkpt lat="50.25677" lon="3.63193">
        <ele>105.94</ele>
        <time>2021-04-09T12:38:38Z</time>
      </trkpt>
      <trkpt lat="50.25688" lon="3.63202">
        <ele>106.28</ele>
        <time>2021-04-09T12:38:40Z</time>
      </trkpt>
      <trkpt lat="50.25692" lon="3.63211">
        <ele>106.58</ele>
        <time>2021-04-09T12:38:42Z</time>
      </trkpt>
      <trkpt lat="50.25698" lon="3.63216">
        <ele>106.75</ele>
        <time>2021-04-09T12:38:43Z</time>
      </trkpt>
      <trkpt lat="50.25708" lon="3.63218">
        <ele>106.76</ele>
        <time>2021-04-09T12:38:45Z</time>
      </trkpt>
      <trkpt lat="50.25717" lon="3.63213">
        <ele>106.37</ele>
        <time>2021-04-09T12:38:47Z</time>
      </trkpt>
      <trkpt lat="50.25721" lon="3.63208">
        <ele>105.99</ele>
        <time>2021-04-09T12:38:48Z</time>
      </trkpt>
      <trkpt lat="50.25754" lon="3.63187">
        <ele>105.91</ele>
        <time>2021-04-09T12:38:50Z</time>
      </trkpt>
      <trkpt lat="50.25806" lon="3.63186">
        <ele>108.72</ele>
        <time>2021-04-09T12:38:52Z</time>
      </trkpt>
      <trkpt lat="50.25832" lon="3.6319">
        <ele>109.79</ele>
        <time>2021-04-09T12:38:54Z</time>
      </trkpt>
      <trkpt lat="50.25853" lon="3.63197">
        <ele>110.82</ele>
        <time>2021-04-09T12:38:55Z</time>
      </trkpt>
      <trkpt lat="50.25876" lon="3.63209">
        <ele>111.53</ele>
        <time>2021-04-09T12:38:57Z</time>
      </trkpt>
      <trkpt lat="50.25913" lon="3.63237">
        <ele>112.07</ele>
        <time>2021-04-09T12:38:59Z</time>
      </trkpt>
      <trkpt lat="50.2596" lon="3.6329">
        <ele>111.31</ele>
        <time>2021-04-09T12:39:00Z</time>
      </trkpt>
      <trkpt lat="50.25994" lon="3.63322">
        <ele>112.51</ele>
        <time>2021-04-09T12:39:02Z</time>
      </trkpt>
      <trkpt lat="50.26016" lon="3.63352">
        <ele>113.85</ele>
        <time>2021-04-09T12:39:04Z</time>
      </trkpt>
      <trkpt lat="50.26019" lon="3.63365">
        <ele>114.14</ele>
        <time>2021-04-09T12:39:16Z</time>
      </trkpt>
      <trkpt lat="50.26026" lon="3.63374">
        <ele>114.46</ele>
        <time>2021-04-09T12:39:28Z</time>
      </trkpt>
      <trkpt lat="50.26035" lon="3.63377">
        <ele>114.82</ele>
        <time>2021-04-09T12:39:41Z</time>
      </trkpt>
      <trkpt lat="50.2604" lon="3.63375">
        <ele>114.94</ele>
        <time>2021-04-09T12:39:53Z</time>
      </trkpt>
      <trkpt lat="50.26049" lon="3.63365">
        <ele>114.88</ele>
        <time>2021-04-09T12:40:05Z</time>
      </trkpt>
      <trkpt lat="50.2606" lon="3.63363">
        <ele>115.05</ele>
        <time>2021-04-09T12:40:17Z</time>
      </trkpt>
      <trkpt lat="50.26097" lon="3.63363">
        <ele>115.57</ele>
        <time>2021-04-09T12:40:29Z</time>
      </trkpt>
      <trkpt lat="50.26116" lon="3.63362">
        <ele>116.19</ele>
        <time>2021-04-09T12:40:42Z</time>
      </trkpt>
      <trkpt lat="50.26151" lon="3.63354">
        <ele>117.43</ele>
        <time>2021-04-09T12:40:54Z</time>
      </trkpt>
      <trkpt lat="50.26656" lon="3.63166">
        <ele>109.03</ele>
        <time>2021-04-09T12:41:06Z</time>
      </trkpt>
      <trkpt lat="50.26839" lon="3.63101">
        <ele>103.12</ele>
        <time>2021-04-09T12:41:18Z</time>
      </trkpt>
      <trkpt lat="50.27075" lon="3.6301">
        <ele>93.31</ele>
        <time>2021-04-09T12:41:31Z</time>
      </trkpt>
      <trkpt lat="50.27099" lon="3.63004">
        <ele>92.43</ele>
        <time>2021-04-09T12:41:43Z</time>
      </trkpt>
      <trkpt lat="50.27739" lon="3.62983">
        <ele>99.61</ele>
        <time>2021-04-09T12:41:55Z</time>
      </trkpt>
      <trkpt lat="50.27756" lon="3.62989">
        <ele>100.21</ele>
        <time>2021-04-09T12:42:07Z</time>
      </trkpt>
      <trkpt lat="50.27763" lon="3.62996">
        <ele>100.46</ele>
        <time>2021-04-09T12:42:19Z</time>
      </trkpt>
      <trkpt lat="50.27767" lon="3.63003">
        <ele>100.61</ele>
        <time>2021-04-09T12:42:27Z</time>
      </trkpt>
      <trkpt lat="50.27772" lon="3.63008">
        <ele>100.8</ele>
        <time>2021-04-09T12:42:34Z</time>
      </trkpt>
      <trkpt lat="50.27778" lon="3.6301">
        <ele>101.01</ele>
        <time>2021-04-09T12:42:42Z</time>
      </trkpt>
      <trkpt lat="50.27784" lon="3.63008">
        <ele>101.29</ele>
        <time>2021-04-09T12:42:49Z</time>
      </trkpt>
      <trkpt lat="50.27789" lon="3.63004">
        <ele>101.47</ele>
        <time>2021-04-09T12:42:57Z</time>
      </trkpt>
      <trkpt lat="50.27794" lon="3.62997">
        <ele>101.5</ele>
        <time>2021-04-09T12:43:04Z</time>
      </trkpt>
      <trkpt lat="50.27799" lon="3.62989">
        <ele>101.46</ele>
        <time>2021-04-09T12:43:12Z</time>
      </trkpt>
      <trkpt lat="50.27804" lon="3.62985">
        <ele>101.44</ele>
        <time>2021-04-09T12:43:19Z</time>
      </trkpt>
      <trkpt lat="50.27833" lon="3.62978">
        <ele>103</ele>
        <time>2021-04-09T12:43:27Z</time>
      </trkpt>
      <trkpt lat="50.27878" lon="3.62979">
        <ele>104.15</ele>
        <time>2021-04-09T12:43:34Z</time>
      </trkpt>
      <trkpt lat="50.28194" lon="3.62966">
        <ele>108.75</ele>
        <time>2021-04-09T12:43:41Z</time>
      </trkpt>
      <trkpt lat="50.28335" lon="3.62969">
        <ele>103.83</ele>
        <time>2021-04-09T12:43:49Z</time>
      </trkpt>
      <trkpt lat="50.2838" lon="3.62962">
        <ele>103.91</ele>
        <time>2021-04-09T12:43:56Z</time>
      </trkpt>
      <trkpt lat="50.29296" lon="3.62932">
        <ele>109.09</ele>
        <time>2021-04-09T12:44:04Z</time>
      </trkpt>
      <trkpt lat="50.29356" lon="3.62919">
        <ele>109.15</ele>
        <time>2021-04-09T12:44:11Z</time>
      </trkpt>
      <trkpt lat="50.29371" lon="3.62923">
        <ele>109.08</ele>
        <time>2021-04-09T12:44:19Z</time>
      </trkpt>
      <trkpt lat="50.29376" lon="3.62927">
        <ele>109.2</ele>
        <time>2021-04-09T12:44:22Z</time>
      </trkpt>
      <trkpt lat="50.29382" lon="3.62927">
        <ele>109.28</ele>
        <time>2021-04-09T12:44:26Z</time>
      </trkpt>
      <trkpt lat="50.29391" lon="3.62921">
        <ele>109.07</ele>
        <time>2021-04-09T12:44:29Z</time>
      </trkpt>
      <trkpt lat="50.29395" lon="3.62914">
        <ele>108.71</ele>
        <time>2021-04-09T12:44:33Z</time>
      </trkpt>
      <trkpt lat="50.29405" lon="3.62911">
        <ele>108.33</ele>
        <time>2021-04-09T12:44:36Z</time>
      </trkpt>
      <trkpt lat="50.29422" lon="3.62912">
        <ele>108</ele>
        <time>2021-04-09T12:44:40Z</time>
      </trkpt>
      <trkpt lat="50.29462" lon="3.62926">
        <ele>107.03</ele>
        <time>2021-04-09T12:44:44Z</time>
      </trkpt>
      <trkpt lat="50.29471" lon="3.62928">
        <ele>106.62</ele>
        <time>2021-04-09T12:44:47Z</time>
      </trkpt>
      <trkpt lat="50.29478" lon="3.62927">
        <ele>106.72</ele>
        <time>2021-04-09T12:44:51Z</time>
      </trkpt>
      <trkpt lat="50.29963" lon="3.62909">
        <ele>102.68</ele>
        <time>2021-04-09T12:44:54Z</time>
      </trkpt>
      <trkpt lat="50.29981" lon="3.62911">
        <ele>103.07</ele>
        <time>2021-04-09T12:44:58Z</time>
      </trkpt>
      <trkpt lat="50.30113" lon="3.62905">
        <ele>103.05</ele>
        <time>2021-04-09T12:45:01Z</time>
      </trkpt>
      <trkpt lat="50.30183" lon="3.62889">
        <ele>103.99</ele>
        <time>2021-04-09T12:45:05Z</time>
      </trkpt>
      <trkpt lat="50.30249" lon="3.62857">
        <ele>103.81</ele>
        <time>2021-04-09T12:45:08Z</time>
      </trkpt>
      <trkpt lat="50.3026" lon="3.62854">
        <ele>103.02</ele>
        <time>2021-04-09T12:45:12Z</time>
      </trkpt>
      <trkpt lat="50.3028" lon="3.62855">
        <ele>101.71</ele>
        <time>2021-04-09T12:45:15Z</time>
      </trkpt>
      <trkpt lat="50.30283" lon="3.6286">
        <ele>101.76</ele>
        <time>2021-04-09T12:45:23Z</time>
      </trkpt>
      <trkpt lat="50.30292" lon="3.62866">
        <ele>101.76</ele>
        <time>2021-04-09T12:45:30Z</time>
      </trkpt>
      <trkpt lat="50.30312" lon="3.62893">
        <ele>102.03</ele>
        <time>2021-04-09T12:45:37Z</time>
      </trkpt>
      <trkpt lat="50.30321" lon="3.62898">
        <ele>102.18</ele>
        <time>2021-04-09T12:45:44Z</time>
      </trkpt>
      <trkpt lat="50.30376" lon="3.62896">
        <ele>102.59</ele>
        <time>2021-04-09T12:45:51Z</time>
      </trkpt>
      <trkpt lat="50.30387" lon="3.62893">
        <ele>102.22</ele>
        <time>2021-04-09T12:45:58Z</time>
      </trkpt>
      <trkpt lat="50.30608" lon="3.62882">
        <ele>96.87</ele>
        <time>2021-04-09T12:46:05Z</time>
      </trkpt>
      <trkpt lat="50.30646" lon="3.6288">
        <ele>98.96</ele>
        <time>2021-04-09T12:46:12Z</time>
      </trkpt>
      <trkpt lat="50.30799" lon="3.62868">
        <ele>94.92</ele>
        <time>2021-04-09T12:46:19Z</time>
      </trkpt>
      <trkpt lat="50.30861" lon="3.62857">
        <ele>95</ele>
        <time>2021-04-09T12:46:27Z</time>
      </trkpt>
      <trkpt lat="50.30971" lon="3.62842">
        <ele>95.97</ele>
        <time>2021-04-09T12:46:34Z</time>
      </trkpt>
      <trkpt lat="50.31061" lon="3.62845">
        <ele>97</ele>
        <time>2021-04-09T12:46:41Z</time>
      </trkpt>
      <trkpt lat="50.31121" lon="3.62852">
        <ele>98.35</ele>
        <time>2021-04-09T12:46:48Z</time>
      </trkpt>
      <trkpt lat="50.31225" lon="3.62842">
        <ele>100.91</ele>
        <time>2021-04-09T12:46:55Z</time>
      </trkpt>
      <trkpt lat="50.31235" lon="3.62836">
        <ele>100.54</ele>
        <time>2021-04-09T12:47:02Z</time>
      </trkpt>
      <trkpt lat="50.31246" lon="3.62823">
        <ele>100.52</ele>
        <time>2021-04-09T12:47:09Z</time>
      </trkpt>
      <trkpt lat="50.31297" lon="3.6273">
        <ele>98.64</ele>
        <time>2021-04-09T12:47:16Z</time>
      </trkpt>
      <trkpt lat="50.31306" lon="3.62715">
        <ele>98</ele>
        <time>2021-04-09T12:47:23Z</time>
      </trkpt>
      <trkpt lat="50.3133" lon="3.62686">
        <ele>98</ele>
        <time>2021-04-09T12:47:31Z</time>
      </trkpt>
      <trkpt lat="50.31409" lon="3.62609">
        <ele>98.02</ele>
        <time>2021-04-09T12:47:38Z</time>
      </trkpt>
      <trkpt lat="50.31495" lon="3.62531">
        <ele>94.08</ele>
        <time>2021-04-09T12:47:45Z</time>
      </trkpt>
      <trkpt lat="50.31609" lon="3.62853">
        <ele>93.93</ele>
        <time>2021-04-09T12:47:51Z</time>
      </trkpt>
      <trkpt lat="50.31624" lon="3.62885">
        <ele>93.15</ele>
        <time>2021-04-09T12:47:57Z</time>
      </trkpt>
      <trkpt lat="50.31643" lon="3.62918">
        <ele>92.96</ele>
        <time>2021-04-09T12:48:04Z</time>
      </trkpt>
      <trkpt lat="50.31651" lon="3.62929">
        <ele>92.57</ele>
        <time>2021-04-09T12:48:10Z</time>
      </trkpt>
      <trkpt lat="50.31694" lon="3.62976">
        <ele>92</ele>
        <time>2021-04-09T12:48:16Z</time>
      </trkpt>
      <trkpt lat="50.31776" lon="3.6301">
        <ele>91.65</ele>
        <time>2021-04-09T12:48:23Z</time>
      </trkpt>
      <trkpt lat="50.31837" lon="3.63039">
        <ele>92.44</ele>
        <time>2021-04-09T12:48:29Z</time>
      </trkpt>
      <trkpt lat="50.31964" lon="3.63085">
        <ele>85.95</ele>
        <time>2021-04-09T12:48:35Z</time>
      </trkpt>
      <trkpt lat="50.32264" lon="3.63201">
        <ele>93.6</ele>
        <time>2021-04-09T12:48:42Z</time>
      </trkpt>
      <trkpt lat="50.32352" lon="3.63225">
        <ele>91.24</ele>
        <time>2021-04-09T12:48:48Z</time>
      </trkpt>
      <trkpt lat="50.32471" lon="3.63264">
        <ele>87.48</ele>
        <time>2021-04-09T12:48:54Z</time>
      </trkpt>
      <trkpt lat="50.33102" lon="3.63455">
        <ele>90.34</ele>
        <time>2021-04-09T12:49:01Z</time>
      </trkpt>
      <trkpt lat="50.33227" lon="3.63505">
        <ele>91.81</ele>
        <time>2021-04-09T12:49:07Z</time>
      </trkpt>
      <trkpt lat="50.3345" lon="3.63605">
        <ele>91.29</ele>
        <time>2021-04-09T12:49:13Z</time>
      </trkpt>
      <trkpt lat="50.33494" lon="3.63625">
        <ele>92.16</ele>
        <time>2021-04-09T12:49:19Z</time>
      </trkpt>
      <trkpt lat="50.33666" lon="3.63717">
        <ele>95.16</ele>
        <time>2021-04-09T12:49:26Z</time>
      </trkpt>
      <trkpt lat="50.33717" lon="3.63737">
        <ele>96.29</ele>
        <time>2021-04-09T12:49:32Z</time>
      </trkpt>
      <trkpt lat="50.33771" lon="3.63747">
        <ele>96.86</ele>
        <time>2021-04-09T12:49:38Z</time>
      </trkpt>
      <trkpt lat="50.33893" lon="3.63745">
        <ele>93.97</ele>
        <time>2021-04-09T12:49:45Z</time>
      </trkpt>
      <trkpt lat="50.33923" lon="3.63754">
        <ele>94.34</ele>
        <time>2021-04-09T12:49:51Z</time>
      </trkpt>
      <trkpt lat="50.33951" lon="3.63769">
        <ele>95</ele>
        <time>2021-04-09T12:49:57Z</time>
      </trkpt>
      <trkpt lat="50.33974" lon="3.63798">
        <ele>95.6</ele>
        <time>2021-04-09T12:50:04Z</time>
      </trkpt>
      <trkpt lat="50.33996" lon="3.63834">
        <ele>95.47</ele>
        <time>2021-04-09T12:50:10Z</time>
      </trkpt>
      <trkpt lat="50.34031" lon="3.63884">
        <ele>93.61</ele>
        <time>2021-04-09T12:50:16Z</time>
      </trkpt>
      <trkpt lat="50.34055" lon="3.63907">
        <ele>92.01</ele>
        <time>2021-04-09T12:50:23Z</time>
      </trkpt>
      <trkpt lat="50.34065" lon="3.63913">
        <ele>92</ele>
        <time>2021-04-09T12:50:29Z</time>
      </trkpt>
      <trkpt lat="50.34089" lon="3.63924">
        <ele>92.06</ele>
        <time>2021-04-09T12:50:35Z</time>
      </trkpt>
      <trkpt lat="50.34137" lon="3.63935">
        <ele>91.64</ele>
        <time>2021-04-09T12:50:41Z</time>
      </trkpt>
      <trkpt lat="50.34243" lon="3.63964">
        <ele>90.48</ele>
        <time>2021-04-09T12:50:48Z</time>
      </trkpt>
      <trkpt lat="50.34326" lon="3.6398">
        <ele>88.39</ele>
        <time>2021-04-09T12:50:54Z</time>
      </trkpt>
      <trkpt lat="50.34353" lon="3.63979">
        <ele>88.25</ele>
        <time>2021-04-09T12:51:00Z</time>
      </trkpt>
      <trkpt lat="50.34386" lon="3.63973">
        <ele>88.9</ele>
        <time>2021-04-09T12:51:07Z</time>
      </trkpt>
      <trkpt lat="50.3442" lon="3.6396">
        <ele>90</ele>
        <time>2021-04-09T12:51:13Z</time>
      </trkpt>
      <trkpt lat="50.34486" lon="3.63922">
        <ele>90.58</ele>
        <time>2021-04-09T12:51:19Z</time>
      </trkpt>
      <trkpt lat="50.34641" lon="3.63865">
        <ele>87.99</ele>
        <time>2021-04-09T12:51:26Z</time>
      </trkpt>
      <trkpt lat="50.3485" lon="3.63805">
        <ele>83</ele>
        <time>2021-04-09T12:51:32Z</time>
      </trkpt>
      <trkpt lat="50.34903" lon="3.63802">
        <ele>83.99</ele>
        <time>2021-04-09T12:51:38Z</time>
      </trkpt>
      <trkpt lat="50.3495" lon="3.63797">
        <ele>85</ele>
        <time>2021-04-09T12:51:45Z</time>
      </trkpt>
      <trkpt lat="50.35035" lon="3.63806">
        <ele>83.73</ele>
        <time>2021-04-09T12:51:51Z</time>
      </trkpt>
      <trkpt lat="50.35141" lon="3.63834">
        <ele>81.07</ele>
        <time>2021-04-09T12:51:57Z</time>
      </trkpt>
      <trkpt lat="50.35167" lon="3.63845">
        <ele>82</ele>
        <time>2021-04-09T12:52:04Z</time>
      </trkpt>
      <trkpt lat="50.3525" lon="3.63887">
        <ele>81.18</ele>
        <time>2021-04-09T12:52:10Z</time>
      </trkpt>
      <trkpt lat="50.3579" lon="3.64205">
        <ele>76.43</ele>
        <time>2021-04-09T12:52:16Z</time>
      </trkpt>
      <trkpt lat="50.35807" lon="3.64214">
        <ele>77.04</ele>
        <time>2021-04-09T12:52:22Z</time>
      </trkpt>
      <trkpt lat="50.35896" lon="3.64248">
        <ele>75.63</ele>
        <time>2021-04-09T12:52:29Z</time>
      </trkpt>
      <trkpt lat="50.35928" lon="3.64268">
        <ele>75.73</ele>
        <time>2021-04-09T12:52:35Z</time>
      </trkpt>
      <trkpt lat="50.35946" lon="3.64283">
        <ele>74.95</ele>
        <time>2021-04-09T12:52:41Z</time>
      </trkpt>
      <trkpt lat="50.35968" lon="3.64306">
        <ele>74.17</ele>
        <time>2021-04-09T12:52:48Z</time>
      </trkpt>
      <trkpt lat="50.35993" lon="3.64339">
        <ele>73.25</ele>
        <time>2021-04-09T12:52:54Z</time>
      </trkpt>
      <trkpt lat="50.36148" lon="3.64586">
        <ele>67.15</ele>
        <time>2021-04-09T12:53:00Z</time>
      </trkpt>
      <trkpt lat="50.36163" lon="3.64605">
        <ele>65.67</ele>
        <time>2021-04-09T12:53:07Z</time>
      </trkpt>
      <trkpt lat="50.36185" lon="3.64626">
        <ele>65.11</ele>
        <time>2021-04-09T12:53:13Z</time>
      </trkpt>
      <trkpt lat="50.36271" lon="3.64682">
        <ele>69.19</ele>
        <time>2021-04-09T12:53:19Z</time>
      </trkpt>
      <trkpt lat="50.36311" lon="3.64702">
        <ele>69.96</ele>
        <time>2021-04-09T12:53:26Z</time>
      </trkpt>
      <trkpt lat="50.3635" lon="3.64716">
        <ele>70.55</ele>
        <time>2021-04-09T12:53:32Z</time>
      </trkpt>
      <trkpt lat="50.36374" lon="3.6472">
        <ele>70.5</ele>
        <time>2021-04-09T12:53:38Z</time>
      </trkpt>
      <trkpt lat="50.36404" lon="3.64718">
        <ele>71</ele>
        <time>2021-04-09T12:53:45Z</time>
      </trkpt>
      <trkpt lat="50.36464" lon="3.64709">
        <ele>71.14</ele>
        <time>2021-04-09T12:53:51Z</time>
      </trkpt>
      <trkpt lat="50.36488" lon="3.64702">
        <ele>70.84</ele>
        <time>2021-04-09T12:53:57Z</time>
      </trkpt>
      <trkpt lat="50.36546" lon="3.64705">
        <ele>69.76</ele>
        <time>2021-04-09T12:54:03Z</time>
      </trkpt>
      <trkpt lat="50.36583" lon="3.64715">
        <ele>68.28</ele>
        <time>2021-04-09T12:54:10Z</time>
      </trkpt>
      <trkpt lat="50.36596" lon="3.64716">
        <ele>67.76</ele>
        <time>2021-04-09T12:54:16Z</time>
      </trkpt>
      <trkpt lat="50.36605" lon="3.6471">
        <ele>67.67</ele>
        <time>2021-04-09T12:54:22Z</time>
      </trkpt>
      <trkpt lat="50.36713" lon="3.64494">
        <ele>63.79</ele>
        <time>2021-04-09T12:54:29Z</time>
      </trkpt>
      <trkpt lat="50.3674" lon="3.64444">
        <ele>62.33</ele>
        <time>2021-04-09T12:54:35Z</time>
      </trkpt>
      <trkpt lat="50.36753" lon="3.64426">
        <ele>61.33</ele>
        <time>2021-04-09T12:54:41Z</time>
      </trkpt>
      <trkpt lat="50.36842" lon="3.64322">
        <ele>56.7</ele>
        <time>2021-04-09T12:54:48Z</time>
      </trkpt>
      <trkpt lat="50.37043" lon="3.64115">
        <ele>56.75</ele>
        <time>2021-04-09T12:54:54Z</time>
      </trkpt>
      <trkpt lat="50.37107" lon="3.64037">
        <ele>52.21</ele>
        <time>2021-04-09T12:55:00Z</time>
      </trkpt>
      <trkpt lat="50.37339" lon="3.63702">
        <ele>47.56</ele>
        <time>2021-04-09T12:55:07Z</time>
      </trkpt>
      <trkpt lat="50.37403" lon="3.63579">
        <ele>49</ele>
        <time>2021-04-09T12:55:13Z</time>
      </trkpt>
      <trkpt lat="50.3791" lon="3.62755">
        <ele>40.05</ele>
        <time>2021-04-09T12:55:19Z</time>
      </trkpt>
      <trkpt lat="50.37889" lon="3.62724">
        <ele>39</ele>
        <time>2021-04-09T12:55:23Z</time>
      </trkpt>
      <trkpt lat="50.37884" lon="3.62712">
        <ele>39.17</ele>
        <time>2021-04-09T12:55:26Z</time>
      </trkpt>
      <trkpt lat="50.37876" lon="3.62675">
        <ele>39.47</ele>
        <time>2021-04-09T12:55:30Z</time>
      </trkpt>
      <trkpt lat="50.37871" lon="3.62616">
        <ele>40.66</ele>
        <time>2021-04-09T12:55:33Z</time>
      </trkpt>
      <trkpt lat="50.37871" lon="3.62359">
        <ele>37.92</ele>
        <time>2021-04-09T12:55:37Z</time>
      </trkpt>
      <trkpt lat="50.37869" lon="3.62224">
        <ele>36.29</ele>
        <time>2021-04-09T12:55:40Z</time>
      </trkpt>
      <trkpt lat="50.37874" lon="3.62125">
        <ele>36</ele>
        <time>2021-04-09T12:55:44Z</time>
      </trkpt>
      <trkpt lat="50.37883" lon="3.62051">
        <ele>34.06</ele>
        <time>2021-04-09T12:55:47Z</time>
      </trkpt>
      <trkpt lat="50.37901" lon="3.61811">
        <ele>35.39</ele>
        <time>2021-04-09T12:55:51Z</time>
      </trkpt>
      <trkpt lat="50.37908" lon="3.61753">
        <ele>36.31</ele>
        <time>2021-04-09T12:55:54Z</time>
      </trkpt>
      <trkpt lat="50.3793" lon="3.61621">
        <ele>36.2</ele>
        <time>2021-04-09T12:55:58Z</time>
      </trkpt>
      <trkpt lat="50.37947" lon="3.61549">
        <ele>35.23</ele>
        <time>2021-04-09T12:56:01Z</time>
      </trkpt>
      <trkpt lat="50.37955" lon="3.61535">
        <ele>35.72</ele>
        <time>2021-04-09T12:56:05Z</time>
      </trkpt>
      <trkpt lat="50.37965" lon="3.61528">
        <ele>36</ele>
        <time>2021-04-09T12:56:06Z</time>
      </trkpt>
      <trkpt lat="50.3797" lon="3.61519">
        <ele>36</ele>
        <time>2021-04-09T12:56:07Z</time>
      </trkpt>
      <trkpt lat="50.37972" lon="3.61508">
        <ele>36</ele>
        <time>2021-04-09T12:56:08Z</time>
      </trkpt>
      <trkpt lat="50.37972" lon="3.61496">
        <ele>36.15</ele>
        <time>2021-04-09T12:56:09Z</time>
      </trkpt>
      <trkpt lat="50.3797" lon="3.61485">
        <ele>36.53</ele>
        <time>2021-04-09T12:56:10Z</time>
      </trkpt>
      <trkpt lat="50.37966" lon="3.61476">
        <ele>36.86</ele>
        <time>2021-04-09T12:56:11Z</time>
      </trkpt>
      <trkpt lat="50.37964" lon="3.61454">
        <ele>37.19</ele>
        <time>2021-04-09T12:56:13Z</time>
      </trkpt>
      <trkpt lat="50.37965" lon="3.61437">
        <ele>37.53</ele>
        <time>2021-04-09T12:56:14Z</time>
      </trkpt>
      <trkpt lat="50.38009" lon="3.61239">
        <ele>37.39</ele>
        <time>2021-04-09T12:56:15Z</time>
      </trkpt>
      <trkpt lat="50.38029" lon="3.61114">
        <ele>39.91</ele>
        <time>2021-04-09T12:56:16Z</time>
      </trkpt>
      <trkpt lat="50.38032" lon="3.61086">
        <ele>39.06</ele>
        <time>2021-04-09T12:56:17Z</time>
      </trkpt>
      <trkpt lat="50.38035" lon="3.61078">
        <ele>39</ele>
        <time>2021-04-09T12:56:18Z</time>
      </trkpt>
      <trkpt lat="50.38042" lon="3.6107">
        <ele>39</ele>
        <time>2021-04-09T12:56:19Z</time>
      </trkpt>
      <trkpt lat="50.38046" lon="3.61067">
        <ele>39</ele>
        <time>2021-04-09T12:56:27Z</time>
      </trkpt>
      <trkpt lat="50.38053" lon="3.61055">
        <ele>39</ele>
        <time>2021-04-09T12:56:35Z</time>
      </trkpt>
      <trkpt lat="50.38082" lon="3.61048">
        <ele>38.75</ele>
        <time>2021-04-09T12:56:42Z</time>
      </trkpt>
      <trkpt lat="50.38117" lon="3.6105">
        <ele>37.4</ele>
        <time>2021-04-09T12:56:50Z</time>
      </trkpt>
      <trkpt lat="50.3822" lon="3.61069">
        <ele>35.42</ele>
        <time>2021-04-09T12:56:58Z</time>
      </trkpt>
      <trkpt lat="50.38489" lon="3.61147">
        <ele>32.72</ele>
        <time>2021-04-09T12:57:05Z</time>
      </trkpt>
      <trkpt lat="50.38601" lon="3.61184">
        <ele>33.15</ele>
        <time>2021-04-09T12:57:13Z</time>
      </trkpt>
      <trkpt lat="50.39039" lon="3.61315">
        <ele>30.34</ele>
        <time>2021-04-09T12:57:21Z</time>
      </trkpt>
      <trkpt lat="50.39382" lon="3.61426">
        <ele>27.58</ele>
        <time>2021-04-09T12:57:28Z</time>
      </trkpt>
      <trkpt lat="50.39507" lon="3.61471">
        <ele>25.5</ele>
        <time>2021-04-09T12:57:36Z</time>
      </trkpt>
      <trkpt lat="50.39652" lon="3.61528">
        <ele>26</ele>
        <time>2021-04-09T12:57:44Z</time>
      </trkpt>
      <trkpt lat="50.39873" lon="3.61624">
        <ele>25.23</ele>
        <time>2021-04-09T12:57:51Z</time>
      </trkpt>
      <trkpt lat="50.39981" lon="3.61676">
        <ele>24.46</ele>
        <time>2021-04-09T12:57:59Z</time>
      </trkpt>
      <trkpt lat="50.40091" lon="3.61734">
        <ele>20.73</ele>
        <time>2021-04-09T12:58:07Z</time>
      </trkpt>
      <trkpt lat="50.40157" lon="3.61779">
        <ele>20.98</ele>
        <time>2021-04-09T12:58:14Z</time>
      </trkpt>
      <trkpt lat="50.40202" lon="3.61815">
        <ele>21.67</ele>
        <time>2021-04-09T12:58:20Z</time>
      </trkpt>
      <trkpt lat="50.40254" lon="3.6187">
        <ele>20.32</ele>
        <time>2021-04-09T12:58:27Z</time>
      </trkpt>
      <trkpt lat="50.40337" lon="3.61987">
        <ele>24.81</ele>
        <time>2021-04-09T12:58:34Z</time>
      </trkpt>
      <trkpt lat="50.40388" lon="3.62052">
        <ele>24.86</ele>
        <time>2021-04-09T12:58:37Z</time>
      </trkpt>
      <trkpt lat="50.40397" lon="3.62053">
        <ele>24.89</ele>
        <time>2021-04-09T12:58:39Z</time>
      </trkpt>
      <trkpt lat="50.40411" lon="3.6205">
        <ele>24.81</ele>
        <time>2021-04-09T12:58:42Z</time>
      </trkpt>
      <trkpt lat="50.40526" lon="3.61747">
        <ele>21.06</ele>
        <time>2021-04-09T12:58:52Z</time>
      </trkpt>
      <trkpt lat="50.40585" lon="3.61601">
        <ele>18.97</ele>
        <time>2021-04-09T12:59:01Z</time>
      </trkpt>
      <trkpt lat="50.40602" lon="3.61613">
        <ele>19</ele>
        <time>2021-04-09T12:59:04Z</time>
      </trkpt>
      <trkpt lat="50.40611" lon="3.61617">
        <ele>19</ele>
        <time>2021-04-09T12:59:07Z</time>
      </trkpt>
      <trkpt lat="50.40621" lon="3.61618">
        <ele>18.66</ele>
        <time>2021-04-09T12:59:09Z</time>
      </trkpt>
      <trkpt lat="50.40652" lon="3.61614">
        <ele>17.51</ele>
        <time>2021-04-09T12:59:12Z</time>
      </trkpt>
      <trkpt lat="50.40675" lon="3.61616">
        <ele>17</ele>
        <time>2021-04-09T12:59:14Z</time>
      </trkpt>
      <trkpt lat="50.40698" lon="3.61627">
        <ele>17.07</ele>
        <time>2021-04-09T12:59:17Z</time>
      </trkpt>
      <trkpt lat="50.4072" lon="3.61641">
        <ele>18</ele>
        <time>2021-04-09T12:59:20Z</time>
      </trkpt>
      <trkpt lat="50.40755" lon="3.61688">
        <ele>18.81</ele>
        <time>2021-04-09T12:59:22Z</time>
      </trkpt>
      <trkpt lat="50.40763" lon="3.61711">
        <ele>18.81</ele>
        <time>2021-04-09T12:59:25Z</time>
      </trkpt>
      <trkpt lat="50.40785" lon="3.61709">
        <ele>18.53</ele>
        <time>2021-04-09T12:59:34Z</time>
      </trkpt>
      <trkpt lat="50.40896" lon="3.61676">
        <ele>18.27</ele>
        <time>2021-04-09T12:59:44Z</time>
      </trkpt>
      <trkpt lat="50.40995" lon="3.61644">
        <ele>18.02</ele>
        <time>2021-04-09T12:59:54Z</time>
      </trkpt>
      <trkpt lat="50.4102" lon="3.61633">
        <ele>17.32</ele>
        <time>2021-04-09T13:00:03Z</time>
      </trkpt>
      <trkpt lat="50.41052" lon="3.61605">
        <ele>16.36</ele>
        <time>2021-04-09T13:00:13Z</time>
      </trkpt>
      <trkpt lat="50.41106" lon="3.61544">
        <ele>15.66</ele>
        <time>2021-04-09T13:00:22Z</time>
      </trkpt>
      <trkpt lat="50.41218" lon="3.6142">
        <ele>18.87</ele>
        <time>2021-04-09T13:00:32Z</time>
      </trkpt>
      <trkpt lat="50.41347" lon="3.61273">
        <ele>16.81</ele>
        <time>2021-04-09T13:00:42Z</time>
      </trkpt>
      <trkpt lat="50.41358" lon="3.61266">
        <ele>16.56</ele>
        <time>2021-04-09T13:00:51Z</time>
      </trkpt>
      <trkpt lat="50.41819" lon="3.61685">
        <ele>16</ele>
        <time>2021-04-09T13:01:00Z</time>
      </trkpt>
      <trkpt lat="50.41835" lon="3.61697">
        <ele>16.09</ele>
        <time>2021-04-09T13:01:09Z</time>
      </trkpt>
      <trkpt lat="50.4185" lon="3.61695">
        <ele>16.03</ele>
        <time>2021-04-09T13:01:17Z</time>
      </trkpt>
      <trkpt lat="50.41878" lon="3.61668">
        <ele>16</ele>
        <time>2021-04-09T13:01:26Z</time>
      </trkpt>
      <trkpt lat="50.41904" lon="3.61661">
        <ele>15.24</ele>
        <time>2021-04-09T13:01:35Z</time>
      </trkpt>
      <trkpt lat="50.41936" lon="3.61671">
        <ele>15</ele>
        <time>2021-04-09T13:01:43Z</time>
      </trkpt>
      <trkpt lat="50.42124" lon="3.61685">
        <ele>14.75</ele>
        <time>2021-04-09T13:01:52Z</time>
      </trkpt>
      <trkpt lat="50.42187" lon="3.61683">
        <ele>18.6</ele>
        <time>2021-04-09T13:02:01Z</time>
      </trkpt>
      <trkpt lat="50.42204" lon="3.6162">
        <ele>16.55</ele>
        <time>2021-04-09T13:02:06Z</time>
      </trkpt>
      <trkpt lat="50.42273" lon="3.61492">
        <ele>18.54</ele>
        <time>2021-04-09T13:02:11Z</time>
      </trkpt>
      <trkpt lat="50.42277" lon="3.61474">
        <ele>18.05</ele>
        <time>2021-04-09T13:02:16Z</time>
      </trkpt>
      <trkpt lat="50.42282" lon="3.61404">
        <ele>17</ele>
        <time>2021-04-09T13:02:21Z</time>
      </trkpt>
      <trkpt lat="50.42285" lon="3.61387">
        <ele>16.98</ele>
        <time>2021-04-09T13:02:26Z</time>
      </trkpt>
      <trkpt lat="50.42289" lon="3.61369">
        <ele>16.71</ele>
        <time>2021-04-09T13:02:31Z</time>
      </trkpt>
      <trkpt lat="50.42405" lon="3.61088">
        <ele>16</ele>
        <time>2021-04-09T13:02:36Z</time>
      </trkpt>
      <trkpt lat="50.42427" lon="3.61022">
        <ele>16</ele>
        <time>2021-04-09T13:02:41Z</time>
      </trkpt>
      <trkpt lat="50.42464" lon="3.60896">
        <ele>17.21</ele>
        <time>2021-04-09T13:02:46Z</time>
      </trkpt>
      <trkpt lat="50.42509" lon="3.60751">
        <ele>16.01</ele>
        <time>2021-04-09T13:02:51Z</time>
      </trkpt>
      <trkpt lat="50.42522" lon="3.60706">
        <ele>16.48</ele>
        <time>2021-04-09T13:02:56Z</time>
      </trkpt>
      <trkpt lat="50.42529" lon="3.60665">
        <ele>17.06</ele>
        <time>2021-04-09T13:03:01Z</time>
      </trkpt>
      <trkpt lat="50.42544" lon="3.60527">
        <ele>22.21</ele>
        <time>2021-04-09T13:03:06Z</time>
      </trkpt>
      <trkpt lat="50.42548" lon="3.60445">
        <ele>22.46</ele>
        <time>2021-04-09T13:03:11Z</time>
      </trkpt>
      <trkpt lat="50.42547" lon="3.604">
        <ele>20.81</ele>
        <time>2021-04-09T13:03:16Z</time>
      </trkpt>
      <trkpt lat="50.42545" lon="3.60375">
        <ele>19.74</ele>
        <time>2021-04-09T13:03:21Z</time>
      </trkpt>
      <trkpt lat="50.42548" lon="3.60352">
        <ele>19.43</ele>
        <time>2021-04-09T13:03:26Z</time>
      </trkpt>
      <trkpt lat="50.42577" lon="3.60255">
        <ele>15.95</ele>
        <time>2021-04-09T13:03:31Z</time>
      </trkpt>
      <trkpt lat="50.42579" lon="3.60238">
        <ele>15.49</ele>
        <time>2021-04-09T13:03:36Z</time>
      </trkpt>
      <trkpt lat="50.42569" lon="3.59787">
        <ele>13.62</ele>
        <time>2021-04-09T13:03:41Z</time>
      </trkpt>
      <trkpt lat="50.42687" lon="3.59867">
        <ele>16.51</ele>
        <time>2021-04-09T13:03:48Z</time>
      </trkpt>
      <trkpt lat="50.42805" lon="3.59943">
        <ele>15.03</ele>
        <time>2021-04-09T13:03:55Z</time>
      </trkpt>
      <trkpt lat="50.43373" lon="3.60281">
        <ele>20</ele>
        <time>2021-04-09T13:04:01Z</time>
      </trkpt>
      <trkpt lat="50.43421" lon="3.60303">
        <ele>19</ele>
        <time>2021-04-09T13:04:08Z</time>
      </trkpt>
      <trkpt lat="50.4347" lon="3.60322">
        <ele>20.32</ele>
        <time>2021-04-09T13:04:15Z</time>
      </trkpt>
      <trkpt lat="50.43546" lon="3.60338">
        <ele>17.15</ele>
        <time>2021-04-09T13:04:21Z</time>
      </trkpt>
      <trkpt lat="50.43573" lon="3.60339">
        <ele>17.82</ele>
        <time>2021-04-09T13:04:28Z</time>
      </trkpt>
      <trkpt lat="50.4365" lon="3.60333">
        <ele>17.59</ele>
        <time>2021-04-09T13:04:34Z</time>
      </trkpt>
      <trkpt lat="50.43671" lon="3.60335">
        <ele>17</ele>
        <time>2021-04-09T13:04:41Z</time>
      </trkpt>
      <trkpt lat="50.43677" lon="3.60342">
        <ele>17</ele>
        <time>2021-04-09T13:04:42Z</time>
      </trkpt>
      <trkpt lat="50.43691" lon="3.60348">
        <ele>17</ele>
        <time>2021-04-09T13:04:42Z</time>
      </trkpt>
      <trkpt lat="50.43701" lon="3.60346">
        <ele>16.56</ele>
        <time>2021-04-09T13:04:43Z</time>
      </trkpt>
      <trkpt lat="50.4371" lon="3.60336">
        <ele>15.87</ele>
        <time>2021-04-09T13:04:43Z</time>
      </trkpt>
      <trkpt lat="50.43714" lon="3.60329">
        <ele>15.9</ele>
        <time>2021-04-09T13:04:44Z</time>
      </trkpt>
      <trkpt lat="50.43718" lon="3.60313">
        <ele>16.74</ele>
        <time>2021-04-09T13:04:44Z</time>
      </trkpt>
      <trkpt lat="50.43724" lon="3.60305">
        <ele>16.81</ele>
        <time>2021-04-09T13:04:48Z</time>
      </trkpt>
      <trkpt lat="50.43786" lon="3.60267">
        <ele>14.07</ele>
        <time>2021-04-09T13:04:51Z</time>
      </trkpt>
      <trkpt lat="50.43807" lon="3.60245">
        <ele>13.96</ele>
        <time>2021-04-09T13:04:55Z</time>
      </trkpt>
      <trkpt lat="50.43837" lon="3.60219">
        <ele>13.11</ele>
        <time>2021-04-09T13:04:59Z</time>
      </trkpt>
      <trkpt lat="50.43876" lon="3.60177">
        <ele>14</ele>
        <time>2021-04-09T13:05:02Z</time>
      </trkpt>
      <trkpt lat="50.44178" lon="3.59832">
        <ele>14.39</ele>
        <time>2021-04-09T13:05:06Z</time>
      </trkpt>
      <trkpt lat="50.44226" lon="3.59774">
        <ele>15.54</ele>
        <time>2021-04-09T13:05:10Z</time>
      </trkpt>
      <trkpt lat="50.44297" lon="3.59664">
        <ele>14.38</ele>
        <time>2021-04-09T13:05:13Z</time>
      </trkpt>
      <trkpt lat="50.44316" lon="3.59627">
        <ele>15.27</ele>
        <time>2021-04-09T13:05:17Z</time>
      </trkpt>
      <trkpt lat="50.44339" lon="3.59571">
        <ele>14.79</ele>
        <time>2021-04-09T13:05:20Z</time>
      </trkpt>
      <trkpt lat="50.44357" lon="3.59519">
        <ele>16.26</ele>
        <time>2021-04-09T13:05:24Z</time>
      </trkpt>
      <trkpt lat="50.44378" lon="3.59434">
        <ele>18.38</ele>
        <time>2021-04-09T13:05:28Z</time>
      </trkpt>
      <trkpt lat="50.44395" lon="3.59372">
        <ele>18.45</ele>
        <time>2021-04-09T13:05:31Z</time>
      </trkpt>
      <trkpt lat="50.44412" lon="3.59292">
        <ele>19.39</ele>
        <time>2021-04-09T13:05:35Z</time>
      </trkpt>
      <trkpt lat="50.44423" lon="3.59234">
        <ele>19</ele>
        <time>2021-04-09T13:05:39Z</time>
      </trkpt>
      <trkpt lat="50.44458" lon="3.59098">
        <ele>20.24</ele>
        <time>2021-04-09T13:05:42Z</time>
      </trkpt>
      <trkpt lat="50.44484" lon="3.59024">
        <ele>22</ele>
        <time>2021-04-09T13:05:46Z</time>
      </trkpt>
      <trkpt lat="50.44512" lon="3.58964">
        <ele>21</ele>
        <time>2021-04-09T13:05:50Z</time>
      </trkpt>
      <trkpt lat="50.44607" lon="3.58798">
        <ele>17.55</ele>
        <time>2021-04-09T13:05:53Z</time>
      </trkpt>
      <trkpt lat="50.44631" lon="3.58753">
        <ele>18.26</ele>
        <time>2021-04-09T13:05:57Z</time>
      </trkpt>
      <trkpt lat="50.44644" lon="3.58719">
        <ele>17.92</ele>
        <time>2021-04-09T13:06:00Z</time>
      </trkpt>
      <trkpt lat="50.44671" lon="3.58616">
        <ele>18.34</ele>
        <time>2021-04-09T13:06:04Z</time>
      </trkpt>
      <trkpt lat="50.44677" lon="3.58606">
        <ele>18.5</ele>
        <time>2021-04-09T13:06:08Z</time>
      </trkpt>
      <trkpt lat="50.4469" lon="3.58598">
        <ele>18.78</ele>
        <time>2021-04-09T13:06:11Z</time>
      </trkpt>
      <trkpt lat="50.44696" lon="3.58595">
        <ele>18.97</ele>
        <time>2021-04-09T13:06:13Z</time>
      </trkpt>
      <trkpt lat="50.44701" lon="3.58589">
        <ele>19.11</ele>
        <time>2021-04-09T13:06:15Z</time>
      </trkpt>
      <trkpt lat="50.44705" lon="3.58581">
        <ele>19.1</ele>
        <time>2021-04-09T13:06:17Z</time>
      </trkpt>
      <trkpt lat="50.44708" lon="3.58571">
        <ele>19</ele>
        <time>2021-04-09T13:06:19Z</time>
      </trkpt>
      <trkpt lat="50.44708" lon="3.58561">
        <ele>18.67</ele>
        <time>2021-04-09T13:06:21Z</time>
      </trkpt>
      <trkpt lat="50.44707" lon="3.58551">
        <ele>18.41</ele>
        <time>2021-04-09T13:06:23Z</time>
      </trkpt>
      <trkpt lat="50.4471" lon="3.58536">
        <ele>18.95</ele>
        <time>2021-04-09T13:06:25Z</time>
      </trkpt>
      <trkpt lat="50.44716" lon="3.58521">
        <ele>19.56</ele>
        <time>2021-04-09T13:06:27Z</time>
      </trkpt>
      <trkpt lat="50.44729" lon="3.585">
        <ele>19.77</ele>
        <time>2021-04-09T13:06:29Z</time>
      </trkpt>
      <trkpt lat="50.44743" lon="3.58484">
        <ele>19.83</ele>
        <time>2021-04-09T13:06:31Z</time>
      </trkpt>
      <trkpt lat="50.44758" lon="3.58473">
        <ele>19.69</ele>
        <time>2021-04-09T13:06:33Z</time>
      </trkpt>
      <trkpt lat="50.44782" lon="3.58459">
        <ele>19.47</ele>
        <time>2021-04-09T13:06:35Z</time>
      </trkpt>
      <trkpt lat="50.44822" lon="3.58444">
        <ele>19.99</ele>
        <time>2021-04-09T13:06:37Z</time>
      </trkpt>
      <trkpt lat="50.44845" lon="3.58441">
        <ele>19.08</ele>
        <time>2021-04-09T13:06:39Z</time>
      </trkpt>
      <trkpt lat="50.44903" lon="3.58447">
        <ele>16.1</ele>
        <time>2021-04-09T13:06:41Z</time>
      </trkpt>
      <trkpt lat="50.44939" lon="3.58463">
        <ele>17.46</ele>
        <time>2021-04-09T13:06:43Z</time>
      </trkpt>
      <trkpt lat="50.44975" lon="3.58487">
        <ele>19.68</ele>
        <time>2021-04-09T13:06:45Z</time>
      </trkpt>
      <trkpt lat="50.45236" lon="3.58792">
        <ele>28.48</ele>
        <time>2021-04-09T13:06:47Z</time>
      </trkpt>
      <trkpt lat="50.45272" lon="3.58848">
        <ele>25.81</ele>
        <time>2021-04-09T13:06:49Z</time>
      </trkpt>
      <trkpt lat="50.45295" lon="3.58893">
        <ele>27.62</ele>
        <time>2021-04-09T13:06:51Z</time>
      </trkpt>
      <trkpt lat="50.45299" lon="3.58906">
        <ele>27.78</ele>
        <time>2021-04-09T13:06:53Z</time>
      </trkpt>
      <trkpt lat="50.45298" lon="3.58912">
        <ele>27.73</ele>
        <time>2021-04-09T13:06:53Z</time>
      </trkpt>
      <trkpt lat="50.453" lon="3.58928">
        <ele>27.87</ele>
        <time>2021-04-09T13:06:54Z</time>
      </trkpt>
      <trkpt lat="50.45306" lon="3.5894">
        <ele>28</ele>
        <time>2021-04-09T13:06:55Z</time>
      </trkpt>
      <trkpt lat="50.45316" lon="3.58946">
        <ele>27.98</ele>
        <time>2021-04-09T13:06:56Z</time>
      </trkpt>
      <trkpt lat="50.45322" lon="3.58944">
        <ele>28</ele>
        <time>2021-04-09T13:06:57Z</time>
      </trkpt>
      <trkpt lat="50.45327" lon="3.5894">
        <ele>27.87</ele>
        <time>2021-04-09T13:06:58Z</time>
      </trkpt>
      <trkpt lat="50.45332" lon="3.58933">
        <ele>27.62</ele>
        <time>2021-04-09T13:06:59Z</time>
      </trkpt>
      <trkpt lat="50.45335" lon="3.58921">
        <ele>27.13</ele>
        <time>2021-04-09T13:06:59Z</time>
      </trkpt>
      <trkpt lat="50.45334" lon="3.58908">
        <ele>27</ele>
        <time>2021-04-09T13:07:00Z</time>
      </trkpt>
      <trkpt lat="50.4533" lon="3.58897">
        <ele>27.11</ele>
        <time>2021-04-09T13:07:01Z</time>
      </trkpt>
      <trkpt lat="50.4533" lon="3.58878">
        <ele>27.08</ele>
        <time>2021-04-09T13:07:02Z</time>
      </trkpt>
      <trkpt lat="50.45393" lon="3.58796">
        <ele>27.13</ele>
        <time>2021-04-09T13:07:10Z</time>
      </trkpt>
      <trkpt lat="50.45555" lon="3.58569">
        <ele>26.53</ele>
        <time>2021-04-09T13:07:18Z</time>
      </trkpt>
      <trkpt lat="50.45702" lon="3.5837">
        <ele>25.24</ele>
        <time>2021-04-09T13:07:27Z</time>
      </trkpt>
      <trkpt lat="50.45802" lon="3.5823">
        <ele>26.13</ele>
        <time>2021-04-09T13:07:35Z</time>
      </trkpt>
      <trkpt lat="50.45923" lon="3.58013">
        <ele>27.79</ele>
        <time>2021-04-09T13:07:43Z</time>
      </trkpt>
      <trkpt lat="50.45992" lon="3.57899">
        <ele>29</ele>
        <time>2021-04-09T13:07:51Z</time>
      </trkpt>
      <trkpt lat="50.46121" lon="3.57702">
        <ele>29.66</ele>
        <time>2021-04-09T13:08:00Z</time>
      </trkpt>
      <trkpt lat="50.46158" lon="3.57655">
        <ele>29.38</ele>
        <time>2021-04-09T13:08:08Z</time>
      </trkpt>
      <trkpt lat="50.46176" lon="3.57628">
        <ele>28.55</ele>
        <time>2021-04-09T13:08:16Z</time>
      </trkpt>
      <trkpt lat="50.46207" lon="3.57589">
        <ele>27.45</ele>
        <time>2021-04-09T13:08:24Z</time>
      </trkpt>
      <trkpt lat="50.46229" lon="3.57566">
        <ele>26.77</ele>
        <time>2021-04-09T13:08:33Z</time>
      </trkpt>
      <trkpt lat="50.46254" lon="3.57548">
        <ele>25.86</ele>
        <time>2021-04-09T13:08:41Z</time>
      </trkpt>
      <trkpt lat="50.46322" lon="3.57529">
        <ele>27.05</ele>
        <time>2021-04-09T13:08:49Z</time>
      </trkpt>
      <trkpt lat="50.46391" lon="3.57514">
        <ele>28.06</ele>
        <time>2021-04-09T13:08:57Z</time>
      </trkpt>
      <trkpt lat="50.46691" lon="3.57369">
        <ele>32.59</ele>
        <time>2021-04-09T13:09:05Z</time>
      </trkpt>
      <trkpt lat="50.4672" lon="3.57362">
        <ele>32.08</ele>
        <time>2021-04-09T13:09:14Z</time>
      </trkpt>
      <trkpt lat="50.46757" lon="3.57364">
        <ele>30</ele>
        <time>2021-04-09T13:09:22Z</time>
      </trkpt>
      <trkpt lat="50.46793" lon="3.5737">
        <ele>30.56</ele>
        <time>2021-04-09T13:09:30Z</time>
      </trkpt>
      <trkpt lat="50.46803" lon="3.57367">
        <ele>30.89</ele>
        <time>2021-04-09T13:09:38Z</time>
      </trkpt>
      <trkpt lat="50.46809" lon="3.5737">
        <ele>31.14</ele>
        <time>2021-04-09T13:09:47Z</time>
      </trkpt>
      <trkpt lat="50.46804" lon="3.57327">
        <ele>30.95</ele>
        <time>2021-04-09T13:09:51Z</time>
      </trkpt>
      <trkpt lat="50.46809" lon="3.57309">
        <ele>31.12</ele>
        <time>2021-04-09T13:09:56Z</time>
      </trkpt>
      <trkpt lat="50.4684" lon="3.57286">
        <ele>32.23</ele>
        <time>2021-04-09T13:10:00Z</time>
      </trkpt>
      <trkpt lat="50.46967" lon="3.57217">
        <ele>33</ele>
        <time>2021-04-09T13:10:05Z</time>
      </trkpt>
      <trkpt lat="50.46978" lon="3.57201">
        <ele>32.12</ele>
        <time>2021-04-09T13:10:10Z</time>
      </trkpt>
      <trkpt lat="50.46994" lon="3.57206">
        <ele>31.78</ele>
        <time>2021-04-09T13:10:11Z</time>
      </trkpt>
      <trkpt lat="50.4701" lon="3.57204">
        <ele>31.79</ele>
        <time>2021-04-09T13:10:13Z</time>
      </trkpt>
      <trkpt lat="50.47013" lon="3.57211">
        <ele>31.68</ele>
        <time>2021-04-09T13:10:17Z</time>
      </trkpt>
      <trkpt lat="50.47018" lon="3.57214">
        <ele>31.75</ele>
        <time>2021-04-09T13:10:21Z</time>
      </trkpt>
      <trkpt lat="50.47022" lon="3.57213">
        <ele>31.86</ele>
        <time>2021-04-09T13:10:26Z</time>
      </trkpt>
      <trkpt lat="50.47026" lon="3.57208">
        <ele>31.97</ele>
        <time>2021-04-09T13:10:30Z</time>
      </trkpt>
      <trkpt lat="50.47027" lon="3.57202">
        <ele>31.99</ele>
        <time>2021-04-09T13:10:34Z</time>
      </trkpt>
      <trkpt lat="50.47027" lon="3.57196">
        <ele>32</ele>
        <time>2021-04-09T13:10:38Z</time>
      </trkpt>
      <trkpt lat="50.47024" lon="3.5719">
        <ele>32</ele>
        <time>2021-04-09T13:10:43Z</time>
      </trkpt>
      <trkpt lat="50.47033" lon="3.57176">
        <ele>32.19</ele>
        <time>2021-04-09T13:10:47Z</time>
      </trkpt>
      <trkpt lat="50.47174" lon="3.57068">
        <ele>34</ele>
        <time>2021-04-09T13:10:51Z</time>
      </trkpt>
      <trkpt lat="50.47256" lon="3.57026">
        <ele>33.22</ele>
        <time>2021-04-09T13:10:55Z</time>
      </trkpt>
      <trkpt lat="50.47327" lon="3.57011">
        <ele>33.21</ele>
        <time>2021-04-09T13:11:00Z</time>
      </trkpt>
      <trkpt lat="50.47394" lon="3.56991">
        <ele>33.14</ele>
        <time>2021-04-09T13:11:04Z</time>
      </trkpt>
      <trkpt lat="50.47423" lon="3.56976">
        <ele>32.86</ele>
        <time>2021-04-09T13:11:08Z</time>
      </trkpt>
      <trkpt lat="50.47451" lon="3.56967">
        <ele>33.23</ele>
        <time>2021-04-09T13:11:12Z</time>
      </trkpt>
      <trkpt lat="50.47542" lon="3.56967">
        <ele>35</ele>
        <time>2021-04-09T13:11:17Z</time>
      </trkpt>
      <trkpt lat="50.47636" lon="3.56942">
        <ele>35</ele>
        <time>2021-04-09T13:11:21Z</time>
      </trkpt>
      <trkpt lat="50.47655" lon="3.56904">
        <ele>35</ele>
        <time>2021-04-09T13:11:25Z</time>
      </trkpt>
      <trkpt lat="50.47705" lon="3.56915">
        <ele>34.39</ele>
        <time>2021-04-09T13:11:29Z</time>
      </trkpt>
      <trkpt lat="50.47722" lon="3.56916">
        <ele>35</ele>
        <time>2021-04-09T13:11:34Z</time>
      </trkpt>
      <trkpt lat="50.47735" lon="3.56911">
        <ele>35</ele>
        <time>2021-04-09T13:11:38Z</time>
      </trkpt>
      <trkpt lat="50.47749" lon="3.56901">
        <ele>35</ele>
        <time>2021-04-09T13:11:43Z</time>
      </trkpt>
      <trkpt lat="50.47801" lon="3.56849">
        <ele>34.37</ele>
        <time>2021-04-09T13:11:47Z</time>
      </trkpt>
      <trkpt lat="50.47827" lon="3.56819">
        <ele>34.24</ele>
        <time>2021-04-09T13:11:52Z</time>
      </trkpt>
      <trkpt lat="50.47882" lon="3.56749">
        <ele>34</ele>
        <time>2021-04-09T13:11:56Z</time>
      </trkpt>
      <trkpt lat="50.48095" lon="3.56458">
        <ele>34</ele>
        <time>2021-04-09T13:12:01Z</time>
      </trkpt>
      <trkpt lat="50.48148" lon="3.56376">
        <ele>33.83</ele>
        <time>2021-04-09T13:12:05Z</time>
      </trkpt>
      <trkpt lat="50.48228" lon="3.56227">
        <ele>35</ele>
        <time>2021-04-09T13:12:10Z</time>
      </trkpt>
      <trkpt lat="50.48293" lon="3.56089">
        <ele>36.9</ele>
        <time>2021-04-09T13:12:14Z</time>
      </trkpt>
      <trkpt lat="50.483" lon="3.56072">
        <ele>37</ele>
        <time>2021-04-09T13:12:18Z</time>
      </trkpt>
      <trkpt lat="50.48335" lon="3.55953">
        <ele>37</ele>
        <time>2021-04-09T13:12:23Z</time>
      </trkpt>
      <trkpt lat="50.48343" lon="3.55933">
        <ele>36.57</ele>
        <time>2021-04-09T13:12:27Z</time>
      </trkpt>
      <trkpt lat="50.48354" lon="3.55911">
        <ele>36</ele>
        <time>2021-04-09T13:12:32Z</time>
      </trkpt>
      <trkpt lat="50.48405" lon="3.5583">
        <ele>36.29</ele>
        <time>2021-04-09T13:12:36Z</time>
      </trkpt>
      <trkpt lat="50.48433" lon="3.55796">
        <ele>34.41</ele>
        <time>2021-04-09T13:12:41Z</time>
      </trkpt>
      <trkpt lat="50.48538" lon="3.55689">
        <ele>36</ele>
        <time>2021-04-09T13:12:45Z</time>
      </trkpt>
      <trkpt lat="50.48598" lon="3.55638">
        <ele>36.03</ele>
        <time>2021-04-09T13:12:50Z</time>
      </trkpt>
      <trkpt lat="50.48624" lon="3.55619">
        <ele>36.71</ele>
        <time>2021-04-09T13:12:54Z</time>
      </trkpt>
      <trkpt lat="50.48754" lon="3.55549">
        <ele>34</ele>
        <time>2021-04-09T13:12:59Z</time>
      </trkpt>
      <trkpt lat="50.48818" lon="3.55506">
        <ele>34.46</ele>
        <time>2021-04-09T13:13:03Z</time>
      </trkpt>
      <trkpt lat="50.48865" lon="3.55473">
        <ele>35</ele>
        <time>2021-04-09T13:13:07Z</time>
      </trkpt>
      <trkpt lat="50.48921" lon="3.55421">
        <ele>34.13</ele>
        <time>2021-04-09T13:13:12Z</time>
      </trkpt>
      <trkpt lat="50.48963" lon="3.55377">
        <ele>34</ele>
        <time>2021-04-09T13:13:16Z</time>
      </trkpt>
      <trkpt lat="50.48992" lon="3.55343">
        <ele>34</ele>
        <time>2021-04-09T13:13:21Z</time>
      </trkpt>
      <trkpt lat="50.49016" lon="3.55301">
        <ele>34</ele>
        <time>2021-04-09T13:13:25Z</time>
      </trkpt>
      <trkpt lat="50.49077" lon="3.55184">
        <ele>36</ele>
        <time>2021-04-09T13:13:30Z</time>
      </trkpt>
      <trkpt lat="50.4908" lon="3.5518">
        <ele>36</ele>
        <time>2021-04-09T13:13:34Z</time>
      </trkpt>
      <trkpt lat="50.49088" lon="3.55174">
        <ele>35.65</ele>
        <time>2021-04-09T13:13:39Z</time>
      </trkpt>
      <trkpt lat="50.49232" lon="3.55129">
        <ele>31.64</ele>
        <time>2021-04-09T13:13:43Z</time>
      </trkpt>
      <trkpt lat="50.49438" lon="3.55057">
        <ele>24</ele>
        <time>2021-04-09T13:13:48Z</time>
      </trkpt>
      <trkpt lat="50.49489" lon="3.55026">
        <ele>22.4</ele>
        <time>2021-04-09T13:13:52Z</time>
      </trkpt>
      <trkpt lat="50.49616" lon="3.54924">
        <ele>18</ele>
        <time>2021-04-09T13:13:56Z</time>
      </trkpt>
      <trkpt lat="50.49651" lon="3.54898">
        <ele>18</ele>
        <time>2021-04-09T13:14:01Z</time>
      </trkpt>
      <trkpt lat="50.49671" lon="3.54894">
        <ele>18</ele>
        <time>2021-04-09T13:14:05Z</time>
      </trkpt>
      <trkpt lat="50.49777" lon="3.54888">
        <ele>19.99</ele>
        <time>2021-04-09T13:14:10Z</time>
      </trkpt>
      <trkpt lat="50.49797" lon="3.5488">
        <ele>20.23</ele>
        <time>2021-04-09T13:14:14Z</time>
      </trkpt>
      <trkpt lat="50.49889" lon="3.54823">
        <ele>20.61</ele>
        <time>2021-04-09T13:14:19Z</time>
      </trkpt>
      <trkpt lat="50.49914" lon="3.54813">
        <ele>21.16</ele>
        <time>2021-04-09T13:14:23Z</time>
      </trkpt>
      <trkpt lat="50.49937" lon="3.54813">
        <ele>22.71</ele>
        <time>2021-04-09T13:14:28Z</time>
      </trkpt>
      <trkpt lat="50.50054" lon="3.54837">
        <ele>26.88</ele>
        <time>2021-04-09T13:14:32Z</time>
      </trkpt>
      <trkpt lat="50.50079" lon="3.54839">
        <ele>28.65</ele>
        <time>2021-04-09T13:14:37Z</time>
      </trkpt>
      <trkpt lat="50.50262" lon="3.5483">
        <ele>27.5</ele>
        <time>2021-04-09T13:14:41Z</time>
      </trkpt>
      <trkpt lat="50.50278" lon="3.54825">
        <ele>27</ele>
        <time>2021-04-09T13:14:45Z</time>
      </trkpt>
      <trkpt lat="50.50289" lon="3.54817">
        <ele>26.61</ele>
        <time>2021-04-09T13:14:50Z</time>
      </trkpt>
      <trkpt lat="50.50297" lon="3.54806">
        <ele>26.32</ele>
        <time>2021-04-09T13:14:54Z</time>
      </trkpt>
      <trkpt lat="50.50302" lon="3.54793">
        <ele>26.14</ele>
        <time>2021-04-09T13:14:59Z</time>
      </trkpt>
      <trkpt lat="50.50332" lon="3.54644">
        <ele>27.18</ele>
        <time>2021-04-09T13:15:03Z</time>
      </trkpt>
      <trkpt lat="50.50483" lon="3.53914">
        <ele>24.4</ele>
        <time>2021-04-09T13:15:08Z</time>
      </trkpt>
      <trkpt lat="50.50486" lon="3.53888">
        <ele>24.46</ele>
        <time>2021-04-09T13:15:12Z</time>
      </trkpt>
      <trkpt lat="50.50485" lon="3.53867">
        <ele>24.11</ele>
        <time>2021-04-09T13:15:17Z</time>
      </trkpt>
      <trkpt lat="50.50476" lon="3.53733">
        <ele>24</ele>
        <time>2021-04-09T13:15:21Z</time>
      </trkpt>
      <trkpt lat="50.50491" lon="3.53686">
        <ele>23.33</ele>
        <time>2021-04-09T13:15:26Z</time>
      </trkpt>
      <trkpt lat="50.50536" lon="3.53592">
        <ele>21.48</ele>
        <time>2021-04-09T13:15:30Z</time>
      </trkpt>
      <trkpt lat="50.50569" lon="3.53519">
        <ele>20</ele>
        <time>2021-04-09T13:15:34Z</time>
      </trkpt>
      <trkpt lat="50.50581" lon="3.53484">
        <ele>20</ele>
        <time>2021-04-09T13:15:39Z</time>
      </trkpt>
      <trkpt lat="50.50593" lon="3.53457">
        <ele>19.66</ele>
        <time>2021-04-09T13:15:43Z</time>
      </trkpt>
      <trkpt lat="50.50602" lon="3.53442">
        <ele>19.31</ele>
        <time>2021-04-09T13:15:48Z</time>
      </trkpt>
      <trkpt lat="50.50685" lon="3.53328">
        <ele>21.4</ele>
        <time>2021-04-09T13:15:52Z</time>
      </trkpt>
      <trkpt lat="50.50714" lon="3.53307">
        <ele>22.72</ele>
        <time>2021-04-09T13:15:57Z</time>
      </trkpt>
      <trkpt lat="50.50735" lon="3.53297">
        <ele>23</ele>
        <time>2021-04-09T13:16:01Z</time>
      </trkpt>
      <trkpt lat="50.50797" lon="3.53278">
        <ele>24.7</ele>
        <time>2021-04-09T13:16:06Z</time>
      </trkpt>
      <trkpt lat="50.50816" lon="3.53275">
        <ele>24.63</ele>
        <time>2021-04-09T13:16:10Z</time>
      </trkpt>
      <trkpt lat="50.50838" lon="3.53277">
        <ele>24.17</ele>
        <time>2021-04-09T13:16:15Z</time>
      </trkpt>
      <trkpt lat="50.50847" lon="3.53274">
        <ele>24.49</ele>
        <time>2021-04-09T13:16:19Z</time>
      </trkpt>
      <trkpt lat="50.50856" lon="3.53266">
        <ele>24.81</ele>
        <time>2021-04-09T13:16:23Z</time>
      </trkpt>
      <trkpt lat="50.50877" lon="3.53244">
        <ele>25</ele>
        <time>2021-04-09T13:16:28Z</time>
      </trkpt>
      <trkpt lat="50.50894" lon="3.53219">
        <ele>25.11</ele>
        <time>2021-04-09T13:16:32Z</time>
      </trkpt>
      <trkpt lat="50.50943" lon="3.53121">
        <ele>26.69</ele>
        <time>2021-04-09T13:16:37Z</time>
      </trkpt>
      <trkpt lat="50.5095" lon="3.53112">
        <ele>26.98</ele>
        <time>2021-04-09T13:16:41Z</time>
      </trkpt>
      <trkpt lat="50.50985" lon="3.53093">
        <ele>27.29</ele>
        <time>2021-04-09T13:16:46Z</time>
      </trkpt>
      <trkpt lat="50.51023" lon="3.53078">
        <ele>28</ele>
        <time>2021-04-09T13:16:50Z</time>
      </trkpt>
      <trkpt lat="50.5104" lon="3.53064">
        <ele>27.55</ele>
        <time>2021-04-09T13:16:55Z</time>
      </trkpt>
      <trkpt lat="50.51072" lon="3.53025">
        <ele>27.49</ele>
        <time>2021-04-09T13:16:59Z</time>
      </trkpt>
      <trkpt lat="50.51108" lon="3.52967">
        <ele>27.1</ele>
        <time>2021-04-09T13:17:04Z</time>
      </trkpt>
      <trkpt lat="50.51165" lon="3.52884">
        <ele>25.22</ele>
        <time>2021-04-09T13:17:08Z</time>
      </trkpt>
      <trkpt lat="50.51183" lon="3.52863">
        <ele>25.32</ele>
        <time>2021-04-09T13:17:12Z</time>
      </trkpt>
      <trkpt lat="50.51214" lon="3.52837">
        <ele>24.28</ele>
        <time>2021-04-09T13:17:17Z</time>
      </trkpt>
      <trkpt lat="50.51259" lon="3.52794">
        <ele>24.68</ele>
        <time>2021-04-09T13:17:21Z</time>
      </trkpt>
      <trkpt lat="50.51267" lon="3.52785">
        <ele>24.39</ele>
        <time>2021-04-09T13:17:26Z</time>
      </trkpt>
      <trkpt lat="50.51421" lon="3.52636">
        <ele>24</ele>
        <time>2021-04-09T13:17:30Z</time>
      </trkpt>
      <trkpt lat="50.51438" lon="3.52622">
        <ele>24</ele>
        <time>2021-04-09T13:17:35Z</time>
      </trkpt>
      <trkpt lat="50.51453" lon="3.52614">
        <ele>23.71</ele>
        <time>2021-04-09T13:17:39Z</time>
      </trkpt>
      <trkpt lat="50.51464" lon="3.5261">
        <ele>23.31</ele>
        <time>2021-04-09T13:17:44Z</time>
      </trkpt>
      <trkpt lat="50.51481" lon="3.52612">
        <ele>23</ele>
        <time>2021-04-09T13:17:48Z</time>
      </trkpt>
      <trkpt lat="50.51612" lon="3.52657">
        <ele>25.65</ele>
        <time>2021-04-09T13:17:53Z</time>
      </trkpt>
      <trkpt lat="50.51943" lon="3.52672">
        <ele>27</ele>
        <time>2021-04-09T13:17:57Z</time>
      </trkpt>
      <trkpt lat="50.52079" lon="3.52637">
        <ele>28</ele>
        <time>2021-04-09T13:18:01Z</time>
      </trkpt>
      <trkpt lat="50.52239" lon="3.52579">
        <ele>32.24</ele>
        <time>2021-04-09T13:18:06Z</time>
      </trkpt>
      <trkpt lat="50.52285" lon="3.52565">
        <ele>33</ele>
        <time>2021-04-09T13:18:10Z</time>
      </trkpt>
      <trkpt lat="50.52318" lon="3.52567">
        <ele>33</ele>
        <time>2021-04-09T13:18:15Z</time>
      </trkpt>
      <trkpt lat="50.52355" lon="3.52578">
        <ele>32.2</ele>
        <time>2021-04-09T13:18:19Z</time>
      </trkpt>
      <trkpt lat="50.52525" lon="3.52637">
        <ele>31.25</ele>
        <time>2021-04-09T13:18:24Z</time>
      </trkpt>
      <trkpt lat="50.52544" lon="3.5264">
        <ele>30.95</ele>
        <time>2021-04-09T13:18:28Z</time>
      </trkpt>
      <trkpt lat="50.52577" lon="3.52639">
        <ele>31.78</ele>
        <time>2021-04-09T13:18:33Z</time>
      </trkpt>
      <trkpt lat="50.52622" lon="3.52631">
        <ele>33</ele>
        <time>2021-04-09T13:18:37Z</time>
      </trkpt>
      <trkpt lat="50.52648" lon="3.52624">
        <ele>33.18</ele>
        <time>2021-04-09T13:18:42Z</time>
      </trkpt>
      <trkpt lat="50.52672" lon="3.52614">
        <ele>33.9</ele>
        <time>2021-04-09T13:18:46Z</time>
      </trkpt>
      <trkpt lat="50.52691" lon="3.52603">
        <ele>34.28</ele>
        <time>2021-04-09T13:18:50Z</time>
      </trkpt>
      <trkpt lat="50.52728" lon="3.52578">
        <ele>33.93</ele>
        <time>2021-04-09T13:18:55Z</time>
      </trkpt>
      <trkpt lat="50.52745" lon="3.52564">
        <ele>33.55</ele>
        <time>2021-04-09T13:18:59Z</time>
      </trkpt>
      <trkpt lat="50.52772" lon="3.52533">
        <ele>32.86</ele>
        <time>2021-04-09T13:19:04Z</time>
      </trkpt>
      <trkpt lat="50.52794" lon="3.52503">
        <ele>32.24</ele>
        <time>2021-04-09T13:19:08Z</time>
      </trkpt>
      <trkpt lat="50.52824" lon="3.52458">
        <ele>31.33</ele>
        <time>2021-04-09T13:19:13Z</time>
      </trkpt>
      <trkpt lat="50.52862" lon="3.52397">
        <ele>30.99</ele>
        <time>2021-04-09T13:19:17Z</time>
      </trkpt>
      <trkpt lat="50.52907" lon="3.52317">
        <ele>30</ele>
        <time>2021-04-09T13:19:22Z</time>
      </trkpt>
      <trkpt lat="50.52947" lon="3.52253">
        <ele>31.11</ele>
        <time>2021-04-09T13:19:26Z</time>
      </trkpt>
      <trkpt lat="50.52978" lon="3.52218">
        <ele>33</ele>
        <time>2021-04-09T13:19:30Z</time>
      </trkpt>
      <trkpt lat="50.52996" lon="3.52196">
        <ele>33</ele>
        <time>2021-04-09T13:19:35Z</time>
      </trkpt>
      <trkpt lat="50.53008" lon="3.52185">
        <ele>33</ele>
        <time>2021-04-09T13:19:39Z</time>
      </trkpt>
      <trkpt lat="50.53054" lon="3.52153">
        <ele>32.05</ele>
        <time>2021-04-09T13:19:44Z</time>
      </trkpt>
      <trkpt lat="50.53105" lon="3.52126">
        <ele>32</ele>
        <time>2021-04-09T13:19:48Z</time>
      </trkpt>
      <trkpt lat="50.53142" lon="3.52096">
        <ele>32.65</ele>
        <time>2021-04-09T13:19:53Z</time>
      </trkpt>
      <trkpt lat="50.53219" lon="3.52013">
        <ele>34</ele>
        <time>2021-04-09T13:19:57Z</time>
      </trkpt>
      <trkpt lat="50.53253" lon="3.51965">
        <ele>32.91</ele>
        <time>2021-04-09T13:20:02Z</time>
      </trkpt>
      <trkpt lat="50.53269" lon="3.51934">
        <ele>32.32</ele>
        <time>2021-04-09T13:20:06Z</time>
      </trkpt>
      <trkpt lat="50.53298" lon="3.51872">
        <ele>31.73</ele>
        <time>2021-04-09T13:20:11Z</time>
      </trkpt>
      <trkpt lat="50.53411" lon="3.51602">
        <ele>38.07</ele>
        <time>2021-04-09T13:20:15Z</time>
      </trkpt>
      <trkpt lat="50.53444" lon="3.51534">
        <ele>39.79</ele>
        <time>2021-04-09T13:20:19Z</time>
      </trkpt>
      <trkpt lat="50.53463" lon="3.51504">
        <ele>39.6</ele>
        <time>2021-04-09T13:20:24Z</time>
      </trkpt>
      <trkpt lat="50.53507" lon="3.51452">
        <ele>40.73</ele>
        <time>2021-04-09T13:20:28Z</time>
      </trkpt>
      <trkpt lat="50.53609" lon="3.51345">
        <ele>42.68</ele>
        <time>2021-04-09T13:20:33Z</time>
      </trkpt>
      <trkpt lat="50.5389" lon="3.51037">
        <ele>45.72</ele>
        <time>2021-04-09T13:20:37Z</time>
      </trkpt>
      <trkpt lat="50.54045" lon="3.50916">
        <ele>50</ele>
        <time>2021-04-09T13:20:42Z</time>
      </trkpt>
      <trkpt lat="50.54335" lon="3.50681">
        <ele>49</ele>
        <time>2021-04-09T13:20:46Z</time>
      </trkpt>
      <trkpt lat="50.54361" lon="3.5067">
        <ele>49</ele>
        <time>2021-04-09T13:20:51Z</time>
      </trkpt>
      <trkpt lat="50.54405" lon="3.50659">
        <ele>48.73</ele>
        <time>2021-04-09T13:20:55Z</time>
      </trkpt>
      <trkpt lat="50.54425" lon="3.50662">
        <ele>48.84</ele>
        <time>2021-04-09T13:21:00Z</time>
      </trkpt>
      <trkpt lat="50.54451" lon="3.50671">
        <ele>49.15</ele>
        <time>2021-04-09T13:21:04Z</time>
      </trkpt>
      <trkpt lat="50.5447" lon="3.50681">
        <ele>49.5</ele>
        <time>2021-04-09T13:21:08Z</time>
      </trkpt>
      <trkpt lat="50.54519" lon="3.50719">
        <ele>52.56</ele>
        <time>2021-04-09T13:21:13Z</time>
      </trkpt>
      <trkpt lat="50.55017" lon="3.51151">
        <ele>47.45</ele>
        <time>2021-04-09T13:21:17Z</time>
      </trkpt>
      <trkpt lat="50.55052" lon="3.51186">
        <ele>51.31</ele>
        <time>2021-04-09T13:21:22Z</time>
      </trkpt>
      <trkpt lat="50.55301" lon="3.51402">
        <ele>58.33</ele>
        <time>2021-04-09T13:21:26Z</time>
      </trkpt>
      <trkpt lat="50.55326" lon="3.51421">
        <ele>57.29</ele>
        <time>2021-04-09T13:21:31Z</time>
      </trkpt>
      <trkpt lat="50.5534" lon="3.51427">
        <ele>57</ele>
        <time>2021-04-09T13:21:35Z</time>
      </trkpt>
      <trkpt lat="50.55355" lon="3.5143">
        <ele>57</ele>
        <time>2021-04-09T13:21:40Z</time>
      </trkpt>
      <trkpt lat="50.55374" lon="3.51429">
        <ele>57</ele>
        <time>2021-04-09T13:21:44Z</time>
      </trkpt>
      <trkpt lat="50.55393" lon="3.51424">
        <ele>57.12</ele>
        <time>2021-04-09T13:21:49Z</time>
      </trkpt>
      <trkpt lat="50.55407" lon="3.51416">
        <ele>57.66</ele>
        <time>2021-04-09T13:21:53Z</time>
      </trkpt>
      <trkpt lat="50.5542" lon="3.51406">
        <ele>58</ele>
        <time>2021-04-09T13:21:57Z</time>
      </trkpt>
      <trkpt lat="50.55451" lon="3.51374">
        <ele>57.59</ele>
        <time>2021-04-09T13:22:02Z</time>
      </trkpt>
      <trkpt lat="50.55464" lon="3.51357">
        <ele>57.7</ele>
        <time>2021-04-09T13:22:07Z</time>
      </trkpt>
      <trkpt lat="50.55448" lon="3.51368">
        <ele>57.34</ele>
        <time>2021-04-09T13:22:08Z</time>
      </trkpt>
      <trkpt lat="50.55416" lon="3.51399">
        <ele>57.97</ele>
        <time>2021-04-09T13:22:09Z</time>
      </trkpt>
      <trkpt lat="50.55404" lon="3.51408">
        <ele>57.55</ele>
        <time>2021-04-09T13:22:10Z</time>
      </trkpt>
      <trkpt lat="50.5539" lon="3.51415">
        <ele>57.02</ele>
        <time>2021-04-09T13:22:11Z</time>
      </trkpt>
      <trkpt lat="50.55361" lon="3.51418">
        <ele>57</ele>
        <time>2021-04-09T13:22:12Z</time>
      </trkpt>
      <trkpt lat="50.55334" lon="3.51409">
        <ele>57</ele>
        <time>2021-04-09T13:22:13Z</time>
      </trkpt>
      <trkpt lat="50.55318" lon="3.51398">
        <ele>57.56</ele>
        <time>2021-04-09T13:22:14Z</time>
      </trkpt>
      <trkpt lat="50.55325" lon="3.51375">
        <ele>56.81</ele>
        <time>2021-04-09T13:22:19Z</time>
      </trkpt>
      <trkpt lat="50.55353" lon="3.51185">
        <ele>54.93</ele>
        <time>2021-04-09T13:22:24Z</time>
      </trkpt>
      <trkpt lat="50.55373" lon="3.511">
        <ele>55.1</ele>
        <time>2021-04-09T13:22:29Z</time>
      </trkpt>
      <trkpt lat="50.55381" lon="3.51073">
        <ele>55</ele>
        <time>2021-04-09T13:22:34Z</time>
      </trkpt>
      <trkpt lat="50.55387" lon="3.51041">
        <ele>54.97</ele>
        <time>2021-04-09T13:22:39Z</time>
      </trkpt>
      <trkpt lat="50.55494" lon="3.50774">
        <ele>51.86</ele>
        <time>2021-04-09T13:22:44Z</time>
      </trkpt>
      <trkpt lat="50.5556" lon="3.5062">
        <ele>50</ele>
        <time>2021-04-09T13:22:49Z</time>
      </trkpt>
      <trkpt lat="50.55619" lon="3.5049">
        <ele>46.72</ele>
        <time>2021-04-09T13:22:54Z</time>
      </trkpt>
      <trkpt lat="50.5568" lon="3.5036">
        <ele>45.51</ele>
        <time>2021-04-09T13:22:59Z</time>
      </trkpt>
      <trkpt lat="50.55775" lon="3.50166">
        <ele>42.19</ele>
        <time>2021-04-09T13:23:04Z</time>
      </trkpt>
      <trkpt lat="50.55842" lon="3.50034">
        <ele>38.68</ele>
        <time>2021-04-09T13:23:09Z</time>
      </trkpt>
      <trkpt lat="50.55975" lon="3.49791">
        <ele>35</ele>
        <time>2021-04-09T13:23:14Z</time>
      </trkpt>
      <trkpt lat="50.56045" lon="3.49671">
        <ele>33.75</ele>
        <time>2021-04-09T13:23:19Z</time>
      </trkpt>
      <trkpt lat="50.56117" lon="3.49551">
        <ele>33.83</ele>
        <time>2021-04-09T13:23:24Z</time>
      </trkpt>
      <trkpt lat="50.5619" lon="3.49438">
        <ele>35.25</ele>
        <time>2021-04-09T13:23:29Z</time>
      </trkpt>
      <trkpt lat="50.56264" lon="3.49328">
        <ele>38.99</ele>
        <time>2021-04-09T13:23:34Z</time>
      </trkpt>
      <trkpt lat="50.56343" lon="3.49222">
        <ele>35.33</ele>
        <time>2021-04-09T13:23:39Z</time>
      </trkpt>
      <trkpt lat="50.56423" lon="3.49123">
        <ele>36.21</ele>
        <time>2021-04-09T13:23:44Z</time>
      </trkpt>
      <trkpt lat="50.56508" lon="3.49027">
        <ele>40</ele>
        <time>2021-04-09T13:23:49Z</time>
      </trkpt>
      <trkpt lat="50.56594" lon="3.4894">
        <ele>41</ele>
        <time>2021-04-09T13:23:54Z</time>
      </trkpt>
      <trkpt lat="50.56681" lon="3.4886">
        <ele>42.03</ele>
        <time>2021-04-09T13:23:59Z</time>
      </trkpt>
      <trkpt lat="50.56773" lon="3.48784">
        <ele>43</ele>
        <time>2021-04-09T13:24:05Z</time>
      </trkpt>
      <trkpt lat="50.56867" lon="3.48715">
        <ele>42.97</ele>
        <time>2021-04-09T13:24:10Z</time>
      </trkpt>
      <trkpt lat="50.56959" lon="3.48655">
        <ele>45.27</ele>
        <time>2021-04-09T13:24:15Z</time>
      </trkpt>
      <trkpt lat="50.57063" lon="3.48593">
        <ele>47.71</ele>
        <time>2021-04-09T13:24:20Z</time>
      </trkpt>
      <trkpt lat="50.57157" lon="3.48542">
        <ele>49.33</ele>
        <time>2021-04-09T13:24:25Z</time>
      </trkpt>
      <trkpt lat="50.57256" lon="3.48492">
        <ele>53.62</ele>
        <time>2021-04-09T13:24:30Z</time>
      </trkpt>
      <trkpt lat="50.57352" lon="3.48445">
        <ele>55.66</ele>
        <time>2021-04-09T13:24:35Z</time>
      </trkpt>
      <trkpt lat="50.57867" lon="3.48205">
        <ele>69.34</ele>
        <time>2021-04-09T13:24:40Z</time>
      </trkpt>
      <trkpt lat="50.57947" lon="3.48164">
        <ele>67.86</ele>
        <time>2021-04-09T13:24:45Z</time>
      </trkpt>
      <trkpt lat="50.58072" lon="3.48094">
        <ele>65.86</ele>
        <time>2021-04-09T13:24:50Z</time>
      </trkpt>
      <trkpt lat="50.58239" lon="3.47982">
        <ele>63.17</ele>
        <time>2021-04-09T13:24:55Z</time>
      </trkpt>
      <trkpt lat="50.58383" lon="3.47851">
        <ele>58.21</ele>
        <time>2021-04-09T13:25:00Z</time>
      </trkpt>
      <trkpt lat="50.58472" lon="3.47766">
        <ele>50.25</ele>
        <time>2021-04-09T13:25:05Z</time>
      </trkpt>
      <trkpt lat="50.58859" lon="3.47364">
        <ele>38.9</ele>
        <time>2021-04-09T13:25:10Z</time>
      </trkpt>
      <trkpt lat="50.58943" lon="3.47267">
        <ele>37.04</ele>
        <time>2021-04-09T13:25:15Z</time>
      </trkpt>
      <trkpt lat="50.58985" lon="3.47215">
        <ele>36.88</ele>
        <time>2021-04-09T13:25:20Z</time>
      </trkpt>
      <trkpt lat="50.59026" lon="3.47159">
        <ele>35.3</ele>
        <time>2021-04-09T13:25:25Z</time>
      </trkpt>
      <trkpt lat="50.59103" lon="3.47049">
        <ele>35.44</ele>
        <time>2021-04-09T13:25:30Z</time>
      </trkpt>
      <trkpt lat="50.59176" lon="3.4693">
        <ele>37.04</ele>
        <time>2021-04-09T13:25:35Z</time>
      </trkpt>
      <trkpt lat="50.59242" lon="3.46807">
        <ele>36.23</ele>
        <time>2021-04-09T13:25:40Z</time>
      </trkpt>
      <trkpt lat="50.59312" lon="3.46661">
        <ele>40</ele>
        <time>2021-04-09T13:25:45Z</time>
      </trkpt>
      <trkpt lat="50.59341" lon="3.46594">
        <ele>39.26</ele>
        <time>2021-04-09T13:25:50Z</time>
      </trkpt>
      <trkpt lat="50.59368" lon="3.46528">
        <ele>38.28</ele>
        <time>2021-04-09T13:25:55Z</time>
      </trkpt>
      <trkpt lat="50.5942" lon="3.46392">
        <ele>36.78</ele>
        <time>2021-04-09T13:26:00Z</time>
      </trkpt>
      <trkpt lat="50.59467" lon="3.46249">
        <ele>37</ele>
        <time>2021-04-09T13:26:05Z</time>
      </trkpt>
      <trkpt lat="50.59511" lon="3.46094">
        <ele>39.17</ele>
        <time>2021-04-09T13:26:10Z</time>
      </trkpt>
      <trkpt lat="50.59571" lon="3.45868">
        <ele>39.39</ele>
        <time>2021-04-09T13:26:15Z</time>
      </trkpt>
      <trkpt lat="50.59607" lon="3.45715">
        <ele>36.17</ele>
        <time>2021-04-09T13:26:20Z</time>
      </trkpt>
      <trkpt lat="50.59639" lon="3.45558">
        <ele>38.09</ele>
        <time>2021-04-09T13:26:26Z</time>
      </trkpt>
      <trkpt lat="50.59653" lon="3.45477">
        <ele>38.38</ele>
        <time>2021-04-09T13:26:31Z</time>
      </trkpt>
      <trkpt lat="50.59685" lon="3.45266">
        <ele>41.67</ele>
        <time>2021-04-09T13:26:36Z</time>
      </trkpt>
      <trkpt lat="50.5978" lon="3.44614">
        <ele>37.91</ele>
        <time>2021-04-09T13:26:41Z</time>
      </trkpt>
      <trkpt lat="50.59802" lon="3.44474">
        <ele>39.78</ele>
        <time>2021-04-09T13:26:46Z</time>
      </trkpt>
      <trkpt lat="50.59822" lon="3.44359">
        <ele>37.54</ele>
        <time>2021-04-09T13:26:51Z</time>
      </trkpt>
      <trkpt lat="50.59845" lon="3.44246">
        <ele>37</ele>
        <time>2021-04-09T13:26:56Z</time>
      </trkpt>
      <trkpt lat="50.59873" lon="3.44126">
        <ele>38.88</ele>
        <time>2021-04-09T13:27:01Z</time>
      </trkpt>
      <trkpt lat="50.5989" lon="3.44063">
        <ele>41</ele>
        <time>2021-04-09T13:27:06Z</time>
      </trkpt>
      <trkpt lat="50.59911" lon="3.43992">
        <ele>41.25</ele>
        <time>2021-04-09T13:27:11Z</time>
      </trkpt>
      <trkpt lat="50.59928" lon="3.43941">
        <ele>39.87</ele>
        <time>2021-04-09T13:27:16Z</time>
      </trkpt>
      <trkpt lat="50.59944" lon="3.43897">
        <ele>39.93</ele>
        <time>2021-04-09T13:27:21Z</time>
      </trkpt>
      <trkpt lat="50.59971" lon="3.4383">
        <ele>40.78</ele>
        <time>2021-04-09T13:27:26Z</time>
      </trkpt>
      <trkpt lat="50.59998" lon="3.4377">
        <ele>40.59</ele>
        <time>2021-04-09T13:27:31Z</time>
      </trkpt>
      <trkpt lat="50.6003" lon="3.43707">
        <ele>40.37</ele>
        <time>2021-04-09T13:27:36Z</time>
      </trkpt>
      <trkpt lat="50.60098" lon="3.43591">
        <ele>38.22</ele>
        <time>2021-04-09T13:27:41Z</time>
      </trkpt>
      <trkpt lat="50.60155" lon="3.43509">
        <ele>38.39</ele>
        <time>2021-04-09T13:27:46Z</time>
      </trkpt>
      <trkpt lat="50.6022" lon="3.43434">
        <ele>37.54</ele>
        <time>2021-04-09T13:27:51Z</time>
      </trkpt>
      <trkpt lat="50.60263" lon="3.43389">
        <ele>37.93</ele>
        <time>2021-04-09T13:27:56Z</time>
      </trkpt>
      <trkpt lat="50.60307" lon="3.43349">
        <ele>38.49</ele>
        <time>2021-04-09T13:28:01Z</time>
      </trkpt>
      <trkpt lat="50.60352" lon="3.4331">
        <ele>34.99</ele>
        <time>2021-04-09T13:28:06Z</time>
      </trkpt>
      <trkpt lat="50.60399" lon="3.43275">
        <ele>35.74</ele>
        <time>2021-04-09T13:28:11Z</time>
      </trkpt>
      <trkpt lat="50.60467" lon="3.43227">
        <ele>33.83</ele>
        <time>2021-04-09T13:28:16Z</time>
      </trkpt>
      <trkpt lat="50.60543" lon="3.4318">
        <ele>31.69</ele>
        <time>2021-04-09T13:28:21Z</time>
      </trkpt>
      <trkpt lat="50.60764" lon="3.43058">
        <ele>28.46</ele>
        <time>2021-04-09T13:28:26Z</time>
      </trkpt>
      <trkpt lat="50.61352" lon="3.42737">
        <ele>24.43</ele>
        <time>2021-04-09T13:28:31Z</time>
      </trkpt>
      <trkpt lat="50.6163" lon="3.4259">
        <ele>26.52</ele>
        <time>2021-04-09T13:28:36Z</time>
      </trkpt>
      <trkpt lat="50.61762" lon="3.42526">
        <ele>26.18</ele>
        <time>2021-04-09T13:28:41Z</time>
      </trkpt>
      <trkpt lat="50.61916" lon="3.42462">
        <ele>30.39</ele>
        <time>2021-04-09T13:28:46Z</time>
      </trkpt>
      <trkpt lat="50.61979" lon="3.42439">
        <ele>30.62</ele>
        <time>2021-04-09T13:28:52Z</time>
      </trkpt>
      <trkpt lat="50.62147" lon="3.42385">
        <ele>30.13</ele>
        <time>2021-04-09T13:28:57Z</time>
      </trkpt>
      <trkpt lat="50.62341" lon="3.42327">
        <ele>27.1</ele>
        <time>2021-04-09T13:29:02Z</time>
      </trkpt>
      <trkpt lat="50.62537" lon="3.42298">
        <ele>30.67</ele>
        <time>2021-04-09T13:29:07Z</time>
      </trkpt>
      <trkpt lat="50.62645" lon="3.42272">
        <ele>28.05</ele>
        <time>2021-04-09T13:29:12Z</time>
      </trkpt>
      <trkpt lat="50.627" lon="3.42252">
        <ele>28.01</ele>
        <time>2021-04-09T13:29:17Z</time>
      </trkpt>
      <trkpt lat="50.6276" lon="3.42226">
        <ele>29.34</ele>
        <time>2021-04-09T13:29:22Z</time>
      </trkpt>
      <trkpt lat="50.62803" lon="3.42201">
        <ele>28.91</ele>
        <time>2021-04-09T13:29:27Z</time>
      </trkpt>
      <trkpt lat="50.62857" lon="3.42163">
        <ele>29.73</ele>
        <time>2021-04-09T13:29:32Z</time>
      </trkpt>
      <trkpt lat="50.62909" lon="3.42117">
        <ele>30.5</ele>
        <time>2021-04-09T13:29:37Z</time>
      </trkpt>
      <trkpt lat="50.62925" lon="3.4211">
        <ele>30.97</ele>
        <time>2021-04-09T13:29:41Z</time>
      </trkpt>
      <trkpt lat="50.62956" lon="3.42082">
        <ele>32.02</ele>
        <time>2021-04-09T13:29:45Z</time>
      </trkpt>
      <trkpt lat="50.63039" lon="3.41995">
        <ele>31.45</ele>
        <time>2021-04-09T13:29:50Z</time>
      </trkpt>
      <trkpt lat="50.63074" lon="3.41957">
        <ele>29.26</ele>
        <time>2021-04-09T13:29:54Z</time>
      </trkpt>
      <trkpt lat="50.631" lon="3.41925">
        <ele>28.32</ele>
        <time>2021-04-09T13:29:58Z</time>
      </trkpt>
      <trkpt lat="50.63133" lon="3.41877">
        <ele>28.18</ele>
        <time>2021-04-09T13:30:03Z</time>
      </trkpt>
      <trkpt lat="50.63156" lon="3.41838">
        <ele>28.59</ele>
        <time>2021-04-09T13:30:07Z</time>
      </trkpt>
      <trkpt lat="50.6317" lon="3.41813">
        <ele>28.57</ele>
        <time>2021-04-09T13:30:11Z</time>
      </trkpt>
      <trkpt lat="50.63228" lon="3.41696">
        <ele>25.92</ele>
        <time>2021-04-09T13:30:16Z</time>
      </trkpt>
      <trkpt lat="50.6324" lon="3.41684">
        <ele>26.23</ele>
        <time>2021-04-09T13:30:22Z</time>
      </trkpt>
      <trkpt lat="50.6325" lon="3.41678">
        <ele>26.59</ele>
        <time>2021-04-09T13:30:29Z</time>
      </trkpt>
      <trkpt lat="50.63349" lon="3.41706">
        <ele>28.38</ele>
        <time>2021-04-09T13:30:36Z</time>
      </trkpt>
      <trkpt lat="50.63538" lon="3.41746">
        <ele>29.23</ele>
        <time>2021-04-09T13:30:43Z</time>
      </trkpt>
      <trkpt lat="50.63643" lon="3.41777">
        <ele>29.98</ele>
        <time>2021-04-09T13:30:50Z</time>
      </trkpt>
      <trkpt lat="50.63687" lon="3.41781">
        <ele>30.91</ele>
        <time>2021-04-09T13:30:56Z</time>
      </trkpt>
      <trkpt lat="50.63926" lon="3.41839">
        <ele>28.86</ele>
        <time>2021-04-09T13:31:03Z</time>
      </trkpt>
      <trkpt lat="50.64235" lon="3.41916">
        <ele>29.53</ele>
        <time>2021-04-09T13:31:10Z</time>
      </trkpt>
      <trkpt lat="50.64251" lon="3.41923">
        <ele>28.98</ele>
        <time>2021-04-09T13:31:17Z</time>
      </trkpt>
      <trkpt lat="50.64318" lon="3.41961">
        <ele>26.56</ele>
        <time>2021-04-09T13:31:23Z</time>
      </trkpt>
      <trkpt lat="50.64328" lon="3.41974">
        <ele>26.18</ele>
        <time>2021-04-09T13:31:30Z</time>
      </trkpt>
      <trkpt lat="50.64365" lon="3.4205">
        <ele>26</ele>
        <time>2021-04-09T13:31:37Z</time>
      </trkpt>
      <trkpt lat="50.64457" lon="3.42257">
        <ele>29.59</ele>
        <time>2021-04-09T13:31:44Z</time>
      </trkpt>
      <trkpt lat="50.64523" lon="3.42411">
        <ele>29.83</ele>
        <time>2021-04-09T13:31:50Z</time>
      </trkpt>
      <trkpt lat="50.64536" lon="3.42437">
        <ele>31.1</ele>
        <time>2021-04-09T13:31:57Z</time>
      </trkpt>
      <trkpt lat="50.65098" lon="3.43042">
        <ele>57.35</ele>
        <time>2021-04-09T13:32:04Z</time>
      </trkpt>
      <trkpt lat="50.65226" lon="3.43185">
        <ele>65.15</ele>
        <time>2021-04-09T13:32:11Z</time>
      </trkpt>
      <trkpt lat="50.65284" lon="3.43244">
        <ele>66</ele>
        <time>2021-04-09T13:32:18Z</time>
      </trkpt>
      <trkpt lat="50.65313" lon="3.43266">
        <ele>66.56</ele>
        <time>2021-04-09T13:32:24Z</time>
      </trkpt>
      <trkpt lat="50.65361" lon="3.43296">
        <ele>66.01</ele>
        <time>2021-04-09T13:32:31Z</time>
      </trkpt>
      <trkpt lat="50.655" lon="3.43395">
        <ele>63.77</ele>
        <time>2021-04-09T13:32:38Z</time>
      </trkpt>
      <trkpt lat="50.65604" lon="3.43466">
        <ele>63.18</ele>
        <time>2021-04-09T13:32:45Z</time>
      </trkpt>
      <trkpt lat="50.65633" lon="3.43469">
        <ele>63.03</ele>
        <time>2021-04-09T13:32:51Z</time>
      </trkpt>
      <trkpt lat="50.65701" lon="3.43459">
        <ele>60.21</ele>
        <time>2021-04-09T13:32:58Z</time>
      </trkpt>
      <trkpt lat="50.65801" lon="3.4351">
        <ele>58.94</ele>
        <time>2021-04-09T13:33:05Z</time>
      </trkpt>
      <trkpt lat="50.65856" lon="3.43381">
        <ele>60.94</ele>
        <time>2021-04-09T13:33:08Z</time>
      </trkpt>
      <trkpt lat="50.65891" lon="3.43209">
        <ele>59.44</ele>
        <time>2021-04-09T13:33:11Z</time>
      </trkpt>
      <trkpt lat="50.65893" lon="3.43186">
        <ele>59.85</ele>
        <time>2021-04-09T13:33:14Z</time>
      </trkpt>
      <trkpt lat="50.65893" lon="3.43174">
        <ele>59.87</ele>
        <time>2021-04-09T13:33:17Z</time>
      </trkpt>
      <trkpt lat="50.65889" lon="3.43161">
        <ele>59.99</ele>
        <time>2021-04-09T13:33:20Z</time>
      </trkpt>
      <trkpt lat="50.65874" lon="3.43142">
        <ele>59.94</ele>
        <time>2021-04-09T13:33:23Z</time>
      </trkpt>
      <trkpt lat="50.65858" lon="3.43129">
        <ele>59.87</ele>
        <time>2021-04-09T13:33:27Z</time>
      </trkpt>
      <trkpt lat="50.65849" lon="3.43116">
        <ele>59.57</ele>
        <time>2021-04-09T13:33:30Z</time>
      </trkpt>
      <trkpt lat="50.65845" lon="3.43095">
        <ele>59.17</ele>
        <time>2021-04-09T13:33:33Z</time>
      </trkpt>
      <trkpt lat="50.65849" lon="3.42987">
        <ele>59.45</ele>
        <time>2021-04-09T13:33:36Z</time>
      </trkpt>
      <trkpt lat="50.65839" lon="3.42903">
        <ele>62.6</ele>
        <time>2021-04-09T13:33:39Z</time>
      </trkpt>
      <trkpt lat="50.65837" lon="3.42872">
        <ele>63.72</ele>
        <time>2021-04-09T13:33:42Z</time>
      </trkpt>
      <trkpt lat="50.65838" lon="3.42855">
        <ele>64.16</ele>
        <time>2021-04-09T13:33:45Z</time>
      </trkpt>
      <trkpt lat="50.65851" lon="3.42805">
        <ele>65.63</ele>
        <time>2021-04-09T13:33:48Z</time>
      </trkpt>
      <trkpt lat="50.65855" lon="3.42781">
        <ele>65.77</ele>
        <time>2021-04-09T13:33:51Z</time>
      </trkpt>
      <trkpt lat="50.65858" lon="3.42688">
        <ele>67</ele>
        <time>2021-04-09T13:33:54Z</time>
      </trkpt>
      <trkpt lat="50.65855" lon="3.42604">
        <ele>69.06</ele>
        <time>2021-04-09T13:33:57Z</time>
      </trkpt>
      <trkpt lat="50.65856" lon="3.42586">
        <ele>69.7</ele>
        <time>2021-04-09T13:34:00Z</time>
      </trkpt>
      <trkpt lat="50.65859" lon="3.42572">
        <ele>69.96</ele>
        <time>2021-04-09T13:34:03Z</time>
      </trkpt>
      <trkpt lat="50.65913" lon="3.42417">
        <ele>76.97</ele>
        <time>2021-04-09T13:34:07Z</time>
      </trkpt>
      <trkpt lat="50.65924" lon="3.42395">
        <ele>77.78</ele>
        <time>2021-04-09T13:34:10Z</time>
      </trkpt>
      <trkpt lat="50.65948" lon="3.42378">
        <ele>77.87</ele>
        <time>2021-04-09T13:34:13Z</time>
      </trkpt>
      <trkpt lat="50.65957" lon="3.42362">
        <ele>77.56</ele>
        <time>2021-04-09T13:34:16Z</time>
      </trkpt>
      <trkpt lat="50.65983" lon="3.42289">
        <ele>74.65</ele>
        <time>2021-04-09T13:34:19Z</time>
      </trkpt>
      <trkpt lat="50.66001" lon="3.42204">
        <ele>71.9</ele>
        <time>2021-04-09T13:34:22Z</time>
      </trkpt>
      <trkpt lat="50.66045" lon="3.42089">
        <ele>69.75</ele>
        <time>2021-04-09T13:34:25Z</time>
      </trkpt>
      <trkpt lat="50.66052" lon="3.42056">
        <ele>69.27</ele>
        <time>2021-04-09T13:34:28Z</time>
      </trkpt>
      <trkpt lat="50.66056" lon="3.41981">
        <ele>67.31</ele>
        <time>2021-04-09T13:34:31Z</time>
      </trkpt>
      <trkpt lat="50.66058" lon="3.41961">
        <ele>66.43</ele>
        <time>2021-04-09T13:34:34Z</time>
      </trkpt>
      <trkpt lat="50.66095" lon="3.41749">
        <ele>67.79</ele>
        <time>2021-04-09T13:34:37Z</time>
      </trkpt>
      <trkpt lat="50.66111" lon="3.41619">
        <ele>69</ele>
        <time>2021-04-09T13:34:40Z</time>
      </trkpt>
      <trkpt lat="50.66113" lon="3.41583">
        <ele>69</ele>
        <time>2021-04-09T13:34:43Z</time>
      </trkpt>
      <trkpt lat="50.66112" lon="3.41568">
        <ele>69</ele>
        <time>2021-04-09T13:34:47Z</time>
      </trkpt>
      <trkpt lat="50.66106" lon="3.4154">
        <ele>67.78</ele>
        <time>2021-04-09T13:34:50Z</time>
      </trkpt>
      <trkpt lat="50.66099" lon="3.41497">
        <ele>66.4</ele>
        <time>2021-04-09T13:34:53Z</time>
      </trkpt>
      <trkpt lat="50.66099" lon="3.41477">
        <ele>66.08</ele>
        <time>2021-04-09T13:34:56Z</time>
      </trkpt>
      <trkpt lat="50.66117" lon="3.41165">
        <ele>60.86</ele>
        <time>2021-04-09T13:34:59Z</time>
      </trkpt>
      <trkpt lat="50.66124" lon="3.41138">
        <ele>61.58</ele>
        <time>2021-04-09T13:35:02Z</time>
      </trkpt>
      <trkpt lat="50.66149" lon="3.41081">
        <ele>62.28</ele>
        <time>2021-04-09T13:35:05Z</time>
      </trkpt>
      <trkpt lat="50.66164" lon="3.41039">
        <ele>61.17</ele>
        <time>2021-04-09T13:35:08Z</time>
      </trkpt>
      <trkpt lat="50.6619" lon="3.40929">
        <ele>54.71</ele>
        <time>2021-04-09T13:35:11Z</time>
      </trkpt>
      <trkpt lat="50.66199" lon="3.40902">
        <ele>54.78</ele>
        <time>2021-04-09T13:35:14Z</time>
      </trkpt>
      <trkpt lat="50.66225" lon="3.4084">
        <ele>54.9</ele>
        <time>2021-04-09T13:35:17Z</time>
      </trkpt>
      <trkpt lat="50.66242" lon="3.40806">
        <ele>54.01</ele>
        <time>2021-04-09T13:35:20Z</time>
      </trkpt>
      <trkpt lat="50.6625" lon="3.40734">
        <ele>51.44</ele>
        <time>2021-04-09T13:35:23Z</time>
      </trkpt>
      <trkpt lat="50.66252" lon="3.40626">
        <ele>51.88</ele>
        <time>2021-04-09T13:35:27Z</time>
      </trkpt>
      <trkpt lat="50.66274" lon="3.40382">
        <ele>54.22</ele>
        <time>2021-04-09T13:35:30Z</time>
      </trkpt>
      <trkpt lat="50.66295" lon="3.40272">
        <ele>55.47</ele>
        <time>2021-04-09T13:35:33Z</time>
      </trkpt>
      <trkpt lat="50.66306" lon="3.402">
        <ele>55.81</ele>
        <time>2021-04-09T13:35:36Z</time>
      </trkpt>
      <trkpt lat="50.66308" lon="3.40169">
        <ele>56.9</ele>
        <time>2021-04-09T13:35:39Z</time>
      </trkpt>
      <trkpt lat="50.66302" lon="3.40067">
        <ele>64.44</ele>
        <time>2021-04-09T13:35:42Z</time>
      </trkpt>
      <trkpt lat="50.66305" lon="3.40039">
        <ele>65.63</ele>
        <time>2021-04-09T13:35:45Z</time>
      </trkpt>
      <trkpt lat="50.66311" lon="3.40006">
        <ele>66.57</ele>
        <time>2021-04-09T13:35:48Z</time>
      </trkpt>
      <trkpt lat="50.66323" lon="3.40004">
        <ele>66.25</ele>
        <time>2021-04-09T13:35:49Z</time>
      </trkpt>
      <trkpt lat="50.66334" lon="3.39868">
        <ele>67.63</ele>
        <time>2021-04-09T13:35:52Z</time>
      </trkpt>
      <trkpt lat="50.66348" lon="3.39779">
        <ele>64.4</ele>
        <time>2021-04-09T13:35:56Z</time>
      </trkpt>
      <trkpt lat="50.66367" lon="3.39696">
        <ele>59.4</ele>
        <time>2021-04-09T13:35:59Z</time>
      </trkpt>
      <trkpt lat="50.66387" lon="3.39636">
        <ele>56.12</ele>
        <time>2021-04-09T13:36:03Z</time>
      </trkpt>
      <trkpt lat="50.66406" lon="3.3959">
        <ele>55.53</ele>
        <time>2021-04-09T13:36:06Z</time>
      </trkpt>
      <trkpt lat="50.66455" lon="3.39498">
        <ele>52.94</ele>
        <time>2021-04-09T13:36:10Z</time>
      </trkpt>
      <trkpt lat="50.66464" lon="3.39479">
        <ele>52.23</ele>
        <time>2021-04-09T13:36:13Z</time>
      </trkpt>
      <trkpt lat="50.66466" lon="3.39449">
        <ele>52</ele>
        <time>2021-04-09T13:36:17Z</time>
      </trkpt>
      <trkpt lat="50.66458" lon="3.3935">
        <ele>55.25</ele>
        <time>2021-04-09T13:36:20Z</time>
      </trkpt>
      <trkpt lat="50.66454" lon="3.39289">
        <ele>55.93</ele>
        <time>2021-04-09T13:36:24Z</time>
      </trkpt>
      <trkpt lat="50.6644" lon="3.39099">
        <ele>58.78</ele>
        <time>2021-04-09T13:36:27Z</time>
      </trkpt>
      <trkpt lat="50.66439" lon="3.39053">
        <ele>60.37</ele>
        <time>2021-04-09T13:36:31Z</time>
      </trkpt>
      <trkpt lat="50.66446" lon="3.38943">
        <ele>60.82</ele>
        <time>2021-04-09T13:36:34Z</time>
      </trkpt>
      <trkpt lat="50.66454" lon="3.38871">
        <ele>59.66</ele>
        <time>2021-04-09T13:36:38Z</time>
      </trkpt>
      <trkpt lat="50.66465" lon="3.38804">
        <ele>57.26</ele>
        <time>2021-04-09T13:36:41Z</time>
      </trkpt>
      <trkpt lat="50.66472" lon="3.3878">
        <ele>57.01</ele>
        <time>2021-04-09T13:36:45Z</time>
      </trkpt>
      <trkpt lat="50.6648" lon="3.38763">
        <ele>56.18</ele>
        <time>2021-04-09T13:36:48Z</time>
      </trkpt>
      <trkpt lat="50.6661" lon="3.38614">
        <ele>53.97</ele>
        <time>2021-04-09T13:36:52Z</time>
      </trkpt>
      <trkpt lat="50.66677" lon="3.38538">
        <ele>50</ele>
        <time>2021-04-09T13:36:55Z</time>
      </trkpt>
      <trkpt lat="50.66743" lon="3.38458">
        <ele>49</ele>
        <time>2021-04-09T13:36:59Z</time>
      </trkpt>
      <trkpt lat="50.66758" lon="3.38438">
        <ele>49.22</ele>
        <time>2021-04-09T13:37:02Z</time>
      </trkpt>
      <trkpt lat="50.6685" lon="3.38266">
        <ele>48.99</ele>
        <time>2021-04-09T13:37:06Z</time>
      </trkpt>
      <trkpt lat="50.66885" lon="3.38211">
        <ele>47.5</ele>
        <time>2021-04-09T13:37:09Z</time>
      </trkpt>
      <trkpt lat="50.67009" lon="3.38033">
        <ele>43.85</ele>
        <time>2021-04-09T13:37:13Z</time>
      </trkpt>
      <trkpt lat="50.6704" lon="3.37989">
        <ele>41.89</ele>
        <time>2021-04-09T13:37:17Z</time>
      </trkpt>
      <trkpt lat="50.67053" lon="3.37967">
        <ele>41.1</ele>
        <time>2021-04-09T13:37:20Z</time>
      </trkpt>
      <trkpt lat="50.67056" lon="3.37953">
        <ele>40.94</ele>
        <time>2021-04-09T13:37:24Z</time>
      </trkpt>
      <trkpt lat="50.6706" lon="3.37937">
        <ele>40.44</ele>
        <time>2021-04-09T13:37:27Z</time>
      </trkpt>
      <trkpt lat="50.67072" lon="3.37724">
        <ele>34.78</ele>
        <time>2021-04-09T13:37:31Z</time>
      </trkpt>
      <trkpt lat="50.67077" lon="3.37694">
        <ele>34.24</ele>
        <time>2021-04-09T13:37:34Z</time>
      </trkpt>
      <trkpt lat="50.67107" lon="3.3758">
        <ele>31.85</ele>
        <time>2021-04-09T13:37:38Z</time>
      </trkpt>
      <trkpt lat="50.67116" lon="3.37558">
        <ele>32</ele>
        <time>2021-04-09T13:37:41Z</time>
      </trkpt>
      <trkpt lat="50.67146" lon="3.37537">
        <ele>31.75</ele>
        <time>2021-04-09T13:37:45Z</time>
      </trkpt>
      <trkpt lat="50.67158" lon="3.37519">
        <ele>31.3</ele>
        <time>2021-04-09T13:37:48Z</time>
      </trkpt>
      <trkpt lat="50.67164" lon="3.37497">
        <ele>30.99</ele>
        <time>2021-04-09T13:37:52Z</time>
      </trkpt>
      <trkpt lat="50.67171" lon="3.37387">
        <ele>27.91</ele>
        <time>2021-04-09T13:37:55Z</time>
      </trkpt>
      <trkpt lat="50.67171" lon="3.37348">
        <ele>27</ele>
        <time>2021-04-09T13:37:59Z</time>
      </trkpt>
      <trkpt lat="50.67159" lon="3.3711">
        <ele>22.65</ele>
        <time>2021-04-09T13:38:02Z</time>
      </trkpt>
      <trkpt lat="50.6716" lon="3.37073">
        <ele>21.67</ele>
        <time>2021-04-09T13:38:06Z</time>
      </trkpt>
      <trkpt lat="50.67186" lon="3.36812">
        <ele>17</ele>
        <time>2021-04-09T13:38:09Z</time>
      </trkpt>
      <trkpt lat="50.67191" lon="3.36778">
        <ele>17</ele>
        <time>2021-04-09T13:38:13Z</time>
      </trkpt>
      <trkpt lat="50.67239" lon="3.36592">
        <ele>19.41</ele>
        <time>2021-04-09T13:38:16Z</time>
      </trkpt>
      <trkpt lat="50.67253" lon="3.36526">
        <ele>21.12</ele>
        <time>2021-04-09T13:38:20Z</time>
      </trkpt>
      <trkpt lat="50.67259" lon="3.36438">
        <ele>20.76</ele>
        <time>2021-04-09T13:38:23Z</time>
      </trkpt>
      <trkpt lat="50.67256" lon="3.36409">
        <ele>20</ele>
        <time>2021-04-09T13:38:27Z</time>
      </trkpt>
      <trkpt lat="50.6724" lon="3.36348">
        <ele>19.65</ele>
        <time>2021-04-09T13:38:30Z</time>
      </trkpt>
      <trkpt lat="50.67368" lon="3.36232">
        <ele>17.27</ele>
        <time>2021-04-09T13:38:36Z</time>
      </trkpt>
      <trkpt lat="50.67397" lon="3.36195">
        <ele>16.71</ele>
        <time>2021-04-09T13:38:42Z</time>
      </trkpt>
      <trkpt lat="50.67658" lon="3.36029">
        <ele>18.05</ele>
        <time>2021-04-09T13:38:48Z</time>
      </trkpt>
      <trkpt lat="50.67689" lon="3.36007">
        <ele>18</ele>
        <time>2021-04-09T13:38:53Z</time>
      </trkpt>
      <trkpt lat="50.67868" lon="3.35831">
        <ele>15.9</ele>
        <time>2021-04-09T13:38:59Z</time>
      </trkpt>
      <trkpt lat="50.67903" lon="3.35812">
        <ele>15.23</ele>
        <time>2021-04-09T13:39:05Z</time>
      </trkpt>
      <trkpt lat="50.67921" lon="3.35807">
        <ele>15.04</ele>
        <time>2021-04-09T13:39:11Z</time>
      </trkpt>
      <trkpt lat="50.6801" lon="3.35796">
        <ele>14.37</ele>
        <time>2021-04-09T13:39:17Z</time>
      </trkpt>
      <trkpt lat="50.68081" lon="3.35796">
        <ele>16</ele>
        <time>2021-04-09T13:39:22Z</time>
      </trkpt>
      <trkpt lat="50.6811" lon="3.35802">
        <ele>16</ele>
        <time>2021-04-09T13:39:28Z</time>
      </trkpt>
      <trkpt lat="50.68182" lon="3.35827">
        <ele>16.11</ele>
        <time>2021-04-09T13:39:34Z</time>
      </trkpt>
      <trkpt lat="50.68301" lon="3.3585">
        <ele>17.16</ele>
        <time>2021-04-09T13:39:40Z</time>
      </trkpt>
      <trkpt lat="50.68324" lon="3.35861">
        <ele>16.33</ele>
        <time>2021-04-09T13:39:46Z</time>
      </trkpt>
      <trkpt lat="50.68412" lon="3.35915">
        <ele>17.82</ele>
        <time>2021-04-09T13:39:51Z</time>
      </trkpt>
      <trkpt lat="50.68642" lon="3.36024">
        <ele>18.22</ele>
        <time>2021-04-09T13:39:57Z</time>
      </trkpt>
      <trkpt lat="50.68582" lon="3.34843">
        <ele>12</ele>
        <time>2021-04-09T13:40:03Z</time>
      </trkpt>
      <trkpt lat="50.68572" lon="3.34773">
        <ele>13.19</ele>
        <time>2021-04-09T13:40:09Z</time>
      </trkpt>
      <trkpt lat="50.68544" lon="3.34647">
        <ele>16.71</ele>
        <time>2021-04-09T13:40:15Z</time>
      </trkpt>
      <trkpt lat="50.68529" lon="3.34569">
        <ele>18.91</ele>
        <time>2021-04-09T13:40:21Z</time>
      </trkpt>
      <trkpt lat="50.68523" lon="3.34518">
        <ele>19.37</ele>
        <time>2021-04-09T13:40:27Z</time>
      </trkpt>
      <trkpt lat="50.68521" lon="3.34418">
        <ele>17.29</ele>
        <time>2021-04-09T13:40:33Z</time>
      </trkpt>
      <trkpt lat="50.68523" lon="3.34391">
        <ele>17.17</ele>
        <time>2021-04-09T13:40:38Z</time>
      </trkpt>
      <trkpt lat="50.6853" lon="3.34163">
        <ele>18.92</ele>
        <time>2021-04-09T13:40:44Z</time>
      </trkpt>
      <trkpt lat="50.68533" lon="3.34119">
        <ele>19</ele>
        <time>2021-04-09T13:40:50Z</time>
      </trkpt>
      <trkpt lat="50.68538" lon="3.34077">
        <ele>20.08</ele>
        <time>2021-04-09T13:40:56Z</time>
      </trkpt>
      <trkpt lat="50.68548" lon="3.34022">
        <ele>22.92</ele>
        <time>2021-04-09T13:41:02Z</time>
      </trkpt>
      <trkpt lat="50.68551" lon="3.33995">
        <ele>24.02</ele>
        <time>2021-04-09T13:41:08Z</time>
      </trkpt>
      <trkpt lat="50.6855" lon="3.33953">
        <ele>24.94</ele>
        <time>2021-04-09T13:41:14Z</time>
      </trkpt>
      <trkpt lat="50.68547" lon="3.33912">
        <ele>25.31</ele>
        <time>2021-04-09T13:41:20Z</time>
      </trkpt>
      <trkpt lat="50.68547" lon="3.33868">
        <ele>24.56</ele>
        <time>2021-04-09T13:41:26Z</time>
      </trkpt>
      <trkpt lat="50.68551" lon="3.33824">
        <ele>22.9</ele>
        <time>2021-04-09T13:41:32Z</time>
      </trkpt>
      <trkpt lat="50.68555" lon="3.33797">
        <ele>22.05</ele>
        <time>2021-04-09T13:41:38Z</time>
      </trkpt>
      <trkpt lat="50.68576" lon="3.33689">
        <ele>22</ele>
        <time>2021-04-09T13:41:44Z</time>
      </trkpt>
      <trkpt lat="50.69007" lon="3.33556">
        <ele>22.49</ele>
        <time>2021-04-09T13:42:15Z</time>
      </trkpt>
      <trkpt lat="50.69059" lon="3.33459">
        <ele>21.78</ele>
        <time>2021-04-09T13:42:19Z</time>
      </trkpt>
      <trkpt lat="50.69071" lon="3.33439">
        <ele>20.71</ele>
        <time>2021-04-09T13:42:22Z</time>
      </trkpt>
      <trkpt lat="50.69138" lon="3.33373">
        <ele>18.02</ele>
        <time>2021-04-09T13:42:26Z</time>
      </trkpt>
      <trkpt lat="50.69223" lon="3.33295">
        <ele>19.97</ele>
        <time>2021-04-09T13:42:30Z</time>
      </trkpt>
      <trkpt lat="50.69268" lon="3.33263">
        <ele>17.82</ele>
        <time>2021-04-09T13:42:33Z</time>
      </trkpt>
      <trkpt lat="50.69321" lon="3.33233">
        <ele>17.37</ele>
        <time>2021-04-09T13:42:37Z</time>
      </trkpt>
      <trkpt lat="50.69343" lon="3.33225">
        <ele>17.77</ele>
        <time>2021-04-09T13:42:40Z</time>
      </trkpt>
      <trkpt lat="50.69487" lon="3.33199">
        <ele>17.48</ele>
        <time>2021-04-09T13:42:44Z</time>
      </trkpt>
      <trkpt lat="50.69558" lon="3.33178">
        <ele>14.1</ele>
        <time>2021-04-09T13:42:48Z</time>
      </trkpt>
      <trkpt lat="50.69664" lon="3.3314">
        <ele>16.04</ele>
        <time>2021-04-09T13:42:51Z</time>
      </trkpt>
      <trkpt lat="50.69732" lon="3.33144">
        <ele>14.64</ele>
        <time>2021-04-09T13:42:55Z</time>
      </trkpt>
      <trkpt lat="50.69783" lon="3.3313">
        <ele>16.06</ele>
        <time>2021-04-09T13:42:58Z</time>
      </trkpt>
      <trkpt lat="50.6981" lon="3.33116">
        <ele>16.66</ele>
        <time>2021-04-09T13:43:02Z</time>
      </trkpt>
      <trkpt lat="50.69831" lon="3.33089">
        <ele>16.89</ele>
        <time>2021-04-09T13:43:06Z</time>
      </trkpt>
      <trkpt lat="50.69853" lon="3.33057">
        <ele>16.6</ele>
        <time>2021-04-09T13:43:09Z</time>
      </trkpt>
      <trkpt lat="50.69879" lon="3.33032">
        <ele>16.19</ele>
        <time>2021-04-09T13:43:13Z</time>
      </trkpt>
      <trkpt lat="50.69919" lon="3.33009">
        <ele>15.91</ele>
        <time>2021-04-09T13:43:16Z</time>
      </trkpt>
      <trkpt lat="50.69975" lon="3.32941">
        <ele>16.12</ele>
        <time>2021-04-09T13:43:20Z</time>
      </trkpt>
      <trkpt lat="50.70018" lon="3.32874">
        <ele>16.9</ele>
        <time>2021-04-09T13:43:24Z</time>
      </trkpt>
      <trkpt lat="50.70036" lon="3.32842">
        <ele>17.7</ele>
        <time>2021-04-09T13:43:27Z</time>
      </trkpt>
      <trkpt lat="50.70054" lon="3.32815">
        <ele>18.02</ele>
        <time>2021-04-09T13:43:31Z</time>
      </trkpt>
      <trkpt lat="50.70221" lon="3.32634">
        <ele>16.96</ele>
        <time>2021-04-09T13:43:34Z</time>
      </trkpt>
      <trkpt lat="50.70245" lon="3.32618">
        <ele>17</ele>
        <time>2021-04-09T13:43:38Z</time>
      </trkpt>
      <trkpt lat="50.70338" lon="3.32572">
        <ele>18</ele>
        <time>2021-04-09T13:43:42Z</time>
      </trkpt>
      <trkpt lat="50.70368" lon="3.32541">
        <ele>17.77</ele>
        <time>2021-04-09T13:43:45Z</time>
      </trkpt>
      <trkpt lat="50.70498" lon="3.32361">
        <ele>16.06</ele>
        <time>2021-04-09T13:43:49Z</time>
      </trkpt>
      <trkpt lat="50.70544" lon="3.32275">
        <ele>16.53</ele>
        <time>2021-04-09T13:43:52Z</time>
      </trkpt>
      <trkpt lat="50.70595" lon="3.3217">
        <ele>17.94</ele>
        <time>2021-04-09T13:43:56Z</time>
      </trkpt>
      <trkpt lat="50.70621" lon="3.32087">
        <ele>16.68</ele>
        <time>2021-04-09T13:44:00Z</time>
      </trkpt>
      <trkpt lat="50.70629" lon="3.32052">
        <ele>16.49</ele>
        <time>2021-04-09T13:44:03Z</time>
      </trkpt>
      <trkpt lat="50.7064" lon="3.3188">
        <ele>17.61</ele>
        <time>2021-04-09T13:44:07Z</time>
      </trkpt>
      <trkpt lat="50.70645" lon="3.31863">
        <ele>16.83</ele>
        <time>2021-04-09T13:44:10Z</time>
      </trkpt>
      <trkpt lat="50.70664" lon="3.31845">
        <ele>16.09</ele>
        <time>2021-04-09T13:44:14Z</time>
      </trkpt>
      <trkpt lat="50.7068" lon="3.31835">
        <ele>16</ele>
        <time>2021-04-09T13:44:18Z</time>
      </trkpt>
      <trkpt lat="50.70709" lon="3.31915">
        <ele>14.49</ele>
        <time>2021-04-09T13:44:23Z</time>
      </trkpt>
      <trkpt lat="50.7076" lon="3.32113">
        <ele>18.28</ele>
        <time>2021-04-09T13:44:29Z</time>
      </trkpt>
      <trkpt lat="50.70895" lon="3.31926">
        <ele>15.37</ele>
        <time>2021-04-09T13:44:36Z</time>
      </trkpt>
      <trkpt lat="50.70935" lon="3.31886">
        <ele>13.65</ele>
        <time>2021-04-09T13:44:42Z</time>
      </trkpt>
      <trkpt lat="50.70966" lon="3.31842">
        <ele>14</ele>
        <time>2021-04-09T13:44:49Z</time>
      </trkpt>
      <trkpt lat="50.70998" lon="3.31808">
        <ele>14</ele>
        <time>2021-04-09T13:44:56Z</time>
      </trkpt>
      <trkpt lat="50.71097" lon="3.31762">
        <ele>15.17</ele>
        <time>2021-04-09T13:45:03Z</time>
      </trkpt>
      <trkpt lat="50.71141" lon="3.31735">
        <ele>15</ele>
        <time>2021-04-09T13:45:10Z</time>
      </trkpt>
      <trkpt lat="50.71437" lon="3.31408">
        <ele>17.27</ele>
        <time>2021-04-09T13:45:17Z</time>
      </trkpt>
      <trkpt lat="50.71581" lon="3.31256">
        <ele>14.86</ele>
        <time>2021-04-09T13:45:24Z</time>
      </trkpt>
      <trkpt lat="50.71724" lon="3.31178">
        <ele>16.93</ele>
        <time>2021-04-09T13:45:30Z</time>
      </trkpt>
      <trkpt lat="50.71772" lon="3.31159">
        <ele>16.8</ele>
        <time>2021-04-09T13:45:37Z</time>
      </trkpt>
      <trkpt lat="50.71766" lon="3.31106">
        <ele>16.41</ele>
        <time>2021-04-09T13:45:41Z</time>
      </trkpt>
      <trkpt lat="50.71763" lon="3.31039">
        <ele>14.85</ele>
        <time>2021-04-09T13:45:44Z</time>
      </trkpt>
      <trkpt lat="50.71762" lon="3.30964">
        <ele>15.02</ele>
        <time>2021-04-09T13:45:48Z</time>
      </trkpt>
      <trkpt lat="50.71764" lon="3.30921">
        <ele>15.93</ele>
        <time>2021-04-09T13:45:51Z</time>
      </trkpt>
      <trkpt lat="50.7177" lon="3.30844">
        <ele>17</ele>
        <time>2021-04-09T13:45:55Z</time>
      </trkpt>
      <trkpt lat="50.7178" lon="3.30775">
        <ele>19.98</ele>
        <time>2021-04-09T13:45:58Z</time>
      </trkpt>
      <trkpt lat="50.718" lon="3.30681">
        <ele>20.1</ele>
        <time>2021-04-09T13:46:02Z</time>
      </trkpt>
      <trkpt lat="50.71845" lon="3.30427">
        <ele>19.48</ele>
        <time>2021-04-09T13:46:05Z</time>
      </trkpt>
      <trkpt lat="50.71858" lon="3.30329">
        <ele>19.77</ele>
        <time>2021-04-09T13:46:09Z</time>
      </trkpt>
      <trkpt lat="50.71868" lon="3.3022">
        <ele>19.21</ele>
        <time>2021-04-09T13:46:12Z</time>
      </trkpt>
      <trkpt lat="50.71872" lon="3.3014">
        <ele>18.26</ele>
        <time>2021-04-09T13:46:16Z</time>
      </trkpt>
      <trkpt lat="50.71872" lon="3.30026">
        <ele>18</ele>
        <time>2021-04-09T13:46:19Z</time>
      </trkpt>
      <trkpt lat="50.71868" lon="3.29951">
        <ele>20.76</ele>
        <time>2021-04-09T13:46:23Z</time>
      </trkpt>
      <trkpt lat="50.7186" lon="3.29855">
        <ele>24</ele>
        <time>2021-04-09T13:46:26Z</time>
      </trkpt>
      <trkpt lat="50.71861" lon="3.29824">
        <ele>24</ele>
        <time>2021-04-09T13:46:30Z</time>
      </trkpt>
      <trkpt lat="50.71865" lon="3.29811">
        <ele>23.71</ele>
        <time>2021-04-09T13:46:33Z</time>
      </trkpt>
      <trkpt lat="50.71866" lon="3.29797">
        <ele>23.64</ele>
        <time>2021-04-09T13:46:36Z</time>
      </trkpt>
      <trkpt lat="50.71863" lon="3.29781">
        <ele>23.84</ele>
        <time>2021-04-09T13:46:39Z</time>
      </trkpt>
      <trkpt lat="50.71864" lon="3.29769">
        <ele>23.45</ele>
        <time>2021-04-09T13:46:43Z</time>
      </trkpt>
      <trkpt lat="50.7187" lon="3.29749">
        <ele>22.35</ele>
        <time>2021-04-09T13:46:46Z</time>
      </trkpt>
      <trkpt lat="50.71878" lon="3.29735">
        <ele>21.56</ele>
        <time>2021-04-09T13:46:49Z</time>
      </trkpt>
      <trkpt lat="50.71885" lon="3.29729">
        <ele>21.18</ele>
        <time>2021-04-09T13:46:53Z</time>
      </trkpt>
      <trkpt lat="50.72029" lon="3.29644">
        <ele>20.14</ele>
        <time>2021-04-09T13:46:56Z</time>
      </trkpt>
      <trkpt lat="50.721" lon="3.2961">
        <ele>20.62</ele>
        <time>2021-04-09T13:46:59Z</time>
      </trkpt>
      <trkpt lat="50.72342" lon="3.29539">
        <ele>23.58</ele>
        <time>2021-04-09T13:47:02Z</time>
      </trkpt>
      <trkpt lat="50.72441" lon="3.29508">
        <ele>28.35</ele>
        <time>2021-04-09T13:47:06Z</time>
      </trkpt>
      <trkpt lat="50.72702" lon="3.29433">
        <ele>28.99</ele>
        <time>2021-04-09T13:47:09Z</time>
      </trkpt>
      <trkpt lat="50.72805" lon="3.29394">
        <ele>26.02</ele>
        <time>2021-04-09T13:47:18Z</time>
      </trkpt>
      <trkpt lat="50.72822" lon="3.2938">
        <ele>26</ele>
        <time>2021-04-09T13:47:26Z</time>
      </trkpt>
      <trkpt lat="50.73679" lon="3.29131">
        <ele>15</ele>
        <time>2021-04-09T13:47:35Z</time>
      </trkpt>
      <trkpt lat="50.73711" lon="3.29124">
        <ele>15.59</ele>
        <time>2021-04-09T13:47:44Z</time>
      </trkpt>
      <trkpt lat="50.73792" lon="3.2911">
        <ele>16.51</ele>
        <time>2021-04-09T13:47:53Z</time>
      </trkpt>
      <trkpt lat="50.73851" lon="3.29109">
        <ele>14.94</ele>
        <time>2021-04-09T13:48:01Z</time>
      </trkpt>
      <trkpt lat="50.73936" lon="3.29116">
        <ele>16.81</ele>
        <time>2021-04-09T13:48:10Z</time>
      </trkpt>
      <trkpt lat="50.74" lon="3.29129">
        <ele>19</ele>
        <time>2021-04-09T13:48:19Z</time>
      </trkpt>
      <trkpt lat="50.74046" lon="3.29142">
        <ele>19.62</ele>
        <time>2021-04-09T13:48:27Z</time>
      </trkpt>
      <trkpt lat="50.74089" lon="3.29158">
        <ele>21.48</ele>
        <time>2021-04-09T13:48:36Z</time>
      </trkpt>
      <trkpt lat="50.74609" lon="3.29387">
        <ele>28.64</ele>
        <time>2021-04-09T13:48:45Z</time>
      </trkpt>
      <trkpt lat="50.74673" lon="3.29412">
        <ele>28.64</ele>
        <time>2021-04-09T13:48:53Z</time>
      </trkpt>
      <trkpt lat="50.7471" lon="3.29424">
        <ele>26.89</ele>
        <time>2021-04-09T13:49:02Z</time>
      </trkpt>
      <trkpt lat="50.74814" lon="3.29451">
        <ele>27.23</ele>
        <time>2021-04-09T13:49:11Z</time>
      </trkpt>
      <trkpt lat="50.74876" lon="3.29462">
        <ele>30.92</ele>
        <time>2021-04-09T13:49:20Z</time>
      </trkpt>
      <trkpt lat="50.74982" lon="3.29473">
        <ele>30</ele>
        <time>2021-04-09T13:49:28Z</time>
      </trkpt>
      <trkpt lat="50.75035" lon="3.29475">
        <ele>30.08</ele>
        <time>2021-04-09T13:49:37Z</time>
      </trkpt>
      <trkpt lat="50.7513" lon="3.29469">
        <ele>29.96</ele>
        <time>2021-04-09T13:49:46Z</time>
      </trkpt>
      <trkpt lat="50.75201" lon="3.2946">
        <ele>28.25</ele>
        <time>2021-04-09T13:49:54Z</time>
      </trkpt>
      <trkpt lat="50.75266" lon="3.29446">
        <ele>29</ele>
        <time>2021-04-09T13:50:03Z</time>
      </trkpt>
      <trkpt lat="50.7535" lon="3.29423">
        <ele>26.62</ele>
        <time>2021-04-09T13:50:12Z</time>
      </trkpt>
      <trkpt lat="50.75482" lon="3.29372">
        <ele>24.53</ele>
        <time>2021-04-09T13:50:20Z</time>
      </trkpt>
      <trkpt lat="50.75549" lon="3.29338">
        <ele>23.25</ele>
        <time>2021-04-09T13:50:29Z</time>
      </trkpt>
      <trkpt lat="50.75621" lon="3.29297">
        <ele>23</ele>
        <time>2021-04-09T13:50:38Z</time>
      </trkpt>
      <trkpt lat="50.75688" lon="3.29251">
        <ele>22.23</ele>
        <time>2021-04-09T13:50:46Z</time>
      </trkpt>
      <trkpt lat="50.75751" lon="3.29202">
        <ele>22.27</ele>
        <time>2021-04-09T13:50:55Z</time>
      </trkpt>
      <trkpt lat="50.75821" lon="3.29142">
        <ele>20.04</ele>
        <time>2021-04-09T13:51:04Z</time>
      </trkpt>
      <trkpt lat="50.75923" lon="3.29043">
        <ele>22.32</ele>
        <time>2021-04-09T13:51:13Z</time>
      </trkpt>
      <trkpt lat="50.76025" lon="3.28922">
        <ele>22.23</ele>
        <time>2021-04-09T13:51:21Z</time>
      </trkpt>
      <trkpt lat="50.76116" lon="3.28798">
        <ele>24.28</ele>
        <time>2021-04-09T13:51:30Z</time>
      </trkpt>
      <trkpt lat="50.76188" lon="3.28684">
        <ele>22.76</ele>
        <time>2021-04-09T13:51:39Z</time>
      </trkpt>
      <trkpt lat="50.76258" lon="3.28561">
        <ele>23</ele>
        <time>2021-04-09T13:51:47Z</time>
      </trkpt>
      <trkpt lat="50.76321" lon="3.28439">
        <ele>23.21</ele>
        <time>2021-04-09T13:51:56Z</time>
      </trkpt>
      <trkpt lat="50.76385" lon="3.28307">
        <ele>23.17</ele>
        <time>2021-04-09T13:52:05Z</time>
      </trkpt>
      <trkpt lat="50.76485" lon="3.28094">
        <ele>30.42</ele>
        <time>2021-04-09T13:52:13Z</time>
      </trkpt>
      <trkpt lat="50.7658" lon="3.27883">
        <ele>33</ele>
        <time>2021-04-09T13:52:22Z</time>
      </trkpt>
      <trkpt lat="50.76676" lon="3.27673">
        <ele>31.5</ele>
        <time>2021-04-09T13:52:31Z</time>
      </trkpt>
      <trkpt lat="50.76746" lon="3.27531">
        <ele>34.08</ele>
        <time>2021-04-09T13:52:39Z</time>
      </trkpt>
      <trkpt lat="50.76823" lon="3.27384">
        <ele>33.71</ele>
        <time>2021-04-09T13:52:48Z</time>
      </trkpt>
      <trkpt lat="50.7715" lon="3.26791">
        <ele>25.28</ele>
        <time>2021-04-09T13:52:57Z</time>
      </trkpt>
      <trkpt lat="50.77201" lon="3.26691">
        <ele>28.33</ele>
        <time>2021-04-09T13:53:06Z</time>
      </trkpt>
      <trkpt lat="50.77268" lon="3.26557">
        <ele>29.98</ele>
        <time>2021-04-09T13:53:14Z</time>
      </trkpt>
      <trkpt lat="50.77344" lon="3.26398">
        <ele>29.97</ele>
        <time>2021-04-09T13:53:23Z</time>
      </trkpt>
      <trkpt lat="50.77428" lon="3.26215">
        <ele>32.14</ele>
        <time>2021-04-09T13:53:32Z</time>
      </trkpt>
      <trkpt lat="50.78197" lon="3.24434">
        <ele>44</ele>
        <time>2021-04-09T13:53:40Z</time>
      </trkpt>
      <trkpt lat="50.78361" lon="3.24056">
        <ele>37.01</ele>
        <time>2021-04-09T13:53:49Z</time>
      </trkpt>
      <trkpt lat="50.78496" lon="3.23755">
        <ele>32.6</ele>
        <time>2021-04-09T13:53:58Z</time>
      </trkpt>
      <trkpt lat="50.78596" lon="3.23547">
        <ele>31.46</ele>
        <time>2021-04-09T13:54:06Z</time>
      </trkpt>
      <trkpt lat="50.78637" lon="3.23466">
        <ele>35</ele>
        <time>2021-04-09T13:54:15Z</time>
      </trkpt>
      <trkpt lat="50.78714" lon="3.23321">
        <ele>30.33</ele>
        <time>2021-04-09T13:54:24Z</time>
      </trkpt>
      <trkpt lat="50.78795" lon="3.23178">
        <ele>31.36</ele>
        <time>2021-04-09T13:54:32Z</time>
      </trkpt>
      <trkpt lat="50.78857" lon="3.23072">
        <ele>31.03</ele>
        <time>2021-04-09T13:54:41Z</time>
      </trkpt>
      <trkpt lat="50.78936" lon="3.22946">
        <ele>30.63</ele>
        <time>2021-04-09T13:54:50Z</time>
      </trkpt>
      <trkpt lat="50.79035" lon="3.22793">
        <ele>25.4</ele>
        <time>2021-04-09T13:54:59Z</time>
      </trkpt>
      <trkpt lat="50.79122" lon="3.22663">
        <ele>28.51</ele>
        <time>2021-04-09T13:55:07Z</time>
      </trkpt>
      <trkpt lat="50.7933" lon="3.22373">
        <ele>27.06</ele>
        <time>2021-04-09T13:55:16Z</time>
      </trkpt>
      <trkpt lat="50.79479" lon="3.22169">
        <ele>24.98</ele>
        <time>2021-04-09T13:55:25Z</time>
      </trkpt>
      <trkpt lat="50.79527" lon="3.22106">
        <ele>23.65</ele>
        <time>2021-04-09T13:55:33Z</time>
      </trkpt>
      <trkpt lat="50.79646" lon="3.2196">
        <ele>23.26</ele>
        <time>2021-04-09T13:55:42Z</time>
      </trkpt>
      <trkpt lat="50.79725" lon="3.2186">
        <ele>25</ele>
        <time>2021-04-09T13:55:51Z</time>
      </trkpt>
      <trkpt lat="50.7982" lon="3.21748">
        <ele>26.5</ele>
        <time>2021-04-09T13:55:59Z</time>
      </trkpt>
      <trkpt lat="50.80015" lon="3.21528">
        <ele>27.55</ele>
        <time>2021-04-09T13:56:08Z</time>
      </trkpt>
      <trkpt lat="50.80222" lon="3.21317">
        <ele>22.81</ele>
        <time>2021-04-09T13:56:17Z</time>
      </trkpt>
      <trkpt lat="50.80441" lon="3.2111">
        <ele>16.91</ele>
        <time>2021-04-09T13:56:26Z</time>
      </trkpt>
      <trkpt lat="50.80623" lon="3.20952">
        <ele>13.31</ele>
        <time>2021-04-09T13:56:34Z</time>
      </trkpt>
      <trkpt lat="50.80809" lon="3.20795">
        <ele>14.15</ele>
        <time>2021-04-09T13:56:43Z</time>
      </trkpt>
      <trkpt lat="50.80951" lon="3.20668">
        <ele>16.25</ele>
        <time>2021-04-09T13:56:52Z</time>
      </trkpt>
      <trkpt lat="50.81427" lon="3.2026">
        <ele>12.12</ele>
        <time>2021-04-09T13:57:00Z</time>
      </trkpt>
      <trkpt lat="50.81796" lon="3.19941">
        <ele>14.48</ele>
        <time>2021-04-09T13:57:09Z</time>
      </trkpt>
      <trkpt lat="50.82139" lon="3.19632">
        <ele>16.01</ele>
        <time>2021-04-09T13:57:18Z</time>
      </trkpt>
      <trkpt lat="50.82935" lon="3.1885">
        <ele>11.67</ele>
        <time>2021-04-09T13:57:26Z</time>
      </trkpt>
      <trkpt lat="50.83024" lon="3.18765">
        <ele>14.31</ele>
        <time>2021-04-09T13:57:35Z</time>
      </trkpt>
      <trkpt lat="50.83221" lon="3.18569">
        <ele>13</ele>
        <time>2021-04-09T13:57:44Z</time>
      </trkpt>
      <trkpt lat="50.83448" lon="3.18348">
        <ele>15.44</ele>
        <time>2021-04-09T13:57:52Z</time>
      </trkpt>
      <trkpt lat="50.8401" lon="3.17792">
        <ele>17.63</ele>
        <time>2021-04-09T13:58:01Z</time>
      </trkpt>
      <trkpt lat="50.84075" lon="3.17734">
        <ele>18.42</ele>
        <time>2021-04-09T13:58:10Z</time>
      </trkpt>
      <trkpt lat="50.84133" lon="3.17687">
        <ele>18.26</ele>
        <time>2021-04-09T13:58:19Z</time>
      </trkpt>
      <trkpt lat="50.84211" lon="3.1763">
        <ele>17.39</ele>
        <time>2021-04-09T13:58:27Z</time>
      </trkpt>
      <trkpt lat="50.8426" lon="3.17597">
        <ele>15.98</ele>
        <time>2021-04-09T13:58:36Z</time>
      </trkpt>
      <trkpt lat="50.84383" lon="3.17529">
        <ele>15.02</ele>
        <time>2021-04-09T13:58:45Z</time>
      </trkpt>
      <trkpt lat="50.84469" lon="3.1749">
        <ele>15.07</ele>
        <time>2021-04-09T13:58:53Z</time>
      </trkpt>
      <trkpt lat="50.84543" lon="3.17461">
        <ele>15.14</ele>
        <time>2021-04-09T13:59:02Z</time>
      </trkpt>
      <trkpt lat="50.84615" lon="3.17439">
        <ele>16.97</ele>
        <time>2021-04-09T13:59:11Z</time>
      </trkpt>
      <trkpt lat="50.84681" lon="3.17423">
        <ele>15.11</ele>
        <time>2021-04-09T13:59:19Z</time>
      </trkpt>
      <trkpt lat="50.85808" lon="3.17177">
        <ele>27.51</ele>
        <time>2021-04-09T13:59:28Z</time>
      </trkpt>
      <trkpt lat="50.85907" lon="3.17157">
        <ele>29.24</ele>
        <time>2021-04-09T13:59:37Z</time>
      </trkpt>
      <trkpt lat="50.86063" lon="3.17138">
        <ele>30.27</ele>
        <time>2021-04-09T13:59:45Z</time>
      </trkpt>
      <trkpt lat="50.86195" lon="3.17133">
        <ele>27.75</ele>
        <time>2021-04-09T13:59:54Z</time>
      </trkpt>
      <trkpt lat="50.863" lon="3.17134">
        <ele>26.17</ele>
        <time>2021-04-09T14:00:03Z</time>
      </trkpt>
      <trkpt lat="50.87638" lon="3.17177">
        <ele>17</ele>
        <time>2021-04-09T14:00:12Z</time>
      </trkpt>
      <trkpt lat="50.87725" lon="3.17182">
        <ele>18.44</ele>
        <time>2021-04-09T14:00:20Z</time>
      </trkpt>
      <trkpt lat="50.87853" lon="3.17195">
        <ele>18.01</ele>
        <time>2021-04-09T14:00:29Z</time>
      </trkpt>
      <trkpt lat="50.87976" lon="3.17213">
        <ele>18.45</ele>
        <time>2021-04-09T14:00:38Z</time>
      </trkpt>
      <trkpt lat="50.88122" lon="3.17242">
        <ele>20.67</ele>
        <time>2021-04-09T14:00:46Z</time>
      </trkpt>
      <trkpt lat="50.89749" lon="3.17619">
        <ele>26.95</ele>
        <time>2021-04-09T14:00:55Z</time>
      </trkpt>
      <trkpt lat="50.89942" lon="3.17666">
        <ele>26.9</ele>
        <time>2021-04-09T14:01:04Z</time>
      </trkpt>
      <trkpt lat="50.90532" lon="3.17801">
        <ele>26.17</ele>
        <time>2021-04-09T14:01:12Z</time>
      </trkpt>
      <trkpt lat="50.90628" lon="3.17821">
        <ele>25.3</ele>
        <time>2021-04-09T14:01:21Z</time>
      </trkpt>
      <trkpt lat="50.90803" lon="3.17848">
        <ele>25.04</ele>
        <time>2021-04-09T14:01:30Z</time>
      </trkpt>
      <trkpt lat="50.90899" lon="3.17857">
        <ele>22.13</ele>
        <time>2021-04-09T14:01:38Z</time>
      </trkpt>
      <trkpt lat="50.90985" lon="3.17862">
        <ele>22.99</ele>
        <time>2021-04-09T14:01:47Z</time>
      </trkpt>
      <trkpt lat="50.91068" lon="3.17861">
        <ele>20.43</ele>
        <time>2021-04-09T14:01:56Z</time>
      </trkpt>
      <trkpt lat="50.91217" lon="3.17844">
        <ele>21</ele>
        <time>2021-04-09T14:02:05Z</time>
      </trkpt>
      <trkpt lat="50.91293" lon="3.17832">
        <ele>22.94</ele>
        <time>2021-04-09T14:02:13Z</time>
      </trkpt>
      <trkpt lat="50.91382" lon="3.17813">
        <ele>20.46</ele>
        <time>2021-04-09T14:02:22Z</time>
      </trkpt>
      <trkpt lat="50.91663" lon="3.17734">
        <ele>21.74</ele>
        <time>2021-04-09T14:02:31Z</time>
      </trkpt>
      <trkpt lat="50.91939" lon="3.17649">
        <ele>20.48</ele>
        <time>2021-04-09T14:02:39Z</time>
      </trkpt>
      <trkpt lat="50.92095" lon="3.17598">
        <ele>17.83</ele>
        <time>2021-04-09T14:02:48Z</time>
      </trkpt>
      <trkpt lat="50.92768" lon="3.17387">
        <ele>17.21</ele>
        <time>2021-04-09T14:02:57Z</time>
      </trkpt>
      <trkpt lat="50.92953" lon="3.17337">
        <ele>15.81</ele>
        <time>2021-04-09T14:03:05Z</time>
      </trkpt>
      <trkpt lat="50.93138" lon="3.17294">
        <ele>16.99</ele>
        <time>2021-04-09T14:03:14Z</time>
      </trkpt>
      <trkpt lat="50.93228" lon="3.17279">
        <ele>15.94</ele>
        <time>2021-04-09T14:03:23Z</time>
      </trkpt>
      <trkpt lat="50.93401" lon="3.17265">
        <ele>15.09</ele>
        <time>2021-04-09T14:03:32Z</time>
      </trkpt>
      <trkpt lat="50.93533" lon="3.17263">
        <ele>16.27</ele>
        <time>2021-04-09T14:03:40Z</time>
      </trkpt>
      <trkpt lat="50.93657" lon="3.17269">
        <ele>15.2</ele>
        <time>2021-04-09T14:03:49Z</time>
      </trkpt>
      <trkpt lat="50.93779" lon="3.17281">
        <ele>21.98</ele>
        <time>2021-04-09T14:03:58Z</time>
      </trkpt>
      <trkpt lat="50.93934" lon="3.17306">
        <ele>22.34</ele>
        <time>2021-04-09T14:04:06Z</time>
      </trkpt>
      <trkpt lat="50.9401" lon="3.17317">
        <ele>18.25</ele>
        <time>2021-04-09T14:04:15Z</time>
      </trkpt>
      <trkpt lat="50.94143" lon="3.17344">
        <ele>15.75</ele>
        <time>2021-04-09T14:04:24Z</time>
      </trkpt>
      <trkpt lat="50.94618" lon="3.17451">
        <ele>16.98</ele>
        <time>2021-04-09T14:04:32Z</time>
      </trkpt>
      <trkpt lat="50.94752" lon="3.17477">
        <ele>13.12</ele>
        <time>2021-04-09T14:04:41Z</time>
      </trkpt>
      <trkpt lat="50.9559" lon="3.17664">
        <ele>19.13</ele>
        <time>2021-04-09T14:04:50Z</time>
      </trkpt>
      <trkpt lat="50.9578" lon="3.17701">
        <ele>19.29</ele>
        <time>2021-04-09T14:04:58Z</time>
      </trkpt>
      <trkpt lat="50.95864" lon="3.17714">
        <ele>20.4</ele>
        <time>2021-04-09T14:05:07Z</time>
      </trkpt>
      <trkpt lat="50.96033" lon="3.17734">
        <ele>21.19</ele>
        <time>2021-04-09T14:05:16Z</time>
      </trkpt>
      <trkpt lat="50.96164" lon="3.17743">
        <ele>21.41</ele>
        <time>2021-04-09T14:05:25Z</time>
      </trkpt>
      <trkpt lat="50.96428" lon="3.17753">
        <ele>22.64</ele>
        <time>2021-04-09T14:05:33Z</time>
      </trkpt>
      <trkpt lat="50.96494" lon="3.17759">
        <ele>19.96</ele>
        <time>2021-04-09T14:05:42Z</time>
      </trkpt>
      <trkpt lat="50.96944" lon="3.17781">
        <ele>24.01</ele>
        <time>2021-04-09T14:05:51Z</time>
      </trkpt>
      <trkpt lat="50.97359" lon="3.17797">
        <ele>28.29</ele>
        <time>2021-04-09T14:05:59Z</time>
      </trkpt>
      <trkpt lat="50.97596" lon="3.17811">
        <ele>24.92</ele>
        <time>2021-04-09T14:06:08Z</time>
      </trkpt>
      <trkpt lat="50.97694" lon="3.17813">
        <ele>25.27</ele>
        <time>2021-04-09T14:06:17Z</time>
      </trkpt>
      <trkpt lat="50.97785" lon="3.17812">
        <ele>23.73</ele>
        <time>2021-04-09T14:06:25Z</time>
      </trkpt>
      <trkpt lat="50.97841" lon="3.17811">
        <ele>29.82</ele>
        <time>2021-04-09T14:06:34Z</time>
      </trkpt>
      <trkpt lat="50.97973" lon="3.178">
        <ele>25.96</ele>
        <time>2021-04-09T14:06:43Z</time>
      </trkpt>
      <trkpt lat="50.98076" lon="3.17787">
        <ele>24</ele>
        <time>2021-04-09T14:06:51Z</time>
      </trkpt>
      <trkpt lat="50.98133" lon="3.17776">
        <ele>26.54</ele>
        <time>2021-04-09T14:07:00Z</time>
      </trkpt>
      <trkpt lat="50.9913" lon="3.17559">
        <ele>29.64</ele>
        <time>2021-04-09T14:07:09Z</time>
      </trkpt>
      <trkpt lat="50.99194" lon="3.17543">
        <ele>26.01</ele>
        <time>2021-04-09T14:07:18Z</time>
      </trkpt>
      <trkpt lat="50.9932" lon="3.17517">
        <ele>26.38</ele>
        <time>2021-04-09T14:07:26Z</time>
      </trkpt>
      <trkpt lat="50.99593" lon="3.17455">
        <ele>29.18</ele>
        <time>2021-04-09T14:07:35Z</time>
      </trkpt>
      <trkpt lat="50.99828" lon="3.17396">
        <ele>31.78</ele>
        <time>2021-04-09T14:07:44Z</time>
      </trkpt>
      <trkpt lat="51.00195" lon="3.173">
        <ele>42.98</ele>
        <time>2021-04-09T14:07:52Z</time>
      </trkpt>
      <trkpt lat="51.00715" lon="3.17167">
        <ele>37.26</ele>
        <time>2021-04-09T14:08:01Z</time>
      </trkpt>
      <trkpt lat="51.00892" lon="3.17119">
        <ele>39.89</ele>
        <time>2021-04-09T14:08:10Z</time>
      </trkpt>
      <trkpt lat="51.01267" lon="3.17026">
        <ele>29.75</ele>
        <time>2021-04-09T14:08:18Z</time>
      </trkpt>
      <trkpt lat="51.02379" lon="3.16737">
        <ele>35.63</ele>
        <time>2021-04-09T14:08:27Z</time>
      </trkpt>
      <trkpt lat="51.0255" lon="3.16696">
        <ele>29.19</ele>
        <time>2021-04-09T14:08:36Z</time>
      </trkpt>
      <trkpt lat="51.03609" lon="3.16419">
        <ele>28.07</ele>
        <time>2021-04-09T14:08:44Z</time>
      </trkpt>
      <trkpt lat="51.04147" lon="3.16284">
        <ele>21.53</ele>
        <time>2021-04-09T14:08:53Z</time>
      </trkpt>
      <trkpt lat="51.04427" lon="3.16222">
        <ele>20</ele>
        <time>2021-04-09T14:09:02Z</time>
      </trkpt>
      <trkpt lat="51.05111" lon="3.16093">
        <ele>13.34</ele>
        <time>2021-04-09T14:09:11Z</time>
      </trkpt>
      <trkpt lat="51.05275" lon="3.16058">
        <ele>14</ele>
        <time>2021-04-09T14:09:19Z</time>
      </trkpt>
      <trkpt lat="51.05419" lon="3.16019">
        <ele>16.45</ele>
        <time>2021-04-09T14:09:28Z</time>
      </trkpt>
      <trkpt lat="51.05513" lon="3.15991">
        <ele>16.82</ele>
        <time>2021-04-09T14:09:37Z</time>
      </trkpt>
      <trkpt lat="51.05718" lon="3.15916">
        <ele>15.83</ele>
        <time>2021-04-09T14:09:45Z</time>
      </trkpt>
      <trkpt lat="51.05824" lon="3.15872">
        <ele>15.62</ele>
        <time>2021-04-09T14:09:54Z</time>
      </trkpt>
      <trkpt lat="51.05918" lon="3.15827">
        <ele>13.33</ele>
        <time>2021-04-09T14:10:03Z</time>
      </trkpt>
      <trkpt lat="51.06159" lon="3.15706">
        <ele>14.41</ele>
        <time>2021-04-09T14:10:11Z</time>
      </trkpt>
      <trkpt lat="51.0639" lon="3.15603">
        <ele>11.33</ele>
        <time>2021-04-09T14:10:20Z</time>
      </trkpt>
      <trkpt lat="51.06517" lon="3.15552">
        <ele>16.19</ele>
        <time>2021-04-09T14:10:29Z</time>
      </trkpt>
      <trkpt lat="51.06636" lon="3.15507">
        <ele>15.1</ele>
        <time>2021-04-09T14:10:38Z</time>
      </trkpt>
      <trkpt lat="51.06802" lon="3.15452">
        <ele>17.13</ele>
        <time>2021-04-09T14:10:46Z</time>
      </trkpt>
      <trkpt lat="51.06969" lon="3.15405">
        <ele>16.42</ele>
        <time>2021-04-09T14:10:55Z</time>
      </trkpt>
      <trkpt lat="51.07158" lon="3.15362">
        <ele>18.36</ele>
        <time>2021-04-09T14:11:04Z</time>
      </trkpt>
      <trkpt lat="51.07285" lon="3.15341">
        <ele>19.81</ele>
        <time>2021-04-09T14:11:12Z</time>
      </trkpt>
      <trkpt lat="51.07377" lon="3.15331">
        <ele>15.52</ele>
        <time>2021-04-09T14:11:21Z</time>
      </trkpt>
      <trkpt lat="51.07482" lon="3.15322">
        <ele>15.05</ele>
        <time>2021-04-09T14:11:30Z</time>
      </trkpt>
      <trkpt lat="51.07598" lon="3.15321">
        <ele>16.46</ele>
        <time>2021-04-09T14:11:38Z</time>
      </trkpt>
      <trkpt lat="51.07722" lon="3.15329">
        <ele>17.95</ele>
        <time>2021-04-09T14:11:47Z</time>
      </trkpt>
      <trkpt lat="51.07786" lon="3.15337">
        <ele>18.9</ele>
        <time>2021-04-09T14:11:56Z</time>
      </trkpt>
      <trkpt lat="51.07887" lon="3.15358">
        <ele>19</ele>
        <time>2021-04-09T14:12:04Z</time>
      </trkpt>
      <trkpt lat="51.07965" lon="3.15377">
        <ele>14.86</ele>
        <time>2021-04-09T14:12:13Z</time>
      </trkpt>
      <trkpt lat="51.08026" lon="3.15397">
        <ele>15.14</ele>
        <time>2021-04-09T14:12:22Z</time>
      </trkpt>
      <trkpt lat="51.0817" lon="3.15457">
        <ele>18</ele>
        <time>2021-04-09T14:12:31Z</time>
      </trkpt>
      <trkpt lat="51.0829" lon="3.15521">
        <ele>25.45</ele>
        <time>2021-04-09T14:12:39Z</time>
      </trkpt>
      <trkpt lat="51.08329" lon="3.15544">
        <ele>25.43</ele>
        <time>2021-04-09T14:12:48Z</time>
      </trkpt>
      <trkpt lat="51.08378" lon="3.15577">
        <ele>24.41</ele>
        <time>2021-04-09T14:12:57Z</time>
      </trkpt>
      <trkpt lat="51.08431" lon="3.15617">
        <ele>25.69</ele>
        <time>2021-04-09T14:13:05Z</time>
      </trkpt>
      <trkpt lat="51.08542" lon="3.1571">
        <ele>27.77</ele>
        <time>2021-04-09T14:13:14Z</time>
      </trkpt>
      <trkpt lat="51.08601" lon="3.15766">
        <ele>25</ele>
        <time>2021-04-09T14:13:23Z</time>
      </trkpt>
      <trkpt lat="51.08637" lon="3.15804">
        <ele>24</ele>
        <time>2021-04-09T14:13:31Z</time>
      </trkpt>
      <trkpt lat="51.08726" lon="3.15905">
        <ele>23.22</ele>
        <time>2021-04-09T14:13:40Z</time>
      </trkpt>
      <trkpt lat="51.08824" lon="3.16024">
        <ele>21.66</ele>
        <time>2021-04-09T14:13:49Z</time>
      </trkpt>
      <trkpt lat="51.09232" lon="3.16561">
        <ele>20.3</ele>
        <time>2021-04-09T14:13:57Z</time>
      </trkpt>
      <trkpt lat="51.09412" lon="3.16779">
        <ele>20.18</ele>
        <time>2021-04-09T14:14:06Z</time>
      </trkpt>
      <trkpt lat="51.09522" lon="3.16905">
        <ele>18.22</ele>
        <time>2021-04-09T14:14:15Z</time>
      </trkpt>
      <trkpt lat="51.09632" lon="3.17023">
        <ele>19.23</ele>
        <time>2021-04-09T14:14:24Z</time>
      </trkpt>
      <trkpt lat="51.09858" lon="3.17252">
        <ele>18.25</ele>
        <time>2021-04-09T14:14:32Z</time>
      </trkpt>
      <trkpt lat="51.10477" lon="3.17859">
        <ele>15.22</ele>
        <time>2021-04-09T14:14:41Z</time>
      </trkpt>
      <trkpt lat="51.10646" lon="3.18025">
        <ele>14.47</ele>
        <time>2021-04-09T14:14:50Z</time>
      </trkpt>
      <trkpt lat="51.10869" lon="3.18236">
        <ele>17.14</ele>
        <time>2021-04-09T14:14:58Z</time>
      </trkpt>
      <trkpt lat="51.10961" lon="3.18319">
        <ele>17.08</ele>
        <time>2021-04-09T14:15:07Z</time>
      </trkpt>
      <trkpt lat="51.11043" lon="3.18388">
        <ele>16.99</ele>
        <time>2021-04-09T14:15:16Z</time>
      </trkpt>
      <trkpt lat="51.11106" lon="3.18441">
        <ele>15.32</ele>
        <time>2021-04-09T14:15:24Z</time>
      </trkpt>
      <trkpt lat="51.11242" lon="3.18548">
        <ele>14.43</ele>
        <time>2021-04-09T14:15:33Z</time>
      </trkpt>
      <trkpt lat="51.11341" lon="3.18622">
        <ele>14.73</ele>
        <time>2021-04-09T14:15:42Z</time>
      </trkpt>
      <trkpt lat="51.11532" lon="3.18753">
        <ele>13</ele>
        <time>2021-04-09T14:15:51Z</time>
      </trkpt>
      <trkpt lat="51.11682" lon="3.18846">
        <ele>13</ele>
        <time>2021-04-09T14:15:59Z</time>
      </trkpt>
      <trkpt lat="51.11778" lon="3.18902">
        <ele>12.99</ele>
        <time>2021-04-09T14:16:08Z</time>
      </trkpt>
      <trkpt lat="51.11915" lon="3.18976">
        <ele>13</ele>
        <time>2021-04-09T14:16:17Z</time>
      </trkpt>
      <trkpt lat="51.12001" lon="3.1902">
        <ele>12.96</ele>
        <time>2021-04-09T14:16:25Z</time>
      </trkpt>
      <trkpt lat="51.12107" lon="3.19069">
        <ele>13.29</ele>
        <time>2021-04-09T14:16:34Z</time>
      </trkpt>
      <trkpt lat="51.12303" lon="3.19151">
        <ele>14.52</ele>
        <time>2021-04-09T14:16:43Z</time>
      </trkpt>
      <trkpt lat="51.12567" lon="3.19245">
        <ele>15.34</ele>
        <time>2021-04-09T14:16:51Z</time>
      </trkpt>
      <trkpt lat="51.13293" lon="3.19475">
        <ele>7.64</ele>
        <time>2021-04-09T14:17:00Z</time>
      </trkpt>
      <trkpt lat="51.13363" lon="3.19499">
        <ele>8.26</ele>
        <time>2021-04-09T14:17:09Z</time>
      </trkpt>
      <trkpt lat="51.1346" lon="3.19535">
        <ele>8.18</ele>
        <time>2021-04-09T14:17:17Z</time>
      </trkpt>
      <trkpt lat="51.13547" lon="3.19574">
        <ele>7</ele>
        <time>2021-04-09T14:17:26Z</time>
      </trkpt>
      <trkpt lat="51.13637" lon="3.1962">
        <ele>7.91</ele>
        <time>2021-04-09T14:17:35Z</time>
      </trkpt>
      <trkpt lat="51.13725" lon="3.19672">
        <ele>7.09</ele>
        <time>2021-04-09T14:17:44Z</time>
      </trkpt>
      <trkpt lat="51.13808" lon="3.19727">
        <ele>7.78</ele>
        <time>2021-04-09T14:17:52Z</time>
      </trkpt>
      <trkpt lat="51.13885" lon="3.19783">
        <ele>7.97</ele>
        <time>2021-04-09T14:18:01Z</time>
      </trkpt>
      <trkpt lat="51.14029" lon="3.19901">
        <ele>5.07</ele>
        <time>2021-04-09T14:18:10Z</time>
      </trkpt>
      <trkpt lat="51.14907" lon="3.20689">
        <ele>1.19</ele>
        <time>2021-04-09T14:18:18Z</time>
      </trkpt>
      <trkpt lat="51.15334" lon="3.21078">
        <ele>3.99</ele>
        <time>2021-04-09T14:18:27Z</time>
      </trkpt>
      <trkpt lat="51.15507" lon="3.21215">
        <ele>9</ele>
        <time>2021-04-09T14:18:36Z</time>
      </trkpt>
      <trkpt lat="51.15634" lon="3.21295">
        <ele>5.19</ele>
        <time>2021-04-09T14:18:44Z</time>
      </trkpt>
      <trkpt lat="51.15681" lon="3.21319">
        <ele>5.76</ele>
        <time>2021-04-09T14:18:53Z</time>
      </trkpt>
      <trkpt lat="51.15768" lon="3.21356">
        <ele>7.33</ele>
        <time>2021-04-09T14:19:02Z</time>
      </trkpt>
      <trkpt lat="51.1582" lon="3.21373">
        <ele>7.27</ele>
        <time>2021-04-09T14:19:10Z</time>
      </trkpt>
      <trkpt lat="51.15879" lon="3.21387">
        <ele>7.34</ele>
        <time>2021-04-09T14:19:19Z</time>
      </trkpt>
      <trkpt lat="51.1596" lon="3.214">
        <ele>6.62</ele>
        <time>2021-04-09T14:19:28Z</time>
      </trkpt>
      <trkpt lat="51.16051" lon="3.21401">
        <ele>5.55</ele>
        <time>2021-04-09T14:19:37Z</time>
      </trkpt>
      <trkpt lat="51.16131" lon="3.21394">
        <ele>4</ele>
        <time>2021-04-09T14:19:45Z</time>
      </trkpt>
      <trkpt lat="51.16178" lon="3.21387">
        <ele>3.93</ele>
        <time>2021-04-09T14:19:54Z</time>
      </trkpt>
      <trkpt lat="51.16281" lon="3.21358">
        <ele>5.3</ele>
        <time>2021-04-09T14:20:03Z</time>
      </trkpt>
      <trkpt lat="51.16345" lon="3.21332">
        <ele>6.55</ele>
        <time>2021-04-09T14:20:11Z</time>
      </trkpt>
      <trkpt lat="51.16399" lon="3.21306">
        <ele>5.74</ele>
        <time>2021-04-09T14:20:20Z</time>
      </trkpt>
      <trkpt lat="51.16449" lon="3.21279">
        <ele>7.17</ele>
        <time>2021-04-09T14:20:29Z</time>
      </trkpt>
      <trkpt lat="51.16557" lon="3.21207">
        <ele>7.44</ele>
        <time>2021-04-09T14:20:37Z</time>
      </trkpt>
      <trkpt lat="51.16688" lon="3.21105">
        <ele>6</ele>
        <time>2021-04-09T14:20:46Z</time>
      </trkpt>
      <trkpt lat="51.16947" lon="3.2088">
        <ele>4.94</ele>
        <time>2021-04-09T14:20:55Z</time>
      </trkpt>
      <trkpt lat="51.17111" lon="3.20736">
        <ele>3.02</ele>
        <time>2021-04-09T14:21:03Z</time>
      </trkpt>
      <trkpt lat="51.17155" lon="3.207">
        <ele>5.67</ele>
        <time>2021-04-09T14:21:12Z</time>
      </trkpt>
      <trkpt lat="51.17208" lon="3.2065">
        <ele>4.47</ele>
        <time>2021-04-09T14:21:21Z</time>
      </trkpt>
      <trkpt lat="51.17406" lon="3.20476">
        <ele>9.55</ele>
        <time>2021-04-09T14:21:30Z</time>
      </trkpt>
      <trkpt lat="51.17446" lon="3.20453">
        <ele>6.66</ele>
        <time>2021-04-09T14:21:34Z</time>
      </trkpt>
      <trkpt lat="51.17473" lon="3.20433">
        <ele>6.84</ele>
        <time>2021-04-09T14:21:39Z</time>
      </trkpt>
      <trkpt lat="51.17559" lon="3.20357">
        <ele>2</ele>
        <time>2021-04-09T14:21:44Z</time>
      </trkpt>
      <trkpt lat="51.17622" lon="3.20323">
        <ele>3.79</ele>
        <time>2021-04-09T14:21:49Z</time>
      </trkpt>
      <trkpt lat="51.17644" lon="3.203">
        <ele>4.14</ele>
        <time>2021-04-09T14:21:53Z</time>
      </trkpt>
      <trkpt lat="51.17657" lon="3.20295">
        <ele>4.95</ele>
        <time>2021-04-09T14:21:58Z</time>
      </trkpt>
      <trkpt lat="51.17667" lon="3.20301">
        <ele>5.83</ele>
        <time>2021-04-09T14:22:02Z</time>
      </trkpt>
      <trkpt lat="51.17678" lon="3.20303">
        <ele>5.9</ele>
        <time>2021-04-09T14:22:07Z</time>
      </trkpt>
      <trkpt lat="51.17688" lon="3.20301">
        <ele>5.84</ele>
        <time>2021-04-09T14:22:11Z</time>
      </trkpt>
      <trkpt lat="51.17698" lon="3.20296">
        <ele>5.65</ele>
        <time>2021-04-09T14:22:15Z</time>
      </trkpt>
      <trkpt lat="51.17707" lon="3.20287">
        <ele>5.34</ele>
        <time>2021-04-09T14:22:20Z</time>
      </trkpt>
      <trkpt lat="51.17736" lon="3.20285">
        <ele>5.13</ele>
        <time>2021-04-09T14:22:24Z</time>
      </trkpt>
      <trkpt lat="51.17772" lon="3.20297">
        <ele>6.05</ele>
        <time>2021-04-09T14:22:28Z</time>
      </trkpt>
      <trkpt lat="51.18154" lon="3.20547">
        <ele>6.69</ele>
        <time>2021-04-09T14:22:33Z</time>
      </trkpt>
      <trkpt lat="51.18155" lon="3.20558">
        <ele>6.58</ele>
        <time>2021-04-09T14:22:45Z</time>
      </trkpt>
      <trkpt lat="51.18161" lon="3.20569">
        <ele>6.8</ele>
        <time>2021-04-09T14:22:58Z</time>
      </trkpt>
      <trkpt lat="51.1817" lon="3.20572">
        <ele>7.22</ele>
        <time>2021-04-09T14:23:10Z</time>
      </trkpt>
      <trkpt lat="51.18176" lon="3.2057">
        <ele>7.66</ele>
        <time>2021-04-09T14:23:22Z</time>
      </trkpt>
      <trkpt lat="51.1818" lon="3.20566">
        <ele>7.95</ele>
        <time>2021-04-09T14:23:35Z</time>
      </trkpt>
      <trkpt lat="51.18223" lon="3.20585">
        <ele>10.89</ele>
        <time>2021-04-09T14:23:47Z</time>
      </trkpt>
      <trkpt lat="51.18805" lon="3.20968">
        <ele>7</ele>
        <time>2021-04-09T14:24:00Z</time>
      </trkpt>
      <trkpt lat="51.18844" lon="3.21">
        <ele>6.64</ele>
        <time>2021-04-09T14:24:12Z</time>
      </trkpt>
      <trkpt lat="51.18847" lon="3.21013">
        <ele>6.75</ele>
        <time>2021-04-09T14:24:20Z</time>
      </trkpt>
      <trkpt lat="51.18854" lon="3.21021">
        <ele>6.83</ele>
        <time>2021-04-09T14:24:27Z</time>
      </trkpt>
      <trkpt lat="51.18859" lon="3.21022">
        <ele>6.82</ele>
        <time>2021-04-09T14:24:35Z</time>
      </trkpt>
      <trkpt lat="51.18864" lon="3.2102">
        <ele>6.64</ele>
        <time>2021-04-09T14:24:42Z</time>
      </trkpt>
      <trkpt lat="51.18869" lon="3.21015">
        <ele>6.37</ele>
        <time>2021-04-09T14:24:50Z</time>
      </trkpt>
      <trkpt lat="51.18901" lon="3.2103">
        <ele>6.41</ele>
        <time>2021-04-09T14:24:57Z</time>
      </trkpt>
      <trkpt lat="51.19353" lon="3.21328">
        <ele>5.77</ele>
        <time>2021-04-09T14:25:05Z</time>
      </trkpt>
      <trkpt lat="51.19399" lon="3.21365">
        <ele>6.4</ele>
        <time>2021-04-09T14:25:13Z</time>
      </trkpt>
      <trkpt lat="51.19457" lon="3.21392">
        <ele>9</ele>
        <time>2021-04-09T14:25:20Z</time>
      </trkpt>
      <trkpt lat="51.19491" lon="3.21421">
        <ele>8.42</ele>
        <time>2021-04-09T14:25:28Z</time>
      </trkpt>
      <trkpt lat="51.19495" lon="3.21429">
        <ele>8.56</ele>
        <time>2021-04-09T14:25:35Z</time>
      </trkpt>
      <trkpt lat="51.19515" lon="3.2145">
        <ele>7.89</ele>
        <time>2021-04-09T14:25:43Z</time>
      </trkpt>
      <trkpt lat="51.19523" lon="3.21461">
        <ele>7.38</ele>
        <time>2021-04-09T14:25:51Z</time>
      </trkpt>
      <trkpt lat="51.19523" lon="3.21475">
        <ele>7.01</ele>
        <time>2021-04-09T14:25:52Z</time>
      </trkpt>
      <trkpt lat="51.19526" lon="3.2149">
        <ele>6.53</ele>
        <time>2021-04-09T14:25:53Z</time>
      </trkpt>
      <trkpt lat="51.19534" lon="3.215">
        <ele>6.11</ele>
        <time>2021-04-09T14:25:55Z</time>
      </trkpt>
      <trkpt lat="51.19543" lon="3.21505">
        <ele>5.87</ele>
        <time>2021-04-09T14:25:56Z</time>
      </trkpt>
      <trkpt lat="51.19554" lon="3.21501">
        <ele>5.16</ele>
        <time>2021-04-09T14:25:57Z</time>
      </trkpt>
      <trkpt lat="51.19562" lon="3.2149">
        <ele>4.3</ele>
        <time>2021-04-09T14:25:59Z</time>
      </trkpt>
      <trkpt lat="51.19565" lon="3.21482">
        <ele>3.77</ele>
        <time>2021-04-09T14:26:00Z</time>
      </trkpt>
      <trkpt lat="51.19566" lon="3.21465">
        <ele>4.45</ele>
        <time>2021-04-09T14:26:01Z</time>
      </trkpt>
      <trkpt lat="51.19569" lon="3.21458">
        <ele>4.24</ele>
        <time>2021-04-09T14:26:03Z</time>
      </trkpt>
      <trkpt lat="51.19588" lon="3.2144">
        <ele>3.49</ele>
        <time>2021-04-09T14:26:04Z</time>
      </trkpt>
      <trkpt lat="51.19594" lon="3.21429">
        <ele>3.09</ele>
        <time>2021-04-09T14:26:05Z</time>
      </trkpt>
      <trkpt lat="51.19608" lon="3.21425">
        <ele>1.96</ele>
        <time>2021-04-09T14:26:12Z</time>
      </trkpt>
      <trkpt lat="51.19819" lon="3.21467">
        <ele>6.49</ele>
        <time>2021-04-09T14:26:19Z</time>
      </trkpt>
      <trkpt lat="51.19839" lon="3.21472">
        <ele>7.2</ele>
        <time>2021-04-09T14:26:25Z</time>
      </trkpt>
      <trkpt lat="51.19953" lon="3.21517">
        <ele>7.81</ele>
        <time>2021-04-09T14:26:32Z</time>
      </trkpt>
      <trkpt lat="51.19963" lon="3.21523">
        <ele>7.44</ele>
        <time>2021-04-09T14:26:39Z</time>
      </trkpt>
      <trkpt lat="51.1998" lon="3.21544">
        <ele>6.33</ele>
        <time>2021-04-09T14:26:45Z</time>
      </trkpt>
      <trkpt lat="51.1999" lon="3.21566">
        <ele>6.24</ele>
        <time>2021-04-09T14:26:52Z</time>
      </trkpt>
      <trkpt lat="51.19998" lon="3.21598">
        <ele>6.4</ele>
        <time>2021-04-09T14:26:58Z</time>
      </trkpt>
      <trkpt lat="51.20011" lon="3.21659">
        <ele>6.56</ele>
        <time>2021-04-09T14:27:05Z</time>
      </trkpt>
      <trkpt lat="51.20013" lon="3.21704">
        <ele>6.52</ele>
        <time>2021-04-09T14:27:12Z</time>
      </trkpt>
      <trkpt lat="51.20008" lon="3.21744">
        <ele>6.3</ele>
        <time>2021-04-09T14:27:18Z</time>
      </trkpt>
      <trkpt lat="51.20004" lon="3.21765">
        <ele>6.15</ele>
        <time>2021-04-09T14:27:25Z</time>
      </trkpt>
      <trkpt lat="51.19994" lon="3.21799">
        <ele>5.77</ele>
        <time>2021-04-09T14:27:32Z</time>
      </trkpt>
      <trkpt lat="51.19974" lon="3.21827">
        <ele>5.05</ele>
        <time>2021-04-09T14:27:38Z</time>
      </trkpt>
      <trkpt lat="51.19922" lon="3.21882">
        <ele>3.37</ele>
        <time>2021-04-09T14:27:45Z</time>
      </trkpt>
      <trkpt lat="51.19898" lon="3.21905">
        <ele>3.38</ele>
        <time>2021-04-09T14:27:52Z</time>
      </trkpt>
      <trkpt lat="51.19832" lon="3.21959">
        <ele>4.49</ele>
        <time>2021-04-09T14:27:58Z</time>
      </trkpt>
      <trkpt lat="51.19794" lon="3.22">
        <ele>4</ele>
        <time>2021-04-09T14:28:05Z</time>
      </trkpt>
      <trkpt lat="51.19781" lon="3.22018">
        <ele>4</ele>
        <time>2021-04-09T14:28:12Z</time>
      </trkpt>
      <trkpt lat="51.19751" lon="3.22069">
        <ele>2.54</ele>
        <time>2021-04-09T14:28:18Z</time>
      </trkpt>
      <trkpt lat="51.19739" lon="3.22097">
        <ele>1.52</ele>
        <time>2021-04-09T14:28:25Z</time>
      </trkpt>
      <trkpt lat="51.1972" lon="3.22149">
        <ele>1.49</ele>
        <time>2021-04-09T14:28:31Z</time>
      </trkpt>
      <trkpt lat="51.1971" lon="3.22183">
        <ele>2</ele>
        <time>2021-04-09T14:28:38Z</time>
      </trkpt>
      <trkpt lat="51.19698" lon="3.22236">
        <ele>1</ele>
        <time>2021-04-09T14:28:45Z</time>
      </trkpt>
      <trkpt lat="51.19684" lon="3.22344">
        <ele>2.98</ele>
        <time>2021-04-09T14:28:51Z</time>
      </trkpt>
      <trkpt lat="51.19682" lon="3.22395">
        <ele>6.13</ele>
        <time>2021-04-09T14:28:58Z</time>
      </trkpt>
      <trkpt lat="51.19684" lon="3.22489">
        <ele>7.03</ele>
        <time>2021-04-09T14:29:05Z</time>
      </trkpt>
      <trkpt lat="51.19695" lon="3.22579">
        <ele>8</ele>
        <time>2021-04-09T14:29:11Z</time>
      </trkpt>
      <trkpt lat="51.19713" lon="3.22671">
        <ele>6.95</ele>
        <time>2021-04-09T14:29:18Z</time>
      </trkpt>
      <trkpt lat="51.19734" lon="3.22749">
        <ele>6</ele>
        <time>2021-04-09T14:29:25Z</time>
      </trkpt>
      <trkpt lat="51.19766" lon="3.22839">
        <ele>4.88</ele>
        <time>2021-04-09T14:29:31Z</time>
      </trkpt>
      <trkpt lat="51.19797" lon="3.229">
        <ele>4.08</ele>
        <time>2021-04-09T14:29:38Z</time>
      </trkpt>
      <trkpt lat="51.19848" lon="3.22986">
        <ele>2.24</ele>
        <time>2021-04-09T14:29:45Z</time>
      </trkpt>
      <trkpt lat="51.19862" lon="3.23007">
        <ele>2.09</ele>
        <time>2021-04-09T14:29:51Z</time>
      </trkpt>
      <trkpt lat="51.19906" lon="3.23062">
        <ele>2.39</ele>
        <time>2021-04-09T14:29:58Z</time>
      </trkpt>
      <trkpt lat="51.19961" lon="3.23122">
        <ele>4.17</ele>
        <time>2021-04-09T14:30:05Z</time>
      </trkpt>
      <trkpt lat="51.19979" lon="3.23144">
        <ele>5.2</ele>
        <time>2021-04-09T14:30:11Z</time>
      </trkpt>
      <trkpt lat="51.20097" lon="3.2333">
        <ele>5.08</ele>
        <time>2021-04-09T14:30:18Z</time>
      </trkpt>
      <trkpt lat="51.20177" lon="3.23434">
        <ele>4.11</ele>
        <time>2021-04-09T14:30:25Z</time>
      </trkpt>
      <trkpt lat="51.20221" lon="3.23499">
        <ele>5.01</ele>
        <time>2021-04-09T14:30:31Z</time>
      </trkpt>
      <trkpt lat="51.20291" lon="3.23587">
        <ele>5.13</ele>
        <time>2021-04-09T14:30:38Z</time>
      </trkpt>
      <trkpt lat="51.2032" lon="3.23616">
        <ele>5.83</ele>
        <time>2021-04-09T14:30:45Z</time>
      </trkpt>
      <trkpt lat="51.20339" lon="3.23631">
        <ele>5.28</ele>
        <time>2021-04-09T14:30:51Z</time>
      </trkpt>
      <trkpt lat="51.20634" lon="3.23941">
        <ele>3.01</ele>
        <time>2021-04-09T14:30:58Z</time>
      </trkpt>
      <trkpt lat="51.20715" lon="3.24019">
        <ele>6.57</ele>
        <time>2021-04-09T14:31:05Z</time>
      </trkpt>
      <trkpt lat="51.20769" lon="3.24068">
        <ele>4.43</ele>
        <time>2021-04-09T14:31:11Z</time>
      </trkpt>
      <trkpt lat="51.208" lon="3.24091">
        <ele>5.06</ele>
        <time>2021-04-09T14:31:18Z</time>
      </trkpt>
      <trkpt lat="51.20845" lon="3.24117">
        <ele>3.56</ele>
        <time>2021-04-09T14:31:24Z</time>
      </trkpt>
      <trkpt lat="51.20872" lon="3.24129">
        <ele>3</ele>
        <time>2021-04-09T14:31:31Z</time>
      </trkpt>
      <trkpt lat="51.20897" lon="3.24136">
        <ele>2.72</ele>
        <time>2021-04-09T14:31:38Z</time>
      </trkpt>
      <trkpt lat="51.20935" lon="3.24142">
        <ele>3.4</ele>
        <time>2021-04-09T14:31:44Z</time>
      </trkpt>
      <trkpt lat="51.20995" lon="3.24145">
        <ele>6.6</ele>
        <time>2021-04-09T14:31:51Z</time>
      </trkpt>
      <trkpt lat="51.2107" lon="3.24142">
        <ele>6.88</ele>
        <time>2021-04-09T14:31:58Z</time>
      </trkpt>
      <trkpt lat="51.21126" lon="3.24144">
        <ele>6.28</ele>
        <time>2021-04-09T14:32:04Z</time>
      </trkpt>
      <trkpt lat="51.21175" lon="3.24134">
        <ele>3.94</ele>
        <time>2021-04-09T14:32:11Z</time>
      </trkpt>
      <trkpt lat="51.21248" lon="3.24107">
        <ele>3.22</ele>
        <time>2021-04-09T14:32:18Z</time>
      </trkpt>
      <trkpt lat="51.21292" lon="3.24083">
        <ele>4</ele>
        <time>2021-04-09T14:32:24Z</time>
      </trkpt>
      <trkpt lat="51.21339" lon="3.24044">
        <ele>3.91</ele>
        <time>2021-04-09T14:32:31Z</time>
      </trkpt>
      <trkpt lat="51.21492" lon="3.23956">
        <ele>3.17</ele>
        <time>2021-04-09T14:32:38Z</time>
      </trkpt>
      <trkpt lat="51.21552" lon="3.23917">
        <ele>3.99</ele>
        <time>2021-04-09T14:32:44Z</time>
      </trkpt>
      <trkpt lat="51.21619" lon="3.23869">
        <ele>7.22</ele>
        <time>2021-04-09T14:32:51Z</time>
      </trkpt>
      <trkpt lat="51.21685" lon="3.23818">
        <ele>4.61</ele>
        <time>2021-04-09T14:32:58Z</time>
      </trkpt>
      <trkpt lat="51.21935" lon="3.23607">
        <ele>5.36</ele>
        <time>2021-04-09T14:33:04Z</time>
      </trkpt>
      <trkpt lat="51.22071" lon="3.23488">
        <ele>6.08</ele>
        <time>2021-04-09T14:33:11Z</time>
      </trkpt>
      <trkpt lat="51.22094" lon="3.23477">
        <ele>5.31</ele>
        <time>2021-04-09T14:33:18Z</time>
      </trkpt>
      <trkpt lat="51.22151" lon="3.23465">
        <ele>2.41</ele>
        <time>2021-04-09T14:33:24Z</time>
      </trkpt>
      <trkpt lat="51.22164" lon="3.23458">
        <ele>2.05</ele>
        <time>2021-04-09T14:33:31Z</time>
      </trkpt>
      <trkpt lat="51.22187" lon="3.23438">
        <ele>1.75</ele>
        <time>2021-04-09T14:33:38Z</time>
      </trkpt>
      <trkpt lat="51.22197" lon="3.23462">
        <ele>2.07</ele>
        <time>2021-04-09T14:33:45Z</time>
      </trkpt>
      <trkpt lat="51.22216" lon="3.23501">
        <ele>2.77</ele>
        <time>2021-04-09T14:33:53Z</time>
      </trkpt>
      <trkpt lat="51.22299" lon="3.23658">
        <ele>2.88</ele>
        <time>2021-04-09T14:34:01Z</time>
      </trkpt>
    </trkseg>
  </trk>
</gpx>